<?xml version="1.0" encoding="UTF-8" standalone="no" ?>
<gpx xmlns="http://www.topografix.com/GPX/1/1" xmlns:xsi="http://www.w3.org/2001/XMLSchema-instance" xsi:schemaLocation="http://www.topografix.com/GPX/1/1 http://www.topografix.com/GPX/1/1/gpx.xsd" version="1.1" creator="VisuGPX - https://www.visugpx.com">
  <metadata>
    <name>MB. Sortie du 10/01/2019</name>
    <desc><![CDATA[Sortie VTT du jeudi 10 janvier 2019]]></desc>
  </metadata>
  <trk>
    <name><![CDATA[Pornichet Cyclisme]]></name>
    <trkseg>
      <trkpt lat="47.26409" lon="-2.31527">
        <ele>0.80000001192093</ele>
        <time>2019-01-10T08:34:24.000Z</time>
      </trkpt>
      <trkpt lat="47.26407" lon="-2.31514">
        <ele>0.80000001192093</ele>
        <time>2019-01-10T08:34:26.000Z</time>
      </trkpt>
      <trkpt lat="47.26405" lon="-2.31502">
        <ele>0.80000001192093</ele>
        <time>2019-01-10T08:34:28.000Z</time>
      </trkpt>
      <trkpt lat="47.26404" lon="-2.31495">
        <ele>0.60000002384186</ele>
        <time>2019-01-10T08:34:29.000Z</time>
      </trkpt>
      <trkpt lat="47.2639" lon="-2.31452">
        <ele>0.60000002384186</ele>
        <time>2019-01-10T08:34:36.000Z</time>
      </trkpt>
      <trkpt lat="47.26373" lon="-2.31412">
        <ele>0.60000002384186</ele>
        <time>2019-01-10T08:34:43.000Z</time>
      </trkpt>
      <trkpt lat="47.2636" lon="-2.3138">
        <ele>0.60000002384186</ele>
        <time>2019-01-10T08:34:48.000Z</time>
      </trkpt>
      <trkpt lat="47.26356" lon="-2.31374">
        <ele>0.60000002384186</ele>
        <time>2019-01-10T08:34:49.000Z</time>
      </trkpt>
      <trkpt lat="47.2634" lon="-2.31373">
        <ele>0.60000002384186</ele>
        <time>2019-01-10T08:34:52.000Z</time>
      </trkpt>
      <trkpt lat="47.26328" lon="-2.31382">
        <ele>0.60000002384186</ele>
        <time>2019-01-10T08:34:54.000Z</time>
      </trkpt>
      <trkpt lat="47.26308" lon="-2.31395">
        <ele>0.60000002384186</ele>
        <time>2019-01-10T08:34:57.000Z</time>
      </trkpt>
      <trkpt lat="47.26301" lon="-2.31399">
        <ele>0.20000000298023</ele>
        <time>2019-01-10T08:34:58.000Z</time>
      </trkpt>
      <trkpt lat="47.26294" lon="-2.31404">
        <ele>-0.20000000298023</ele>
        <time>2019-01-10T08:34:59.000Z</time>
      </trkpt>
      <trkpt lat="47.26288" lon="-2.3141">
        <ele>-0.60000002384186</ele>
        <time>2019-01-10T08:35:00.000Z</time>
      </trkpt>
      <trkpt lat="47.26282" lon="-2.31417">
        <ele>-1</ele>
        <time>2019-01-10T08:35:01.000Z</time>
      </trkpt>
      <trkpt lat="47.26275" lon="-2.31424">
        <ele>-1.3999999761581</ele>
        <time>2019-01-10T08:35:02.000Z</time>
      </trkpt>
      <trkpt lat="47.2627" lon="-2.31432">
        <ele>-1.3999999761581</ele>
        <time>2019-01-10T08:35:03.000Z</time>
      </trkpt>
      <trkpt lat="47.26261" lon="-2.31446">
        <ele>-1.3999999761581</ele>
        <time>2019-01-10T08:35:05.000Z</time>
      </trkpt>
      <trkpt lat="47.26237" lon="-2.31476">
        <ele>-1.3999999761581</ele>
        <time>2019-01-10T08:35:10.000Z</time>
      </trkpt>
      <trkpt lat="47.26225" lon="-2.31484">
        <ele>-1.3999999761581</ele>
        <time>2019-01-10T08:35:12.000Z</time>
      </trkpt>
      <trkpt lat="47.26213" lon="-2.31488">
        <ele>-1.3999999761581</ele>
        <time>2019-01-10T08:35:14.000Z</time>
      </trkpt>
      <trkpt lat="47.26207" lon="-2.3149">
        <ele>-1.3999999761581</ele>
        <time>2019-01-10T08:35:15.000Z</time>
      </trkpt>
      <trkpt lat="47.26165" lon="-2.31504">
        <ele>-1.3999999761581</ele>
        <time>2019-01-10T08:35:22.000Z</time>
      </trkpt>
      <trkpt lat="47.26143" lon="-2.31517">
        <ele>-1.3999999761581</ele>
        <time>2019-01-10T08:35:26.000Z</time>
      </trkpt>
      <trkpt lat="47.26132" lon="-2.31526">
        <ele>-1.3999999761581</ele>
        <time>2019-01-10T08:35:28.000Z</time>
      </trkpt>
      <trkpt lat="47.261" lon="-2.31564">
        <ele>-1.3999999761581</ele>
        <time>2019-01-10T08:35:34.000Z</time>
      </trkpt>
      <trkpt lat="47.26083" lon="-2.31585">
        <ele>-2</ele>
        <time>2019-01-10T08:35:37.000Z</time>
      </trkpt>
      <trkpt lat="47.26078" lon="-2.31593">
        <ele>-2.4000000953674</ele>
        <time>2019-01-10T08:35:38.000Z</time>
      </trkpt>
      <trkpt lat="47.26073" lon="-2.316">
        <ele>-2.7999999523163</ele>
        <time>2019-01-10T08:35:39.000Z</time>
      </trkpt>
      <trkpt lat="47.26067" lon="-2.31607">
        <ele>-3.2000000476837</ele>
        <time>2019-01-10T08:35:40.000Z</time>
      </trkpt>
      <trkpt lat="47.26062" lon="-2.31613">
        <ele>-3.5999999046326</ele>
        <time>2019-01-10T08:35:41.000Z</time>
      </trkpt>
      <trkpt lat="47.26029" lon="-2.31653">
        <ele>-3.5999999046326</ele>
        <time>2019-01-10T08:35:48.000Z</time>
      </trkpt>
      <trkpt lat="47.26024" lon="-2.31657">
        <ele>-3.5999999046326</ele>
        <time>2019-01-10T08:35:49.000Z</time>
      </trkpt>
      <trkpt lat="47.26013" lon="-2.31663">
        <ele>-3.5999999046326</ele>
        <time>2019-01-10T08:35:51.000Z</time>
      </trkpt>
      <trkpt lat="47.26009" lon="-2.31663">
        <ele>-3.5999999046326</ele>
        <time>2019-01-10T08:35:52.000Z</time>
      </trkpt>
      <trkpt lat="47.25997" lon="-2.31651">
        <ele>-3.5999999046326</ele>
        <time>2019-01-10T08:35:55.000Z</time>
      </trkpt>
      <trkpt lat="47.25993" lon="-2.31646">
        <ele>-3.5999999046326</ele>
        <time>2019-01-10T08:35:56.000Z</time>
      </trkpt>
      <trkpt lat="47.25986" lon="-2.31635">
        <ele>-3.5999999046326</ele>
        <time>2019-01-10T08:35:58.000Z</time>
      </trkpt>
      <trkpt lat="47.25971" lon="-2.31614">
        <ele>-3.2000000476837</ele>
        <time>2019-01-10T08:36:02.000Z</time>
      </trkpt>
      <trkpt lat="47.25967" lon="-2.31608">
        <ele>-2.7999999523163</ele>
        <time>2019-01-10T08:36:03.000Z</time>
      </trkpt>
      <trkpt lat="47.25963" lon="-2.31602">
        <ele>-2.4000000953674</ele>
        <time>2019-01-10T08:36:04.000Z</time>
      </trkpt>
      <trkpt lat="47.25959" lon="-2.31597">
        <ele>-1.7999999523163</ele>
        <time>2019-01-10T08:36:05.000Z</time>
      </trkpt>
      <trkpt lat="47.25956" lon="-2.31592">
        <ele>-1.3999999761581</ele>
        <time>2019-01-10T08:36:06.000Z</time>
      </trkpt>
      <trkpt lat="47.25946" lon="-2.31573">
        <ele>-1.3999999761581</ele>
        <time>2019-01-10T08:36:09.000Z</time>
      </trkpt>
      <trkpt lat="47.2593" lon="-2.31538">
        <ele>-1.3999999761581</ele>
        <time>2019-01-10T08:36:14.000Z</time>
      </trkpt>
      <trkpt lat="47.2591" lon="-2.31522">
        <ele>-1.3999999761581</ele>
        <time>2019-01-10T08:36:18.000Z</time>
      </trkpt>
      <trkpt lat="47.25901" lon="-2.31528">
        <ele>-1.3999999761581</ele>
        <time>2019-01-10T08:36:20.000Z</time>
      </trkpt>
      <trkpt lat="47.25892" lon="-2.31546">
        <ele>-1.3999999761581</ele>
        <time>2019-01-10T08:36:23.000Z</time>
      </trkpt>
      <trkpt lat="47.25889" lon="-2.31553">
        <ele>-1.3999999761581</ele>
        <time>2019-01-10T08:36:24.000Z</time>
      </trkpt>
      <trkpt lat="47.25887" lon="-2.3156">
        <ele>-1.3999999761581</ele>
        <time>2019-01-10T08:36:25.000Z</time>
      </trkpt>
      <trkpt lat="47.2588" lon="-2.31573">
        <ele>-1.3999999761581</ele>
        <time>2019-01-10T08:36:27.000Z</time>
      </trkpt>
      <trkpt lat="47.25872" lon="-2.31583">
        <ele>-1.3999999761581</ele>
        <time>2019-01-10T08:36:29.000Z</time>
      </trkpt>
      <trkpt lat="47.25864" lon="-2.31591">
        <ele>-1.3999999761581</ele>
        <time>2019-01-10T08:36:31.000Z</time>
      </trkpt>
      <trkpt lat="47.2586" lon="-2.31595">
        <ele>-1</ele>
        <time>2019-01-10T08:36:32.000Z</time>
      </trkpt>
      <trkpt lat="47.25856" lon="-2.31599">
        <ele>-0.60000002384186</ele>
        <time>2019-01-10T08:36:33.000Z</time>
      </trkpt>
      <trkpt lat="47.25852" lon="-2.31602">
        <ele>-0.20000000298023</ele>
        <time>2019-01-10T08:36:34.000Z</time>
      </trkpt>
      <trkpt lat="47.25848" lon="-2.31606">
        <ele>0.20000000298023</ele>
        <time>2019-01-10T08:36:35.000Z</time>
      </trkpt>
      <trkpt lat="47.25843" lon="-2.31609">
        <ele>0.80000001192093</ele>
        <time>2019-01-10T08:36:36.000Z</time>
      </trkpt>
      <trkpt lat="47.25816" lon="-2.31633">
        <ele>1.2000000476837</ele>
        <time>2019-01-10T08:36:43.000Z</time>
      </trkpt>
      <trkpt lat="47.25811" lon="-2.31636">
        <ele>2</ele>
        <time>2019-01-10T08:36:44.000Z</time>
      </trkpt>
      <trkpt lat="47.25807" lon="-2.31639">
        <ele>2.4000000953674</ele>
        <time>2019-01-10T08:36:45.000Z</time>
      </trkpt>
      <trkpt lat="47.25803" lon="-2.31643">
        <ele>2.7999999523163</ele>
        <time>2019-01-10T08:36:46.000Z</time>
      </trkpt>
      <trkpt lat="47.25778" lon="-2.31663">
        <ele>2.7999999523163</ele>
        <time>2019-01-10T08:36:51.000Z</time>
      </trkpt>
      <trkpt lat="47.25736" lon="-2.31697">
        <ele>2.4000000953674</ele>
        <time>2019-01-10T08:36:59.000Z</time>
      </trkpt>
      <trkpt lat="47.25731" lon="-2.31699">
        <ele>2</ele>
        <time>2019-01-10T08:37:00.000Z</time>
      </trkpt>
      <trkpt lat="47.25726" lon="-2.31701">
        <ele>1.6000000238419</ele>
        <time>2019-01-10T08:37:01.000Z</time>
      </trkpt>
      <trkpt lat="47.25721" lon="-2.317">
        <ele>1.2000000476837</ele>
        <time>2019-01-10T08:37:02.000Z</time>
      </trkpt>
      <trkpt lat="47.25716" lon="-2.31697">
        <ele>0.80000001192093</ele>
        <time>2019-01-10T08:37:03.000Z</time>
      </trkpt>
      <trkpt lat="47.25711" lon="-2.31695">
        <ele>0.80000001192093</ele>
        <time>2019-01-10T08:37:04.000Z</time>
      </trkpt>
      <trkpt lat="47.25706" lon="-2.31691">
        <ele>0.80000001192093</ele>
        <time>2019-01-10T08:37:05.000Z</time>
      </trkpt>
      <trkpt lat="47.25696" lon="-2.31686">
        <ele>0.80000001192093</ele>
        <time>2019-01-10T08:37:07.000Z</time>
      </trkpt>
      <trkpt lat="47.25692" lon="-2.31684">
        <ele>0.80000001192093</ele>
        <time>2019-01-10T08:37:08.000Z</time>
      </trkpt>
      <trkpt lat="47.25681" lon="-2.31681">
        <ele>0.80000001192093</ele>
        <time>2019-01-10T08:37:10.000Z</time>
      </trkpt>
      <trkpt lat="47.25668" lon="-2.31684">
        <ele>0.80000001192093</ele>
        <time>2019-01-10T08:37:13.000Z</time>
      </trkpt>
      <trkpt lat="47.2566" lon="-2.3169">
        <ele>0.80000001192093</ele>
        <time>2019-01-10T08:37:15.000Z</time>
      </trkpt>
      <trkpt lat="47.25656" lon="-2.31694">
        <ele>1.2000000476837</ele>
        <time>2019-01-10T08:37:16.000Z</time>
      </trkpt>
      <trkpt lat="47.25652" lon="-2.31698">
        <ele>1.6000000238419</ele>
        <time>2019-01-10T08:37:17.000Z</time>
      </trkpt>
      <trkpt lat="47.25649" lon="-2.31702">
        <ele>2</ele>
        <time>2019-01-10T08:37:18.000Z</time>
      </trkpt>
      <trkpt lat="47.25645" lon="-2.31706">
        <ele>2.4000000953674</ele>
        <time>2019-01-10T08:37:19.000Z</time>
      </trkpt>
      <trkpt lat="47.25642" lon="-2.31709">
        <ele>2.7999999523163</ele>
        <time>2019-01-10T08:37:20.000Z</time>
      </trkpt>
      <trkpt lat="47.25632" lon="-2.3172">
        <ele>2.7999999523163</ele>
        <time>2019-01-10T08:37:23.000Z</time>
      </trkpt>
      <trkpt lat="47.25629" lon="-2.3173">
        <ele>3.2000000476837</ele>
        <time>2019-01-10T08:37:25.000Z</time>
      </trkpt>
      <trkpt lat="47.25627" lon="-2.31737">
        <ele>3.5999999046326</ele>
        <time>2019-01-10T08:37:26.000Z</time>
      </trkpt>
      <trkpt lat="47.25625" lon="-2.31743">
        <ele>4</ele>
        <time>2019-01-10T08:37:27.000Z</time>
      </trkpt>
      <trkpt lat="47.25623" lon="-2.31748">
        <ele>4.4000000953674</ele>
        <time>2019-01-10T08:37:28.000Z</time>
      </trkpt>
      <trkpt lat="47.2562" lon="-2.31754">
        <ele>4.8000001907349</ele>
        <time>2019-01-10T08:37:29.000Z</time>
      </trkpt>
      <trkpt lat="47.25613" lon="-2.31762">
        <ele>4.8000001907349</ele>
        <time>2019-01-10T08:37:31.000Z</time>
      </trkpt>
      <trkpt lat="47.25593" lon="-2.31768">
        <ele>4.8000001907349</ele>
        <time>2019-01-10T08:37:35.000Z</time>
      </trkpt>
      <trkpt lat="47.25587" lon="-2.31769">
        <ele>4.8000001907349</ele>
        <time>2019-01-10T08:37:36.000Z</time>
      </trkpt>
      <trkpt lat="47.25573" lon="-2.31778">
        <ele>4.8000001907349</ele>
        <time>2019-01-10T08:37:39.000Z</time>
      </trkpt>
      <trkpt lat="47.2557" lon="-2.31782">
        <ele>4.8000001907349</ele>
        <time>2019-01-10T08:37:40.000Z</time>
      </trkpt>
      <trkpt lat="47.25564" lon="-2.31791">
        <ele>5.1999998092651</ele>
        <time>2019-01-10T08:37:42.000Z</time>
      </trkpt>
      <trkpt lat="47.25562" lon="-2.31796">
        <ele>5.5999999046326</ele>
        <time>2019-01-10T08:37:43.000Z</time>
      </trkpt>
      <trkpt lat="47.25558" lon="-2.31799">
        <ele>6</ele>
        <time>2019-01-10T08:37:44.000Z</time>
      </trkpt>
      <trkpt lat="47.25555" lon="-2.31801">
        <ele>6.4000000953674</ele>
        <time>2019-01-10T08:37:45.000Z</time>
      </trkpt>
      <trkpt lat="47.25552" lon="-2.31803">
        <ele>7</ele>
        <time>2019-01-10T08:37:46.000Z</time>
      </trkpt>
      <trkpt lat="47.25532" lon="-2.31808">
        <ele>7</ele>
        <time>2019-01-10T08:37:51.000Z</time>
      </trkpt>
      <trkpt lat="47.25526" lon="-2.31813">
        <ele>7.4000000953674</ele>
        <time>2019-01-10T08:37:53.000Z</time>
      </trkpt>
      <trkpt lat="47.25524" lon="-2.31816">
        <ele>7.8000001907349</ele>
        <time>2019-01-10T08:37:54.000Z</time>
      </trkpt>
      <trkpt lat="47.25523" lon="-2.31819">
        <ele>8.1999998092651</ele>
        <time>2019-01-10T08:37:55.000Z</time>
      </trkpt>
      <trkpt lat="47.2552" lon="-2.31822">
        <ele>8.6000003814697</ele>
        <time>2019-01-10T08:37:56.000Z</time>
      </trkpt>
      <trkpt lat="47.25518" lon="-2.31824">
        <ele>9</ele>
        <time>2019-01-10T08:37:57.000Z</time>
      </trkpt>
      <trkpt lat="47.25516" lon="-2.31825">
        <ele>9</ele>
        <time>2019-01-10T08:37:58.000Z</time>
      </trkpt>
      <trkpt lat="47.25516" lon="-2.31825">
        <ele>9</ele>
        <time>2019-01-10T08:38:01.000Z</time>
      </trkpt>
      <trkpt lat="47.2551" lon="-2.31827">
        <ele>9</ele>
        <time>2019-01-10T08:40:47.000Z</time>
      </trkpt>
      <trkpt lat="47.25505" lon="-2.31826">
        <ele>9</ele>
        <time>2019-01-10T08:40:50.000Z</time>
      </trkpt>
      <trkpt lat="47.25493" lon="-2.31827">
        <ele>9</ele>
        <time>2019-01-10T08:40:55.000Z</time>
      </trkpt>
      <trkpt lat="47.25474" lon="-2.31839">
        <ele>9.3999996185303</ele>
        <time>2019-01-10T08:41:01.000Z</time>
      </trkpt>
      <trkpt lat="47.25471" lon="-2.31842">
        <ele>9.8000001907349</ele>
        <time>2019-01-10T08:41:02.000Z</time>
      </trkpt>
      <trkpt lat="47.25467" lon="-2.31845">
        <ele>10.199999809265</ele>
        <time>2019-01-10T08:41:03.000Z</time>
      </trkpt>
      <trkpt lat="47.25464" lon="-2.31846">
        <ele>10.800000190735</ele>
        <time>2019-01-10T08:41:04.000Z</time>
      </trkpt>
      <trkpt lat="47.25461" lon="-2.31846">
        <ele>11.199999809265</ele>
        <time>2019-01-10T08:41:05.000Z</time>
      </trkpt>
      <trkpt lat="47.25458" lon="-2.31843">
        <ele>11.199999809265</ele>
        <time>2019-01-10T08:41:06.000Z</time>
      </trkpt>
      <trkpt lat="47.25454" lon="-2.31828">
        <ele>11.199999809265</ele>
        <time>2019-01-10T08:41:09.000Z</time>
      </trkpt>
      <trkpt lat="47.25452" lon="-2.31822">
        <ele>11.199999809265</ele>
        <time>2019-01-10T08:41:10.000Z</time>
      </trkpt>
      <trkpt lat="47.25446" lon="-2.31794">
        <ele>11.199999809265</ele>
        <time>2019-01-10T08:41:15.000Z</time>
      </trkpt>
      <trkpt lat="47.25443" lon="-2.31783">
        <ele>11.199999809265</ele>
        <time>2019-01-10T08:41:17.000Z</time>
      </trkpt>
      <trkpt lat="47.2544" lon="-2.31771">
        <ele>11.199999809265</ele>
        <time>2019-01-10T08:41:19.000Z</time>
      </trkpt>
      <trkpt lat="47.25434" lon="-2.31746">
        <ele>11.199999809265</ele>
        <time>2019-01-10T08:41:23.000Z</time>
      </trkpt>
      <trkpt lat="47.25417" lon="-2.31697">
        <ele>11.199999809265</ele>
        <time>2019-01-10T08:41:31.000Z</time>
      </trkpt>
      <trkpt lat="47.25393" lon="-2.31643">
        <ele>11.199999809265</ele>
        <time>2019-01-10T08:41:40.000Z</time>
      </trkpt>
      <trkpt lat="47.25381" lon="-2.31621">
        <ele>11.60000038147</ele>
        <time>2019-01-10T08:41:44.000Z</time>
      </trkpt>
      <trkpt lat="47.25378" lon="-2.31616">
        <ele>12</ele>
        <time>2019-01-10T08:41:45.000Z</time>
      </trkpt>
      <trkpt lat="47.25375" lon="-2.31611">
        <ele>12.39999961853</ele>
        <time>2019-01-10T08:41:46.000Z</time>
      </trkpt>
      <trkpt lat="47.25372" lon="-2.31606">
        <ele>12.800000190735</ele>
        <time>2019-01-10T08:41:47.000Z</time>
      </trkpt>
      <trkpt lat="47.25369" lon="-2.31601">
        <ele>13.199999809265</ele>
        <time>2019-01-10T08:41:48.000Z</time>
      </trkpt>
      <trkpt lat="47.25366" lon="-2.31596">
        <ele>13.199999809265</ele>
        <time>2019-01-10T08:41:49.000Z</time>
      </trkpt>
      <trkpt lat="47.25354" lon="-2.31576">
        <ele>13.199999809265</ele>
        <time>2019-01-10T08:41:53.000Z</time>
      </trkpt>
      <trkpt lat="47.25344" lon="-2.31554">
        <ele>13.199999809265</ele>
        <time>2019-01-10T08:41:57.000Z</time>
      </trkpt>
      <trkpt lat="47.2534" lon="-2.31542">
        <ele>13.199999809265</ele>
        <time>2019-01-10T08:41:59.000Z</time>
      </trkpt>
      <trkpt lat="47.25331" lon="-2.31511">
        <ele>13.60000038147</ele>
        <time>2019-01-10T08:42:04.000Z</time>
      </trkpt>
      <trkpt lat="47.2533" lon="-2.31504">
        <ele>14.60000038147</ele>
        <time>2019-01-10T08:42:05.000Z</time>
      </trkpt>
      <trkpt lat="47.25329" lon="-2.31497">
        <ele>15</ele>
        <time>2019-01-10T08:42:06.000Z</time>
      </trkpt>
      <trkpt lat="47.25328" lon="-2.31491">
        <ele>15.39999961853</ele>
        <time>2019-01-10T08:42:07.000Z</time>
      </trkpt>
      <trkpt lat="47.2532" lon="-2.31439">
        <ele>15.39999961853</ele>
        <time>2019-01-10T08:42:15.000Z</time>
      </trkpt>
      <trkpt lat="47.25309" lon="-2.31429">
        <ele>15.39999961853</ele>
        <time>2019-01-10T08:42:18.000Z</time>
      </trkpt>
      <trkpt lat="47.2529" lon="-2.3143">
        <ele>15.39999961853</ele>
        <time>2019-01-10T08:42:22.000Z</time>
      </trkpt>
      <trkpt lat="47.25285" lon="-2.31432">
        <ele>15.39999961853</ele>
        <time>2019-01-10T08:42:23.000Z</time>
      </trkpt>
      <trkpt lat="47.25252" lon="-2.31448">
        <ele>15.39999961853</ele>
        <time>2019-01-10T08:42:30.000Z</time>
      </trkpt>
      <trkpt lat="47.25221" lon="-2.31468">
        <ele>15.39999961853</ele>
        <time>2019-01-10T08:42:37.000Z</time>
      </trkpt>
      <trkpt lat="47.25212" lon="-2.31476">
        <ele>15.39999961853</ele>
        <time>2019-01-10T08:42:39.000Z</time>
      </trkpt>
      <trkpt lat="47.25201" lon="-2.31489">
        <ele>15.39999961853</ele>
        <time>2019-01-10T08:42:42.000Z</time>
      </trkpt>
      <trkpt lat="47.25197" lon="-2.31493">
        <ele>15.39999961853</ele>
        <time>2019-01-10T08:42:43.000Z</time>
      </trkpt>
      <trkpt lat="47.25177" lon="-2.31516">
        <ele>15.800000190735</ele>
        <time>2019-01-10T08:42:48.000Z</time>
      </trkpt>
      <trkpt lat="47.25174" lon="-2.31521">
        <ele>16.200000762939</ele>
        <time>2019-01-10T08:42:49.000Z</time>
      </trkpt>
      <trkpt lat="47.2517" lon="-2.31526">
        <ele>16.60000038147</ele>
        <time>2019-01-10T08:42:50.000Z</time>
      </trkpt>
      <trkpt lat="47.25166" lon="-2.31531">
        <ele>17</ele>
        <time>2019-01-10T08:42:51.000Z</time>
      </trkpt>
      <trkpt lat="47.25162" lon="-2.31536">
        <ele>17.39999961853</ele>
        <time>2019-01-10T08:42:52.000Z</time>
      </trkpt>
      <trkpt lat="47.25155" lon="-2.31545">
        <ele>17.39999961853</ele>
        <time>2019-01-10T08:42:54.000Z</time>
      </trkpt>
      <trkpt lat="47.25147" lon="-2.31553">
        <ele>17.39999961853</ele>
        <time>2019-01-10T08:42:56.000Z</time>
      </trkpt>
      <trkpt lat="47.25136" lon="-2.31566">
        <ele>17.39999961853</ele>
        <time>2019-01-10T08:42:59.000Z</time>
      </trkpt>
      <trkpt lat="47.25119" lon="-2.31578">
        <ele>17.39999961853</ele>
        <time>2019-01-10T08:43:03.000Z</time>
      </trkpt>
      <trkpt lat="47.25096" lon="-2.31595">
        <ele>17.39999961853</ele>
        <time>2019-01-10T08:43:08.000Z</time>
      </trkpt>
      <trkpt lat="47.25092" lon="-2.31599">
        <ele>17.39999961853</ele>
        <time>2019-01-10T08:43:09.000Z</time>
      </trkpt>
      <trkpt lat="47.25079" lon="-2.31611">
        <ele>17.39999961853</ele>
        <time>2019-01-10T08:43:12.000Z</time>
      </trkpt>
      <trkpt lat="47.25066" lon="-2.31624">
        <ele>17.39999961853</ele>
        <time>2019-01-10T08:43:15.000Z</time>
      </trkpt>
      <trkpt lat="47.25039" lon="-2.31651">
        <ele>17.39999961853</ele>
        <time>2019-01-10T08:43:21.000Z</time>
      </trkpt>
      <trkpt lat="47.25011" lon="-2.31679">
        <ele>17.39999961853</ele>
        <time>2019-01-10T08:43:27.000Z</time>
      </trkpt>
      <trkpt lat="47.24981" lon="-2.31711">
        <ele>17.39999961853</ele>
        <time>2019-01-10T08:43:34.000Z</time>
      </trkpt>
      <trkpt lat="47.24939" lon="-2.31751">
        <ele>17.39999961853</ele>
        <time>2019-01-10T08:43:43.000Z</time>
      </trkpt>
      <trkpt lat="47.24901" lon="-2.31785">
        <ele>17.39999961853</ele>
        <time>2019-01-10T08:43:50.000Z</time>
      </trkpt>
      <trkpt lat="47.24864" lon="-2.31818">
        <ele>17.39999961853</ele>
        <time>2019-01-10T08:43:57.000Z</time>
      </trkpt>
      <trkpt lat="47.24821" lon="-2.31854">
        <ele>17.39999961853</ele>
        <time>2019-01-10T08:44:05.000Z</time>
      </trkpt>
      <trkpt lat="47.24779" lon="-2.31892">
        <ele>17</ele>
        <time>2019-01-10T08:44:13.000Z</time>
      </trkpt>
      <trkpt lat="47.24774" lon="-2.31897">
        <ele>16.60000038147</ele>
        <time>2019-01-10T08:44:14.000Z</time>
      </trkpt>
      <trkpt lat="47.24768" lon="-2.31902">
        <ele>16.200000762939</ele>
        <time>2019-01-10T08:44:15.000Z</time>
      </trkpt>
      <trkpt lat="47.24763" lon="-2.31907">
        <ele>15.800000190735</ele>
        <time>2019-01-10T08:44:16.000Z</time>
      </trkpt>
      <trkpt lat="47.24758" lon="-2.31912">
        <ele>15.39999961853</ele>
        <time>2019-01-10T08:44:17.000Z</time>
      </trkpt>
      <trkpt lat="47.24748" lon="-2.31921">
        <ele>15.39999961853</ele>
        <time>2019-01-10T08:44:19.000Z</time>
      </trkpt>
      <trkpt lat="47.24714" lon="-2.3195">
        <ele>15</ele>
        <time>2019-01-10T08:44:25.000Z</time>
      </trkpt>
      <trkpt lat="47.24708" lon="-2.31955">
        <ele>14.60000038147</ele>
        <time>2019-01-10T08:44:26.000Z</time>
      </trkpt>
      <trkpt lat="47.24702" lon="-2.3196">
        <ele>14.199999809265</ele>
        <time>2019-01-10T08:44:27.000Z</time>
      </trkpt>
      <trkpt lat="47.24696" lon="-2.31966">
        <ele>13.800000190735</ele>
        <time>2019-01-10T08:44:28.000Z</time>
      </trkpt>
      <trkpt lat="47.2469" lon="-2.31972">
        <ele>13.199999809265</ele>
        <time>2019-01-10T08:44:29.000Z</time>
      </trkpt>
      <trkpt lat="47.24667" lon="-2.31992">
        <ele>12.39999961853</ele>
        <time>2019-01-10T08:44:33.000Z</time>
      </trkpt>
      <trkpt lat="47.24661" lon="-2.31997">
        <ele>12</ele>
        <time>2019-01-10T08:44:34.000Z</time>
      </trkpt>
      <trkpt lat="47.24656" lon="-2.32001">
        <ele>11.60000038147</ele>
        <time>2019-01-10T08:44:35.000Z</time>
      </trkpt>
      <trkpt lat="47.24652" lon="-2.32004">
        <ele>11.199999809265</ele>
        <time>2019-01-10T08:44:36.000Z</time>
      </trkpt>
      <trkpt lat="47.24649" lon="-2.32007">
        <ele>11.199999809265</ele>
        <time>2019-01-10T08:44:37.000Z</time>
      </trkpt>
      <trkpt lat="47.2464" lon="-2.32015">
        <ele>10.800000190735</ele>
        <time>2019-01-10T08:44:40.000Z</time>
      </trkpt>
      <trkpt lat="47.24638" lon="-2.32017">
        <ele>10.39999961853</ele>
        <time>2019-01-10T08:44:41.000Z</time>
      </trkpt>
      <trkpt lat="47.24636" lon="-2.32019">
        <ele>10</ele>
        <time>2019-01-10T08:44:42.000Z</time>
      </trkpt>
      <trkpt lat="47.24635" lon="-2.32019">
        <ele>9.6000003814697</ele>
        <time>2019-01-10T08:44:43.000Z</time>
      </trkpt>
      <trkpt lat="47.24633" lon="-2.3202">
        <ele>9.1999998092651</ele>
        <time>2019-01-10T08:44:44.000Z</time>
      </trkpt>
      <trkpt lat="47.24628" lon="-2.32022">
        <ele>9.1999998092651</ele>
        <time>2019-01-10T08:44:46.000Z</time>
      </trkpt>
      <trkpt lat="47.24616" lon="-2.32033">
        <ele>9.1999998092651</ele>
        <time>2019-01-10T08:44:50.000Z</time>
      </trkpt>
      <trkpt lat="47.24601" lon="-2.32047">
        <ele>8.6000003814697</ele>
        <time>2019-01-10T08:44:54.000Z</time>
      </trkpt>
      <trkpt lat="47.24598" lon="-2.32049">
        <ele>8.1999998092651</ele>
        <time>2019-01-10T08:44:55.000Z</time>
      </trkpt>
      <trkpt lat="47.24596" lon="-2.32051">
        <ele>7.8000001907349</ele>
        <time>2019-01-10T08:44:56.000Z</time>
      </trkpt>
      <trkpt lat="47.24592" lon="-2.32053">
        <ele>7</ele>
        <time>2019-01-10T08:44:57.000Z</time>
      </trkpt>
      <trkpt lat="47.24586" lon="-2.32059">
        <ele>6.4000000953674</ele>
        <time>2019-01-10T08:44:59.000Z</time>
      </trkpt>
      <trkpt lat="47.24584" lon="-2.32061">
        <ele>6</ele>
        <time>2019-01-10T08:45:00.000Z</time>
      </trkpt>
      <trkpt lat="47.24582" lon="-2.32062">
        <ele>5.4000000953674</ele>
        <time>2019-01-10T08:45:01.000Z</time>
      </trkpt>
      <trkpt lat="47.24579" lon="-2.32062">
        <ele>5</ele>
        <time>2019-01-10T08:45:02.000Z</time>
      </trkpt>
      <trkpt lat="47.24577" lon="-2.3206">
        <ele>4.5999999046326</ele>
        <time>2019-01-10T08:45:03.000Z</time>
      </trkpt>
      <trkpt lat="47.24574" lon="-2.32054">
        <ele>4.5999999046326</ele>
        <time>2019-01-10T08:45:08.000Z</time>
      </trkpt>
      <trkpt lat="47.2457" lon="-2.32052">
        <ele>4.5999999046326</ele>
        <time>2019-01-10T08:45:11.000Z</time>
      </trkpt>
      <trkpt lat="47.24566" lon="-2.32053">
        <ele>4.5999999046326</ele>
        <time>2019-01-10T08:45:13.000Z</time>
      </trkpt>
      <trkpt lat="47.24554" lon="-2.32044">
        <ele>4.5999999046326</ele>
        <time>2019-01-10T08:45:17.000Z</time>
      </trkpt>
      <trkpt lat="47.24529" lon="-2.32026">
        <ele>4.5999999046326</ele>
        <time>2019-01-10T08:45:24.000Z</time>
      </trkpt>
      <trkpt lat="47.24521" lon="-2.32022">
        <ele>4.5999999046326</ele>
        <time>2019-01-10T08:45:26.000Z</time>
      </trkpt>
      <trkpt lat="47.24509" lon="-2.32017">
        <ele>4.5999999046326</ele>
        <time>2019-01-10T08:45:29.000Z</time>
      </trkpt>
      <trkpt lat="47.2449" lon="-2.31998">
        <ele>4.5999999046326</ele>
        <time>2019-01-10T08:45:34.000Z</time>
      </trkpt>
      <trkpt lat="47.24465" lon="-2.31958">
        <ele>4.5999999046326</ele>
        <time>2019-01-10T08:45:42.000Z</time>
      </trkpt>
      <trkpt lat="47.2445" lon="-2.31912">
        <ele>4.5999999046326</ele>
        <time>2019-01-10T08:45:50.000Z</time>
      </trkpt>
      <trkpt lat="47.24437" lon="-2.31882">
        <ele>4.5999999046326</ele>
        <time>2019-01-10T08:45:56.000Z</time>
      </trkpt>
      <trkpt lat="47.24434" lon="-2.31877">
        <ele>4.5999999046326</ele>
        <time>2019-01-10T08:45:57.000Z</time>
      </trkpt>
      <trkpt lat="47.24422" lon="-2.3187">
        <ele>4.5999999046326</ele>
        <time>2019-01-10T08:46:00.000Z</time>
      </trkpt>
      <trkpt lat="47.24418" lon="-2.31869">
        <ele>4.5999999046326</ele>
        <time>2019-01-10T08:46:01.000Z</time>
      </trkpt>
      <trkpt lat="47.24405" lon="-2.31864">
        <ele>4.5999999046326</ele>
        <time>2019-01-10T08:46:05.000Z</time>
      </trkpt>
      <trkpt lat="47.24396" lon="-2.31856">
        <ele>4.5999999046326</ele>
        <time>2019-01-10T08:46:09.000Z</time>
      </trkpt>
      <trkpt lat="47.24394" lon="-2.31854">
        <ele>4.5999999046326</ele>
        <time>2019-01-10T08:46:11.000Z</time>
      </trkpt>
      <trkpt lat="47.24392" lon="-2.31849">
        <ele>4.5999999046326</ele>
        <time>2019-01-10T08:46:13.000Z</time>
      </trkpt>
      <trkpt lat="47.24387" lon="-2.31845">
        <ele>4.5999999046326</ele>
        <time>2019-01-10T08:46:15.000Z</time>
      </trkpt>
      <trkpt lat="47.24382" lon="-2.31838">
        <ele>4.5999999046326</ele>
        <time>2019-01-10T08:46:17.000Z</time>
      </trkpt>
      <trkpt lat="47.24375" lon="-2.3183">
        <ele>4.5999999046326</ele>
        <time>2019-01-10T08:46:19.000Z</time>
      </trkpt>
      <trkpt lat="47.24365" lon="-2.31817">
        <ele>4.5999999046326</ele>
        <time>2019-01-10T08:46:22.000Z</time>
      </trkpt>
      <trkpt lat="47.24362" lon="-2.31812">
        <ele>4.5999999046326</ele>
        <time>2019-01-10T08:46:23.000Z</time>
      </trkpt>
      <trkpt lat="47.24354" lon="-2.31796">
        <ele>4.5999999046326</ele>
        <time>2019-01-10T08:46:26.000Z</time>
      </trkpt>
      <trkpt lat="47.24351" lon="-2.31777">
        <ele>4.5999999046326</ele>
        <time>2019-01-10T08:46:29.000Z</time>
      </trkpt>
      <trkpt lat="47.2435" lon="-2.31771">
        <ele>4.5999999046326</ele>
        <time>2019-01-10T08:46:30.000Z</time>
      </trkpt>
      <trkpt lat="47.24348" lon="-2.31752">
        <ele>4.5999999046326</ele>
        <time>2019-01-10T08:46:33.000Z</time>
      </trkpt>
      <trkpt lat="47.24349" lon="-2.31739">
        <ele>4.5999999046326</ele>
        <time>2019-01-10T08:46:35.000Z</time>
      </trkpt>
      <trkpt lat="47.2435" lon="-2.31732">
        <ele>4.5999999046326</ele>
        <time>2019-01-10T08:46:36.000Z</time>
      </trkpt>
      <trkpt lat="47.24358" lon="-2.31715">
        <ele>4.5999999046326</ele>
        <time>2019-01-10T08:46:39.000Z</time>
      </trkpt>
      <trkpt lat="47.24361" lon="-2.3171">
        <ele>4.5999999046326</ele>
        <time>2019-01-10T08:46:40.000Z</time>
      </trkpt>
      <trkpt lat="47.24364" lon="-2.31698">
        <ele>4.5999999046326</ele>
        <time>2019-01-10T08:46:42.000Z</time>
      </trkpt>
      <trkpt lat="47.24368" lon="-2.31677">
        <ele>4.5999999046326</ele>
        <time>2019-01-10T08:46:45.000Z</time>
      </trkpt>
      <trkpt lat="47.24372" lon="-2.3165">
        <ele>4.5999999046326</ele>
        <time>2019-01-10T08:46:49.000Z</time>
      </trkpt>
      <trkpt lat="47.24374" lon="-2.31638">
        <ele>4.5999999046326</ele>
        <time>2019-01-10T08:46:51.000Z</time>
      </trkpt>
      <trkpt lat="47.24374" lon="-2.31628">
        <ele>4.5999999046326</ele>
        <time>2019-01-10T08:46:53.000Z</time>
      </trkpt>
      <trkpt lat="47.24373" lon="-2.31616">
        <ele>4.5999999046326</ele>
        <time>2019-01-10T08:46:55.000Z</time>
      </trkpt>
      <trkpt lat="47.24373" lon="-2.3161">
        <ele>4.5999999046326</ele>
        <time>2019-01-10T08:46:56.000Z</time>
      </trkpt>
      <trkpt lat="47.24371" lon="-2.31589">
        <ele>4.5999999046326</ele>
        <time>2019-01-10T08:46:59.000Z</time>
      </trkpt>
      <trkpt lat="47.2437" lon="-2.31583">
        <ele>4.5999999046326</ele>
        <time>2019-01-10T08:47:00.000Z</time>
      </trkpt>
      <trkpt lat="47.24364" lon="-2.3156">
        <ele>4.5999999046326</ele>
        <time>2019-01-10T08:47:04.000Z</time>
      </trkpt>
      <trkpt lat="47.24365" lon="-2.31548">
        <ele>4</ele>
        <time>2019-01-10T08:47:06.000Z</time>
      </trkpt>
      <trkpt lat="47.24365" lon="-2.31544">
        <ele>3.5999999046326</ele>
        <time>2019-01-10T08:47:07.000Z</time>
      </trkpt>
      <trkpt lat="47.24365" lon="-2.31541">
        <ele>3.2000000476837</ele>
        <time>2019-01-10T08:47:08.000Z</time>
      </trkpt>
      <trkpt lat="47.24366" lon="-2.31539">
        <ele>2.7999999523163</ele>
        <time>2019-01-10T08:47:09.000Z</time>
      </trkpt>
      <trkpt lat="47.24366" lon="-2.31537">
        <ele>2.4000000953674</ele>
        <time>2019-01-10T08:47:10.000Z</time>
      </trkpt>
      <trkpt lat="47.24366" lon="-2.31536">
        <ele>2.4000000953674</ele>
        <time>2019-01-10T08:47:12.000Z</time>
      </trkpt>
      <trkpt lat="47.24365" lon="-2.31531">
        <ele>2.4000000953674</ele>
        <time>2019-01-10T08:47:13.000Z</time>
      </trkpt>
      <trkpt lat="47.24359" lon="-2.31518">
        <ele>2.4000000953674</ele>
        <time>2019-01-10T08:47:16.000Z</time>
      </trkpt>
      <trkpt lat="47.24355" lon="-2.31502">
        <ele>2.4000000953674</ele>
        <time>2019-01-10T08:47:19.000Z</time>
      </trkpt>
      <trkpt lat="47.24356" lon="-2.31488">
        <ele>2.4000000953674</ele>
        <time>2019-01-10T08:47:23.000Z</time>
      </trkpt>
      <trkpt lat="47.24355" lon="-2.31484">
        <ele>2.4000000953674</ele>
        <time>2019-01-10T08:47:25.000Z</time>
      </trkpt>
      <trkpt lat="47.24355" lon="-2.31477">
        <ele>2.4000000953674</ele>
        <time>2019-01-10T08:47:28.000Z</time>
      </trkpt>
      <trkpt lat="47.24356" lon="-2.31476">
        <ele>2.4000000953674</ele>
        <time>2019-01-10T08:47:29.000Z</time>
      </trkpt>
      <trkpt lat="47.24359" lon="-2.31477">
        <ele>2.4000000953674</ele>
        <time>2019-01-10T08:47:32.000Z</time>
      </trkpt>
      <trkpt lat="47.24359" lon="-2.31476">
        <ele>2.4000000953674</ele>
        <time>2019-01-10T08:47:33.000Z</time>
      </trkpt>
      <trkpt lat="47.24361" lon="-2.31476">
        <ele>2.4000000953674</ele>
        <time>2019-01-10T08:48:40.000Z</time>
      </trkpt>
      <trkpt lat="47.24363" lon="-2.31474">
        <ele>2.4000000953674</ele>
        <time>2019-01-10T08:48:42.000Z</time>
      </trkpt>
      <trkpt lat="47.24367" lon="-2.31463">
        <ele>2.4000000953674</ele>
        <time>2019-01-10T08:48:46.000Z</time>
      </trkpt>
      <trkpt lat="47.24372" lon="-2.31454">
        <ele>2.4000000953674</ele>
        <time>2019-01-10T08:48:49.000Z</time>
      </trkpt>
      <trkpt lat="47.24381" lon="-2.31436">
        <ele>2.4000000953674</ele>
        <time>2019-01-10T08:48:54.000Z</time>
      </trkpt>
      <trkpt lat="47.24386" lon="-2.31412">
        <ele>2.4000000953674</ele>
        <time>2019-01-10T08:48:59.000Z</time>
      </trkpt>
      <trkpt lat="47.24384" lon="-2.31406">
        <ele>2.4000000953674</ele>
        <time>2019-01-10T08:49:00.000Z</time>
      </trkpt>
      <trkpt lat="47.24382" lon="-2.31401">
        <ele>2.7999999523163</ele>
        <time>2019-01-10T08:49:01.000Z</time>
      </trkpt>
      <trkpt lat="47.2438" lon="-2.31395">
        <ele>3.2000000476837</ele>
        <time>2019-01-10T08:49:02.000Z</time>
      </trkpt>
      <trkpt lat="47.24378" lon="-2.31389">
        <ele>3.5999999046326</ele>
        <time>2019-01-10T08:49:03.000Z</time>
      </trkpt>
      <trkpt lat="47.24376" lon="-2.31383">
        <ele>4</ele>
        <time>2019-01-10T08:49:04.000Z</time>
      </trkpt>
      <trkpt lat="47.24374" lon="-2.31376">
        <ele>4.4000000953674</ele>
        <time>2019-01-10T08:49:05.000Z</time>
      </trkpt>
      <trkpt lat="47.24368" lon="-2.31357">
        <ele>4.4000000953674</ele>
        <time>2019-01-10T08:49:08.000Z</time>
      </trkpt>
      <trkpt lat="47.24368" lon="-2.31349">
        <ele>4.4000000953674</ele>
        <time>2019-01-10T08:49:09.000Z</time>
      </trkpt>
      <trkpt lat="47.24376" lon="-2.31335">
        <ele>4.4000000953674</ele>
        <time>2019-01-10T08:49:12.000Z</time>
      </trkpt>
      <trkpt lat="47.24384" lon="-2.31328">
        <ele>4.4000000953674</ele>
        <time>2019-01-10T08:49:14.000Z</time>
      </trkpt>
      <trkpt lat="47.24387" lon="-2.31324">
        <ele>4.4000000953674</ele>
        <time>2019-01-10T08:49:15.000Z</time>
      </trkpt>
      <trkpt lat="47.24395" lon="-2.31317">
        <ele>4.4000000953674</ele>
        <time>2019-01-10T08:49:17.000Z</time>
      </trkpt>
      <trkpt lat="47.24405" lon="-2.31308">
        <ele>4.4000000953674</ele>
        <time>2019-01-10T08:49:20.000Z</time>
      </trkpt>
      <trkpt lat="47.2442" lon="-2.31297">
        <ele>4.4000000953674</ele>
        <time>2019-01-10T08:49:24.000Z</time>
      </trkpt>
      <trkpt lat="47.2443" lon="-2.31289">
        <ele>4.8000001907349</ele>
        <time>2019-01-10T08:49:27.000Z</time>
      </trkpt>
      <trkpt lat="47.24433" lon="-2.31286">
        <ele>5.1999998092651</ele>
        <time>2019-01-10T08:49:28.000Z</time>
      </trkpt>
      <trkpt lat="47.24437" lon="-2.31283">
        <ele>6</ele>
        <time>2019-01-10T08:49:29.000Z</time>
      </trkpt>
      <trkpt lat="47.2444" lon="-2.3128">
        <ele>6.4000000953674</ele>
        <time>2019-01-10T08:49:30.000Z</time>
      </trkpt>
      <trkpt lat="47.24444" lon="-2.31277">
        <ele>6.4000000953674</ele>
        <time>2019-01-10T08:49:31.000Z</time>
      </trkpt>
      <trkpt lat="47.24452" lon="-2.31269">
        <ele>6.8000001907349</ele>
        <time>2019-01-10T08:49:34.000Z</time>
      </trkpt>
      <trkpt lat="47.24455" lon="-2.31267">
        <ele>7.4000000953674</ele>
        <time>2019-01-10T08:49:35.000Z</time>
      </trkpt>
      <trkpt lat="47.24457" lon="-2.31264">
        <ele>7.8000001907349</ele>
        <time>2019-01-10T08:49:36.000Z</time>
      </trkpt>
      <trkpt lat="47.24458" lon="-2.3126">
        <ele>8.1999998092651</ele>
        <time>2019-01-10T08:49:37.000Z</time>
      </trkpt>
      <trkpt lat="47.24458" lon="-2.31255">
        <ele>8.6000003814697</ele>
        <time>2019-01-10T08:49:38.000Z</time>
      </trkpt>
      <trkpt lat="47.24456" lon="-2.31242">
        <ele>8.6000003814697</ele>
        <time>2019-01-10T08:49:41.000Z</time>
      </trkpt>
      <trkpt lat="47.24451" lon="-2.31229">
        <ele>8.6000003814697</ele>
        <time>2019-01-10T08:49:44.000Z</time>
      </trkpt>
      <trkpt lat="47.24446" lon="-2.31223">
        <ele>8.6000003814697</ele>
        <time>2019-01-10T08:49:46.000Z</time>
      </trkpt>
      <trkpt lat="47.24442" lon="-2.31223">
        <ele>8.6000003814697</ele>
        <time>2019-01-10T08:49:48.000Z</time>
      </trkpt>
      <trkpt lat="47.24438" lon="-2.31224">
        <ele>8.6000003814697</ele>
        <time>2019-01-10T08:49:50.000Z</time>
      </trkpt>
      <trkpt lat="47.24436" lon="-2.31225">
        <ele>8.1999998092651</ele>
        <time>2019-01-10T08:49:51.000Z</time>
      </trkpt>
      <trkpt lat="47.24433" lon="-2.31226">
        <ele>7.8000001907349</ele>
        <time>2019-01-10T08:49:52.000Z</time>
      </trkpt>
      <trkpt lat="47.24432" lon="-2.31225">
        <ele>7.4000000953674</ele>
        <time>2019-01-10T08:49:53.000Z</time>
      </trkpt>
      <trkpt lat="47.24431" lon="-2.31224">
        <ele>6.4000000953674</ele>
        <time>2019-01-10T08:49:54.000Z</time>
      </trkpt>
      <trkpt lat="47.2443" lon="-2.31222">
        <ele>6.4000000953674</ele>
        <time>2019-01-10T08:49:55.000Z</time>
      </trkpt>
      <trkpt lat="47.24426" lon="-2.31217">
        <ele>6.4000000953674</ele>
        <time>2019-01-10T08:49:58.000Z</time>
      </trkpt>
      <trkpt lat="47.24425" lon="-2.31209">
        <ele>6.4000000953674</ele>
        <time>2019-01-10T08:50:03.000Z</time>
      </trkpt>
      <trkpt lat="47.24417" lon="-2.31194">
        <ele>6.4000000953674</ele>
        <time>2019-01-10T08:50:10.000Z</time>
      </trkpt>
      <trkpt lat="47.24416" lon="-2.31193">
        <ele>7</ele>
        <time>2019-01-10T08:50:12.000Z</time>
      </trkpt>
      <trkpt lat="47.24409" lon="-2.31181">
        <ele>9</ele>
        <time>2019-01-10T08:50:30.000Z</time>
      </trkpt>
      <trkpt lat="47.24407" lon="-2.31181">
        <ele>9</ele>
        <time>2019-01-10T08:50:31.000Z</time>
      </trkpt>
      <trkpt lat="47.24401" lon="-2.31174">
        <ele>9</ele>
        <time>2019-01-10T08:50:34.000Z</time>
      </trkpt>
      <trkpt lat="47.24398" lon="-2.31172">
        <ele>9</ele>
        <time>2019-01-10T08:50:35.000Z</time>
      </trkpt>
      <trkpt lat="47.24385" lon="-2.31159">
        <ele>9</ele>
        <time>2019-01-10T08:50:40.000Z</time>
      </trkpt>
      <trkpt lat="47.2438" lon="-2.31152">
        <ele>9.3999996185303</ele>
        <time>2019-01-10T08:50:42.000Z</time>
      </trkpt>
      <trkpt lat="47.24378" lon="-2.31149">
        <ele>10.199999809265</ele>
        <time>2019-01-10T08:50:43.000Z</time>
      </trkpt>
      <trkpt lat="47.24376" lon="-2.31146">
        <ele>10.60000038147</ele>
        <time>2019-01-10T08:50:44.000Z</time>
      </trkpt>
      <trkpt lat="47.24374" lon="-2.31143">
        <ele>11</ele>
        <time>2019-01-10T08:50:45.000Z</time>
      </trkpt>
      <trkpt lat="47.24358" lon="-2.31113">
        <ele>11</ele>
        <time>2019-01-10T08:50:52.000Z</time>
      </trkpt>
      <trkpt lat="47.24357" lon="-2.31109">
        <ele>11</ele>
        <time>2019-01-10T08:50:53.000Z</time>
      </trkpt>
      <trkpt lat="47.24353" lon="-2.31097">
        <ele>11</ele>
        <time>2019-01-10T08:50:56.000Z</time>
      </trkpt>
      <trkpt lat="47.24347" lon="-2.31082">
        <ele>11</ele>
        <time>2019-01-10T08:50:59.000Z</time>
      </trkpt>
      <trkpt lat="47.24344" lon="-2.3107">
        <ele>11</ele>
        <time>2019-01-10T08:51:01.000Z</time>
      </trkpt>
      <trkpt lat="47.24342" lon="-2.31063">
        <ele>11</ele>
        <time>2019-01-10T08:51:02.000Z</time>
      </trkpt>
      <trkpt lat="47.24332" lon="-2.31043">
        <ele>11</ele>
        <time>2019-01-10T08:51:06.000Z</time>
      </trkpt>
      <trkpt lat="47.24316" lon="-2.31034">
        <ele>11</ele>
        <time>2019-01-10T08:51:09.000Z</time>
      </trkpt>
      <trkpt lat="47.24303" lon="-2.31033">
        <ele>11</ele>
        <time>2019-01-10T08:51:11.000Z</time>
      </trkpt>
      <trkpt lat="47.24285" lon="-2.31032">
        <ele>10.60000038147</ele>
        <time>2019-01-10T08:51:14.000Z</time>
      </trkpt>
      <trkpt lat="47.24281" lon="-2.31031">
        <ele>10.199999809265</ele>
        <time>2019-01-10T08:51:15.000Z</time>
      </trkpt>
      <trkpt lat="47.24279" lon="-2.3103">
        <ele>9.8000001907349</ele>
        <time>2019-01-10T08:51:16.000Z</time>
      </trkpt>
      <trkpt lat="47.24278" lon="-2.31028">
        <ele>9.3999996185303</ele>
        <time>2019-01-10T08:51:17.000Z</time>
      </trkpt>
      <trkpt lat="47.24278" lon="-2.31024">
        <ele>9</ele>
        <time>2019-01-10T08:51:18.000Z</time>
      </trkpt>
      <trkpt lat="47.24281" lon="-2.31015">
        <ele>9</ele>
        <time>2019-01-10T08:51:20.000Z</time>
      </trkpt>
      <trkpt lat="47.24286" lon="-2.30992">
        <ele>9</ele>
        <time>2019-01-10T08:51:24.000Z</time>
      </trkpt>
      <trkpt lat="47.24287" lon="-2.30986">
        <ele>9</ele>
        <time>2019-01-10T08:51:25.000Z</time>
      </trkpt>
      <trkpt lat="47.2429" lon="-2.30961">
        <ele>9</ele>
        <time>2019-01-10T08:51:29.000Z</time>
      </trkpt>
      <trkpt lat="47.24291" lon="-2.30955">
        <ele>9</ele>
        <time>2019-01-10T08:51:30.000Z</time>
      </trkpt>
      <trkpt lat="47.24292" lon="-2.3095">
        <ele>9.3999996185303</ele>
        <time>2019-01-10T08:51:31.000Z</time>
      </trkpt>
      <trkpt lat="47.24292" lon="-2.30944">
        <ele>10</ele>
        <time>2019-01-10T08:51:32.000Z</time>
      </trkpt>
      <trkpt lat="47.24293" lon="-2.30938">
        <ele>10.800000190735</ele>
        <time>2019-01-10T08:51:33.000Z</time>
      </trkpt>
      <trkpt lat="47.24293" lon="-2.30932">
        <ele>11.39999961853</ele>
        <time>2019-01-10T08:51:34.000Z</time>
      </trkpt>
      <trkpt lat="47.24292" lon="-2.3092">
        <ele>11.800000190735</ele>
        <time>2019-01-10T08:51:36.000Z</time>
      </trkpt>
      <trkpt lat="47.24293" lon="-2.30914">
        <ele>12.39999961853</ele>
        <time>2019-01-10T08:51:37.000Z</time>
      </trkpt>
      <trkpt lat="47.24292" lon="-2.30909">
        <ele>12.800000190735</ele>
        <time>2019-01-10T08:51:38.000Z</time>
      </trkpt>
      <trkpt lat="47.24292" lon="-2.30902">
        <ele>13.199999809265</ele>
        <time>2019-01-10T08:51:39.000Z</time>
      </trkpt>
      <trkpt lat="47.2429" lon="-2.30895">
        <ele>13.800000190735</ele>
        <time>2019-01-10T08:51:40.000Z</time>
      </trkpt>
      <trkpt lat="47.24289" lon="-2.30889">
        <ele>13.800000190735</ele>
        <time>2019-01-10T08:51:41.000Z</time>
      </trkpt>
      <trkpt lat="47.24288" lon="-2.30875">
        <ele>13.800000190735</ele>
        <time>2019-01-10T08:51:43.000Z</time>
      </trkpt>
      <trkpt lat="47.24289" lon="-2.30854">
        <ele>13.800000190735</ele>
        <time>2019-01-10T08:51:46.000Z</time>
      </trkpt>
      <trkpt lat="47.2429" lon="-2.30847">
        <ele>13.800000190735</ele>
        <time>2019-01-10T08:51:47.000Z</time>
      </trkpt>
      <trkpt lat="47.24291" lon="-2.30841">
        <ele>14.199999809265</ele>
        <time>2019-01-10T08:51:48.000Z</time>
      </trkpt>
      <trkpt lat="47.24293" lon="-2.30835">
        <ele>14.60000038147</ele>
        <time>2019-01-10T08:51:49.000Z</time>
      </trkpt>
      <trkpt lat="47.24294" lon="-2.30829">
        <ele>15</ele>
        <time>2019-01-10T08:51:50.000Z</time>
      </trkpt>
      <trkpt lat="47.24297" lon="-2.30824">
        <ele>15.39999961853</ele>
        <time>2019-01-10T08:51:51.000Z</time>
      </trkpt>
      <trkpt lat="47.24299" lon="-2.3082">
        <ele>15.800000190735</ele>
        <time>2019-01-10T08:51:52.000Z</time>
      </trkpt>
      <trkpt lat="47.24306" lon="-2.30812">
        <ele>15.800000190735</ele>
        <time>2019-01-10T08:51:54.000Z</time>
      </trkpt>
      <trkpt lat="47.24314" lon="-2.30806">
        <ele>15.800000190735</ele>
        <time>2019-01-10T08:51:56.000Z</time>
      </trkpt>
      <trkpt lat="47.24321" lon="-2.30802">
        <ele>16.200000762939</ele>
        <time>2019-01-10T08:51:58.000Z</time>
      </trkpt>
      <trkpt lat="47.24326" lon="-2.30801">
        <ele>16.60000038147</ele>
        <time>2019-01-10T08:51:59.000Z</time>
      </trkpt>
      <trkpt lat="47.2433" lon="-2.30799">
        <ele>17</ele>
        <time>2019-01-10T08:52:00.000Z</time>
      </trkpt>
      <trkpt lat="47.24335" lon="-2.30798">
        <ele>17.39999961853</ele>
        <time>2019-01-10T08:52:01.000Z</time>
      </trkpt>
      <trkpt lat="47.2434" lon="-2.30797">
        <ele>18</ele>
        <time>2019-01-10T08:52:02.000Z</time>
      </trkpt>
      <trkpt lat="47.24349" lon="-2.30796">
        <ele>18</ele>
        <time>2019-01-10T08:52:04.000Z</time>
      </trkpt>
      <trkpt lat="47.24358" lon="-2.30793">
        <ele>18</ele>
        <time>2019-01-10T08:52:06.000Z</time>
      </trkpt>
      <trkpt lat="47.24365" lon="-2.30787">
        <ele>18</ele>
        <time>2019-01-10T08:52:08.000Z</time>
      </trkpt>
      <trkpt lat="47.24372" lon="-2.30779">
        <ele>18.39999961853</ele>
        <time>2019-01-10T08:52:10.000Z</time>
      </trkpt>
      <trkpt lat="47.24375" lon="-2.30775">
        <ele>18.799999237061</ele>
        <time>2019-01-10T08:52:11.000Z</time>
      </trkpt>
      <trkpt lat="47.24378" lon="-2.3077">
        <ele>19.200000762939</ele>
        <time>2019-01-10T08:52:12.000Z</time>
      </trkpt>
      <trkpt lat="47.2438" lon="-2.30766">
        <ele>19.60000038147</ele>
        <time>2019-01-10T08:52:13.000Z</time>
      </trkpt>
      <trkpt lat="47.24383" lon="-2.30762">
        <ele>20</ele>
        <time>2019-01-10T08:52:14.000Z</time>
      </trkpt>
      <trkpt lat="47.2439" lon="-2.30752">
        <ele>20.39999961853</ele>
        <time>2019-01-10T08:52:17.000Z</time>
      </trkpt>
      <trkpt lat="47.24393" lon="-2.30749">
        <ele>20.799999237061</ele>
        <time>2019-01-10T08:52:18.000Z</time>
      </trkpt>
      <trkpt lat="47.24395" lon="-2.30744">
        <ele>21.200000762939</ele>
        <time>2019-01-10T08:52:19.000Z</time>
      </trkpt>
      <trkpt lat="47.24397" lon="-2.30739">
        <ele>21.60000038147</ele>
        <time>2019-01-10T08:52:20.000Z</time>
      </trkpt>
      <trkpt lat="47.24397" lon="-2.30734">
        <ele>22.200000762939</ele>
        <time>2019-01-10T08:52:21.000Z</time>
      </trkpt>
      <trkpt lat="47.24398" lon="-2.30728">
        <ele>22.200000762939</ele>
        <time>2019-01-10T08:52:22.000Z</time>
      </trkpt>
      <trkpt lat="47.244" lon="-2.30704">
        <ele>22.200000762939</ele>
        <time>2019-01-10T08:52:26.000Z</time>
      </trkpt>
      <trkpt lat="47.24411" lon="-2.3067">
        <ele>22.200000762939</ele>
        <time>2019-01-10T08:52:31.000Z</time>
      </trkpt>
      <trkpt lat="47.24412" lon="-2.30663">
        <ele>22.200000762939</ele>
        <time>2019-01-10T08:52:32.000Z</time>
      </trkpt>
      <trkpt lat="47.24415" lon="-2.30656">
        <ele>22.200000762939</ele>
        <time>2019-01-10T08:52:33.000Z</time>
      </trkpt>
      <trkpt lat="47.24422" lon="-2.30636">
        <ele>22.200000762939</ele>
        <time>2019-01-10T08:52:36.000Z</time>
      </trkpt>
      <trkpt lat="47.24433" lon="-2.3062">
        <ele>22.200000762939</ele>
        <time>2019-01-10T08:52:40.000Z</time>
      </trkpt>
      <trkpt lat="47.24443" lon="-2.30607">
        <ele>22.200000762939</ele>
        <time>2019-01-10T08:52:43.000Z</time>
      </trkpt>
      <trkpt lat="47.24455" lon="-2.30591">
        <ele>22.200000762939</ele>
        <time>2019-01-10T08:52:46.000Z</time>
      </trkpt>
      <trkpt lat="47.24468" lon="-2.30563">
        <ele>21.799999237061</ele>
        <time>2019-01-10T08:52:50.000Z</time>
      </trkpt>
      <trkpt lat="47.24469" lon="-2.30557">
        <ele>21.39999961853</ele>
        <time>2019-01-10T08:52:51.000Z</time>
      </trkpt>
      <trkpt lat="47.24468" lon="-2.30553">
        <ele>21</ele>
        <time>2019-01-10T08:52:52.000Z</time>
      </trkpt>
      <trkpt lat="47.24466" lon="-2.30551">
        <ele>20.39999961853</ele>
        <time>2019-01-10T08:52:53.000Z</time>
      </trkpt>
      <trkpt lat="47.24463" lon="-2.30552">
        <ele>20</ele>
        <time>2019-01-10T08:52:54.000Z</time>
      </trkpt>
      <trkpt lat="47.24457" lon="-2.30555">
        <ele>20</ele>
        <time>2019-01-10T08:52:56.000Z</time>
      </trkpt>
      <trkpt lat="47.24454" lon="-2.30557">
        <ele>19.60000038147</ele>
        <time>2019-01-10T08:52:57.000Z</time>
      </trkpt>
      <trkpt lat="47.24451" lon="-2.3056">
        <ele>19.200000762939</ele>
        <time>2019-01-10T08:52:58.000Z</time>
      </trkpt>
      <trkpt lat="47.24448" lon="-2.30563">
        <ele>18.799999237061</ele>
        <time>2019-01-10T08:52:59.000Z</time>
      </trkpt>
      <trkpt lat="47.24443" lon="-2.30566">
        <ele>18.39999961853</ele>
        <time>2019-01-10T08:53:00.000Z</time>
      </trkpt>
      <trkpt lat="47.24438" lon="-2.30568">
        <ele>18</ele>
        <time>2019-01-10T08:53:01.000Z</time>
      </trkpt>
      <trkpt lat="47.2442" lon="-2.30577">
        <ele>18</ele>
        <time>2019-01-10T08:53:04.000Z</time>
      </trkpt>
      <trkpt lat="47.24414" lon="-2.30578">
        <ele>17.60000038147</ele>
        <time>2019-01-10T08:53:05.000Z</time>
      </trkpt>
      <trkpt lat="47.24408" lon="-2.30579">
        <ele>17.200000762939</ele>
        <time>2019-01-10T08:53:06.000Z</time>
      </trkpt>
      <trkpt lat="47.24404" lon="-2.30578">
        <ele>16.799999237061</ele>
        <time>2019-01-10T08:53:07.000Z</time>
      </trkpt>
      <trkpt lat="47.244" lon="-2.30577">
        <ele>16.39999961853</ele>
        <time>2019-01-10T08:53:08.000Z</time>
      </trkpt>
      <trkpt lat="47.24397" lon="-2.30574">
        <ele>16</ele>
        <time>2019-01-10T08:53:09.000Z</time>
      </trkpt>
      <trkpt lat="47.24382" lon="-2.30561">
        <ele>16</ele>
        <time>2019-01-10T08:53:13.000Z</time>
      </trkpt>
      <trkpt lat="47.24375" lon="-2.30542">
        <ele>16</ele>
        <time>2019-01-10T08:53:16.000Z</time>
      </trkpt>
      <trkpt lat="47.24375" lon="-2.30529">
        <ele>16</ele>
        <time>2019-01-10T08:53:19.000Z</time>
      </trkpt>
      <trkpt lat="47.24374" lon="-2.30524">
        <ele>16</ele>
        <time>2019-01-10T08:53:20.000Z</time>
      </trkpt>
      <trkpt lat="47.24373" lon="-2.30502">
        <ele>16</ele>
        <time>2019-01-10T08:53:25.000Z</time>
      </trkpt>
      <trkpt lat="47.24371" lon="-2.30493">
        <ele>16.39999961853</ele>
        <time>2019-01-10T08:53:28.000Z</time>
      </trkpt>
      <trkpt lat="47.24372" lon="-2.30489">
        <ele>16.799999237061</ele>
        <time>2019-01-10T08:53:29.000Z</time>
      </trkpt>
      <trkpt lat="47.24373" lon="-2.30484">
        <ele>17.200000762939</ele>
        <time>2019-01-10T08:53:30.000Z</time>
      </trkpt>
      <trkpt lat="47.24375" lon="-2.30479">
        <ele>17.60000038147</ele>
        <time>2019-01-10T08:53:31.000Z</time>
      </trkpt>
      <trkpt lat="47.24377" lon="-2.30474">
        <ele>18</ele>
        <time>2019-01-10T08:53:32.000Z</time>
      </trkpt>
      <trkpt lat="47.24379" lon="-2.30463">
        <ele>18</ele>
        <time>2019-01-10T08:53:34.000Z</time>
      </trkpt>
      <trkpt lat="47.24379" lon="-2.30456">
        <ele>18.39999961853</ele>
        <time>2019-01-10T08:53:36.000Z</time>
      </trkpt>
      <trkpt lat="47.24377" lon="-2.30453">
        <ele>18.799999237061</ele>
        <time>2019-01-10T08:53:37.000Z</time>
      </trkpt>
      <trkpt lat="47.24375" lon="-2.30452">
        <ele>19.200000762939</ele>
        <time>2019-01-10T08:53:38.000Z</time>
      </trkpt>
      <trkpt lat="47.24373" lon="-2.30451">
        <ele>19.60000038147</ele>
        <time>2019-01-10T08:53:39.000Z</time>
      </trkpt>
      <trkpt lat="47.24369" lon="-2.30451">
        <ele>20</ele>
        <time>2019-01-10T08:53:40.000Z</time>
      </trkpt>
      <trkpt lat="47.24366" lon="-2.30451">
        <ele>20</ele>
        <time>2019-01-10T08:53:41.000Z</time>
      </trkpt>
      <trkpt lat="47.24353" lon="-2.3045">
        <ele>20</ele>
        <time>2019-01-10T08:53:45.000Z</time>
      </trkpt>
      <trkpt lat="47.2434" lon="-2.30443">
        <ele>20</ele>
        <time>2019-01-10T08:53:49.000Z</time>
      </trkpt>
      <trkpt lat="47.24338" lon="-2.30442">
        <ele>20.39999961853</ele>
        <time>2019-01-10T08:53:50.000Z</time>
      </trkpt>
      <trkpt lat="47.24334" lon="-2.30441">
        <ele>20.799999237061</ele>
        <time>2019-01-10T08:53:51.000Z</time>
      </trkpt>
      <trkpt lat="47.24331" lon="-2.30439">
        <ele>21.200000762939</ele>
        <time>2019-01-10T08:53:52.000Z</time>
      </trkpt>
      <trkpt lat="47.24328" lon="-2.30436">
        <ele>21.60000038147</ele>
        <time>2019-01-10T08:53:53.000Z</time>
      </trkpt>
      <trkpt lat="47.24325" lon="-2.30435">
        <ele>22</ele>
        <time>2019-01-10T08:53:54.000Z</time>
      </trkpt>
      <trkpt lat="47.24309" lon="-2.30426">
        <ele>22</ele>
        <time>2019-01-10T08:53:59.000Z</time>
      </trkpt>
      <trkpt lat="47.24298" lon="-2.30417">
        <ele>22</ele>
        <time>2019-01-10T08:54:02.000Z</time>
      </trkpt>
      <trkpt lat="47.24295" lon="-2.30413">
        <ele>22</ele>
        <time>2019-01-10T08:54:03.000Z</time>
      </trkpt>
      <trkpt lat="47.24281" lon="-2.304">
        <ele>22</ele>
        <time>2019-01-10T08:54:07.000Z</time>
      </trkpt>
      <trkpt lat="47.24278" lon="-2.30396">
        <ele>22</ele>
        <time>2019-01-10T08:54:08.000Z</time>
      </trkpt>
      <trkpt lat="47.24257" lon="-2.30365">
        <ele>22</ele>
        <time>2019-01-10T08:54:14.000Z</time>
      </trkpt>
      <trkpt lat="47.24245" lon="-2.30341">
        <ele>22</ele>
        <time>2019-01-10T08:54:19.000Z</time>
      </trkpt>
      <trkpt lat="47.24232" lon="-2.30324">
        <ele>22</ele>
        <time>2019-01-10T08:54:24.000Z</time>
      </trkpt>
      <trkpt lat="47.24228" lon="-2.30323">
        <ele>22</ele>
        <time>2019-01-10T08:54:25.000Z</time>
      </trkpt>
      <trkpt lat="47.24217" lon="-2.30331">
        <ele>22</ele>
        <time>2019-01-10T08:54:28.000Z</time>
      </trkpt>
      <trkpt lat="47.24212" lon="-2.30332">
        <ele>22</ele>
        <time>2019-01-10T08:54:29.000Z</time>
      </trkpt>
      <trkpt lat="47.24207" lon="-2.3033">
        <ele>21.60000038147</ele>
        <time>2019-01-10T08:54:31.000Z</time>
      </trkpt>
      <trkpt lat="47.24205" lon="-2.30328">
        <ele>21.200000762939</ele>
        <time>2019-01-10T08:54:32.000Z</time>
      </trkpt>
      <trkpt lat="47.24204" lon="-2.30325">
        <ele>20.60000038147</ele>
        <time>2019-01-10T08:54:33.000Z</time>
      </trkpt>
      <trkpt lat="47.24202" lon="-2.30321">
        <ele>20.200000762939</ele>
        <time>2019-01-10T08:54:34.000Z</time>
      </trkpt>
      <trkpt lat="47.24201" lon="-2.30316">
        <ele>19.799999237061</ele>
        <time>2019-01-10T08:54:35.000Z</time>
      </trkpt>
      <trkpt lat="47.24201" lon="-2.3031">
        <ele>19.799999237061</ele>
        <time>2019-01-10T08:54:36.000Z</time>
      </trkpt>
      <trkpt lat="47.242" lon="-2.30304">
        <ele>19.799999237061</ele>
        <time>2019-01-10T08:54:37.000Z</time>
      </trkpt>
      <trkpt lat="47.24198" lon="-2.30284">
        <ele>19.799999237061</ele>
        <time>2019-01-10T08:54:40.000Z</time>
      </trkpt>
      <trkpt lat="47.24195" lon="-2.30262">
        <ele>19.39999961853</ele>
        <time>2019-01-10T08:54:43.000Z</time>
      </trkpt>
      <trkpt lat="47.24194" lon="-2.30256">
        <ele>18.799999237061</ele>
        <time>2019-01-10T08:54:44.000Z</time>
      </trkpt>
      <trkpt lat="47.24194" lon="-2.30249">
        <ele>18.39999961853</ele>
        <time>2019-01-10T08:54:45.000Z</time>
      </trkpt>
      <trkpt lat="47.24193" lon="-2.30246">
        <ele>18</ele>
        <time>2019-01-10T08:54:46.000Z</time>
      </trkpt>
      <trkpt lat="47.24193" lon="-2.30243">
        <ele>17.60000038147</ele>
        <time>2019-01-10T08:54:47.000Z</time>
      </trkpt>
      <trkpt lat="47.24193" lon="-2.30237">
        <ele>17.60000038147</ele>
        <time>2019-01-10T08:54:49.000Z</time>
      </trkpt>
      <trkpt lat="47.24191" lon="-2.30236">
        <ele>17.60000038147</ele>
        <time>2019-01-10T08:54:50.000Z</time>
      </trkpt>
      <trkpt lat="47.24185" lon="-2.30244">
        <ele>17.60000038147</ele>
        <time>2019-01-10T08:54:53.000Z</time>
      </trkpt>
      <trkpt lat="47.24174" lon="-2.30243">
        <ele>17.60000038147</ele>
        <time>2019-01-10T08:54:56.000Z</time>
      </trkpt>
      <trkpt lat="47.24171" lon="-2.30238">
        <ele>17.60000038147</ele>
        <time>2019-01-10T08:54:57.000Z</time>
      </trkpt>
      <trkpt lat="47.24165" lon="-2.30231">
        <ele>17.60000038147</ele>
        <time>2019-01-10T08:54:59.000Z</time>
      </trkpt>
      <trkpt lat="47.24156" lon="-2.30212">
        <ele>17.60000038147</ele>
        <time>2019-01-10T08:55:04.000Z</time>
      </trkpt>
      <trkpt lat="47.24151" lon="-2.30198">
        <ele>18</ele>
        <time>2019-01-10T08:55:08.000Z</time>
      </trkpt>
      <trkpt lat="47.2415" lon="-2.30196">
        <ele>18.39999961853</ele>
        <time>2019-01-10T08:55:09.000Z</time>
      </trkpt>
      <trkpt lat="47.2415" lon="-2.30194">
        <ele>18.799999237061</ele>
        <time>2019-01-10T08:55:10.000Z</time>
      </trkpt>
      <trkpt lat="47.24149" lon="-2.30191">
        <ele>19.200000762939</ele>
        <time>2019-01-10T08:55:11.000Z</time>
      </trkpt>
      <trkpt lat="47.24147" lon="-2.30188">
        <ele>19.60000038147</ele>
        <time>2019-01-10T08:55:12.000Z</time>
      </trkpt>
      <trkpt lat="47.24145" lon="-2.30185">
        <ele>19.60000038147</ele>
        <time>2019-01-10T08:55:14.000Z</time>
      </trkpt>
      <trkpt lat="47.24141" lon="-2.30175">
        <ele>19.60000038147</ele>
        <time>2019-01-10T08:55:18.000Z</time>
      </trkpt>
      <trkpt lat="47.24139" lon="-2.3017">
        <ele>20</ele>
        <time>2019-01-10T08:55:20.000Z</time>
      </trkpt>
      <trkpt lat="47.24138" lon="-2.30168">
        <ele>20.60000038147</ele>
        <time>2019-01-10T08:55:21.000Z</time>
      </trkpt>
      <trkpt lat="47.24137" lon="-2.30166">
        <ele>21</ele>
        <time>2019-01-10T08:55:22.000Z</time>
      </trkpt>
      <trkpt lat="47.24137" lon="-2.30166">
        <ele>21.39999961853</ele>
        <time>2019-01-10T08:55:23.000Z</time>
      </trkpt>
      <trkpt lat="47.24135" lon="-2.30166">
        <ele>22</ele>
        <time>2019-01-10T08:55:24.000Z</time>
      </trkpt>
      <trkpt lat="47.24134" lon="-2.30166">
        <ele>22.39999961853</ele>
        <time>2019-01-10T08:55:25.000Z</time>
      </trkpt>
      <trkpt lat="47.24132" lon="-2.30166">
        <ele>23</ele>
        <time>2019-01-10T08:55:26.000Z</time>
      </trkpt>
      <trkpt lat="47.24131" lon="-2.30167">
        <ele>23.60000038147</ele>
        <time>2019-01-10T08:55:27.000Z</time>
      </trkpt>
      <trkpt lat="47.2413" lon="-2.30168">
        <ele>24</ele>
        <time>2019-01-10T08:55:28.000Z</time>
      </trkpt>
      <trkpt lat="47.24128" lon="-2.3017">
        <ele>24</ele>
        <time>2019-01-10T08:55:31.000Z</time>
      </trkpt>
      <trkpt lat="47.24124" lon="-2.3017">
        <ele>24</ele>
        <time>2019-01-10T08:55:33.000Z</time>
      </trkpt>
      <trkpt lat="47.24116" lon="-2.30167">
        <ele>24</ele>
        <time>2019-01-10T08:55:36.000Z</time>
      </trkpt>
      <trkpt lat="47.24108" lon="-2.30164">
        <ele>24.39999961853</ele>
        <time>2019-01-10T08:55:40.000Z</time>
      </trkpt>
      <trkpt lat="47.24106" lon="-2.30165">
        <ele>24.799999237061</ele>
        <time>2019-01-10T08:55:41.000Z</time>
      </trkpt>
      <trkpt lat="47.24105" lon="-2.30165">
        <ele>25.200000762939</ele>
        <time>2019-01-10T08:55:42.000Z</time>
      </trkpt>
      <trkpt lat="47.24103" lon="-2.30163">
        <ele>25.60000038147</ele>
        <time>2019-01-10T08:55:43.000Z</time>
      </trkpt>
      <trkpt lat="47.24101" lon="-2.30162">
        <ele>26</ele>
        <time>2019-01-10T08:55:44.000Z</time>
      </trkpt>
      <trkpt lat="47.24098" lon="-2.30158">
        <ele>26</ele>
        <time>2019-01-10T08:55:46.000Z</time>
      </trkpt>
      <trkpt lat="47.24098" lon="-2.30157">
        <ele>26</ele>
        <time>2019-01-10T08:55:48.000Z</time>
      </trkpt>
      <trkpt lat="47.24099" lon="-2.30156">
        <ele>26</ele>
        <time>2019-01-10T08:55:49.000Z</time>
      </trkpt>
      <trkpt lat="47.24099" lon="-2.30154">
        <ele>26</ele>
        <time>2019-01-10T08:55:50.000Z</time>
      </trkpt>
      <trkpt lat="47.24106" lon="-2.30153">
        <ele>26</ele>
        <time>2019-01-10T08:55:55.000Z</time>
      </trkpt>
      <trkpt lat="47.24113" lon="-2.30147">
        <ele>26</ele>
        <time>2019-01-10T08:55:59.000Z</time>
      </trkpt>
      <trkpt lat="47.24115" lon="-2.30148">
        <ele>26</ele>
        <time>2019-01-10T08:56:01.000Z</time>
      </trkpt>
      <trkpt lat="47.24116" lon="-2.3015">
        <ele>26</ele>
        <time>2019-01-10T08:56:02.000Z</time>
      </trkpt>
      <trkpt lat="47.24118" lon="-2.30151">
        <ele>26</ele>
        <time>2019-01-10T08:56:03.000Z</time>
      </trkpt>
      <trkpt lat="47.24122" lon="-2.30153">
        <ele>26</ele>
        <time>2019-01-10T08:56:05.000Z</time>
      </trkpt>
      <trkpt lat="47.24126" lon="-2.30149">
        <ele>26</ele>
        <time>2019-01-10T08:56:07.000Z</time>
      </trkpt>
      <trkpt lat="47.2413" lon="-2.30146">
        <ele>25.60000038147</ele>
        <time>2019-01-10T08:56:09.000Z</time>
      </trkpt>
      <trkpt lat="47.24131" lon="-2.30143">
        <ele>25.200000762939</ele>
        <time>2019-01-10T08:56:10.000Z</time>
      </trkpt>
      <trkpt lat="47.24133" lon="-2.3014">
        <ele>24.799999237061</ele>
        <time>2019-01-10T08:56:11.000Z</time>
      </trkpt>
      <trkpt lat="47.24135" lon="-2.30137">
        <ele>24.39999961853</ele>
        <time>2019-01-10T08:56:12.000Z</time>
      </trkpt>
      <trkpt lat="47.24137" lon="-2.30137">
        <ele>23.799999237061</ele>
        <time>2019-01-10T08:56:13.000Z</time>
      </trkpt>
      <trkpt lat="47.24142" lon="-2.30125">
        <ele>23.799999237061</ele>
        <time>2019-01-10T08:56:16.000Z</time>
      </trkpt>
      <trkpt lat="47.2415" lon="-2.301">
        <ele>23.799999237061</ele>
        <time>2019-01-10T08:56:22.000Z</time>
      </trkpt>
      <trkpt lat="47.24149" lon="-2.30089">
        <ele>23.799999237061</ele>
        <time>2019-01-10T08:56:27.000Z</time>
      </trkpt>
      <trkpt lat="47.24147" lon="-2.30084">
        <ele>23.799999237061</ele>
        <time>2019-01-10T08:56:29.000Z</time>
      </trkpt>
      <trkpt lat="47.24146" lon="-2.30082">
        <ele>24.39999961853</ele>
        <time>2019-01-10T08:56:30.000Z</time>
      </trkpt>
      <trkpt lat="47.24145" lon="-2.3008">
        <ele>24.799999237061</ele>
        <time>2019-01-10T08:56:31.000Z</time>
      </trkpt>
      <trkpt lat="47.24143" lon="-2.30079">
        <ele>25.200000762939</ele>
        <time>2019-01-10T08:56:32.000Z</time>
      </trkpt>
      <trkpt lat="47.24143" lon="-2.30077">
        <ele>25.60000038147</ele>
        <time>2019-01-10T08:56:33.000Z</time>
      </trkpt>
      <trkpt lat="47.24142" lon="-2.30075">
        <ele>26</ele>
        <time>2019-01-10T08:56:34.000Z</time>
      </trkpt>
      <trkpt lat="47.24136" lon="-2.30063">
        <ele>26</ele>
        <time>2019-01-10T08:56:38.000Z</time>
      </trkpt>
      <trkpt lat="47.24136" lon="-2.30052">
        <ele>26</ele>
        <time>2019-01-10T08:56:40.000Z</time>
      </trkpt>
      <trkpt lat="47.24135" lon="-2.30047">
        <ele>26.39999961853</ele>
        <time>2019-01-10T08:56:41.000Z</time>
      </trkpt>
      <trkpt lat="47.24136" lon="-2.30042">
        <ele>26.799999237061</ele>
        <time>2019-01-10T08:56:42.000Z</time>
      </trkpt>
      <trkpt lat="47.24138" lon="-2.30041">
        <ele>27.200000762939</ele>
        <time>2019-01-10T08:56:43.000Z</time>
      </trkpt>
      <trkpt lat="47.24141" lon="-2.3004">
        <ele>27.60000038147</ele>
        <time>2019-01-10T08:56:44.000Z</time>
      </trkpt>
      <trkpt lat="47.24142" lon="-2.30041">
        <ele>28</ele>
        <time>2019-01-10T08:56:45.000Z</time>
      </trkpt>
      <trkpt lat="47.24143" lon="-2.30051">
        <ele>28</ele>
        <time>2019-01-10T08:56:48.000Z</time>
      </trkpt>
      <trkpt lat="47.24145" lon="-2.30063">
        <ele>28</ele>
        <time>2019-01-10T08:56:50.000Z</time>
      </trkpt>
      <trkpt lat="47.24147" lon="-2.30072">
        <ele>28</ele>
        <time>2019-01-10T08:56:52.000Z</time>
      </trkpt>
      <trkpt lat="47.24148" lon="-2.30076">
        <ele>28</ele>
        <time>2019-01-10T08:56:53.000Z</time>
      </trkpt>
      <trkpt lat="47.24149" lon="-2.30078">
        <ele>27.60000038147</ele>
        <time>2019-01-10T08:56:54.000Z</time>
      </trkpt>
      <trkpt lat="47.24151" lon="-2.30076">
        <ele>27.200000762939</ele>
        <time>2019-01-10T08:56:55.000Z</time>
      </trkpt>
      <trkpt lat="47.24152" lon="-2.30073">
        <ele>26.799999237061</ele>
        <time>2019-01-10T08:56:56.000Z</time>
      </trkpt>
      <trkpt lat="47.24153" lon="-2.30068">
        <ele>26.200000762939</ele>
        <time>2019-01-10T08:56:57.000Z</time>
      </trkpt>
      <trkpt lat="47.24155" lon="-2.30064">
        <ele>25.799999237061</ele>
        <time>2019-01-10T08:56:58.000Z</time>
      </trkpt>
      <trkpt lat="47.24159" lon="-2.30056">
        <ele>25.799999237061</ele>
        <time>2019-01-10T08:57:00.000Z</time>
      </trkpt>
      <trkpt lat="47.24163" lon="-2.30037">
        <ele>25.799999237061</ele>
        <time>2019-01-10T08:57:05.000Z</time>
      </trkpt>
      <trkpt lat="47.2416" lon="-2.30032">
        <ele>26.200000762939</ele>
        <time>2019-01-10T08:57:07.000Z</time>
      </trkpt>
      <trkpt lat="47.24159" lon="-2.30028">
        <ele>26.60000038147</ele>
        <time>2019-01-10T08:57:08.000Z</time>
      </trkpt>
      <trkpt lat="47.24156" lon="-2.30028">
        <ele>27</ele>
        <time>2019-01-10T08:57:09.000Z</time>
      </trkpt>
      <trkpt lat="47.24155" lon="-2.30029">
        <ele>27.39999961853</ele>
        <time>2019-01-10T08:57:10.000Z</time>
      </trkpt>
      <trkpt lat="47.24154" lon="-2.3003">
        <ele>27.799999237061</ele>
        <time>2019-01-10T08:57:11.000Z</time>
      </trkpt>
      <trkpt lat="47.24152" lon="-2.30025">
        <ele>27.799999237061</ele>
        <time>2019-01-10T08:57:15.000Z</time>
      </trkpt>
      <trkpt lat="47.24148" lon="-2.30024">
        <ele>27.799999237061</ele>
        <time>2019-01-10T08:57:19.000Z</time>
      </trkpt>
      <trkpt lat="47.24142" lon="-2.30017">
        <ele>27.799999237061</ele>
        <time>2019-01-10T08:57:24.000Z</time>
      </trkpt>
      <trkpt lat="47.24139" lon="-2.30009">
        <ele>27.799999237061</ele>
        <time>2019-01-10T08:57:27.000Z</time>
      </trkpt>
      <trkpt lat="47.24136" lon="-2.30004">
        <ele>27.799999237061</ele>
        <time>2019-01-10T08:57:29.000Z</time>
      </trkpt>
      <trkpt lat="47.24135" lon="-2.30003">
        <ele>27.799999237061</ele>
        <time>2019-01-10T08:57:30.000Z</time>
      </trkpt>
      <trkpt lat="47.24133" lon="-2.30002">
        <ele>28.200000762939</ele>
        <time>2019-01-10T08:57:31.000Z</time>
      </trkpt>
      <trkpt lat="47.24131" lon="-2.3">
        <ele>28.60000038147</ele>
        <time>2019-01-10T08:57:32.000Z</time>
      </trkpt>
      <trkpt lat="47.24128" lon="-2.29999">
        <ele>29</ele>
        <time>2019-01-10T08:57:33.000Z</time>
      </trkpt>
      <trkpt lat="47.24125" lon="-2.29999">
        <ele>29.39999961853</ele>
        <time>2019-01-10T08:57:34.000Z</time>
      </trkpt>
      <trkpt lat="47.24123" lon="-2.29997">
        <ele>29.799999237061</ele>
        <time>2019-01-10T08:57:35.000Z</time>
      </trkpt>
      <trkpt lat="47.24117" lon="-2.29997">
        <ele>29.799999237061</ele>
        <time>2019-01-10T08:57:37.000Z</time>
      </trkpt>
      <trkpt lat="47.24109" lon="-2.29995">
        <ele>29.799999237061</ele>
        <time>2019-01-10T08:57:40.000Z</time>
      </trkpt>
      <trkpt lat="47.24107" lon="-2.29993">
        <ele>29.799999237061</ele>
        <time>2019-01-10T08:57:41.000Z</time>
      </trkpt>
      <trkpt lat="47.24105" lon="-2.29992">
        <ele>29.799999237061</ele>
        <time>2019-01-10T08:57:42.000Z</time>
      </trkpt>
      <trkpt lat="47.24094" lon="-2.29986">
        <ele>29.799999237061</ele>
        <time>2019-01-10T08:57:47.000Z</time>
      </trkpt>
      <trkpt lat="47.24091" lon="-2.29976">
        <ele>29.799999237061</ele>
        <time>2019-01-10T08:57:51.000Z</time>
      </trkpt>
      <trkpt lat="47.24091" lon="-2.29973">
        <ele>29.799999237061</ele>
        <time>2019-01-10T08:57:52.000Z</time>
      </trkpt>
      <trkpt lat="47.24087" lon="-2.29961">
        <ele>29.799999237061</ele>
        <time>2019-01-10T08:57:56.000Z</time>
      </trkpt>
      <trkpt lat="47.24084" lon="-2.29953">
        <ele>29.799999237061</ele>
        <time>2019-01-10T08:57:58.000Z</time>
      </trkpt>
      <trkpt lat="47.24081" lon="-2.29934">
        <ele>29.799999237061</ele>
        <time>2019-01-10T08:58:02.000Z</time>
      </trkpt>
      <trkpt lat="47.24081" lon="-2.29921">
        <ele>29.799999237061</ele>
        <time>2019-01-10T08:58:04.000Z</time>
      </trkpt>
      <trkpt lat="47.24082" lon="-2.29899">
        <ele>29.799999237061</ele>
        <time>2019-01-10T08:58:07.000Z</time>
      </trkpt>
      <trkpt lat="47.24082" lon="-2.29877">
        <ele>29.799999237061</ele>
        <time>2019-01-10T08:58:10.000Z</time>
      </trkpt>
      <trkpt lat="47.24084" lon="-2.29865">
        <ele>29.799999237061</ele>
        <time>2019-01-10T08:58:12.000Z</time>
      </trkpt>
      <trkpt lat="47.24087" lon="-2.29859">
        <ele>30.200000762939</ele>
        <time>2019-01-10T08:58:14.000Z</time>
      </trkpt>
      <trkpt lat="47.2409" lon="-2.29858">
        <ele>30.60000038147</ele>
        <time>2019-01-10T08:58:15.000Z</time>
      </trkpt>
      <trkpt lat="47.24092" lon="-2.29857">
        <ele>31</ele>
        <time>2019-01-10T08:58:16.000Z</time>
      </trkpt>
      <trkpt lat="47.24094" lon="-2.29857">
        <ele>31.39999961853</ele>
        <time>2019-01-10T08:58:17.000Z</time>
      </trkpt>
      <trkpt lat="47.24096" lon="-2.29859">
        <ele>31.799999237061</ele>
        <time>2019-01-10T08:58:18.000Z</time>
      </trkpt>
      <trkpt lat="47.24099" lon="-2.29859">
        <ele>31.799999237061</ele>
        <time>2019-01-10T08:58:20.000Z</time>
      </trkpt>
      <trkpt lat="47.24107" lon="-2.29854">
        <ele>31.799999237061</ele>
        <time>2019-01-10T08:58:23.000Z</time>
      </trkpt>
      <trkpt lat="47.24114" lon="-2.29851">
        <ele>31.799999237061</ele>
        <time>2019-01-10T08:58:25.000Z</time>
      </trkpt>
      <trkpt lat="47.24137" lon="-2.29844">
        <ele>31.799999237061</ele>
        <time>2019-01-10T08:58:30.000Z</time>
      </trkpt>
      <trkpt lat="47.24152" lon="-2.29846">
        <ele>31.799999237061</ele>
        <time>2019-01-10T08:58:34.000Z</time>
      </trkpt>
      <trkpt lat="47.24162" lon="-2.29849">
        <ele>31.799999237061</ele>
        <time>2019-01-10T08:58:38.000Z</time>
      </trkpt>
      <trkpt lat="47.24165" lon="-2.2985">
        <ele>31.799999237061</ele>
        <time>2019-01-10T08:58:39.000Z</time>
      </trkpt>
      <trkpt lat="47.24168" lon="-2.29855">
        <ele>31.799999237061</ele>
        <time>2019-01-10T08:58:42.000Z</time>
      </trkpt>
      <trkpt lat="47.24171" lon="-2.29869">
        <ele>31.799999237061</ele>
        <time>2019-01-10T08:58:46.000Z</time>
      </trkpt>
      <trkpt lat="47.24177" lon="-2.29889">
        <ele>31.799999237061</ele>
        <time>2019-01-10T08:58:52.000Z</time>
      </trkpt>
      <trkpt lat="47.24172" lon="-2.29914">
        <ele>31.799999237061</ele>
        <time>2019-01-10T08:58:58.000Z</time>
      </trkpt>
      <trkpt lat="47.2417" lon="-2.29936">
        <ele>31.799999237061</ele>
        <time>2019-01-10T08:59:03.000Z</time>
      </trkpt>
      <trkpt lat="47.24163" lon="-2.29964">
        <ele>31.799999237061</ele>
        <time>2019-01-10T08:59:09.000Z</time>
      </trkpt>
      <trkpt lat="47.24163" lon="-2.29965">
        <ele>31.799999237061</ele>
        <time>2019-01-10T08:59:10.000Z</time>
      </trkpt>
      <trkpt lat="47.24164" lon="-2.2997">
        <ele>31.799999237061</ele>
        <time>2019-01-10T08:59:12.000Z</time>
      </trkpt>
      <trkpt lat="47.24167" lon="-2.29972">
        <ele>31.799999237061</ele>
        <time>2019-01-10T08:59:14.000Z</time>
      </trkpt>
      <trkpt lat="47.24175" lon="-2.2997">
        <ele>31.799999237061</ele>
        <time>2019-01-10T08:59:17.000Z</time>
      </trkpt>
      <trkpt lat="47.24194" lon="-2.29968">
        <ele>31.39999961853</ele>
        <time>2019-01-10T08:59:22.000Z</time>
      </trkpt>
      <trkpt lat="47.24197" lon="-2.29965">
        <ele>31</ele>
        <time>2019-01-10T08:59:23.000Z</time>
      </trkpt>
      <trkpt lat="47.242" lon="-2.29963">
        <ele>30.60000038147</ele>
        <time>2019-01-10T08:59:24.000Z</time>
      </trkpt>
      <trkpt lat="47.24204" lon="-2.2996">
        <ele>30.200000762939</ele>
        <time>2019-01-10T08:59:25.000Z</time>
      </trkpt>
      <trkpt lat="47.24208" lon="-2.29957">
        <ele>29.799999237061</ele>
        <time>2019-01-10T08:59:26.000Z</time>
      </trkpt>
      <trkpt lat="47.24223" lon="-2.2995">
        <ele>29.799999237061</ele>
        <time>2019-01-10T08:59:30.000Z</time>
      </trkpt>
      <trkpt lat="47.24241" lon="-2.29933">
        <ele>29.799999237061</ele>
        <time>2019-01-10T08:59:34.000Z</time>
      </trkpt>
      <trkpt lat="47.24246" lon="-2.29928">
        <ele>29.39999961853</ele>
        <time>2019-01-10T08:59:35.000Z</time>
      </trkpt>
      <trkpt lat="47.2425" lon="-2.29924">
        <ele>29</ele>
        <time>2019-01-10T08:59:36.000Z</time>
      </trkpt>
      <trkpt lat="47.24254" lon="-2.29919">
        <ele>28.60000038147</ele>
        <time>2019-01-10T08:59:37.000Z</time>
      </trkpt>
      <trkpt lat="47.24259" lon="-2.29916">
        <ele>28.200000762939</ele>
        <time>2019-01-10T08:59:38.000Z</time>
      </trkpt>
      <trkpt lat="47.24263" lon="-2.29912">
        <ele>27.799999237061</ele>
        <time>2019-01-10T08:59:39.000Z</time>
      </trkpt>
      <trkpt lat="47.24268" lon="-2.29908">
        <ele>27.799999237061</ele>
        <time>2019-01-10T08:59:40.000Z</time>
      </trkpt>
      <trkpt lat="47.2428" lon="-2.299">
        <ele>27.799999237061</ele>
        <time>2019-01-10T08:59:43.000Z</time>
      </trkpt>
      <trkpt lat="47.24285" lon="-2.29898">
        <ele>27.799999237061</ele>
        <time>2019-01-10T08:59:44.000Z</time>
      </trkpt>
      <trkpt lat="47.24298" lon="-2.29887">
        <ele>27.799999237061</ele>
        <time>2019-01-10T08:59:47.000Z</time>
      </trkpt>
      <trkpt lat="47.24307" lon="-2.29876">
        <ele>27.799999237061</ele>
        <time>2019-01-10T08:59:49.000Z</time>
      </trkpt>
      <trkpt lat="47.24312" lon="-2.29843">
        <ele>27.799999237061</ele>
        <time>2019-01-10T08:59:53.000Z</time>
      </trkpt>
      <trkpt lat="47.24317" lon="-2.2982">
        <ele>28.200000762939</ele>
        <time>2019-01-10T08:59:56.000Z</time>
      </trkpt>
      <trkpt lat="47.24321" lon="-2.29815">
        <ele>28.60000038147</ele>
        <time>2019-01-10T08:59:57.000Z</time>
      </trkpt>
      <trkpt lat="47.24326" lon="-2.29812">
        <ele>29</ele>
        <time>2019-01-10T08:59:58.000Z</time>
      </trkpt>
      <trkpt lat="47.24331" lon="-2.2981">
        <ele>29.39999961853</ele>
        <time>2019-01-10T08:59:59.000Z</time>
      </trkpt>
      <trkpt lat="47.24337" lon="-2.29808">
        <ele>29.799999237061</ele>
        <time>2019-01-10T09:00:00.000Z</time>
      </trkpt>
      <trkpt lat="47.24342" lon="-2.29807">
        <ele>29.799999237061</ele>
        <time>2019-01-10T09:00:01.000Z</time>
      </trkpt>
      <trkpt lat="47.24353" lon="-2.29801">
        <ele>29.799999237061</ele>
        <time>2019-01-10T09:00:03.000Z</time>
      </trkpt>
      <trkpt lat="47.24361" lon="-2.2979">
        <ele>29.799999237061</ele>
        <time>2019-01-10T09:00:05.000Z</time>
      </trkpt>
      <trkpt lat="47.24375" lon="-2.29762">
        <ele>29.799999237061</ele>
        <time>2019-01-10T09:00:09.000Z</time>
      </trkpt>
      <trkpt lat="47.24378" lon="-2.29755">
        <ele>29.799999237061</ele>
        <time>2019-01-10T09:00:10.000Z</time>
      </trkpt>
      <trkpt lat="47.24393" lon="-2.29719">
        <ele>29.799999237061</ele>
        <time>2019-01-10T09:00:15.000Z</time>
      </trkpt>
      <trkpt lat="47.24395" lon="-2.29711">
        <ele>29.799999237061</ele>
        <time>2019-01-10T09:00:16.000Z</time>
      </trkpt>
      <trkpt lat="47.2441" lon="-2.29696">
        <ele>29.799999237061</ele>
        <time>2019-01-10T09:00:20.000Z</time>
      </trkpt>
      <trkpt lat="47.24415" lon="-2.29693">
        <ele>29.799999237061</ele>
        <time>2019-01-10T09:00:21.000Z</time>
      </trkpt>
      <trkpt lat="47.2442" lon="-2.29693">
        <ele>29.799999237061</ele>
        <time>2019-01-10T09:00:22.000Z</time>
      </trkpt>
      <trkpt lat="47.24428" lon="-2.29694">
        <ele>29.799999237061</ele>
        <time>2019-01-10T09:00:24.000Z</time>
      </trkpt>
      <trkpt lat="47.24438" lon="-2.29708">
        <ele>29.799999237061</ele>
        <time>2019-01-10T09:00:27.000Z</time>
      </trkpt>
      <trkpt lat="47.24442" lon="-2.2973">
        <ele>29.799999237061</ele>
        <time>2019-01-10T09:00:30.000Z</time>
      </trkpt>
      <trkpt lat="47.24454" lon="-2.29758">
        <ele>29.799999237061</ele>
        <time>2019-01-10T09:00:34.000Z</time>
      </trkpt>
      <trkpt lat="47.24457" lon="-2.29765">
        <ele>29.799999237061</ele>
        <time>2019-01-10T09:00:35.000Z</time>
      </trkpt>
      <trkpt lat="47.24457" lon="-2.29772">
        <ele>30.60000038147</ele>
        <time>2019-01-10T09:00:36.000Z</time>
      </trkpt>
      <trkpt lat="47.24458" lon="-2.29779">
        <ele>31</ele>
        <time>2019-01-10T09:00:37.000Z</time>
      </trkpt>
      <trkpt lat="47.2446" lon="-2.29787">
        <ele>31.39999961853</ele>
        <time>2019-01-10T09:00:38.000Z</time>
      </trkpt>
      <trkpt lat="47.24462" lon="-2.29794">
        <ele>31.799999237061</ele>
        <time>2019-01-10T09:00:39.000Z</time>
      </trkpt>
      <trkpt lat="47.24467" lon="-2.29807">
        <ele>31.799999237061</ele>
        <time>2019-01-10T09:00:41.000Z</time>
      </trkpt>
      <trkpt lat="47.24474" lon="-2.2982">
        <ele>31.799999237061</ele>
        <time>2019-01-10T09:00:43.000Z</time>
      </trkpt>
      <trkpt lat="47.24494" lon="-2.29846">
        <ele>31.799999237061</ele>
        <time>2019-01-10T09:00:48.000Z</time>
      </trkpt>
      <trkpt lat="47.245" lon="-2.29849">
        <ele>31.799999237061</ele>
        <time>2019-01-10T09:00:49.000Z</time>
      </trkpt>
      <trkpt lat="47.24532" lon="-2.29866">
        <ele>31.799999237061</ele>
        <time>2019-01-10T09:00:55.000Z</time>
      </trkpt>
      <trkpt lat="47.24537" lon="-2.29868">
        <ele>31.799999237061</ele>
        <time>2019-01-10T09:00:56.000Z</time>
      </trkpt>
      <trkpt lat="47.24557" lon="-2.29877">
        <ele>31.799999237061</ele>
        <time>2019-01-10T09:01:00.000Z</time>
      </trkpt>
      <trkpt lat="47.24563" lon="-2.29886">
        <ele>32.200000762939</ele>
        <time>2019-01-10T09:01:02.000Z</time>
      </trkpt>
      <trkpt lat="47.24566" lon="-2.29891">
        <ele>32.599998474121</ele>
        <time>2019-01-10T09:01:03.000Z</time>
      </trkpt>
      <trkpt lat="47.2457" lon="-2.29895">
        <ele>33.200000762939</ele>
        <time>2019-01-10T09:01:04.000Z</time>
      </trkpt>
      <trkpt lat="47.24572" lon="-2.299">
        <ele>33.599998474121</ele>
        <time>2019-01-10T09:01:05.000Z</time>
      </trkpt>
      <trkpt lat="47.24575" lon="-2.29904">
        <ele>34</ele>
        <time>2019-01-10T09:01:06.000Z</time>
      </trkpt>
      <trkpt lat="47.24583" lon="-2.29918">
        <ele>34</ele>
        <time>2019-01-10T09:01:09.000Z</time>
      </trkpt>
      <trkpt lat="47.24594" lon="-2.29936">
        <ele>34</ele>
        <time>2019-01-10T09:01:13.000Z</time>
      </trkpt>
      <trkpt lat="47.24601" lon="-2.29941">
        <ele>34</ele>
        <time>2019-01-10T09:01:15.000Z</time>
      </trkpt>
      <trkpt lat="47.24606" lon="-2.29941">
        <ele>34</ele>
        <time>2019-01-10T09:01:16.000Z</time>
      </trkpt>
      <trkpt lat="47.24615" lon="-2.29938">
        <ele>34</ele>
        <time>2019-01-10T09:01:18.000Z</time>
      </trkpt>
      <trkpt lat="47.24644" lon="-2.29929">
        <ele>34</ele>
        <time>2019-01-10T09:01:24.000Z</time>
      </trkpt>
      <trkpt lat="47.24648" lon="-2.29927">
        <ele>34</ele>
        <time>2019-01-10T09:01:25.000Z</time>
      </trkpt>
      <trkpt lat="47.24668" lon="-2.29919">
        <ele>34</ele>
        <time>2019-01-10T09:01:29.000Z</time>
      </trkpt>
      <trkpt lat="47.24689" lon="-2.29911">
        <ele>34</ele>
        <time>2019-01-10T09:01:33.000Z</time>
      </trkpt>
      <trkpt lat="47.24699" lon="-2.29908">
        <ele>34</ele>
        <time>2019-01-10T09:01:35.000Z</time>
      </trkpt>
      <trkpt lat="47.24714" lon="-2.29904">
        <ele>34</ele>
        <time>2019-01-10T09:01:38.000Z</time>
      </trkpt>
      <trkpt lat="47.24729" lon="-2.29898">
        <ele>34</ele>
        <time>2019-01-10T09:01:41.000Z</time>
      </trkpt>
      <trkpt lat="47.24739" lon="-2.29894">
        <ele>34.400001525879</ele>
        <time>2019-01-10T09:01:43.000Z</time>
      </trkpt>
      <trkpt lat="47.24743" lon="-2.29891">
        <ele>34.799999237061</ele>
        <time>2019-01-10T09:01:44.000Z</time>
      </trkpt>
      <trkpt lat="47.24748" lon="-2.29889">
        <ele>35.200000762939</ele>
        <time>2019-01-10T09:01:45.000Z</time>
      </trkpt>
      <trkpt lat="47.24753" lon="-2.29885">
        <ele>35.599998474121</ele>
        <time>2019-01-10T09:01:46.000Z</time>
      </trkpt>
      <trkpt lat="47.24758" lon="-2.29882">
        <ele>36</ele>
        <time>2019-01-10T09:01:47.000Z</time>
      </trkpt>
      <trkpt lat="47.24763" lon="-2.29877">
        <ele>36</ele>
        <time>2019-01-10T09:01:48.000Z</time>
      </trkpt>
      <trkpt lat="47.24787" lon="-2.29859">
        <ele>36</ele>
        <time>2019-01-10T09:01:53.000Z</time>
      </trkpt>
      <trkpt lat="47.24813" lon="-2.29847">
        <ele>36</ele>
        <time>2019-01-10T09:01:58.000Z</time>
      </trkpt>
      <trkpt lat="47.24824" lon="-2.29844">
        <ele>36</ele>
        <time>2019-01-10T09:02:00.000Z</time>
      </trkpt>
      <trkpt lat="47.24829" lon="-2.29843">
        <ele>36</ele>
        <time>2019-01-10T09:02:01.000Z</time>
      </trkpt>
      <trkpt lat="47.24839" lon="-2.2984">
        <ele>36</ele>
        <time>2019-01-10T09:02:03.000Z</time>
      </trkpt>
      <trkpt lat="47.24848" lon="-2.29834">
        <ele>36</ele>
        <time>2019-01-10T09:02:05.000Z</time>
      </trkpt>
      <trkpt lat="47.24863" lon="-2.29832">
        <ele>36</ele>
        <time>2019-01-10T09:02:09.000Z</time>
      </trkpt>
      <trkpt lat="47.24868" lon="-2.2985">
        <ele>36</ele>
        <time>2019-01-10T09:02:12.000Z</time>
      </trkpt>
      <trkpt lat="47.2487" lon="-2.29857">
        <ele>36</ele>
        <time>2019-01-10T09:02:13.000Z</time>
      </trkpt>
      <trkpt lat="47.24875" lon="-2.29881">
        <ele>36</ele>
        <time>2019-01-10T09:02:16.000Z</time>
      </trkpt>
      <trkpt lat="47.24876" lon="-2.29889">
        <ele>36</ele>
        <time>2019-01-10T09:02:17.000Z</time>
      </trkpt>
      <trkpt lat="47.24882" lon="-2.29935">
        <ele>36</ele>
        <time>2019-01-10T09:02:22.000Z</time>
      </trkpt>
      <trkpt lat="47.24891" lon="-2.2997">
        <ele>36</ele>
        <time>2019-01-10T09:02:26.000Z</time>
      </trkpt>
      <trkpt lat="47.24903" lon="-2.3002">
        <ele>36</ele>
        <time>2019-01-10T09:02:32.000Z</time>
      </trkpt>
      <trkpt lat="47.24904" lon="-2.30028">
        <ele>36</ele>
        <time>2019-01-10T09:02:33.000Z</time>
      </trkpt>
      <trkpt lat="47.24904" lon="-2.30041">
        <ele>36</ele>
        <time>2019-01-10T09:02:35.000Z</time>
      </trkpt>
      <trkpt lat="47.24903" lon="-2.30047">
        <ele>36</ele>
        <time>2019-01-10T09:02:36.000Z</time>
      </trkpt>
      <trkpt lat="47.24907" lon="-2.30056">
        <ele>36</ele>
        <time>2019-01-10T09:02:39.000Z</time>
      </trkpt>
      <trkpt lat="47.24917" lon="-2.30057">
        <ele>36</ele>
        <time>2019-01-10T09:02:42.000Z</time>
      </trkpt>
      <trkpt lat="47.24921" lon="-2.30057">
        <ele>36</ele>
        <time>2019-01-10T09:02:43.000Z</time>
      </trkpt>
      <trkpt lat="47.24952" lon="-2.30057">
        <ele>36</ele>
        <time>2019-01-10T09:02:49.000Z</time>
      </trkpt>
      <trkpt lat="47.24986" lon="-2.30055">
        <ele>36</ele>
        <time>2019-01-10T09:02:56.000Z</time>
      </trkpt>
      <trkpt lat="47.2499" lon="-2.30054">
        <ele>36</ele>
        <time>2019-01-10T09:02:57.000Z</time>
      </trkpt>
      <trkpt lat="47.25005" lon="-2.30053">
        <ele>36</ele>
        <time>2019-01-10T09:03:00.000Z</time>
      </trkpt>
      <trkpt lat="47.25015" lon="-2.30053">
        <ele>36</ele>
        <time>2019-01-10T09:03:02.000Z</time>
      </trkpt>
      <trkpt lat="47.25019" lon="-2.30053">
        <ele>36</ele>
        <time>2019-01-10T09:03:03.000Z</time>
      </trkpt>
      <trkpt lat="47.25032" lon="-2.30054">
        <ele>36</ele>
        <time>2019-01-10T09:03:06.000Z</time>
      </trkpt>
      <trkpt lat="47.25042" lon="-2.30055">
        <ele>36</ele>
        <time>2019-01-10T09:03:08.000Z</time>
      </trkpt>
      <trkpt lat="47.25061" lon="-2.30058">
        <ele>36</ele>
        <time>2019-01-10T09:03:13.000Z</time>
      </trkpt>
      <trkpt lat="47.25066" lon="-2.30059">
        <ele>35.599998474121</ele>
        <time>2019-01-10T09:03:15.000Z</time>
      </trkpt>
      <trkpt lat="47.25068" lon="-2.30059">
        <ele>35.200000762939</ele>
        <time>2019-01-10T09:03:16.000Z</time>
      </trkpt>
      <trkpt lat="47.2507" lon="-2.30062">
        <ele>34.799999237061</ele>
        <time>2019-01-10T09:03:17.000Z</time>
      </trkpt>
      <trkpt lat="47.2507" lon="-2.30066">
        <ele>34.400001525879</ele>
        <time>2019-01-10T09:03:18.000Z</time>
      </trkpt>
      <trkpt lat="47.2507" lon="-2.30071">
        <ele>34</ele>
        <time>2019-01-10T09:03:19.000Z</time>
      </trkpt>
      <trkpt lat="47.25067" lon="-2.30091">
        <ele>34</ele>
        <time>2019-01-10T09:03:22.000Z</time>
      </trkpt>
      <trkpt lat="47.25067" lon="-2.301">
        <ele>34</ele>
        <time>2019-01-10T09:03:23.000Z</time>
      </trkpt>
      <trkpt lat="47.25066" lon="-2.3013">
        <ele>34</ele>
        <time>2019-01-10T09:03:27.000Z</time>
      </trkpt>
      <trkpt lat="47.25068" lon="-2.30135">
        <ele>34</ele>
        <time>2019-01-10T09:03:28.000Z</time>
      </trkpt>
      <trkpt lat="47.25077" lon="-2.30136">
        <ele>34</ele>
        <time>2019-01-10T09:03:30.000Z</time>
      </trkpt>
      <trkpt lat="47.25088" lon="-2.30134">
        <ele>34</ele>
        <time>2019-01-10T09:03:32.000Z</time>
      </trkpt>
      <trkpt lat="47.25099" lon="-2.30133">
        <ele>34</ele>
        <time>2019-01-10T09:03:34.000Z</time>
      </trkpt>
      <trkpt lat="47.25123" lon="-2.30128">
        <ele>34</ele>
        <time>2019-01-10T09:03:38.000Z</time>
      </trkpt>
      <trkpt lat="47.25135" lon="-2.30126">
        <ele>34</ele>
        <time>2019-01-10T09:03:40.000Z</time>
      </trkpt>
      <trkpt lat="47.25141" lon="-2.30125">
        <ele>34</ele>
        <time>2019-01-10T09:03:41.000Z</time>
      </trkpt>
      <trkpt lat="47.25172" lon="-2.30119">
        <ele>34</ele>
        <time>2019-01-10T09:03:46.000Z</time>
      </trkpt>
      <trkpt lat="47.25177" lon="-2.30122">
        <ele>34</ele>
        <time>2019-01-10T09:03:47.000Z</time>
      </trkpt>
      <trkpt lat="47.25182" lon="-2.30127">
        <ele>33.599998474121</ele>
        <time>2019-01-10T09:03:48.000Z</time>
      </trkpt>
      <trkpt lat="47.25186" lon="-2.30135">
        <ele>33.200000762939</ele>
        <time>2019-01-10T09:03:49.000Z</time>
      </trkpt>
      <trkpt lat="47.25189" lon="-2.30142">
        <ele>32.599998474121</ele>
        <time>2019-01-10T09:03:50.000Z</time>
      </trkpt>
      <trkpt lat="47.25193" lon="-2.30148">
        <ele>32.200000762939</ele>
        <time>2019-01-10T09:03:51.000Z</time>
      </trkpt>
      <trkpt lat="47.25198" lon="-2.30154">
        <ele>31.799999237061</ele>
        <time>2019-01-10T09:03:52.000Z</time>
      </trkpt>
      <trkpt lat="47.25209" lon="-2.30166">
        <ele>31.799999237061</ele>
        <time>2019-01-10T09:03:54.000Z</time>
      </trkpt>
      <trkpt lat="47.25215" lon="-2.30171">
        <ele>31.799999237061</ele>
        <time>2019-01-10T09:03:55.000Z</time>
      </trkpt>
      <trkpt lat="47.25227" lon="-2.30177">
        <ele>31.39999961853</ele>
        <time>2019-01-10T09:03:57.000Z</time>
      </trkpt>
      <trkpt lat="47.25234" lon="-2.30179">
        <ele>31</ele>
        <time>2019-01-10T09:03:58.000Z</time>
      </trkpt>
      <trkpt lat="47.2524" lon="-2.30182">
        <ele>30.60000038147</ele>
        <time>2019-01-10T09:03:59.000Z</time>
      </trkpt>
      <trkpt lat="47.25247" lon="-2.30185">
        <ele>30.200000762939</ele>
        <time>2019-01-10T09:04:00.000Z</time>
      </trkpt>
      <trkpt lat="47.25254" lon="-2.30189">
        <ele>29.60000038147</ele>
        <time>2019-01-10T09:04:01.000Z</time>
      </trkpt>
      <trkpt lat="47.25261" lon="-2.30192">
        <ele>29.60000038147</ele>
        <time>2019-01-10T09:04:02.000Z</time>
      </trkpt>
      <trkpt lat="47.25275" lon="-2.30199">
        <ele>29.60000038147</ele>
        <time>2019-01-10T09:04:04.000Z</time>
      </trkpt>
      <trkpt lat="47.25287" lon="-2.30204">
        <ele>29.60000038147</ele>
        <time>2019-01-10T09:04:06.000Z</time>
      </trkpt>
      <trkpt lat="47.25291" lon="-2.30206">
        <ele>29.200000762939</ele>
        <time>2019-01-10T09:04:07.000Z</time>
      </trkpt>
      <trkpt lat="47.25294" lon="-2.30208">
        <ele>28.799999237061</ele>
        <time>2019-01-10T09:04:08.000Z</time>
      </trkpt>
      <trkpt lat="47.25297" lon="-2.3021">
        <ele>28.39999961853</ele>
        <time>2019-01-10T09:04:09.000Z</time>
      </trkpt>
      <trkpt lat="47.25299" lon="-2.30211">
        <ele>28</ele>
        <time>2019-01-10T09:04:10.000Z</time>
      </trkpt>
      <trkpt lat="47.25301" lon="-2.30211">
        <ele>27.60000038147</ele>
        <time>2019-01-10T09:04:11.000Z</time>
      </trkpt>
      <trkpt lat="47.25304" lon="-2.30207">
        <ele>27.60000038147</ele>
        <time>2019-01-10T09:04:13.000Z</time>
      </trkpt>
      <trkpt lat="47.25306" lon="-2.30204">
        <ele>27.60000038147</ele>
        <time>2019-01-10T09:04:14.000Z</time>
      </trkpt>
      <trkpt lat="47.25312" lon="-2.30204">
        <ele>27.60000038147</ele>
        <time>2019-01-10T09:04:16.000Z</time>
      </trkpt>
      <trkpt lat="47.25328" lon="-2.30207">
        <ele>27.60000038147</ele>
        <time>2019-01-10T09:04:19.000Z</time>
      </trkpt>
      <trkpt lat="47.25333" lon="-2.30208">
        <ele>27.60000038147</ele>
        <time>2019-01-10T09:04:20.000Z</time>
      </trkpt>
      <trkpt lat="47.25362" lon="-2.30209">
        <ele>27.200000762939</ele>
        <time>2019-01-10T09:04:25.000Z</time>
      </trkpt>
      <trkpt lat="47.25368" lon="-2.30209">
        <ele>26.799999237061</ele>
        <time>2019-01-10T09:04:26.000Z</time>
      </trkpt>
      <trkpt lat="47.25374" lon="-2.3021">
        <ele>26.39999961853</ele>
        <time>2019-01-10T09:04:27.000Z</time>
      </trkpt>
      <trkpt lat="47.25379" lon="-2.30212">
        <ele>25.799999237061</ele>
        <time>2019-01-10T09:04:28.000Z</time>
      </trkpt>
      <trkpt lat="47.25384" lon="-2.30213">
        <ele>25.39999961853</ele>
        <time>2019-01-10T09:04:29.000Z</time>
      </trkpt>
      <trkpt lat="47.25395" lon="-2.30218">
        <ele>25.39999961853</ele>
        <time>2019-01-10T09:04:31.000Z</time>
      </trkpt>
      <trkpt lat="47.25401" lon="-2.30221">
        <ele>25.39999961853</ele>
        <time>2019-01-10T09:04:32.000Z</time>
      </trkpt>
      <trkpt lat="47.25407" lon="-2.30225">
        <ele>25.39999961853</ele>
        <time>2019-01-10T09:04:33.000Z</time>
      </trkpt>
      <trkpt lat="47.25419" lon="-2.30229">
        <ele>25.39999961853</ele>
        <time>2019-01-10T09:04:35.000Z</time>
      </trkpt>
      <trkpt lat="47.25424" lon="-2.30232">
        <ele>25.39999961853</ele>
        <time>2019-01-10T09:04:36.000Z</time>
      </trkpt>
      <trkpt lat="47.25442" lon="-2.30238">
        <ele>25.39999961853</ele>
        <time>2019-01-10T09:04:39.000Z</time>
      </trkpt>
      <trkpt lat="47.2546" lon="-2.30244">
        <ele>25</ele>
        <time>2019-01-10T09:04:42.000Z</time>
      </trkpt>
      <trkpt lat="47.25465" lon="-2.30246">
        <ele>24.60000038147</ele>
        <time>2019-01-10T09:04:43.000Z</time>
      </trkpt>
      <trkpt lat="47.25469" lon="-2.30247">
        <ele>24.200000762939</ele>
        <time>2019-01-10T09:04:44.000Z</time>
      </trkpt>
      <trkpt lat="47.25471" lon="-2.30246">
        <ele>23.799999237061</ele>
        <time>2019-01-10T09:04:45.000Z</time>
      </trkpt>
      <trkpt lat="47.25473" lon="-2.30243">
        <ele>23.39999961853</ele>
        <time>2019-01-10T09:04:46.000Z</time>
      </trkpt>
      <trkpt lat="47.25479" lon="-2.30229">
        <ele>23.39999961853</ele>
        <time>2019-01-10T09:04:49.000Z</time>
      </trkpt>
      <trkpt lat="47.25481" lon="-2.30224">
        <ele>23.39999961853</ele>
        <time>2019-01-10T09:04:50.000Z</time>
      </trkpt>
      <trkpt lat="47.25486" lon="-2.30212">
        <ele>23.39999961853</ele>
        <time>2019-01-10T09:04:52.000Z</time>
      </trkpt>
      <trkpt lat="47.25492" lon="-2.30203">
        <ele>23.39999961853</ele>
        <time>2019-01-10T09:04:54.000Z</time>
      </trkpt>
      <trkpt lat="47.25496" lon="-2.30198">
        <ele>23.39999961853</ele>
        <time>2019-01-10T09:04:55.000Z</time>
      </trkpt>
      <trkpt lat="47.25504" lon="-2.30195">
        <ele>23.39999961853</ele>
        <time>2019-01-10T09:04:57.000Z</time>
      </trkpt>
      <trkpt lat="47.25508" lon="-2.30195">
        <ele>23</ele>
        <time>2019-01-10T09:04:58.000Z</time>
      </trkpt>
      <trkpt lat="47.25511" lon="-2.30197">
        <ele>22.60000038147</ele>
        <time>2019-01-10T09:04:59.000Z</time>
      </trkpt>
      <trkpt lat="47.25515" lon="-2.30198">
        <ele>22</ele>
        <time>2019-01-10T09:05:00.000Z</time>
      </trkpt>
      <trkpt lat="47.25518" lon="-2.30198">
        <ele>21.60000038147</ele>
        <time>2019-01-10T09:05:01.000Z</time>
      </trkpt>
      <trkpt lat="47.25521" lon="-2.30197">
        <ele>21.200000762939</ele>
        <time>2019-01-10T09:05:02.000Z</time>
      </trkpt>
      <trkpt lat="47.25537" lon="-2.30189">
        <ele>21.200000762939</ele>
        <time>2019-01-10T09:05:06.000Z</time>
      </trkpt>
      <trkpt lat="47.25542" lon="-2.30185">
        <ele>21.200000762939</ele>
        <time>2019-01-10T09:05:07.000Z</time>
      </trkpt>
      <trkpt lat="47.25547" lon="-2.30183">
        <ele>21.200000762939</ele>
        <time>2019-01-10T09:05:08.000Z</time>
      </trkpt>
      <trkpt lat="47.25557" lon="-2.30182">
        <ele>21.200000762939</ele>
        <time>2019-01-10T09:05:10.000Z</time>
      </trkpt>
      <trkpt lat="47.25572" lon="-2.3019">
        <ele>21.200000762939</ele>
        <time>2019-01-10T09:05:13.000Z</time>
      </trkpt>
      <trkpt lat="47.25577" lon="-2.30194">
        <ele>21.200000762939</ele>
        <time>2019-01-10T09:05:14.000Z</time>
      </trkpt>
      <trkpt lat="47.25597" lon="-2.30213">
        <ele>21.200000762939</ele>
        <time>2019-01-10T09:05:17.000Z</time>
      </trkpt>
      <trkpt lat="47.25609" lon="-2.30238">
        <ele>21.200000762939</ele>
        <time>2019-01-10T09:05:20.000Z</time>
      </trkpt>
      <trkpt lat="47.25612" lon="-2.30248">
        <ele>21.200000762939</ele>
        <time>2019-01-10T09:05:21.000Z</time>
      </trkpt>
      <trkpt lat="47.25615" lon="-2.30257">
        <ele>21.200000762939</ele>
        <time>2019-01-10T09:05:22.000Z</time>
      </trkpt>
      <trkpt lat="47.25623" lon="-2.30301">
        <ele>21.200000762939</ele>
        <time>2019-01-10T09:05:27.000Z</time>
      </trkpt>
      <trkpt lat="47.25624" lon="-2.30309">
        <ele>21.200000762939</ele>
        <time>2019-01-10T09:05:28.000Z</time>
      </trkpt>
      <trkpt lat="47.25628" lon="-2.3033">
        <ele>21.200000762939</ele>
        <time>2019-01-10T09:05:31.000Z</time>
      </trkpt>
      <trkpt lat="47.25629" lon="-2.30338">
        <ele>20.200000762939</ele>
        <time>2019-01-10T09:05:33.000Z</time>
      </trkpt>
      <trkpt lat="47.25631" lon="-2.3034">
        <ele>19.799999237061</ele>
        <time>2019-01-10T09:05:34.000Z</time>
      </trkpt>
      <trkpt lat="47.25633" lon="-2.30341">
        <ele>19.39999961853</ele>
        <time>2019-01-10T09:05:35.000Z</time>
      </trkpt>
      <trkpt lat="47.25635" lon="-2.30341">
        <ele>19</ele>
        <time>2019-01-10T09:05:36.000Z</time>
      </trkpt>
      <trkpt lat="47.25639" lon="-2.30338">
        <ele>19</ele>
        <time>2019-01-10T09:05:38.000Z</time>
      </trkpt>
      <trkpt lat="47.25644" lon="-2.3033">
        <ele>19</ele>
        <time>2019-01-10T09:05:40.000Z</time>
      </trkpt>
      <trkpt lat="47.25649" lon="-2.3032">
        <ele>19</ele>
        <time>2019-01-10T09:05:42.000Z</time>
      </trkpt>
      <trkpt lat="47.25655" lon="-2.30304">
        <ele>19</ele>
        <time>2019-01-10T09:05:45.000Z</time>
      </trkpt>
      <trkpt lat="47.25656" lon="-2.30298">
        <ele>19</ele>
        <time>2019-01-10T09:05:46.000Z</time>
      </trkpt>
      <trkpt lat="47.25657" lon="-2.30292">
        <ele>19</ele>
        <time>2019-01-10T09:05:47.000Z</time>
      </trkpt>
      <trkpt lat="47.25666" lon="-2.30276">
        <ele>19</ele>
        <time>2019-01-10T09:05:50.000Z</time>
      </trkpt>
      <trkpt lat="47.25669" lon="-2.30271">
        <ele>19</ele>
        <time>2019-01-10T09:05:51.000Z</time>
      </trkpt>
      <trkpt lat="47.25679" lon="-2.30254">
        <ele>19</ele>
        <time>2019-01-10T09:05:55.000Z</time>
      </trkpt>
      <trkpt lat="47.25691" lon="-2.30226">
        <ele>19</ele>
        <time>2019-01-10T09:06:01.000Z</time>
      </trkpt>
      <trkpt lat="47.25706" lon="-2.30211">
        <ele>19</ele>
        <time>2019-01-10T09:06:05.000Z</time>
      </trkpt>
      <trkpt lat="47.2571" lon="-2.30209">
        <ele>19</ele>
        <time>2019-01-10T09:06:06.000Z</time>
      </trkpt>
      <trkpt lat="47.25731" lon="-2.30211">
        <ele>19</ele>
        <time>2019-01-10T09:06:10.000Z</time>
      </trkpt>
      <trkpt lat="47.25742" lon="-2.30215">
        <ele>18.60000038147</ele>
        <time>2019-01-10T09:06:12.000Z</time>
      </trkpt>
      <trkpt lat="47.25748" lon="-2.30218">
        <ele>18.200000762939</ele>
        <time>2019-01-10T09:06:13.000Z</time>
      </trkpt>
      <trkpt lat="47.25753" lon="-2.3022">
        <ele>17.799999237061</ele>
        <time>2019-01-10T09:06:14.000Z</time>
      </trkpt>
      <trkpt lat="47.25759" lon="-2.30223">
        <ele>17.39999961853</ele>
        <time>2019-01-10T09:06:15.000Z</time>
      </trkpt>
      <trkpt lat="47.25765" lon="-2.30226">
        <ele>17</ele>
        <time>2019-01-10T09:06:16.000Z</time>
      </trkpt>
      <trkpt lat="47.25789" lon="-2.30238">
        <ele>17</ele>
        <time>2019-01-10T09:06:20.000Z</time>
      </trkpt>
      <trkpt lat="47.25794" lon="-2.3024">
        <ele>17</ele>
        <time>2019-01-10T09:06:21.000Z</time>
      </trkpt>
      <trkpt lat="47.25811" lon="-2.30248">
        <ele>16.60000038147</ele>
        <time>2019-01-10T09:06:24.000Z</time>
      </trkpt>
      <trkpt lat="47.25817" lon="-2.30251">
        <ele>16.200000762939</ele>
        <time>2019-01-10T09:06:25.000Z</time>
      </trkpt>
      <trkpt lat="47.25823" lon="-2.30253">
        <ele>15.800000190735</ele>
        <time>2019-01-10T09:06:26.000Z</time>
      </trkpt>
      <trkpt lat="47.25828" lon="-2.30256">
        <ele>15.39999961853</ele>
        <time>2019-01-10T09:06:27.000Z</time>
      </trkpt>
      <trkpt lat="47.25834" lon="-2.30257">
        <ele>15</ele>
        <time>2019-01-10T09:06:28.000Z</time>
      </trkpt>
      <trkpt lat="47.25853" lon="-2.30267">
        <ele>15</ele>
        <time>2019-01-10T09:06:32.000Z</time>
      </trkpt>
      <trkpt lat="47.25862" lon="-2.3027">
        <ele>15</ele>
        <time>2019-01-10T09:06:34.000Z</time>
      </trkpt>
      <trkpt lat="47.25867" lon="-2.30271">
        <ele>15.39999961853</ele>
        <time>2019-01-10T09:06:35.000Z</time>
      </trkpt>
      <trkpt lat="47.25871" lon="-2.30269">
        <ele>15.800000190735</ele>
        <time>2019-01-10T09:06:36.000Z</time>
      </trkpt>
      <trkpt lat="47.25875" lon="-2.30266">
        <ele>16.200000762939</ele>
        <time>2019-01-10T09:06:37.000Z</time>
      </trkpt>
      <trkpt lat="47.2588" lon="-2.30262">
        <ele>16.60000038147</ele>
        <time>2019-01-10T09:06:38.000Z</time>
      </trkpt>
      <trkpt lat="47.25883" lon="-2.30256">
        <ele>17</ele>
        <time>2019-01-10T09:06:39.000Z</time>
      </trkpt>
      <trkpt lat="47.25886" lon="-2.3025">
        <ele>17</ele>
        <time>2019-01-10T09:06:40.000Z</time>
      </trkpt>
      <trkpt lat="47.25889" lon="-2.30218">
        <ele>17</ele>
        <time>2019-01-10T09:06:44.000Z</time>
      </trkpt>
      <trkpt lat="47.25883" lon="-2.30188">
        <ele>17</ele>
        <time>2019-01-10T09:06:48.000Z</time>
      </trkpt>
      <trkpt lat="47.25881" lon="-2.30181">
        <ele>17</ele>
        <time>2019-01-10T09:06:49.000Z</time>
      </trkpt>
      <trkpt lat="47.25884" lon="-2.30171">
        <ele>17</ele>
        <time>2019-01-10T09:06:51.000Z</time>
      </trkpt>
      <trkpt lat="47.25896" lon="-2.30169">
        <ele>17</ele>
        <time>2019-01-10T09:06:54.000Z</time>
      </trkpt>
      <trkpt lat="47.25901" lon="-2.3017">
        <ele>17</ele>
        <time>2019-01-10T09:06:55.000Z</time>
      </trkpt>
      <trkpt lat="47.25924" lon="-2.30168">
        <ele>17</ele>
        <time>2019-01-10T09:06:59.000Z</time>
      </trkpt>
      <trkpt lat="47.25944" lon="-2.30162">
        <ele>16.60000038147</ele>
        <time>2019-01-10T09:07:02.000Z</time>
      </trkpt>
      <trkpt lat="47.25949" lon="-2.30158">
        <ele>16.200000762939</ele>
        <time>2019-01-10T09:07:03.000Z</time>
      </trkpt>
      <trkpt lat="47.25955" lon="-2.30151">
        <ele>15.800000190735</ele>
        <time>2019-01-10T09:07:04.000Z</time>
      </trkpt>
      <trkpt lat="47.25959" lon="-2.30143">
        <ele>15.39999961853</ele>
        <time>2019-01-10T09:07:05.000Z</time>
      </trkpt>
      <trkpt lat="47.25963" lon="-2.30134">
        <ele>14.800000190735</ele>
        <time>2019-01-10T09:07:06.000Z</time>
      </trkpt>
      <trkpt lat="47.25967" lon="-2.30104">
        <ele>14.800000190735</ele>
        <time>2019-01-10T09:07:09.000Z</time>
      </trkpt>
      <trkpt lat="47.25968" lon="-2.30094">
        <ele>14.800000190735</ele>
        <time>2019-01-10T09:07:10.000Z</time>
      </trkpt>
      <trkpt lat="47.25972" lon="-2.30027">
        <ele>14.800000190735</ele>
        <time>2019-01-10T09:07:17.000Z</time>
      </trkpt>
      <trkpt lat="47.25977" lon="-2.29966">
        <ele>14.800000190735</ele>
        <time>2019-01-10T09:07:24.000Z</time>
      </trkpt>
      <trkpt lat="47.25981" lon="-2.29952">
        <ele>14.800000190735</ele>
        <time>2019-01-10T09:07:26.000Z</time>
      </trkpt>
      <trkpt lat="47.25985" lon="-2.2994">
        <ele>14.800000190735</ele>
        <time>2019-01-10T09:07:28.000Z</time>
      </trkpt>
      <trkpt lat="47.2599" lon="-2.29925">
        <ele>14.800000190735</ele>
        <time>2019-01-10T09:07:32.000Z</time>
      </trkpt>
      <trkpt lat="47.25989" lon="-2.29921">
        <ele>14.800000190735</ele>
        <time>2019-01-10T09:07:34.000Z</time>
      </trkpt>
      <trkpt lat="47.25987" lon="-2.29918">
        <ele>14.800000190735</ele>
        <time>2019-01-10T09:07:35.000Z</time>
      </trkpt>
      <trkpt lat="47.25983" lon="-2.29914">
        <ele>14.800000190735</ele>
        <time>2019-01-10T09:07:37.000Z</time>
      </trkpt>
      <trkpt lat="47.25979" lon="-2.29899">
        <ele>14.800000190735</ele>
        <time>2019-01-10T09:07:41.000Z</time>
      </trkpt>
      <trkpt lat="47.25973" lon="-2.29885">
        <ele>14.800000190735</ele>
        <time>2019-01-10T09:07:45.000Z</time>
      </trkpt>
      <trkpt lat="47.25966" lon="-2.29875">
        <ele>14.800000190735</ele>
        <time>2019-01-10T09:07:50.000Z</time>
      </trkpt>
      <trkpt lat="47.25966" lon="-2.29871">
        <ele>14.800000190735</ele>
        <time>2019-01-10T09:07:53.000Z</time>
      </trkpt>
      <trkpt lat="47.25967" lon="-2.2987">
        <ele>14.800000190735</ele>
        <time>2019-01-10T09:07:55.000Z</time>
      </trkpt>
      <trkpt lat="47.25965" lon="-2.29868">
        <ele>14.800000190735</ele>
        <time>2019-01-10T09:07:56.000Z</time>
      </trkpt>
      <trkpt lat="47.2596" lon="-2.29862">
        <ele>14.800000190735</ele>
        <time>2019-01-10T09:07:59.000Z</time>
      </trkpt>
      <trkpt lat="47.25958" lon="-2.29853">
        <ele>14.800000190735</ele>
        <time>2019-01-10T09:08:02.000Z</time>
      </trkpt>
      <trkpt lat="47.25957" lon="-2.29846">
        <ele>14.800000190735</ele>
        <time>2019-01-10T09:08:04.000Z</time>
      </trkpt>
      <trkpt lat="47.25956" lon="-2.29819">
        <ele>14.800000190735</ele>
        <time>2019-01-10T09:08:09.000Z</time>
      </trkpt>
      <trkpt lat="47.25955" lon="-2.29814">
        <ele>14.800000190735</ele>
        <time>2019-01-10T09:08:10.000Z</time>
      </trkpt>
      <trkpt lat="47.25951" lon="-2.29801">
        <ele>14.800000190735</ele>
        <time>2019-01-10T09:08:13.000Z</time>
      </trkpt>
      <trkpt lat="47.25946" lon="-2.29784">
        <ele>14.800000190735</ele>
        <time>2019-01-10T09:08:17.000Z</time>
      </trkpt>
      <trkpt lat="47.25944" lon="-2.2978">
        <ele>14.800000190735</ele>
        <time>2019-01-10T09:08:18.000Z</time>
      </trkpt>
      <trkpt lat="47.25932" lon="-2.29749">
        <ele>14.800000190735</ele>
        <time>2019-01-10T09:08:26.000Z</time>
      </trkpt>
      <trkpt lat="47.25931" lon="-2.29747">
        <ele>14.800000190735</ele>
        <time>2019-01-10T09:08:27.000Z</time>
      </trkpt>
      <trkpt lat="47.25931" lon="-2.2974">
        <ele>14.800000190735</ele>
        <time>2019-01-10T09:08:29.000Z</time>
      </trkpt>
      <trkpt lat="47.25931" lon="-2.29737">
        <ele>14.800000190735</ele>
        <time>2019-01-10T09:08:30.000Z</time>
      </trkpt>
      <trkpt lat="47.25931" lon="-2.29734">
        <ele>15.199999809265</ele>
        <time>2019-01-10T09:08:31.000Z</time>
      </trkpt>
      <trkpt lat="47.25931" lon="-2.29729">
        <ele>15.800000190735</ele>
        <time>2019-01-10T09:08:32.000Z</time>
      </trkpt>
      <trkpt lat="47.25931" lon="-2.29724">
        <ele>16.200000762939</ele>
        <time>2019-01-10T09:08:33.000Z</time>
      </trkpt>
      <trkpt lat="47.25931" lon="-2.29719">
        <ele>16.60000038147</ele>
        <time>2019-01-10T09:08:34.000Z</time>
      </trkpt>
      <trkpt lat="47.25932" lon="-2.29714">
        <ele>17</ele>
        <time>2019-01-10T09:08:35.000Z</time>
      </trkpt>
      <trkpt lat="47.25934" lon="-2.29679">
        <ele>17</ele>
        <time>2019-01-10T09:08:41.000Z</time>
      </trkpt>
      <trkpt lat="47.25936" lon="-2.29666">
        <ele>17.39999961853</ele>
        <time>2019-01-10T09:08:43.000Z</time>
      </trkpt>
      <trkpt lat="47.25936" lon="-2.29659">
        <ele>17.799999237061</ele>
        <time>2019-01-10T09:08:44.000Z</time>
      </trkpt>
      <trkpt lat="47.25936" lon="-2.29652">
        <ele>18.200000762939</ele>
        <time>2019-01-10T09:08:45.000Z</time>
      </trkpt>
      <trkpt lat="47.25937" lon="-2.29646">
        <ele>18.60000038147</ele>
        <time>2019-01-10T09:08:46.000Z</time>
      </trkpt>
      <trkpt lat="47.25938" lon="-2.2964">
        <ele>19</ele>
        <time>2019-01-10T09:08:47.000Z</time>
      </trkpt>
      <trkpt lat="47.2594" lon="-2.29636">
        <ele>19</ele>
        <time>2019-01-10T09:08:48.000Z</time>
      </trkpt>
      <trkpt lat="47.25943" lon="-2.29635">
        <ele>19</ele>
        <time>2019-01-10T09:08:49.000Z</time>
      </trkpt>
      <trkpt lat="47.25953" lon="-2.29643">
        <ele>19</ele>
        <time>2019-01-10T09:08:52.000Z</time>
      </trkpt>
      <trkpt lat="47.25957" lon="-2.29646">
        <ele>19</ele>
        <time>2019-01-10T09:08:53.000Z</time>
      </trkpt>
      <trkpt lat="47.25966" lon="-2.29647">
        <ele>19</ele>
        <time>2019-01-10T09:08:55.000Z</time>
      </trkpt>
      <trkpt lat="47.2598" lon="-2.29638">
        <ele>19</ele>
        <time>2019-01-10T09:08:58.000Z</time>
      </trkpt>
      <trkpt lat="47.25985" lon="-2.29634">
        <ele>19</ele>
        <time>2019-01-10T09:08:59.000Z</time>
      </trkpt>
      <trkpt lat="47.25996" lon="-2.29629">
        <ele>19</ele>
        <time>2019-01-10T09:09:01.000Z</time>
      </trkpt>
      <trkpt lat="47.26007" lon="-2.29627">
        <ele>19</ele>
        <time>2019-01-10T09:09:03.000Z</time>
      </trkpt>
      <trkpt lat="47.26018" lon="-2.29625">
        <ele>19</ele>
        <time>2019-01-10T09:09:05.000Z</time>
      </trkpt>
      <trkpt lat="47.26032" lon="-2.29624">
        <ele>19</ele>
        <time>2019-01-10T09:09:08.000Z</time>
      </trkpt>
      <trkpt lat="47.26042" lon="-2.29623">
        <ele>19</ele>
        <time>2019-01-10T09:09:10.000Z</time>
      </trkpt>
      <trkpt lat="47.26051" lon="-2.29622">
        <ele>19.39999961853</ele>
        <time>2019-01-10T09:09:12.000Z</time>
      </trkpt>
      <trkpt lat="47.26055" lon="-2.29621">
        <ele>19.799999237061</ele>
        <time>2019-01-10T09:09:13.000Z</time>
      </trkpt>
      <trkpt lat="47.2606" lon="-2.2962">
        <ele>20.39999961853</ele>
        <time>2019-01-10T09:09:14.000Z</time>
      </trkpt>
      <trkpt lat="47.26064" lon="-2.29619">
        <ele>20.799999237061</ele>
        <time>2019-01-10T09:09:15.000Z</time>
      </trkpt>
      <trkpt lat="47.26068" lon="-2.29618">
        <ele>21.200000762939</ele>
        <time>2019-01-10T09:09:16.000Z</time>
      </trkpt>
      <trkpt lat="47.26072" lon="-2.29616">
        <ele>21.200000762939</ele>
        <time>2019-01-10T09:09:17.000Z</time>
      </trkpt>
      <trkpt lat="47.26074" lon="-2.29613">
        <ele>21.200000762939</ele>
        <time>2019-01-10T09:09:18.000Z</time>
      </trkpt>
      <trkpt lat="47.26077" lon="-2.29611">
        <ele>21.60000038147</ele>
        <time>2019-01-10T09:09:19.000Z</time>
      </trkpt>
      <trkpt lat="47.26081" lon="-2.2961">
        <ele>22</ele>
        <time>2019-01-10T09:09:20.000Z</time>
      </trkpt>
      <trkpt lat="47.26084" lon="-2.2961">
        <ele>22.39999961853</ele>
        <time>2019-01-10T09:09:21.000Z</time>
      </trkpt>
      <trkpt lat="47.26087" lon="-2.29609">
        <ele>23</ele>
        <time>2019-01-10T09:09:22.000Z</time>
      </trkpt>
      <trkpt lat="47.2609" lon="-2.29608">
        <ele>23.39999961853</ele>
        <time>2019-01-10T09:09:23.000Z</time>
      </trkpt>
      <trkpt lat="47.26097" lon="-2.29605">
        <ele>23.799999237061</ele>
        <time>2019-01-10T09:09:25.000Z</time>
      </trkpt>
      <trkpt lat="47.261" lon="-2.29604">
        <ele>24.200000762939</ele>
        <time>2019-01-10T09:09:26.000Z</time>
      </trkpt>
      <trkpt lat="47.26103" lon="-2.29602">
        <ele>24.60000038147</ele>
        <time>2019-01-10T09:09:27.000Z</time>
      </trkpt>
      <trkpt lat="47.26107" lon="-2.29601">
        <ele>25</ele>
        <time>2019-01-10T09:09:28.000Z</time>
      </trkpt>
      <trkpt lat="47.26111" lon="-2.296">
        <ele>25.39999961853</ele>
        <time>2019-01-10T09:09:29.000Z</time>
      </trkpt>
      <trkpt lat="47.26125" lon="-2.29592">
        <ele>25.799999237061</ele>
        <time>2019-01-10T09:09:33.000Z</time>
      </trkpt>
      <trkpt lat="47.26129" lon="-2.2959">
        <ele>26.39999961853</ele>
        <time>2019-01-10T09:09:34.000Z</time>
      </trkpt>
      <trkpt lat="47.26132" lon="-2.29589">
        <ele>26.799999237061</ele>
        <time>2019-01-10T09:09:35.000Z</time>
      </trkpt>
      <trkpt lat="47.26136" lon="-2.29587">
        <ele>27.200000762939</ele>
        <time>2019-01-10T09:09:36.000Z</time>
      </trkpt>
      <trkpt lat="47.2614" lon="-2.29585">
        <ele>27.60000038147</ele>
        <time>2019-01-10T09:09:37.000Z</time>
      </trkpt>
      <trkpt lat="47.26153" lon="-2.2958">
        <ele>28</ele>
        <time>2019-01-10T09:09:41.000Z</time>
      </trkpt>
      <trkpt lat="47.26157" lon="-2.29579">
        <ele>28.39999961853</ele>
        <time>2019-01-10T09:09:42.000Z</time>
      </trkpt>
      <trkpt lat="47.2616" lon="-2.29578">
        <ele>28.799999237061</ele>
        <time>2019-01-10T09:09:43.000Z</time>
      </trkpt>
      <trkpt lat="47.26163" lon="-2.29577">
        <ele>29.200000762939</ele>
        <time>2019-01-10T09:09:44.000Z</time>
      </trkpt>
      <trkpt lat="47.26167" lon="-2.29576">
        <ele>29.60000038147</ele>
        <time>2019-01-10T09:09:45.000Z</time>
      </trkpt>
      <trkpt lat="47.26173" lon="-2.29574">
        <ele>29.60000038147</ele>
        <time>2019-01-10T09:09:47.000Z</time>
      </trkpt>
      <trkpt lat="47.26183" lon="-2.29571">
        <ele>30</ele>
        <time>2019-01-10T09:09:50.000Z</time>
      </trkpt>
      <trkpt lat="47.26185" lon="-2.2957">
        <ele>30.60000038147</ele>
        <time>2019-01-10T09:09:51.000Z</time>
      </trkpt>
      <trkpt lat="47.26188" lon="-2.29568">
        <ele>31</ele>
        <time>2019-01-10T09:09:52.000Z</time>
      </trkpt>
      <trkpt lat="47.26189" lon="-2.29566">
        <ele>31.39999961853</ele>
        <time>2019-01-10T09:09:53.000Z</time>
      </trkpt>
      <trkpt lat="47.2619" lon="-2.29562">
        <ele>31.799999237061</ele>
        <time>2019-01-10T09:09:54.000Z</time>
      </trkpt>
      <trkpt lat="47.26188" lon="-2.29555">
        <ele>31.799999237061</ele>
        <time>2019-01-10T09:09:56.000Z</time>
      </trkpt>
      <trkpt lat="47.26181" lon="-2.29541">
        <ele>31.799999237061</ele>
        <time>2019-01-10T09:09:59.000Z</time>
      </trkpt>
      <trkpt lat="47.26177" lon="-2.29536">
        <ele>31.799999237061</ele>
        <time>2019-01-10T09:10:00.000Z</time>
      </trkpt>
      <trkpt lat="47.26173" lon="-2.29532">
        <ele>31.799999237061</ele>
        <time>2019-01-10T09:10:01.000Z</time>
      </trkpt>
      <trkpt lat="47.26158" lon="-2.29524">
        <ele>31.799999237061</ele>
        <time>2019-01-10T09:10:04.000Z</time>
      </trkpt>
      <trkpt lat="47.26153" lon="-2.2952">
        <ele>31.799999237061</ele>
        <time>2019-01-10T09:10:05.000Z</time>
      </trkpt>
      <trkpt lat="47.26149" lon="-2.29515">
        <ele>31.799999237061</ele>
        <time>2019-01-10T09:10:06.000Z</time>
      </trkpt>
      <trkpt lat="47.26132" lon="-2.2948">
        <ele>31.799999237061</ele>
        <time>2019-01-10T09:10:11.000Z</time>
      </trkpt>
      <trkpt lat="47.26124" lon="-2.29451">
        <ele>31.799999237061</ele>
        <time>2019-01-10T09:10:15.000Z</time>
      </trkpt>
      <trkpt lat="47.26125" lon="-2.29418">
        <ele>31.799999237061</ele>
        <time>2019-01-10T09:10:19.000Z</time>
      </trkpt>
      <trkpt lat="47.26126" lon="-2.2941">
        <ele>31.799999237061</ele>
        <time>2019-01-10T09:10:20.000Z</time>
      </trkpt>
      <trkpt lat="47.26135" lon="-2.29365">
        <ele>31.799999237061</ele>
        <time>2019-01-10T09:10:26.000Z</time>
      </trkpt>
      <trkpt lat="47.26136" lon="-2.2936">
        <ele>31.799999237061</ele>
        <time>2019-01-10T09:10:27.000Z</time>
      </trkpt>
      <trkpt lat="47.26142" lon="-2.29353">
        <ele>31.799999237061</ele>
        <time>2019-01-10T09:10:29.000Z</time>
      </trkpt>
      <trkpt lat="47.26153" lon="-2.29355">
        <ele>31.799999237061</ele>
        <time>2019-01-10T09:10:32.000Z</time>
      </trkpt>
      <trkpt lat="47.26172" lon="-2.29357">
        <ele>31.799999237061</ele>
        <time>2019-01-10T09:10:37.000Z</time>
      </trkpt>
      <trkpt lat="47.26191" lon="-2.29348">
        <ele>31.799999237061</ele>
        <time>2019-01-10T09:10:41.000Z</time>
      </trkpt>
      <trkpt lat="47.26204" lon="-2.29338">
        <ele>32.200000762939</ele>
        <time>2019-01-10T09:10:44.000Z</time>
      </trkpt>
      <trkpt lat="47.26208" lon="-2.29335">
        <ele>32.599998474121</ele>
        <time>2019-01-10T09:10:45.000Z</time>
      </trkpt>
      <trkpt lat="47.26212" lon="-2.29332">
        <ele>33</ele>
        <time>2019-01-10T09:10:46.000Z</time>
      </trkpt>
      <trkpt lat="47.26216" lon="-2.29328">
        <ele>33.400001525879</ele>
        <time>2019-01-10T09:10:47.000Z</time>
      </trkpt>
      <trkpt lat="47.2622" lon="-2.29326">
        <ele>33.799999237061</ele>
        <time>2019-01-10T09:10:48.000Z</time>
      </trkpt>
      <trkpt lat="47.26227" lon="-2.29321">
        <ele>33.799999237061</ele>
        <time>2019-01-10T09:10:50.000Z</time>
      </trkpt>
      <trkpt lat="47.26231" lon="-2.29318">
        <ele>33.799999237061</ele>
        <time>2019-01-10T09:10:51.000Z</time>
      </trkpt>
      <trkpt lat="47.26248" lon="-2.29302">
        <ele>33.799999237061</ele>
        <time>2019-01-10T09:10:55.000Z</time>
      </trkpt>
      <trkpt lat="47.26253" lon="-2.29299">
        <ele>33.799999237061</ele>
        <time>2019-01-10T09:10:56.000Z</time>
      </trkpt>
      <trkpt lat="47.26273" lon="-2.29287">
        <ele>34.400001525879</ele>
        <time>2019-01-10T09:11:00.000Z</time>
      </trkpt>
      <trkpt lat="47.26277" lon="-2.29284">
        <ele>34.799999237061</ele>
        <time>2019-01-10T09:11:01.000Z</time>
      </trkpt>
      <trkpt lat="47.26282" lon="-2.29281">
        <ele>35.200000762939</ele>
        <time>2019-01-10T09:11:02.000Z</time>
      </trkpt>
      <trkpt lat="47.26286" lon="-2.2928">
        <ele>35.599998474121</ele>
        <time>2019-01-10T09:11:03.000Z</time>
      </trkpt>
      <trkpt lat="47.26291" lon="-2.29278">
        <ele>36</ele>
        <time>2019-01-10T09:11:04.000Z</time>
      </trkpt>
      <trkpt lat="47.263" lon="-2.29275">
        <ele>36</ele>
        <time>2019-01-10T09:11:06.000Z</time>
      </trkpt>
      <trkpt lat="47.26325" lon="-2.29272">
        <ele>36</ele>
        <time>2019-01-10T09:11:11.000Z</time>
      </trkpt>
      <trkpt lat="47.2634" lon="-2.29274">
        <ele>36.400001525879</ele>
        <time>2019-01-10T09:11:14.000Z</time>
      </trkpt>
      <trkpt lat="47.26345" lon="-2.29275">
        <ele>36.799999237061</ele>
        <time>2019-01-10T09:11:15.000Z</time>
      </trkpt>
      <trkpt lat="47.26351" lon="-2.29276">
        <ele>37.200000762939</ele>
        <time>2019-01-10T09:11:16.000Z</time>
      </trkpt>
      <trkpt lat="47.26356" lon="-2.29278">
        <ele>37.599998474121</ele>
        <time>2019-01-10T09:11:17.000Z</time>
      </trkpt>
      <trkpt lat="47.26361" lon="-2.2928">
        <ele>38.200000762939</ele>
        <time>2019-01-10T09:11:18.000Z</time>
      </trkpt>
      <trkpt lat="47.26387" lon="-2.29292">
        <ele>38.200000762939</ele>
        <time>2019-01-10T09:11:23.000Z</time>
      </trkpt>
      <trkpt lat="47.26423" lon="-2.29312">
        <ele>38.200000762939</ele>
        <time>2019-01-10T09:11:30.000Z</time>
      </trkpt>
      <trkpt lat="47.26461" lon="-2.29333">
        <ele>38.200000762939</ele>
        <time>2019-01-10T09:11:37.000Z</time>
      </trkpt>
      <trkpt lat="47.26478" lon="-2.29339">
        <ele>38.200000762939</ele>
        <time>2019-01-10T09:11:40.000Z</time>
      </trkpt>
      <trkpt lat="47.26484" lon="-2.29339">
        <ele>38.200000762939</ele>
        <time>2019-01-10T09:11:41.000Z</time>
      </trkpt>
      <trkpt lat="47.26507" lon="-2.29337">
        <ele>38.200000762939</ele>
        <time>2019-01-10T09:11:45.000Z</time>
      </trkpt>
      <trkpt lat="47.26514" lon="-2.29334">
        <ele>38.200000762939</ele>
        <time>2019-01-10T09:11:46.000Z</time>
      </trkpt>
      <trkpt lat="47.26531" lon="-2.29325">
        <ele>38.200000762939</ele>
        <time>2019-01-10T09:11:49.000Z</time>
      </trkpt>
      <trkpt lat="47.26549" lon="-2.29316">
        <ele>38.200000762939</ele>
        <time>2019-01-10T09:11:52.000Z</time>
      </trkpt>
      <trkpt lat="47.26588" lon="-2.29294">
        <ele>38.200000762939</ele>
        <time>2019-01-10T09:11:59.000Z</time>
      </trkpt>
      <trkpt lat="47.26632" lon="-2.29266">
        <ele>38.200000762939</ele>
        <time>2019-01-10T09:12:07.000Z</time>
      </trkpt>
      <trkpt lat="47.26672" lon="-2.29227">
        <ele>37.599998474121</ele>
        <time>2019-01-10T09:12:15.000Z</time>
      </trkpt>
      <trkpt lat="47.26678" lon="-2.29222">
        <ele>37.200000762939</ele>
        <time>2019-01-10T09:12:16.000Z</time>
      </trkpt>
      <trkpt lat="47.26683" lon="-2.29217">
        <ele>36.799999237061</ele>
        <time>2019-01-10T09:12:17.000Z</time>
      </trkpt>
      <trkpt lat="47.26688" lon="-2.29212">
        <ele>36.200000762939</ele>
        <time>2019-01-10T09:12:18.000Z</time>
      </trkpt>
      <trkpt lat="47.26693" lon="-2.29207">
        <ele>35.799999237061</ele>
        <time>2019-01-10T09:12:19.000Z</time>
      </trkpt>
      <trkpt lat="47.26703" lon="-2.29198">
        <ele>35.799999237061</ele>
        <time>2019-01-10T09:12:21.000Z</time>
      </trkpt>
      <trkpt lat="47.26734" lon="-2.29166">
        <ele>35.400001525879</ele>
        <time>2019-01-10T09:12:27.000Z</time>
      </trkpt>
      <trkpt lat="47.26739" lon="-2.2916">
        <ele>35</ele>
        <time>2019-01-10T09:12:28.000Z</time>
      </trkpt>
      <trkpt lat="47.26744" lon="-2.29155">
        <ele>34.599998474121</ele>
        <time>2019-01-10T09:12:29.000Z</time>
      </trkpt>
      <trkpt lat="47.26749" lon="-2.29149">
        <ele>34.200000762939</ele>
        <time>2019-01-10T09:12:30.000Z</time>
      </trkpt>
      <trkpt lat="47.26754" lon="-2.29144">
        <ele>33.799999237061</ele>
        <time>2019-01-10T09:12:31.000Z</time>
      </trkpt>
      <trkpt lat="47.2677" lon="-2.29126">
        <ele>33.400001525879</ele>
        <time>2019-01-10T09:12:34.000Z</time>
      </trkpt>
      <trkpt lat="47.26775" lon="-2.2912">
        <ele>33</ele>
        <time>2019-01-10T09:12:35.000Z</time>
      </trkpt>
      <trkpt lat="47.26781" lon="-2.29114">
        <ele>32.599998474121</ele>
        <time>2019-01-10T09:12:36.000Z</time>
      </trkpt>
      <trkpt lat="47.26787" lon="-2.29109">
        <ele>32.200000762939</ele>
        <time>2019-01-10T09:12:37.000Z</time>
      </trkpt>
      <trkpt lat="47.26792" lon="-2.29103">
        <ele>31.60000038147</ele>
        <time>2019-01-10T09:12:38.000Z</time>
      </trkpt>
      <trkpt lat="47.2681" lon="-2.29085">
        <ele>31.60000038147</ele>
        <time>2019-01-10T09:12:41.000Z</time>
      </trkpt>
      <trkpt lat="47.26821" lon="-2.29074">
        <ele>31.200000762939</ele>
        <time>2019-01-10T09:12:43.000Z</time>
      </trkpt>
      <trkpt lat="47.26827" lon="-2.29069">
        <ele>30.799999237061</ele>
        <time>2019-01-10T09:12:44.000Z</time>
      </trkpt>
      <trkpt lat="47.26833" lon="-2.29063">
        <ele>30.39999961853</ele>
        <time>2019-01-10T09:12:45.000Z</time>
      </trkpt>
      <trkpt lat="47.26839" lon="-2.29058">
        <ele>30</ele>
        <time>2019-01-10T09:12:46.000Z</time>
      </trkpt>
      <trkpt lat="47.26845" lon="-2.29052">
        <ele>29.60000038147</ele>
        <time>2019-01-10T09:12:47.000Z</time>
      </trkpt>
      <trkpt lat="47.26857" lon="-2.29042">
        <ele>29.60000038147</ele>
        <time>2019-01-10T09:12:49.000Z</time>
      </trkpt>
      <trkpt lat="47.26887" lon="-2.29015">
        <ele>29.60000038147</ele>
        <time>2019-01-10T09:12:54.000Z</time>
      </trkpt>
      <trkpt lat="47.26914" lon="-2.28998">
        <ele>29.60000038147</ele>
        <time>2019-01-10T09:12:59.000Z</time>
      </trkpt>
      <trkpt lat="47.26918" lon="-2.28997">
        <ele>29.200000762939</ele>
        <time>2019-01-10T09:13:00.000Z</time>
      </trkpt>
      <trkpt lat="47.26921" lon="-2.28996">
        <ele>28.799999237061</ele>
        <time>2019-01-10T09:13:01.000Z</time>
      </trkpt>
      <trkpt lat="47.26923" lon="-2.28994">
        <ele>28.39999961853</ele>
        <time>2019-01-10T09:13:02.000Z</time>
      </trkpt>
      <trkpt lat="47.26926" lon="-2.28993">
        <ele>27.799999237061</ele>
        <time>2019-01-10T09:13:03.000Z</time>
      </trkpt>
      <trkpt lat="47.26928" lon="-2.2899">
        <ele>27.39999961853</ele>
        <time>2019-01-10T09:13:04.000Z</time>
      </trkpt>
      <trkpt lat="47.26926" lon="-2.28983">
        <ele>27.39999961853</ele>
        <time>2019-01-10T09:13:06.000Z</time>
      </trkpt>
      <trkpt lat="47.26917" lon="-2.28977">
        <ele>27.39999961853</ele>
        <time>2019-01-10T09:13:10.000Z</time>
      </trkpt>
      <trkpt lat="47.26903" lon="-2.28971">
        <ele>27.39999961853</ele>
        <time>2019-01-10T09:13:14.000Z</time>
      </trkpt>
      <trkpt lat="47.26899" lon="-2.2897">
        <ele>27.39999961853</ele>
        <time>2019-01-10T09:13:15.000Z</time>
      </trkpt>
      <trkpt lat="47.26874" lon="-2.28957">
        <ele>27.39999961853</ele>
        <time>2019-01-10T09:13:21.000Z</time>
      </trkpt>
      <trkpt lat="47.26851" lon="-2.28943">
        <ele>27.39999961853</ele>
        <time>2019-01-10T09:13:26.000Z</time>
      </trkpt>
      <trkpt lat="47.2684" lon="-2.28937">
        <ele>27.39999961853</ele>
        <time>2019-01-10T09:13:28.000Z</time>
      </trkpt>
      <trkpt lat="47.26825" lon="-2.28927">
        <ele>27.39999961853</ele>
        <time>2019-01-10T09:13:31.000Z</time>
      </trkpt>
      <trkpt lat="47.2682" lon="-2.28924">
        <ele>27.39999961853</ele>
        <time>2019-01-10T09:13:32.000Z</time>
      </trkpt>
      <trkpt lat="47.26805" lon="-2.28915">
        <ele>27.39999961853</ele>
        <time>2019-01-10T09:13:35.000Z</time>
      </trkpt>
      <trkpt lat="47.26794" lon="-2.2891">
        <ele>27.39999961853</ele>
        <time>2019-01-10T09:13:37.000Z</time>
      </trkpt>
      <trkpt lat="47.26774" lon="-2.28896">
        <ele>27.39999961853</ele>
        <time>2019-01-10T09:13:41.000Z</time>
      </trkpt>
      <trkpt lat="47.26769" lon="-2.28893">
        <ele>27.39999961853</ele>
        <time>2019-01-10T09:13:42.000Z</time>
      </trkpt>
      <trkpt lat="47.26758" lon="-2.28884">
        <ele>27.799999237061</ele>
        <time>2019-01-10T09:13:44.000Z</time>
      </trkpt>
      <trkpt lat="47.26753" lon="-2.28879">
        <ele>28.200000762939</ele>
        <time>2019-01-10T09:13:45.000Z</time>
      </trkpt>
      <trkpt lat="47.26748" lon="-2.28875">
        <ele>28.799999237061</ele>
        <time>2019-01-10T09:13:46.000Z</time>
      </trkpt>
      <trkpt lat="47.26743" lon="-2.2887">
        <ele>29.200000762939</ele>
        <time>2019-01-10T09:13:47.000Z</time>
      </trkpt>
      <trkpt lat="47.26737" lon="-2.28865">
        <ele>29.60000038147</ele>
        <time>2019-01-10T09:13:48.000Z</time>
      </trkpt>
      <trkpt lat="47.26717" lon="-2.28847">
        <ele>29.60000038147</ele>
        <time>2019-01-10T09:13:52.000Z</time>
      </trkpt>
      <trkpt lat="47.26687" lon="-2.28818">
        <ele>29.60000038147</ele>
        <time>2019-01-10T09:13:58.000Z</time>
      </trkpt>
      <trkpt lat="47.26664" lon="-2.28795">
        <ele>29.60000038147</ele>
        <time>2019-01-10T09:14:03.000Z</time>
      </trkpt>
      <trkpt lat="47.26647" lon="-2.28776">
        <ele>29.60000038147</ele>
        <time>2019-01-10T09:14:07.000Z</time>
      </trkpt>
      <trkpt lat="47.26642" lon="-2.28772">
        <ele>29.60000038147</ele>
        <time>2019-01-10T09:14:08.000Z</time>
      </trkpt>
      <trkpt lat="47.26627" lon="-2.28758">
        <ele>30</ele>
        <time>2019-01-10T09:14:11.000Z</time>
      </trkpt>
      <trkpt lat="47.26623" lon="-2.28753">
        <ele>30.39999961853</ele>
        <time>2019-01-10T09:14:12.000Z</time>
      </trkpt>
      <trkpt lat="47.26618" lon="-2.28749">
        <ele>31.200000762939</ele>
        <time>2019-01-10T09:14:13.000Z</time>
      </trkpt>
      <trkpt lat="47.26613" lon="-2.28745">
        <ele>31.60000038147</ele>
        <time>2019-01-10T09:14:14.000Z</time>
      </trkpt>
      <trkpt lat="47.26602" lon="-2.28732">
        <ele>31.60000038147</ele>
        <time>2019-01-10T09:14:17.000Z</time>
      </trkpt>
      <trkpt lat="47.26599" lon="-2.28728">
        <ele>31.60000038147</ele>
        <time>2019-01-10T09:14:18.000Z</time>
      </trkpt>
      <trkpt lat="47.26584" lon="-2.2871">
        <ele>31.60000038147</ele>
        <time>2019-01-10T09:14:22.000Z</time>
      </trkpt>
      <trkpt lat="47.26576" lon="-2.287">
        <ele>31.60000038147</ele>
        <time>2019-01-10T09:14:24.000Z</time>
      </trkpt>
      <trkpt lat="47.26565" lon="-2.28689">
        <ele>31.60000038147</ele>
        <time>2019-01-10T09:14:26.000Z</time>
      </trkpt>
      <trkpt lat="47.26548" lon="-2.28673">
        <ele>32</ele>
        <time>2019-01-10T09:14:29.000Z</time>
      </trkpt>
      <trkpt lat="47.26543" lon="-2.28667">
        <ele>32.400001525879</ele>
        <time>2019-01-10T09:14:30.000Z</time>
      </trkpt>
      <trkpt lat="47.26539" lon="-2.2866">
        <ele>32.799999237061</ele>
        <time>2019-01-10T09:14:31.000Z</time>
      </trkpt>
      <trkpt lat="47.26535" lon="-2.28654">
        <ele>33.200000762939</ele>
        <time>2019-01-10T09:14:32.000Z</time>
      </trkpt>
      <trkpt lat="47.26531" lon="-2.28648">
        <ele>33.599998474121</ele>
        <time>2019-01-10T09:14:33.000Z</time>
      </trkpt>
      <trkpt lat="47.26514" lon="-2.28626">
        <ele>33.599998474121</ele>
        <time>2019-01-10T09:14:37.000Z</time>
      </trkpt>
      <trkpt lat="47.26507" lon="-2.28616">
        <ele>33.599998474121</ele>
        <time>2019-01-10T09:14:39.000Z</time>
      </trkpt>
      <trkpt lat="47.26505" lon="-2.28605">
        <ele>33.599998474121</ele>
        <time>2019-01-10T09:14:41.000Z</time>
      </trkpt>
      <trkpt lat="47.26499" lon="-2.2857">
        <ele>33.599998474121</ele>
        <time>2019-01-10T09:14:46.000Z</time>
      </trkpt>
      <trkpt lat="47.26491" lon="-2.28549">
        <ele>34</ele>
        <time>2019-01-10T09:14:49.000Z</time>
      </trkpt>
      <trkpt lat="47.26488" lon="-2.28542">
        <ele>34.400001525879</ele>
        <time>2019-01-10T09:14:50.000Z</time>
      </trkpt>
      <trkpt lat="47.26485" lon="-2.28536">
        <ele>34.799999237061</ele>
        <time>2019-01-10T09:14:51.000Z</time>
      </trkpt>
      <trkpt lat="47.26481" lon="-2.2853">
        <ele>35.200000762939</ele>
        <time>2019-01-10T09:14:52.000Z</time>
      </trkpt>
      <trkpt lat="47.26477" lon="-2.28524">
        <ele>35.799999237061</ele>
        <time>2019-01-10T09:14:53.000Z</time>
      </trkpt>
      <trkpt lat="47.2646" lon="-2.28492">
        <ele>35.799999237061</ele>
        <time>2019-01-10T09:14:58.000Z</time>
      </trkpt>
      <trkpt lat="47.26441" lon="-2.28452">
        <ele>35.799999237061</ele>
        <time>2019-01-10T09:15:04.000Z</time>
      </trkpt>
      <trkpt lat="47.26438" lon="-2.28445">
        <ele>36.200000762939</ele>
        <time>2019-01-10T09:15:05.000Z</time>
      </trkpt>
      <trkpt lat="47.26435" lon="-2.2844">
        <ele>36.599998474121</ele>
        <time>2019-01-10T09:15:06.000Z</time>
      </trkpt>
      <trkpt lat="47.26432" lon="-2.28433">
        <ele>37</ele>
        <time>2019-01-10T09:15:07.000Z</time>
      </trkpt>
      <trkpt lat="47.26429" lon="-2.28427">
        <ele>37.400001525879</ele>
        <time>2019-01-10T09:15:08.000Z</time>
      </trkpt>
      <trkpt lat="47.26426" lon="-2.28421">
        <ele>37.799999237061</ele>
        <time>2019-01-10T09:15:09.000Z</time>
      </trkpt>
      <trkpt lat="47.26407" lon="-2.28382">
        <ele>37.799999237061</ele>
        <time>2019-01-10T09:15:15.000Z</time>
      </trkpt>
      <trkpt lat="47.26395" lon="-2.28355">
        <ele>37.799999237061</ele>
        <time>2019-01-10T09:15:19.000Z</time>
      </trkpt>
      <trkpt lat="47.26389" lon="-2.28342">
        <ele>37.799999237061</ele>
        <time>2019-01-10T09:15:21.000Z</time>
      </trkpt>
      <trkpt lat="47.26373" lon="-2.28299">
        <ele>37.799999237061</ele>
        <time>2019-01-10T09:15:27.000Z</time>
      </trkpt>
      <trkpt lat="47.26371" lon="-2.28292">
        <ele>37.799999237061</ele>
        <time>2019-01-10T09:15:28.000Z</time>
      </trkpt>
      <trkpt lat="47.26357" lon="-2.28239">
        <ele>37.799999237061</ele>
        <time>2019-01-10T09:15:35.000Z</time>
      </trkpt>
      <trkpt lat="47.26346" lon="-2.2819">
        <ele>37.799999237061</ele>
        <time>2019-01-10T09:15:41.000Z</time>
      </trkpt>
      <trkpt lat="47.26336" lon="-2.2813">
        <ele>37.799999237061</ele>
        <time>2019-01-10T09:15:48.000Z</time>
      </trkpt>
      <trkpt lat="47.26334" lon="-2.28113">
        <ele>37.799999237061</ele>
        <time>2019-01-10T09:15:50.000Z</time>
      </trkpt>
      <trkpt lat="47.26329" lon="-2.28086">
        <ele>37.799999237061</ele>
        <time>2019-01-10T09:15:53.000Z</time>
      </trkpt>
      <trkpt lat="47.26314" lon="-2.28033">
        <ele>37.799999237061</ele>
        <time>2019-01-10T09:15:59.000Z</time>
      </trkpt>
      <trkpt lat="47.26294" lon="-2.27977">
        <ele>37.799999237061</ele>
        <time>2019-01-10T09:16:06.000Z</time>
      </trkpt>
      <trkpt lat="47.2629" lon="-2.27971">
        <ele>37.400001525879</ele>
        <time>2019-01-10T09:16:08.000Z</time>
      </trkpt>
      <trkpt lat="47.26287" lon="-2.2797">
        <ele>37</ele>
        <time>2019-01-10T09:16:09.000Z</time>
      </trkpt>
      <trkpt lat="47.26285" lon="-2.27969">
        <ele>36.599998474121</ele>
        <time>2019-01-10T09:16:10.000Z</time>
      </trkpt>
      <trkpt lat="47.26283" lon="-2.27969">
        <ele>36.200000762939</ele>
        <time>2019-01-10T09:16:11.000Z</time>
      </trkpt>
      <trkpt lat="47.26281" lon="-2.27967">
        <ele>35.799999237061</ele>
        <time>2019-01-10T09:16:12.000Z</time>
      </trkpt>
      <trkpt lat="47.26281" lon="-2.27964">
        <ele>35.799999237061</ele>
        <time>2019-01-10T09:16:13.000Z</time>
      </trkpt>
      <trkpt lat="47.26285" lon="-2.27963">
        <ele>35.799999237061</ele>
        <time>2019-01-10T09:16:16.000Z</time>
      </trkpt>
      <trkpt lat="47.26296" lon="-2.27965">
        <ele>35.799999237061</ele>
        <time>2019-01-10T09:16:21.000Z</time>
      </trkpt>
      <trkpt lat="47.26302" lon="-2.27962">
        <ele>35.799999237061</ele>
        <time>2019-01-10T09:16:24.000Z</time>
      </trkpt>
      <trkpt lat="47.26304" lon="-2.2796">
        <ele>35.799999237061</ele>
        <time>2019-01-10T09:16:26.000Z</time>
      </trkpt>
      <trkpt lat="47.26308" lon="-2.27958">
        <ele>35.799999237061</ele>
        <time>2019-01-10T09:16:31.000Z</time>
      </trkpt>
      <trkpt lat="47.26309" lon="-2.2796">
        <ele>35.799999237061</ele>
        <time>2019-01-10T09:17:14.000Z</time>
      </trkpt>
      <trkpt lat="47.26303" lon="-2.27964">
        <ele>35.799999237061</ele>
        <time>2019-01-10T09:17:18.000Z</time>
      </trkpt>
      <trkpt lat="47.26294" lon="-2.27971">
        <ele>35.799999237061</ele>
        <time>2019-01-10T09:17:22.000Z</time>
      </trkpt>
      <trkpt lat="47.26283" lon="-2.27974">
        <ele>35.799999237061</ele>
        <time>2019-01-10T09:17:25.000Z</time>
      </trkpt>
      <trkpt lat="47.26278" lon="-2.27977">
        <ele>35.799999237061</ele>
        <time>2019-01-10T09:17:26.000Z</time>
      </trkpt>
      <trkpt lat="47.26261" lon="-2.2799">
        <ele>35.799999237061</ele>
        <time>2019-01-10T09:17:30.000Z</time>
      </trkpt>
      <trkpt lat="47.26234" lon="-2.28011">
        <ele>35.799999237061</ele>
        <time>2019-01-10T09:17:36.000Z</time>
      </trkpt>
      <trkpt lat="47.26208" lon="-2.28036">
        <ele>35.799999237061</ele>
        <time>2019-01-10T09:17:42.000Z</time>
      </trkpt>
      <trkpt lat="47.26195" lon="-2.28047">
        <ele>35.799999237061</ele>
        <time>2019-01-10T09:17:45.000Z</time>
      </trkpt>
      <trkpt lat="47.26181" lon="-2.2806">
        <ele>35.799999237061</ele>
        <time>2019-01-10T09:17:48.000Z</time>
      </trkpt>
      <trkpt lat="47.26177" lon="-2.28064">
        <ele>36.200000762939</ele>
        <time>2019-01-10T09:17:49.000Z</time>
      </trkpt>
      <trkpt lat="47.26172" lon="-2.28068">
        <ele>36.599998474121</ele>
        <time>2019-01-10T09:17:50.000Z</time>
      </trkpt>
      <trkpt lat="47.26168" lon="-2.28072">
        <ele>37</ele>
        <time>2019-01-10T09:17:51.000Z</time>
      </trkpt>
      <trkpt lat="47.26163" lon="-2.28076">
        <ele>37.400001525879</ele>
        <time>2019-01-10T09:17:52.000Z</time>
      </trkpt>
      <trkpt lat="47.26158" lon="-2.28081">
        <ele>37.799999237061</ele>
        <time>2019-01-10T09:17:53.000Z</time>
      </trkpt>
      <trkpt lat="47.26148" lon="-2.28088">
        <ele>37.799999237061</ele>
        <time>2019-01-10T09:17:55.000Z</time>
      </trkpt>
      <trkpt lat="47.26113" lon="-2.28104">
        <ele>37.799999237061</ele>
        <time>2019-01-10T09:18:02.000Z</time>
      </trkpt>
      <trkpt lat="47.26089" lon="-2.28113">
        <ele>38.200000762939</ele>
        <time>2019-01-10T09:18:07.000Z</time>
      </trkpt>
      <trkpt lat="47.26083" lon="-2.28115">
        <ele>38.599998474121</ele>
        <time>2019-01-10T09:18:08.000Z</time>
      </trkpt>
      <trkpt lat="47.26078" lon="-2.28117">
        <ele>39</ele>
        <time>2019-01-10T09:18:09.000Z</time>
      </trkpt>
      <trkpt lat="47.26073" lon="-2.28118">
        <ele>39.400001525879</ele>
        <time>2019-01-10T09:18:10.000Z</time>
      </trkpt>
      <trkpt lat="47.26067" lon="-2.28121">
        <ele>39.799999237061</ele>
        <time>2019-01-10T09:18:11.000Z</time>
      </trkpt>
      <trkpt lat="47.26057" lon="-2.28126">
        <ele>39.799999237061</ele>
        <time>2019-01-10T09:18:13.000Z</time>
      </trkpt>
      <trkpt lat="47.26024" lon="-2.28147">
        <ele>39.799999237061</ele>
        <time>2019-01-10T09:18:20.000Z</time>
      </trkpt>
      <trkpt lat="47.2602" lon="-2.28149">
        <ele>39.799999237061</ele>
        <time>2019-01-10T09:18:21.000Z</time>
      </trkpt>
      <trkpt lat="47.26008" lon="-2.28162">
        <ele>39.799999237061</ele>
        <time>2019-01-10T09:18:24.000Z</time>
      </trkpt>
      <trkpt lat="47.26005" lon="-2.28167">
        <ele>39.799999237061</ele>
        <time>2019-01-10T09:18:25.000Z</time>
      </trkpt>
      <trkpt lat="47.26002" lon="-2.28171">
        <ele>39.799999237061</ele>
        <time>2019-01-10T09:18:26.000Z</time>
      </trkpt>
      <trkpt lat="47.25987" lon="-2.28187">
        <ele>39.799999237061</ele>
        <time>2019-01-10T09:18:30.000Z</time>
      </trkpt>
      <trkpt lat="47.25978" lon="-2.28199">
        <ele>39.799999237061</ele>
        <time>2019-01-10T09:18:34.000Z</time>
      </trkpt>
      <trkpt lat="47.25977" lon="-2.282">
        <ele>39.799999237061</ele>
        <time>2019-01-10T09:18:35.000Z</time>
      </trkpt>
      <trkpt lat="47.25977" lon="-2.282">
        <ele>39.799999237061</ele>
        <time>2019-01-10T09:18:36.000Z</time>
      </trkpt>
      <trkpt lat="47.25978" lon="-2.28198">
        <ele>39.799999237061</ele>
        <time>2019-01-10T09:23:24.000Z</time>
      </trkpt>
      <trkpt lat="47.25979" lon="-2.28197">
        <ele>39.799999237061</ele>
        <time>2019-01-10T09:23:25.000Z</time>
      </trkpt>
      <trkpt lat="47.2598" lon="-2.28195">
        <ele>39.799999237061</ele>
        <time>2019-01-10T09:23:28.000Z</time>
      </trkpt>
      <trkpt lat="47.2598" lon="-2.28193">
        <ele>39.799999237061</ele>
        <time>2019-01-10T09:23:33.000Z</time>
      </trkpt>
      <trkpt lat="47.25981" lon="-2.28191">
        <ele>39.799999237061</ele>
        <time>2019-01-10T09:23:34.000Z</time>
      </trkpt>
      <trkpt lat="47.25991" lon="-2.28177">
        <ele>39.799999237061</ele>
        <time>2019-01-10T09:23:40.000Z</time>
      </trkpt>
      <trkpt lat="47.26009" lon="-2.28158">
        <ele>39.799999237061</ele>
        <time>2019-01-10T09:23:46.000Z</time>
      </trkpt>
      <trkpt lat="47.26013" lon="-2.28155">
        <ele>39.799999237061</ele>
        <time>2019-01-10T09:23:47.000Z</time>
      </trkpt>
      <trkpt lat="47.26032" lon="-2.28139">
        <ele>39.799999237061</ele>
        <time>2019-01-10T09:23:52.000Z</time>
      </trkpt>
      <trkpt lat="47.26053" lon="-2.28124">
        <ele>39.799999237061</ele>
        <time>2019-01-10T09:23:57.000Z</time>
      </trkpt>
      <trkpt lat="47.26057" lon="-2.28122">
        <ele>39.799999237061</ele>
        <time>2019-01-10T09:23:58.000Z</time>
      </trkpt>
      <trkpt lat="47.26088" lon="-2.28113">
        <ele>39.799999237061</ele>
        <time>2019-01-10T09:24:04.000Z</time>
      </trkpt>
      <trkpt lat="47.26131" lon="-2.28092">
        <ele>39.799999237061</ele>
        <time>2019-01-10T09:24:12.000Z</time>
      </trkpt>
      <trkpt lat="47.26171" lon="-2.28066">
        <ele>39.799999237061</ele>
        <time>2019-01-10T09:24:20.000Z</time>
      </trkpt>
      <trkpt lat="47.26201" lon="-2.28039">
        <ele>39.400001525879</ele>
        <time>2019-01-10T09:24:26.000Z</time>
      </trkpt>
      <trkpt lat="47.26206" lon="-2.28034">
        <ele>39</ele>
        <time>2019-01-10T09:24:27.000Z</time>
      </trkpt>
      <trkpt lat="47.26211" lon="-2.28029">
        <ele>38.599998474121</ele>
        <time>2019-01-10T09:24:28.000Z</time>
      </trkpt>
      <trkpt lat="47.26216" lon="-2.28024">
        <ele>38.200000762939</ele>
        <time>2019-01-10T09:24:29.000Z</time>
      </trkpt>
      <trkpt lat="47.26221" lon="-2.28019">
        <ele>37.799999237061</ele>
        <time>2019-01-10T09:24:30.000Z</time>
      </trkpt>
      <trkpt lat="47.26236" lon="-2.28004">
        <ele>37.799999237061</ele>
        <time>2019-01-10T09:24:33.000Z</time>
      </trkpt>
      <trkpt lat="47.26251" lon="-2.27992">
        <ele>37.799999237061</ele>
        <time>2019-01-10T09:24:37.000Z</time>
      </trkpt>
      <trkpt lat="47.26256" lon="-2.27989">
        <ele>37.400001525879</ele>
        <time>2019-01-10T09:24:39.000Z</time>
      </trkpt>
      <trkpt lat="47.26257" lon="-2.27988">
        <ele>37</ele>
        <time>2019-01-10T09:24:40.000Z</time>
      </trkpt>
      <trkpt lat="47.26259" lon="-2.27988">
        <ele>36.599998474121</ele>
        <time>2019-01-10T09:24:41.000Z</time>
      </trkpt>
      <trkpt lat="47.26261" lon="-2.27987">
        <ele>36.200000762939</ele>
        <time>2019-01-10T09:24:42.000Z</time>
      </trkpt>
      <trkpt lat="47.26262" lon="-2.27986">
        <ele>35.599998474121</ele>
        <time>2019-01-10T09:24:43.000Z</time>
      </trkpt>
      <trkpt lat="47.26273" lon="-2.27981">
        <ele>35.599998474121</ele>
        <time>2019-01-10T09:24:49.000Z</time>
      </trkpt>
      <trkpt lat="47.26275" lon="-2.27964">
        <ele>35.599998474121</ele>
        <time>2019-01-10T09:24:52.000Z</time>
      </trkpt>
      <trkpt lat="47.26267" lon="-2.2794">
        <ele>35.599998474121</ele>
        <time>2019-01-10T09:24:56.000Z</time>
      </trkpt>
      <trkpt lat="47.26255" lon="-2.27916">
        <ele>35.599998474121</ele>
        <time>2019-01-10T09:25:00.000Z</time>
      </trkpt>
      <trkpt lat="47.26248" lon="-2.27905">
        <ele>35.599998474121</ele>
        <time>2019-01-10T09:25:02.000Z</time>
      </trkpt>
      <trkpt lat="47.26225" lon="-2.27859">
        <ele>35.599998474121</ele>
        <time>2019-01-10T09:25:10.000Z</time>
      </trkpt>
      <trkpt lat="47.26206" lon="-2.27822">
        <ele>35.599998474121</ele>
        <time>2019-01-10T09:25:16.000Z</time>
      </trkpt>
      <trkpt lat="47.26182" lon="-2.27767">
        <ele>35.599998474121</ele>
        <time>2019-01-10T09:25:24.000Z</time>
      </trkpt>
      <trkpt lat="47.26175" lon="-2.27744">
        <ele>36</ele>
        <time>2019-01-10T09:25:27.000Z</time>
      </trkpt>
      <trkpt lat="47.26173" lon="-2.27737">
        <ele>36.400001525879</ele>
        <time>2019-01-10T09:25:28.000Z</time>
      </trkpt>
      <trkpt lat="47.2617" lon="-2.27729">
        <ele>37</ele>
        <time>2019-01-10T09:25:29.000Z</time>
      </trkpt>
      <trkpt lat="47.26168" lon="-2.27722">
        <ele>37.400001525879</ele>
        <time>2019-01-10T09:25:30.000Z</time>
      </trkpt>
      <trkpt lat="47.26166" lon="-2.27714">
        <ele>37.799999237061</ele>
        <time>2019-01-10T09:25:31.000Z</time>
      </trkpt>
      <trkpt lat="47.26164" lon="-2.27707">
        <ele>37.799999237061</ele>
        <time>2019-01-10T09:25:32.000Z</time>
      </trkpt>
      <trkpt lat="47.26147" lon="-2.27643">
        <ele>37.799999237061</ele>
        <time>2019-01-10T09:25:40.000Z</time>
      </trkpt>
      <trkpt lat="47.26142" lon="-2.27603">
        <ele>37.799999237061</ele>
        <time>2019-01-10T09:25:45.000Z</time>
      </trkpt>
      <trkpt lat="47.2613" lon="-2.27586">
        <ele>37.799999237061</ele>
        <time>2019-01-10T09:25:48.000Z</time>
      </trkpt>
      <trkpt lat="47.26115" lon="-2.2759">
        <ele>37.799999237061</ele>
        <time>2019-01-10T09:25:51.000Z</time>
      </trkpt>
      <trkpt lat="47.26106" lon="-2.27596">
        <ele>37.799999237061</ele>
        <time>2019-01-10T09:25:53.000Z</time>
      </trkpt>
      <trkpt lat="47.26086" lon="-2.27608">
        <ele>37.799999237061</ele>
        <time>2019-01-10T09:25:57.000Z</time>
      </trkpt>
      <trkpt lat="47.26055" lon="-2.27622">
        <ele>37.799999237061</ele>
        <time>2019-01-10T09:26:03.000Z</time>
      </trkpt>
      <trkpt lat="47.2605" lon="-2.27621">
        <ele>37.799999237061</ele>
        <time>2019-01-10T09:26:04.000Z</time>
      </trkpt>
      <trkpt lat="47.26037" lon="-2.27607">
        <ele>37.799999237061</ele>
        <time>2019-01-10T09:26:07.000Z</time>
      </trkpt>
      <trkpt lat="47.26029" lon="-2.27578">
        <ele>37.799999237061</ele>
        <time>2019-01-10T09:26:11.000Z</time>
      </trkpt>
      <trkpt lat="47.26027" lon="-2.27571">
        <ele>37.799999237061</ele>
        <time>2019-01-10T09:26:12.000Z</time>
      </trkpt>
      <trkpt lat="47.26022" lon="-2.27559">
        <ele>37.799999237061</ele>
        <time>2019-01-10T09:26:14.000Z</time>
      </trkpt>
      <trkpt lat="47.26018" lon="-2.27546">
        <ele>37.799999237061</ele>
        <time>2019-01-10T09:26:16.000Z</time>
      </trkpt>
      <trkpt lat="47.26018" lon="-2.27526">
        <ele>37.799999237061</ele>
        <time>2019-01-10T09:26:19.000Z</time>
      </trkpt>
      <trkpt lat="47.2602" lon="-2.27519">
        <ele>37.799999237061</ele>
        <time>2019-01-10T09:26:20.000Z</time>
      </trkpt>
      <trkpt lat="47.26033" lon="-2.27482">
        <ele>37.799999237061</ele>
        <time>2019-01-10T09:26:25.000Z</time>
      </trkpt>
      <trkpt lat="47.26043" lon="-2.27456">
        <ele>37.799999237061</ele>
        <time>2019-01-10T09:26:29.000Z</time>
      </trkpt>
      <trkpt lat="47.26047" lon="-2.27449">
        <ele>37.799999237061</ele>
        <time>2019-01-10T09:26:30.000Z</time>
      </trkpt>
      <trkpt lat="47.26069" lon="-2.27404">
        <ele>37.799999237061</ele>
        <time>2019-01-10T09:26:36.000Z</time>
      </trkpt>
      <trkpt lat="47.26078" lon="-2.2739">
        <ele>37.799999237061</ele>
        <time>2019-01-10T09:26:38.000Z</time>
      </trkpt>
      <trkpt lat="47.26092" lon="-2.27371">
        <ele>37.799999237061</ele>
        <time>2019-01-10T09:26:41.000Z</time>
      </trkpt>
      <trkpt lat="47.26124" lon="-2.27335">
        <ele>37.799999237061</ele>
        <time>2019-01-10T09:26:47.000Z</time>
      </trkpt>
      <trkpt lat="47.2614" lon="-2.2732">
        <ele>37.799999237061</ele>
        <time>2019-01-10T09:26:50.000Z</time>
      </trkpt>
      <trkpt lat="47.26152" lon="-2.27319">
        <ele>37.799999237061</ele>
        <time>2019-01-10T09:26:52.000Z</time>
      </trkpt>
      <trkpt lat="47.26164" lon="-2.27321">
        <ele>37.799999237061</ele>
        <time>2019-01-10T09:26:54.000Z</time>
      </trkpt>
      <trkpt lat="47.26177" lon="-2.27318">
        <ele>37.799999237061</ele>
        <time>2019-01-10T09:26:56.000Z</time>
      </trkpt>
      <trkpt lat="47.26201" lon="-2.27314">
        <ele>37.799999237061</ele>
        <time>2019-01-10T09:27:00.000Z</time>
      </trkpt>
      <trkpt lat="47.26215" lon="-2.27315">
        <ele>37.799999237061</ele>
        <time>2019-01-10T09:27:02.000Z</time>
      </trkpt>
      <trkpt lat="47.26246" lon="-2.27322">
        <ele>37.799999237061</ele>
        <time>2019-01-10T09:27:07.000Z</time>
      </trkpt>
      <trkpt lat="47.26253" lon="-2.27322">
        <ele>37.799999237061</ele>
        <time>2019-01-10T09:27:08.000Z</time>
      </trkpt>
      <trkpt lat="47.2628" lon="-2.27324">
        <ele>37.799999237061</ele>
        <time>2019-01-10T09:27:12.000Z</time>
      </trkpt>
      <trkpt lat="47.26311" lon="-2.27328">
        <ele>37.200000762939</ele>
        <time>2019-01-10T09:27:17.000Z</time>
      </trkpt>
      <trkpt lat="47.26317" lon="-2.27328">
        <ele>36.799999237061</ele>
        <time>2019-01-10T09:27:18.000Z</time>
      </trkpt>
      <trkpt lat="47.26324" lon="-2.27328">
        <ele>36.400001525879</ele>
        <time>2019-01-10T09:27:19.000Z</time>
      </trkpt>
      <trkpt lat="47.2633" lon="-2.27329">
        <ele>36</ele>
        <time>2019-01-10T09:27:20.000Z</time>
      </trkpt>
      <trkpt lat="47.26336" lon="-2.27329">
        <ele>35.599998474121</ele>
        <time>2019-01-10T09:27:21.000Z</time>
      </trkpt>
      <trkpt lat="47.26368" lon="-2.27332">
        <ele>35.599998474121</ele>
        <time>2019-01-10T09:27:26.000Z</time>
      </trkpt>
      <trkpt lat="47.26406" lon="-2.27333">
        <ele>35.599998474121</ele>
        <time>2019-01-10T09:27:32.000Z</time>
      </trkpt>
      <trkpt lat="47.26423" lon="-2.27341">
        <ele>35.599998474121</ele>
        <time>2019-01-10T09:27:35.000Z</time>
      </trkpt>
      <trkpt lat="47.26426" lon="-2.27348">
        <ele>35.200000762939</ele>
        <time>2019-01-10T09:27:36.000Z</time>
      </trkpt>
      <trkpt lat="47.26429" lon="-2.27354">
        <ele>34.799999237061</ele>
        <time>2019-01-10T09:27:37.000Z</time>
      </trkpt>
      <trkpt lat="47.26431" lon="-2.27362">
        <ele>34.400001525879</ele>
        <time>2019-01-10T09:27:38.000Z</time>
      </trkpt>
      <trkpt lat="47.26434" lon="-2.2737">
        <ele>34</ele>
        <time>2019-01-10T09:27:39.000Z</time>
      </trkpt>
      <trkpt lat="47.26437" lon="-2.27378">
        <ele>33.400001525879</ele>
        <time>2019-01-10T09:27:40.000Z</time>
      </trkpt>
      <trkpt lat="47.2645" lon="-2.27419">
        <ele>33.400001525879</ele>
        <time>2019-01-10T09:27:45.000Z</time>
      </trkpt>
      <trkpt lat="47.26458" lon="-2.27443">
        <ele>33</ele>
        <time>2019-01-10T09:27:48.000Z</time>
      </trkpt>
      <trkpt lat="47.26461" lon="-2.27452">
        <ele>32.599998474121</ele>
        <time>2019-01-10T09:27:49.000Z</time>
      </trkpt>
      <trkpt lat="47.26464" lon="-2.2746">
        <ele>32.200000762939</ele>
        <time>2019-01-10T09:27:50.000Z</time>
      </trkpt>
      <trkpt lat="47.26467" lon="-2.27469">
        <ele>31.799999237061</ele>
        <time>2019-01-10T09:27:51.000Z</time>
      </trkpt>
      <trkpt lat="47.26469" lon="-2.27477">
        <ele>31.200000762939</ele>
        <time>2019-01-10T09:27:52.000Z</time>
      </trkpt>
      <trkpt lat="47.2648" lon="-2.27513">
        <ele>31.200000762939</ele>
        <time>2019-01-10T09:27:56.000Z</time>
      </trkpt>
      <trkpt lat="47.26486" lon="-2.2755">
        <ele>30.799999237061</ele>
        <time>2019-01-10T09:28:00.000Z</time>
      </trkpt>
      <trkpt lat="47.26487" lon="-2.27558">
        <ele>30.39999961853</ele>
        <time>2019-01-10T09:28:01.000Z</time>
      </trkpt>
      <trkpt lat="47.26488" lon="-2.27566">
        <ele>29.799999237061</ele>
        <time>2019-01-10T09:28:02.000Z</time>
      </trkpt>
      <trkpt lat="47.26491" lon="-2.27572">
        <ele>29.39999961853</ele>
        <time>2019-01-10T09:28:03.000Z</time>
      </trkpt>
      <trkpt lat="47.26495" lon="-2.27576">
        <ele>29</ele>
        <time>2019-01-10T09:28:04.000Z</time>
      </trkpt>
      <trkpt lat="47.26501" lon="-2.27577">
        <ele>29</ele>
        <time>2019-01-10T09:28:05.000Z</time>
      </trkpt>
      <trkpt lat="47.26516" lon="-2.27573">
        <ele>29</ele>
        <time>2019-01-10T09:28:08.000Z</time>
      </trkpt>
      <trkpt lat="47.26534" lon="-2.27578">
        <ele>29</ele>
        <time>2019-01-10T09:28:11.000Z</time>
      </trkpt>
      <trkpt lat="47.26541" lon="-2.27579">
        <ele>29</ele>
        <time>2019-01-10T09:28:12.000Z</time>
      </trkpt>
      <trkpt lat="47.26548" lon="-2.27579">
        <ele>29</ele>
        <time>2019-01-10T09:28:13.000Z</time>
      </trkpt>
      <trkpt lat="47.26568" lon="-2.27579">
        <ele>29</ele>
        <time>2019-01-10T09:28:16.000Z</time>
      </trkpt>
      <trkpt lat="47.26588" lon="-2.27585">
        <ele>29</ele>
        <time>2019-01-10T09:28:19.000Z</time>
      </trkpt>
      <trkpt lat="47.26594" lon="-2.27589">
        <ele>29</ele>
        <time>2019-01-10T09:28:20.000Z</time>
      </trkpt>
      <trkpt lat="47.26612" lon="-2.276">
        <ele>29</ele>
        <time>2019-01-10T09:28:23.000Z</time>
      </trkpt>
      <trkpt lat="47.26625" lon="-2.27606">
        <ele>29</ele>
        <time>2019-01-10T09:28:25.000Z</time>
      </trkpt>
      <trkpt lat="47.26655" lon="-2.27619">
        <ele>29</ele>
        <time>2019-01-10T09:28:30.000Z</time>
      </trkpt>
      <trkpt lat="47.26667" lon="-2.27624">
        <ele>29</ele>
        <time>2019-01-10T09:28:32.000Z</time>
      </trkpt>
      <trkpt lat="47.26685" lon="-2.27629">
        <ele>29</ele>
        <time>2019-01-10T09:28:35.000Z</time>
      </trkpt>
      <trkpt lat="47.26696" lon="-2.27634">
        <ele>29</ele>
        <time>2019-01-10T09:28:37.000Z</time>
      </trkpt>
      <trkpt lat="47.26706" lon="-2.2764">
        <ele>28.60000038147</ele>
        <time>2019-01-10T09:28:39.000Z</time>
      </trkpt>
      <trkpt lat="47.26711" lon="-2.27643">
        <ele>28.200000762939</ele>
        <time>2019-01-10T09:28:40.000Z</time>
      </trkpt>
      <trkpt lat="47.26716" lon="-2.27643">
        <ele>27.60000038147</ele>
        <time>2019-01-10T09:28:41.000Z</time>
      </trkpt>
      <trkpt lat="47.2672" lon="-2.27643">
        <ele>27.200000762939</ele>
        <time>2019-01-10T09:28:42.000Z</time>
      </trkpt>
      <trkpt lat="47.26723" lon="-2.27645">
        <ele>26.799999237061</ele>
        <time>2019-01-10T09:28:43.000Z</time>
      </trkpt>
      <trkpt lat="47.26735" lon="-2.27649">
        <ele>26.799999237061</ele>
        <time>2019-01-10T09:28:47.000Z</time>
      </trkpt>
      <trkpt lat="47.26738" lon="-2.2765">
        <ele>26.799999237061</ele>
        <time>2019-01-10T09:28:48.000Z</time>
      </trkpt>
      <trkpt lat="47.26748" lon="-2.27649">
        <ele>26.799999237061</ele>
        <time>2019-01-10T09:28:51.000Z</time>
      </trkpt>
      <trkpt lat="47.26756" lon="-2.27649">
        <ele>26.799999237061</ele>
        <time>2019-01-10T09:28:55.000Z</time>
      </trkpt>
      <trkpt lat="47.26761" lon="-2.27636">
        <ele>26.799999237061</ele>
        <time>2019-01-10T09:29:00.000Z</time>
      </trkpt>
      <trkpt lat="47.26759" lon="-2.2761">
        <ele>26.799999237061</ele>
        <time>2019-01-10T09:29:04.000Z</time>
      </trkpt>
      <trkpt lat="47.26753" lon="-2.27571">
        <ele>26.799999237061</ele>
        <time>2019-01-10T09:29:09.000Z</time>
      </trkpt>
      <trkpt lat="47.26753" lon="-2.27563">
        <ele>26.799999237061</ele>
        <time>2019-01-10T09:29:10.000Z</time>
      </trkpt>
      <trkpt lat="47.26753" lon="-2.27515">
        <ele>26.799999237061</ele>
        <time>2019-01-10T09:29:16.000Z</time>
      </trkpt>
      <trkpt lat="47.26753" lon="-2.27499">
        <ele>27.39999961853</ele>
        <time>2019-01-10T09:29:18.000Z</time>
      </trkpt>
      <trkpt lat="47.26753" lon="-2.27491">
        <ele>27.799999237061</ele>
        <time>2019-01-10T09:29:19.000Z</time>
      </trkpt>
      <trkpt lat="47.26753" lon="-2.27483">
        <ele>28.200000762939</ele>
        <time>2019-01-10T09:29:20.000Z</time>
      </trkpt>
      <trkpt lat="47.26753" lon="-2.27476">
        <ele>28.60000038147</ele>
        <time>2019-01-10T09:29:21.000Z</time>
      </trkpt>
      <trkpt lat="47.26753" lon="-2.27468">
        <ele>29.200000762939</ele>
        <time>2019-01-10T09:29:22.000Z</time>
      </trkpt>
      <trkpt lat="47.26753" lon="-2.2746">
        <ele>29.200000762939</ele>
        <time>2019-01-10T09:29:23.000Z</time>
      </trkpt>
      <trkpt lat="47.26751" lon="-2.27427">
        <ele>29.200000762939</ele>
        <time>2019-01-10T09:29:27.000Z</time>
      </trkpt>
      <trkpt lat="47.26753" lon="-2.27419">
        <ele>29.200000762939</ele>
        <time>2019-01-10T09:29:28.000Z</time>
      </trkpt>
      <trkpt lat="47.2676" lon="-2.27413">
        <ele>29.200000762939</ele>
        <time>2019-01-10T09:29:30.000Z</time>
      </trkpt>
      <trkpt lat="47.26774" lon="-2.27413">
        <ele>29.200000762939</ele>
        <time>2019-01-10T09:29:33.000Z</time>
      </trkpt>
      <trkpt lat="47.26779" lon="-2.27413">
        <ele>29.200000762939</ele>
        <time>2019-01-10T09:29:34.000Z</time>
      </trkpt>
      <trkpt lat="47.268" lon="-2.27412">
        <ele>29.200000762939</ele>
        <time>2019-01-10T09:29:39.000Z</time>
      </trkpt>
      <trkpt lat="47.26808" lon="-2.27411">
        <ele>29.200000762939</ele>
        <time>2019-01-10T09:29:41.000Z</time>
      </trkpt>
      <trkpt lat="47.26817" lon="-2.27408">
        <ele>28.799999237061</ele>
        <time>2019-01-10T09:29:44.000Z</time>
      </trkpt>
      <trkpt lat="47.2682" lon="-2.27407">
        <ele>28.39999961853</ele>
        <time>2019-01-10T09:29:45.000Z</time>
      </trkpt>
      <trkpt lat="47.26824" lon="-2.27406">
        <ele>27.799999237061</ele>
        <time>2019-01-10T09:29:46.000Z</time>
      </trkpt>
      <trkpt lat="47.26827" lon="-2.27404">
        <ele>27.39999961853</ele>
        <time>2019-01-10T09:29:47.000Z</time>
      </trkpt>
      <trkpt lat="47.26831" lon="-2.27402">
        <ele>27</ele>
        <time>2019-01-10T09:29:48.000Z</time>
      </trkpt>
      <trkpt lat="47.26839" lon="-2.27399">
        <ele>27</ele>
        <time>2019-01-10T09:29:50.000Z</time>
      </trkpt>
      <trkpt lat="47.26861" lon="-2.27389">
        <ele>27</ele>
        <time>2019-01-10T09:29:55.000Z</time>
      </trkpt>
      <trkpt lat="47.26864" lon="-2.27388">
        <ele>26.60000038147</ele>
        <time>2019-01-10T09:29:56.000Z</time>
      </trkpt>
      <trkpt lat="47.26867" lon="-2.27387">
        <ele>26.200000762939</ele>
        <time>2019-01-10T09:29:57.000Z</time>
      </trkpt>
      <trkpt lat="47.2687" lon="-2.27387">
        <ele>25.60000038147</ele>
        <time>2019-01-10T09:29:58.000Z</time>
      </trkpt>
      <trkpt lat="47.26873" lon="-2.27387">
        <ele>25.200000762939</ele>
        <time>2019-01-10T09:29:59.000Z</time>
      </trkpt>
      <trkpt lat="47.26877" lon="-2.27385">
        <ele>24.799999237061</ele>
        <time>2019-01-10T09:30:00.000Z</time>
      </trkpt>
      <trkpt lat="47.26891" lon="-2.27378">
        <ele>24.799999237061</ele>
        <time>2019-01-10T09:30:04.000Z</time>
      </trkpt>
      <trkpt lat="47.26899" lon="-2.27375">
        <ele>24.200000762939</ele>
        <time>2019-01-10T09:30:07.000Z</time>
      </trkpt>
      <trkpt lat="47.26901" lon="-2.27374">
        <ele>23.799999237061</ele>
        <time>2019-01-10T09:30:08.000Z</time>
      </trkpt>
      <trkpt lat="47.26902" lon="-2.27372">
        <ele>23.39999961853</ele>
        <time>2019-01-10T09:30:09.000Z</time>
      </trkpt>
      <trkpt lat="47.26904" lon="-2.2737">
        <ele>23</ele>
        <time>2019-01-10T09:30:10.000Z</time>
      </trkpt>
      <trkpt lat="47.26905" lon="-2.27368">
        <ele>22.60000038147</ele>
        <time>2019-01-10T09:30:11.000Z</time>
      </trkpt>
      <trkpt lat="47.26907" lon="-2.27366">
        <ele>22.60000038147</ele>
        <time>2019-01-10T09:30:12.000Z</time>
      </trkpt>
      <trkpt lat="47.26909" lon="-2.27355">
        <ele>22.60000038147</ele>
        <time>2019-01-10T09:30:16.000Z</time>
      </trkpt>
      <trkpt lat="47.26911" lon="-2.27347">
        <ele>22.60000038147</ele>
        <time>2019-01-10T09:30:19.000Z</time>
      </trkpt>
      <trkpt lat="47.26914" lon="-2.27344">
        <ele>22.60000038147</ele>
        <time>2019-01-10T09:30:21.000Z</time>
      </trkpt>
      <trkpt lat="47.26917" lon="-2.27337">
        <ele>22.60000038147</ele>
        <time>2019-01-10T09:30:26.000Z</time>
      </trkpt>
      <trkpt lat="47.26919" lon="-2.27334">
        <ele>22.60000038147</ele>
        <time>2019-01-10T09:30:27.000Z</time>
      </trkpt>
      <trkpt lat="47.2692" lon="-2.27322">
        <ele>22.60000038147</ele>
        <time>2019-01-10T09:30:32.000Z</time>
      </trkpt>
      <trkpt lat="47.26924" lon="-2.27306">
        <ele>22.60000038147</ele>
        <time>2019-01-10T09:30:37.000Z</time>
      </trkpt>
      <trkpt lat="47.26924" lon="-2.27304">
        <ele>22.60000038147</ele>
        <time>2019-01-10T09:30:38.000Z</time>
      </trkpt>
      <trkpt lat="47.26925" lon="-2.27293">
        <ele>22.60000038147</ele>
        <time>2019-01-10T09:30:41.000Z</time>
      </trkpt>
      <trkpt lat="47.26927" lon="-2.27289">
        <ele>22.60000038147</ele>
        <time>2019-01-10T09:30:42.000Z</time>
      </trkpt>
      <trkpt lat="47.26935" lon="-2.27271">
        <ele>22.60000038147</ele>
        <time>2019-01-10T09:30:47.000Z</time>
      </trkpt>
      <trkpt lat="47.26941" lon="-2.27266">
        <ele>22.60000038147</ele>
        <time>2019-01-10T09:30:50.000Z</time>
      </trkpt>
      <trkpt lat="47.26946" lon="-2.27266">
        <ele>22.60000038147</ele>
        <time>2019-01-10T09:30:52.000Z</time>
      </trkpt>
      <trkpt lat="47.26953" lon="-2.27257">
        <ele>22.60000038147</ele>
        <time>2019-01-10T09:30:55.000Z</time>
      </trkpt>
      <trkpt lat="47.26962" lon="-2.2724">
        <ele>22.60000038147</ele>
        <time>2019-01-10T09:30:59.000Z</time>
      </trkpt>
      <trkpt lat="47.26963" lon="-2.27223">
        <ele>22.60000038147</ele>
        <time>2019-01-10T09:31:03.000Z</time>
      </trkpt>
      <trkpt lat="47.26962" lon="-2.2722">
        <ele>22.60000038147</ele>
        <time>2019-01-10T09:31:04.000Z</time>
      </trkpt>
      <trkpt lat="47.26965" lon="-2.27211">
        <ele>22.60000038147</ele>
        <time>2019-01-10T09:31:07.000Z</time>
      </trkpt>
      <trkpt lat="47.2697" lon="-2.27204">
        <ele>22.60000038147</ele>
        <time>2019-01-10T09:31:10.000Z</time>
      </trkpt>
      <trkpt lat="47.26973" lon="-2.27197">
        <ele>22.60000038147</ele>
        <time>2019-01-10T09:31:13.000Z</time>
      </trkpt>
      <trkpt lat="47.26975" lon="-2.27191">
        <ele>22.60000038147</ele>
        <time>2019-01-10T09:31:15.000Z</time>
      </trkpt>
      <trkpt lat="47.26978" lon="-2.27184">
        <ele>22.60000038147</ele>
        <time>2019-01-10T09:31:18.000Z</time>
      </trkpt>
      <trkpt lat="47.26979" lon="-2.27184">
        <ele>22.60000038147</ele>
        <time>2019-01-10T09:31:19.000Z</time>
      </trkpt>
      <trkpt lat="47.26981" lon="-2.27183">
        <ele>22.60000038147</ele>
        <time>2019-01-10T09:31:20.000Z</time>
      </trkpt>
      <trkpt lat="47.26984" lon="-2.27184">
        <ele>22.60000038147</ele>
        <time>2019-01-10T09:31:22.000Z</time>
      </trkpt>
      <trkpt lat="47.26992" lon="-2.27178">
        <ele>22.60000038147</ele>
        <time>2019-01-10T09:31:27.000Z</time>
      </trkpt>
      <trkpt lat="47.26998" lon="-2.27173">
        <ele>22.60000038147</ele>
        <time>2019-01-10T09:31:32.000Z</time>
      </trkpt>
      <trkpt lat="47.27" lon="-2.2717">
        <ele>22.60000038147</ele>
        <time>2019-01-10T09:31:36.000Z</time>
      </trkpt>
      <trkpt lat="47.27001" lon="-2.2717">
        <ele>22.60000038147</ele>
        <time>2019-01-10T09:31:39.000Z</time>
      </trkpt>
      <trkpt lat="47.27001" lon="-2.27173">
        <ele>22.60000038147</ele>
        <time>2019-01-10T09:31:40.000Z</time>
      </trkpt>
      <trkpt lat="47.27003" lon="-2.27177">
        <ele>22.60000038147</ele>
        <time>2019-01-10T09:31:42.000Z</time>
      </trkpt>
      <trkpt lat="47.27005" lon="-2.27177">
        <ele>22.60000038147</ele>
        <time>2019-01-10T09:31:43.000Z</time>
      </trkpt>
      <trkpt lat="47.27006" lon="-2.27173">
        <ele>22.60000038147</ele>
        <time>2019-01-10T09:31:47.000Z</time>
      </trkpt>
      <trkpt lat="47.27009" lon="-2.27171">
        <ele>22.60000038147</ele>
        <time>2019-01-10T09:31:48.000Z</time>
      </trkpt>
      <trkpt lat="47.2701" lon="-2.27168">
        <ele>22.200000762939</ele>
        <time>2019-01-10T09:31:50.000Z</time>
      </trkpt>
      <trkpt lat="47.27011" lon="-2.27166">
        <ele>21.799999237061</ele>
        <time>2019-01-10T09:31:51.000Z</time>
      </trkpt>
      <trkpt lat="47.27012" lon="-2.27164">
        <ele>21.39999961853</ele>
        <time>2019-01-10T09:31:52.000Z</time>
      </trkpt>
      <trkpt lat="47.27013" lon="-2.27164">
        <ele>21</ele>
        <time>2019-01-10T09:31:53.000Z</time>
      </trkpt>
      <trkpt lat="47.27015" lon="-2.27163">
        <ele>20.60000038147</ele>
        <time>2019-01-10T09:31:54.000Z</time>
      </trkpt>
      <trkpt lat="47.27017" lon="-2.2716">
        <ele>20.60000038147</ele>
        <time>2019-01-10T09:31:55.000Z</time>
      </trkpt>
      <trkpt lat="47.27024" lon="-2.27154">
        <ele>20.60000038147</ele>
        <time>2019-01-10T09:31:59.000Z</time>
      </trkpt>
      <trkpt lat="47.27027" lon="-2.27157">
        <ele>20.60000038147</ele>
        <time>2019-01-10T09:32:00.000Z</time>
      </trkpt>
      <trkpt lat="47.27036" lon="-2.27169">
        <ele>20.60000038147</ele>
        <time>2019-01-10T09:32:04.000Z</time>
      </trkpt>
      <trkpt lat="47.2704" lon="-2.27173">
        <ele>20.60000038147</ele>
        <time>2019-01-10T09:32:05.000Z</time>
      </trkpt>
      <trkpt lat="47.27052" lon="-2.27191">
        <ele>20.60000038147</ele>
        <time>2019-01-10T09:32:09.000Z</time>
      </trkpt>
      <trkpt lat="47.27057" lon="-2.27196">
        <ele>20.60000038147</ele>
        <time>2019-01-10T09:32:10.000Z</time>
      </trkpt>
      <trkpt lat="47.2706" lon="-2.27201">
        <ele>20.60000038147</ele>
        <time>2019-01-10T09:32:11.000Z</time>
      </trkpt>
      <trkpt lat="47.27069" lon="-2.27215">
        <ele>21</ele>
        <time>2019-01-10T09:32:14.000Z</time>
      </trkpt>
      <trkpt lat="47.27072" lon="-2.27219">
        <ele>21.39999961853</ele>
        <time>2019-01-10T09:32:15.000Z</time>
      </trkpt>
      <trkpt lat="47.27075" lon="-2.27224">
        <ele>22</ele>
        <time>2019-01-10T09:32:16.000Z</time>
      </trkpt>
      <trkpt lat="47.27078" lon="-2.27229">
        <ele>22.39999961853</ele>
        <time>2019-01-10T09:32:17.000Z</time>
      </trkpt>
      <trkpt lat="47.27081" lon="-2.27233">
        <ele>22.799999237061</ele>
        <time>2019-01-10T09:32:18.000Z</time>
      </trkpt>
      <trkpt lat="47.27087" lon="-2.27243">
        <ele>23.200000762939</ele>
        <time>2019-01-10T09:32:20.000Z</time>
      </trkpt>
      <trkpt lat="47.2709" lon="-2.27247">
        <ele>23.799999237061</ele>
        <time>2019-01-10T09:32:21.000Z</time>
      </trkpt>
      <trkpt lat="47.27093" lon="-2.27253">
        <ele>24.200000762939</ele>
        <time>2019-01-10T09:32:22.000Z</time>
      </trkpt>
      <trkpt lat="47.27096" lon="-2.2726">
        <ele>24.60000038147</ele>
        <time>2019-01-10T09:32:23.000Z</time>
      </trkpt>
      <trkpt lat="47.27099" lon="-2.27265">
        <ele>25</ele>
        <time>2019-01-10T09:32:24.000Z</time>
      </trkpt>
      <trkpt lat="47.27102" lon="-2.2727">
        <ele>25</ele>
        <time>2019-01-10T09:32:25.000Z</time>
      </trkpt>
      <trkpt lat="47.27108" lon="-2.27281">
        <ele>25</ele>
        <time>2019-01-10T09:32:27.000Z</time>
      </trkpt>
      <trkpt lat="47.27112" lon="-2.27292">
        <ele>25</ele>
        <time>2019-01-10T09:32:29.000Z</time>
      </trkpt>
      <trkpt lat="47.27114" lon="-2.27298">
        <ele>25.39999961853</ele>
        <time>2019-01-10T09:32:30.000Z</time>
      </trkpt>
      <trkpt lat="47.27115" lon="-2.27305">
        <ele>26</ele>
        <time>2019-01-10T09:32:31.000Z</time>
      </trkpt>
      <trkpt lat="47.27117" lon="-2.27313">
        <ele>26.39999961853</ele>
        <time>2019-01-10T09:32:32.000Z</time>
      </trkpt>
      <trkpt lat="47.27118" lon="-2.27319">
        <ele>26.799999237061</ele>
        <time>2019-01-10T09:32:33.000Z</time>
      </trkpt>
      <trkpt lat="47.27118" lon="-2.27326">
        <ele>27.200000762939</ele>
        <time>2019-01-10T09:32:34.000Z</time>
      </trkpt>
      <trkpt lat="47.27125" lon="-2.27364">
        <ele>27.200000762939</ele>
        <time>2019-01-10T09:32:39.000Z</time>
      </trkpt>
      <trkpt lat="47.27133" lon="-2.27405">
        <ele>27.200000762939</ele>
        <time>2019-01-10T09:32:45.000Z</time>
      </trkpt>
      <trkpt lat="47.27136" lon="-2.27419">
        <ele>27.200000762939</ele>
        <time>2019-01-10T09:32:47.000Z</time>
      </trkpt>
      <trkpt lat="47.27139" lon="-2.2744">
        <ele>27.60000038147</ele>
        <time>2019-01-10T09:32:50.000Z</time>
      </trkpt>
      <trkpt lat="47.2714" lon="-2.27447">
        <ele>28</ele>
        <time>2019-01-10T09:32:51.000Z</time>
      </trkpt>
      <trkpt lat="47.27141" lon="-2.27454">
        <ele>28.39999961853</ele>
        <time>2019-01-10T09:32:52.000Z</time>
      </trkpt>
      <trkpt lat="47.27142" lon="-2.27462">
        <ele>28.799999237061</ele>
        <time>2019-01-10T09:32:53.000Z</time>
      </trkpt>
      <trkpt lat="47.27144" lon="-2.2747">
        <ele>29.200000762939</ele>
        <time>2019-01-10T09:32:54.000Z</time>
      </trkpt>
      <trkpt lat="47.27146" lon="-2.27485">
        <ele>29.200000762939</ele>
        <time>2019-01-10T09:32:56.000Z</time>
      </trkpt>
      <trkpt lat="47.27147" lon="-2.27538">
        <ele>29.200000762939</ele>
        <time>2019-01-10T09:33:02.000Z</time>
      </trkpt>
      <trkpt lat="47.27146" lon="-2.27553">
        <ele>29.200000762939</ele>
        <time>2019-01-10T09:33:04.000Z</time>
      </trkpt>
      <trkpt lat="47.27144" lon="-2.27571">
        <ele>29.200000762939</ele>
        <time>2019-01-10T09:33:06.000Z</time>
      </trkpt>
      <trkpt lat="47.27133" lon="-2.27601">
        <ele>29.200000762939</ele>
        <time>2019-01-10T09:33:10.000Z</time>
      </trkpt>
      <trkpt lat="47.2712" lon="-2.27614">
        <ele>29.200000762939</ele>
        <time>2019-01-10T09:33:13.000Z</time>
      </trkpt>
      <trkpt lat="47.27114" lon="-2.27617">
        <ele>29.200000762939</ele>
        <time>2019-01-10T09:33:14.000Z</time>
      </trkpt>
      <trkpt lat="47.27097" lon="-2.27627">
        <ele>29.200000762939</ele>
        <time>2019-01-10T09:33:17.000Z</time>
      </trkpt>
      <trkpt lat="47.27087" lon="-2.27635">
        <ele>29.200000762939</ele>
        <time>2019-01-10T09:33:19.000Z</time>
      </trkpt>
      <trkpt lat="47.27072" lon="-2.27649">
        <ele>29.200000762939</ele>
        <time>2019-01-10T09:33:22.000Z</time>
      </trkpt>
      <trkpt lat="47.27061" lon="-2.27659">
        <ele>29.200000762939</ele>
        <time>2019-01-10T09:33:24.000Z</time>
      </trkpt>
      <trkpt lat="47.27034" lon="-2.27687">
        <ele>29.200000762939</ele>
        <time>2019-01-10T09:33:30.000Z</time>
      </trkpt>
      <trkpt lat="47.27028" lon="-2.27697">
        <ele>29.200000762939</ele>
        <time>2019-01-10T09:33:32.000Z</time>
      </trkpt>
      <trkpt lat="47.27026" lon="-2.27711">
        <ele>29.200000762939</ele>
        <time>2019-01-10T09:33:34.000Z</time>
      </trkpt>
      <trkpt lat="47.27037" lon="-2.27725">
        <ele>29.200000762939</ele>
        <time>2019-01-10T09:33:37.000Z</time>
      </trkpt>
      <trkpt lat="47.27047" lon="-2.27727">
        <ele>29.200000762939</ele>
        <time>2019-01-10T09:33:39.000Z</time>
      </trkpt>
      <trkpt lat="47.27052" lon="-2.2773">
        <ele>29.60000038147</ele>
        <time>2019-01-10T09:33:40.000Z</time>
      </trkpt>
      <trkpt lat="47.27057" lon="-2.27732">
        <ele>30</ele>
        <time>2019-01-10T09:33:41.000Z</time>
      </trkpt>
      <trkpt lat="47.27062" lon="-2.27734">
        <ele>30.39999961853</ele>
        <time>2019-01-10T09:33:42.000Z</time>
      </trkpt>
      <trkpt lat="47.27068" lon="-2.27736">
        <ele>30.799999237061</ele>
        <time>2019-01-10T09:33:43.000Z</time>
      </trkpt>
      <trkpt lat="47.27073" lon="-2.27739">
        <ele>31.200000762939</ele>
        <time>2019-01-10T09:33:44.000Z</time>
      </trkpt>
      <trkpt lat="47.27083" lon="-2.27744">
        <ele>31.200000762939</ele>
        <time>2019-01-10T09:33:46.000Z</time>
      </trkpt>
      <trkpt lat="47.27092" lon="-2.27752">
        <ele>31.200000762939</ele>
        <time>2019-01-10T09:33:48.000Z</time>
      </trkpt>
      <trkpt lat="47.27103" lon="-2.2777">
        <ele>31.200000762939</ele>
        <time>2019-01-10T09:33:51.000Z</time>
      </trkpt>
      <trkpt lat="47.27109" lon="-2.27792">
        <ele>31.200000762939</ele>
        <time>2019-01-10T09:33:54.000Z</time>
      </trkpt>
      <trkpt lat="47.27111" lon="-2.27799">
        <ele>31.200000762939</ele>
        <time>2019-01-10T09:33:55.000Z</time>
      </trkpt>
      <trkpt lat="47.27114" lon="-2.27813">
        <ele>31.200000762939</ele>
        <time>2019-01-10T09:33:57.000Z</time>
      </trkpt>
      <trkpt lat="47.27112" lon="-2.27819">
        <ele>31.200000762939</ele>
        <time>2019-01-10T09:33:58.000Z</time>
      </trkpt>
      <trkpt lat="47.2711" lon="-2.27826">
        <ele>31.60000038147</ele>
        <time>2019-01-10T09:33:59.000Z</time>
      </trkpt>
      <trkpt lat="47.27108" lon="-2.27834">
        <ele>32</ele>
        <time>2019-01-10T09:34:00.000Z</time>
      </trkpt>
      <trkpt lat="47.27106" lon="-2.27841">
        <ele>32.400001525879</ele>
        <time>2019-01-10T09:34:01.000Z</time>
      </trkpt>
      <trkpt lat="47.27104" lon="-2.27848">
        <ele>32.799999237061</ele>
        <time>2019-01-10T09:34:02.000Z</time>
      </trkpt>
      <trkpt lat="47.27102" lon="-2.27855">
        <ele>33.400001525879</ele>
        <time>2019-01-10T09:34:03.000Z</time>
      </trkpt>
      <trkpt lat="47.27095" lon="-2.27881">
        <ele>33.400001525879</ele>
        <time>2019-01-10T09:34:07.000Z</time>
      </trkpt>
      <trkpt lat="47.27092" lon="-2.27885">
        <ele>33.799999237061</ele>
        <time>2019-01-10T09:34:08.000Z</time>
      </trkpt>
      <trkpt lat="47.27088" lon="-2.27889">
        <ele>34.200000762939</ele>
        <time>2019-01-10T09:34:09.000Z</time>
      </trkpt>
      <trkpt lat="47.27084" lon="-2.27895">
        <ele>34.599998474121</ele>
        <time>2019-01-10T09:34:10.000Z</time>
      </trkpt>
      <trkpt lat="47.27074" lon="-2.27912">
        <ele>35.599998474121</ele>
        <time>2019-01-10T09:34:11.000Z</time>
      </trkpt>
      <trkpt lat="47.27074" lon="-2.27912">
        <ele>35.599998474121</ele>
        <time>2019-01-10T09:34:14.000Z</time>
      </trkpt>
      <trkpt lat="47.27071" lon="-2.27918">
        <ele>35.599998474121</ele>
        <time>2019-01-10T09:34:15.000Z</time>
      </trkpt>
      <trkpt lat="47.27068" lon="-2.27943">
        <ele>36</ele>
        <time>2019-01-10T09:34:18.000Z</time>
      </trkpt>
      <trkpt lat="47.2707" lon="-2.27951">
        <ele>36.400001525879</ele>
        <time>2019-01-10T09:34:19.000Z</time>
      </trkpt>
      <trkpt lat="47.27071" lon="-2.27958">
        <ele>36.799999237061</ele>
        <time>2019-01-10T09:34:20.000Z</time>
      </trkpt>
      <trkpt lat="47.27074" lon="-2.27965">
        <ele>37.200000762939</ele>
        <time>2019-01-10T09:34:21.000Z</time>
      </trkpt>
      <trkpt lat="47.27078" lon="-2.27971">
        <ele>37.599998474121</ele>
        <time>2019-01-10T09:34:22.000Z</time>
      </trkpt>
      <trkpt lat="47.27092" lon="-2.27984">
        <ele>37.599998474121</ele>
        <time>2019-01-10T09:34:25.000Z</time>
      </trkpt>
      <trkpt lat="47.27104" lon="-2.27987">
        <ele>37.599998474121</ele>
        <time>2019-01-10T09:34:27.000Z</time>
      </trkpt>
      <trkpt lat="47.2711" lon="-2.27991">
        <ele>37.599998474121</ele>
        <time>2019-01-10T09:34:28.000Z</time>
      </trkpt>
      <trkpt lat="47.27114" lon="-2.27998">
        <ele>37.599998474121</ele>
        <time>2019-01-10T09:34:29.000Z</time>
      </trkpt>
      <trkpt lat="47.2712" lon="-2.28028">
        <ele>37.599998474121</ele>
        <time>2019-01-10T09:34:32.000Z</time>
      </trkpt>
      <trkpt lat="47.27127" lon="-2.28051">
        <ele>37.599998474121</ele>
        <time>2019-01-10T09:34:35.000Z</time>
      </trkpt>
      <trkpt lat="47.27132" lon="-2.28055">
        <ele>37.599998474121</ele>
        <time>2019-01-10T09:34:36.000Z</time>
      </trkpt>
      <trkpt lat="47.27146" lon="-2.28056">
        <ele>37.599998474121</ele>
        <time>2019-01-10T09:34:39.000Z</time>
      </trkpt>
      <trkpt lat="47.27149" lon="-2.28071">
        <ele>37.599998474121</ele>
        <time>2019-01-10T09:34:41.000Z</time>
      </trkpt>
      <trkpt lat="47.2715" lon="-2.28079">
        <ele>37.200000762939</ele>
        <time>2019-01-10T09:34:42.000Z</time>
      </trkpt>
      <trkpt lat="47.27151" lon="-2.28087">
        <ele>36.799999237061</ele>
        <time>2019-01-10T09:34:43.000Z</time>
      </trkpt>
      <trkpt lat="47.27153" lon="-2.28095">
        <ele>36.400001525879</ele>
        <time>2019-01-10T09:34:44.000Z</time>
      </trkpt>
      <trkpt lat="47.27154" lon="-2.28104">
        <ele>36</ele>
        <time>2019-01-10T09:34:45.000Z</time>
      </trkpt>
      <trkpt lat="47.27155" lon="-2.28112">
        <ele>35.599998474121</ele>
        <time>2019-01-10T09:34:46.000Z</time>
      </trkpt>
      <trkpt lat="47.27162" lon="-2.28146">
        <ele>35.200000762939</ele>
        <time>2019-01-10T09:34:51.000Z</time>
      </trkpt>
      <trkpt lat="47.27164" lon="-2.28147">
        <ele>34.599998474121</ele>
        <time>2019-01-10T09:34:52.000Z</time>
      </trkpt>
      <trkpt lat="47.27168" lon="-2.28145">
        <ele>34.200000762939</ele>
        <time>2019-01-10T09:34:53.000Z</time>
      </trkpt>
      <trkpt lat="47.27171" lon="-2.28142">
        <ele>33.799999237061</ele>
        <time>2019-01-10T09:34:54.000Z</time>
      </trkpt>
      <trkpt lat="47.27174" lon="-2.28139">
        <ele>33.400001525879</ele>
        <time>2019-01-10T09:34:55.000Z</time>
      </trkpt>
      <trkpt lat="47.27181" lon="-2.28129">
        <ele>33.400001525879</ele>
        <time>2019-01-10T09:34:57.000Z</time>
      </trkpt>
      <trkpt lat="47.27188" lon="-2.28121">
        <ele>33.400001525879</ele>
        <time>2019-01-10T09:34:59.000Z</time>
      </trkpt>
      <trkpt lat="47.27213" lon="-2.28103">
        <ele>33.400001525879</ele>
        <time>2019-01-10T09:35:04.000Z</time>
      </trkpt>
      <trkpt lat="47.27249" lon="-2.2808">
        <ele>33.400001525879</ele>
        <time>2019-01-10T09:35:11.000Z</time>
      </trkpt>
      <trkpt lat="47.27259" lon="-2.28072">
        <ele>32.599998474121</ele>
        <time>2019-01-10T09:35:13.000Z</time>
      </trkpt>
      <trkpt lat="47.27264" lon="-2.28068">
        <ele>32.200000762939</ele>
        <time>2019-01-10T09:35:14.000Z</time>
      </trkpt>
      <trkpt lat="47.2727" lon="-2.28064">
        <ele>31.60000038147</ele>
        <time>2019-01-10T09:35:15.000Z</time>
      </trkpt>
      <trkpt lat="47.27275" lon="-2.28061">
        <ele>31.200000762939</ele>
        <time>2019-01-10T09:35:16.000Z</time>
      </trkpt>
      <trkpt lat="47.27312" lon="-2.28048">
        <ele>31.200000762939</ele>
        <time>2019-01-10T09:35:22.000Z</time>
      </trkpt>
      <trkpt lat="47.27343" lon="-2.2805">
        <ele>31.200000762939</ele>
        <time>2019-01-10T09:35:27.000Z</time>
      </trkpt>
      <trkpt lat="47.27352" lon="-2.28054">
        <ele>31.200000762939</ele>
        <time>2019-01-10T09:35:30.000Z</time>
      </trkpt>
      <trkpt lat="47.27356" lon="-2.28057">
        <ele>30.799999237061</ele>
        <time>2019-01-10T09:35:32.000Z</time>
      </trkpt>
      <trkpt lat="47.27359" lon="-2.2806">
        <ele>30.39999961853</ele>
        <time>2019-01-10T09:35:33.000Z</time>
      </trkpt>
      <trkpt lat="47.27362" lon="-2.28066">
        <ele>30</ele>
        <time>2019-01-10T09:35:34.000Z</time>
      </trkpt>
      <trkpt lat="47.27365" lon="-2.28072">
        <ele>29.60000038147</ele>
        <time>2019-01-10T09:35:35.000Z</time>
      </trkpt>
      <trkpt lat="47.27369" lon="-2.28079">
        <ele>29</ele>
        <time>2019-01-10T09:35:36.000Z</time>
      </trkpt>
      <trkpt lat="47.27379" lon="-2.28093">
        <ele>29</ele>
        <time>2019-01-10T09:35:38.000Z</time>
      </trkpt>
      <trkpt lat="47.27408" lon="-2.28133">
        <ele>29</ele>
        <time>2019-01-10T09:35:44.000Z</time>
      </trkpt>
      <trkpt lat="47.2743" lon="-2.28157">
        <ele>29</ele>
        <time>2019-01-10T09:35:48.000Z</time>
      </trkpt>
      <trkpt lat="47.27436" lon="-2.28173">
        <ele>29</ele>
        <time>2019-01-10T09:35:50.000Z</time>
      </trkpt>
      <trkpt lat="47.27434" lon="-2.28198">
        <ele>29</ele>
        <time>2019-01-10T09:35:53.000Z</time>
      </trkpt>
      <trkpt lat="47.27431" lon="-2.28214">
        <ele>29</ele>
        <time>2019-01-10T09:35:55.000Z</time>
      </trkpt>
      <trkpt lat="47.27429" lon="-2.2823">
        <ele>28.60000038147</ele>
        <time>2019-01-10T09:35:57.000Z</time>
      </trkpt>
      <trkpt lat="47.27428" lon="-2.28237">
        <ele>28.200000762939</ele>
        <time>2019-01-10T09:35:58.000Z</time>
      </trkpt>
      <trkpt lat="47.27426" lon="-2.28244">
        <ele>27.799999237061</ele>
        <time>2019-01-10T09:35:59.000Z</time>
      </trkpt>
      <trkpt lat="47.27425" lon="-2.28252">
        <ele>27.39999961853</ele>
        <time>2019-01-10T09:36:00.000Z</time>
      </trkpt>
      <trkpt lat="47.27424" lon="-2.2826">
        <ele>26.799999237061</ele>
        <time>2019-01-10T09:36:01.000Z</time>
      </trkpt>
      <trkpt lat="47.27419" lon="-2.28285">
        <ele>26.799999237061</ele>
        <time>2019-01-10T09:36:05.000Z</time>
      </trkpt>
      <trkpt lat="47.27413" lon="-2.28319">
        <ele>26.799999237061</ele>
        <time>2019-01-10T09:36:10.000Z</time>
      </trkpt>
      <trkpt lat="47.2741" lon="-2.28347">
        <ele>26.799999237061</ele>
        <time>2019-01-10T09:36:14.000Z</time>
      </trkpt>
      <trkpt lat="47.27409" lon="-2.28363">
        <ele>26.799999237061</ele>
        <time>2019-01-10T09:36:16.000Z</time>
      </trkpt>
      <trkpt lat="47.27409" lon="-2.28372">
        <ele>26.799999237061</ele>
        <time>2019-01-10T09:36:17.000Z</time>
      </trkpt>
      <trkpt lat="47.2741" lon="-2.28405">
        <ele>26.799999237061</ele>
        <time>2019-01-10T09:36:21.000Z</time>
      </trkpt>
      <trkpt lat="47.27409" lon="-2.28458">
        <ele>26.799999237061</ele>
        <time>2019-01-10T09:36:27.000Z</time>
      </trkpt>
      <trkpt lat="47.27407" lon="-2.28476">
        <ele>26.799999237061</ele>
        <time>2019-01-10T09:36:29.000Z</time>
      </trkpt>
      <trkpt lat="47.27402" lon="-2.28505">
        <ele>26.799999237061</ele>
        <time>2019-01-10T09:36:32.000Z</time>
      </trkpt>
      <trkpt lat="47.27393" lon="-2.28548">
        <ele>26.799999237061</ele>
        <time>2019-01-10T09:36:37.000Z</time>
      </trkpt>
      <trkpt lat="47.27387" lon="-2.28566">
        <ele>26.799999237061</ele>
        <time>2019-01-10T09:36:39.000Z</time>
      </trkpt>
      <trkpt lat="47.27377" lon="-2.28589">
        <ele>26.799999237061</ele>
        <time>2019-01-10T09:36:42.000Z</time>
      </trkpt>
      <trkpt lat="47.2736" lon="-2.28626">
        <ele>26.799999237061</ele>
        <time>2019-01-10T09:36:47.000Z</time>
      </trkpt>
      <trkpt lat="47.27348" lon="-2.28663">
        <ele>26.799999237061</ele>
        <time>2019-01-10T09:36:52.000Z</time>
      </trkpt>
      <trkpt lat="47.27334" lon="-2.28713">
        <ele>26.799999237061</ele>
        <time>2019-01-10T09:36:58.000Z</time>
      </trkpt>
      <trkpt lat="47.27328" lon="-2.28737">
        <ele>26.799999237061</ele>
        <time>2019-01-10T09:37:01.000Z</time>
      </trkpt>
      <trkpt lat="47.27326" lon="-2.28749">
        <ele>26.799999237061</ele>
        <time>2019-01-10T09:37:03.000Z</time>
      </trkpt>
      <trkpt lat="47.27332" lon="-2.28768">
        <ele>26.799999237061</ele>
        <time>2019-01-10T09:37:06.000Z</time>
      </trkpt>
      <trkpt lat="47.2735" lon="-2.2878">
        <ele>26.799999237061</ele>
        <time>2019-01-10T09:37:10.000Z</time>
      </trkpt>
      <trkpt lat="47.27358" lon="-2.28786">
        <ele>26.39999961853</ele>
        <time>2019-01-10T09:37:12.000Z</time>
      </trkpt>
      <trkpt lat="47.27361" lon="-2.28791">
        <ele>26</ele>
        <time>2019-01-10T09:37:13.000Z</time>
      </trkpt>
      <trkpt lat="47.27364" lon="-2.28794">
        <ele>25.60000038147</ele>
        <time>2019-01-10T09:37:14.000Z</time>
      </trkpt>
      <trkpt lat="47.27368" lon="-2.28794">
        <ele>25.200000762939</ele>
        <time>2019-01-10T09:37:15.000Z</time>
      </trkpt>
      <trkpt lat="47.27371" lon="-2.28793">
        <ele>24.799999237061</ele>
        <time>2019-01-10T09:37:16.000Z</time>
      </trkpt>
      <trkpt lat="47.27376" lon="-2.2879">
        <ele>24.799999237061</ele>
        <time>2019-01-10T09:37:17.000Z</time>
      </trkpt>
      <trkpt lat="47.27387" lon="-2.28777">
        <ele>24.799999237061</ele>
        <time>2019-01-10T09:37:20.000Z</time>
      </trkpt>
      <trkpt lat="47.2739" lon="-2.2877">
        <ele>24.799999237061</ele>
        <time>2019-01-10T09:37:21.000Z</time>
      </trkpt>
      <trkpt lat="47.27399" lon="-2.28748">
        <ele>24.799999237061</ele>
        <time>2019-01-10T09:37:24.000Z</time>
      </trkpt>
      <trkpt lat="47.27404" lon="-2.28734">
        <ele>24.799999237061</ele>
        <time>2019-01-10T09:37:26.000Z</time>
      </trkpt>
      <trkpt lat="47.27412" lon="-2.28719">
        <ele>24.799999237061</ele>
        <time>2019-01-10T09:37:28.000Z</time>
      </trkpt>
      <trkpt lat="47.2742" lon="-2.28701">
        <ele>24.799999237061</ele>
        <time>2019-01-10T09:37:31.000Z</time>
      </trkpt>
      <trkpt lat="47.27425" lon="-2.28693">
        <ele>24.799999237061</ele>
        <time>2019-01-10T09:37:32.000Z</time>
      </trkpt>
      <trkpt lat="47.27433" lon="-2.28679">
        <ele>24.799999237061</ele>
        <time>2019-01-10T09:37:34.000Z</time>
      </trkpt>
      <trkpt lat="47.27451" lon="-2.28644">
        <ele>24.799999237061</ele>
        <time>2019-01-10T09:37:39.000Z</time>
      </trkpt>
      <trkpt lat="47.27464" lon="-2.28619">
        <ele>24.799999237061</ele>
        <time>2019-01-10T09:37:43.000Z</time>
      </trkpt>
      <trkpt lat="47.27477" lon="-2.28611">
        <ele>24.799999237061</ele>
        <time>2019-01-10T09:37:46.000Z</time>
      </trkpt>
      <trkpt lat="47.27484" lon="-2.28624">
        <ele>24.799999237061</ele>
        <time>2019-01-10T09:37:48.000Z</time>
      </trkpt>
      <trkpt lat="47.27489" lon="-2.2864">
        <ele>24.799999237061</ele>
        <time>2019-01-10T09:37:50.000Z</time>
      </trkpt>
      <trkpt lat="47.27494" lon="-2.28655">
        <ele>24.799999237061</ele>
        <time>2019-01-10T09:37:52.000Z</time>
      </trkpt>
      <trkpt lat="47.27501" lon="-2.28669">
        <ele>24.799999237061</ele>
        <time>2019-01-10T09:37:54.000Z</time>
      </trkpt>
      <trkpt lat="47.27514" lon="-2.28687">
        <ele>24.799999237061</ele>
        <time>2019-01-10T09:37:57.000Z</time>
      </trkpt>
      <trkpt lat="47.27531" lon="-2.28703">
        <ele>24.799999237061</ele>
        <time>2019-01-10T09:38:01.000Z</time>
      </trkpt>
      <trkpt lat="47.27551" lon="-2.28715">
        <ele>24.799999237061</ele>
        <time>2019-01-10T09:38:05.000Z</time>
      </trkpt>
      <trkpt lat="47.27558" lon="-2.28719">
        <ele>24.799999237061</ele>
        <time>2019-01-10T09:38:06.000Z</time>
      </trkpt>
      <trkpt lat="47.27564" lon="-2.28723">
        <ele>24.799999237061</ele>
        <time>2019-01-10T09:38:07.000Z</time>
      </trkpt>
      <trkpt lat="47.27575" lon="-2.28731">
        <ele>24.799999237061</ele>
        <time>2019-01-10T09:38:09.000Z</time>
      </trkpt>
      <trkpt lat="47.27586" lon="-2.28738">
        <ele>24.799999237061</ele>
        <time>2019-01-10T09:38:11.000Z</time>
      </trkpt>
      <trkpt lat="47.27593" lon="-2.28741">
        <ele>24.799999237061</ele>
        <time>2019-01-10T09:38:12.000Z</time>
      </trkpt>
      <trkpt lat="47.27611" lon="-2.28751">
        <ele>24.799999237061</ele>
        <time>2019-01-10T09:38:15.000Z</time>
      </trkpt>
      <trkpt lat="47.27634" lon="-2.28758">
        <ele>24.799999237061</ele>
        <time>2019-01-10T09:38:19.000Z</time>
      </trkpt>
      <trkpt lat="47.2764" lon="-2.2876">
        <ele>24.799999237061</ele>
        <time>2019-01-10T09:38:20.000Z</time>
      </trkpt>
      <trkpt lat="47.27666" lon="-2.28773">
        <ele>24.799999237061</ele>
        <time>2019-01-10T09:38:25.000Z</time>
      </trkpt>
      <trkpt lat="47.27683" lon="-2.28796">
        <ele>24.799999237061</ele>
        <time>2019-01-10T09:38:29.000Z</time>
      </trkpt>
      <trkpt lat="47.27691" lon="-2.28809">
        <ele>24.799999237061</ele>
        <time>2019-01-10T09:38:31.000Z</time>
      </trkpt>
      <trkpt lat="47.27697" lon="-2.28813">
        <ele>24.799999237061</ele>
        <time>2019-01-10T09:38:32.000Z</time>
      </trkpt>
      <trkpt lat="47.27702" lon="-2.28814">
        <ele>24.799999237061</ele>
        <time>2019-01-10T09:38:33.000Z</time>
      </trkpt>
      <trkpt lat="47.27718" lon="-2.2881">
        <ele>24.799999237061</ele>
        <time>2019-01-10T09:38:36.000Z</time>
      </trkpt>
      <trkpt lat="47.27724" lon="-2.28807">
        <ele>24.799999237061</ele>
        <time>2019-01-10T09:38:37.000Z</time>
      </trkpt>
      <trkpt lat="47.27767" lon="-2.28791">
        <ele>24.799999237061</ele>
        <time>2019-01-10T09:38:44.000Z</time>
      </trkpt>
      <trkpt lat="47.27774" lon="-2.28791">
        <ele>24.799999237061</ele>
        <time>2019-01-10T09:38:45.000Z</time>
      </trkpt>
      <trkpt lat="47.27803" lon="-2.28789">
        <ele>24.799999237061</ele>
        <time>2019-01-10T09:38:49.000Z</time>
      </trkpt>
      <trkpt lat="47.27817" lon="-2.2879">
        <ele>24.799999237061</ele>
        <time>2019-01-10T09:38:51.000Z</time>
      </trkpt>
      <trkpt lat="47.27832" lon="-2.28796">
        <ele>24.799999237061</ele>
        <time>2019-01-10T09:38:53.000Z</time>
      </trkpt>
      <trkpt lat="47.27844" lon="-2.28805">
        <ele>24.799999237061</ele>
        <time>2019-01-10T09:38:55.000Z</time>
      </trkpt>
      <trkpt lat="47.27848" lon="-2.2881">
        <ele>24.799999237061</ele>
        <time>2019-01-10T09:38:56.000Z</time>
      </trkpt>
      <trkpt lat="47.27853" lon="-2.28813">
        <ele>24.799999237061</ele>
        <time>2019-01-10T09:38:57.000Z</time>
      </trkpt>
      <trkpt lat="47.27864" lon="-2.28806">
        <ele>24.799999237061</ele>
        <time>2019-01-10T09:39:00.000Z</time>
      </trkpt>
      <trkpt lat="47.27869" lon="-2.28787">
        <ele>24.799999237061</ele>
        <time>2019-01-10T09:39:03.000Z</time>
      </trkpt>
      <trkpt lat="47.27871" lon="-2.2878">
        <ele>24.799999237061</ele>
        <time>2019-01-10T09:39:04.000Z</time>
      </trkpt>
      <trkpt lat="47.27873" lon="-2.28774">
        <ele>24.799999237061</ele>
        <time>2019-01-10T09:39:05.000Z</time>
      </trkpt>
      <trkpt lat="47.27888" lon="-2.28762">
        <ele>24.799999237061</ele>
        <time>2019-01-10T09:39:08.000Z</time>
      </trkpt>
      <trkpt lat="47.2791" lon="-2.28755">
        <ele>24.799999237061</ele>
        <time>2019-01-10T09:39:11.000Z</time>
      </trkpt>
      <trkpt lat="47.27918" lon="-2.28753">
        <ele>24.799999237061</ele>
        <time>2019-01-10T09:39:12.000Z</time>
      </trkpt>
      <trkpt lat="47.27959" lon="-2.28742">
        <ele>24.39999961853</ele>
        <time>2019-01-10T09:39:18.000Z</time>
      </trkpt>
      <trkpt lat="47.27965" lon="-2.28742">
        <ele>24</ele>
        <time>2019-01-10T09:39:19.000Z</time>
      </trkpt>
      <trkpt lat="47.27971" lon="-2.28742">
        <ele>23.60000038147</ele>
        <time>2019-01-10T09:39:20.000Z</time>
      </trkpt>
      <trkpt lat="47.27976" lon="-2.28742">
        <ele>22.799999237061</ele>
        <time>2019-01-10T09:39:21.000Z</time>
      </trkpt>
      <trkpt lat="47.27987" lon="-2.28745">
        <ele>22.799999237061</ele>
        <time>2019-01-10T09:39:23.000Z</time>
      </trkpt>
      <trkpt lat="47.27993" lon="-2.28746">
        <ele>22.799999237061</ele>
        <time>2019-01-10T09:39:24.000Z</time>
      </trkpt>
      <trkpt lat="47.28037" lon="-2.28757">
        <ele>22.799999237061</ele>
        <time>2019-01-10T09:39:32.000Z</time>
      </trkpt>
      <trkpt lat="47.2807" lon="-2.28769">
        <ele>22.799999237061</ele>
        <time>2019-01-10T09:39:38.000Z</time>
      </trkpt>
      <trkpt lat="47.28075" lon="-2.28771">
        <ele>22.799999237061</ele>
        <time>2019-01-10T09:39:39.000Z</time>
      </trkpt>
      <trkpt lat="47.28116" lon="-2.28794">
        <ele>22.799999237061</ele>
        <time>2019-01-10T09:39:47.000Z</time>
      </trkpt>
      <trkpt lat="47.2812" lon="-2.28797">
        <ele>23.200000762939</ele>
        <time>2019-01-10T09:39:48.000Z</time>
      </trkpt>
      <trkpt lat="47.28124" lon="-2.288">
        <ele>23.60000038147</ele>
        <time>2019-01-10T09:39:49.000Z</time>
      </trkpt>
      <trkpt lat="47.28127" lon="-2.28802">
        <ele>24</ele>
        <time>2019-01-10T09:39:50.000Z</time>
      </trkpt>
      <trkpt lat="47.2813" lon="-2.28805">
        <ele>24.39999961853</ele>
        <time>2019-01-10T09:39:51.000Z</time>
      </trkpt>
      <trkpt lat="47.28133" lon="-2.28808">
        <ele>24.799999237061</ele>
        <time>2019-01-10T09:39:52.000Z</time>
      </trkpt>
      <trkpt lat="47.28137" lon="-2.28811">
        <ele>24.799999237061</ele>
        <time>2019-01-10T09:39:53.000Z</time>
      </trkpt>
      <trkpt lat="47.28155" lon="-2.28825">
        <ele>24.799999237061</ele>
        <time>2019-01-10T09:39:58.000Z</time>
      </trkpt>
      <trkpt lat="47.28164" lon="-2.28834">
        <ele>25.200000762939</ele>
        <time>2019-01-10T09:40:00.000Z</time>
      </trkpt>
      <trkpt lat="47.28167" lon="-2.28837">
        <ele>25.60000038147</ele>
        <time>2019-01-10T09:40:01.000Z</time>
      </trkpt>
      <trkpt lat="47.28171" lon="-2.28841">
        <ele>26</ele>
        <time>2019-01-10T09:40:02.000Z</time>
      </trkpt>
      <trkpt lat="47.28174" lon="-2.28844">
        <ele>26.39999961853</ele>
        <time>2019-01-10T09:40:03.000Z</time>
      </trkpt>
      <trkpt lat="47.28178" lon="-2.28847">
        <ele>26.799999237061</ele>
        <time>2019-01-10T09:40:04.000Z</time>
      </trkpt>
      <trkpt lat="47.28181" lon="-2.28852">
        <ele>26.799999237061</ele>
        <time>2019-01-10T09:40:05.000Z</time>
      </trkpt>
      <trkpt lat="47.28193" lon="-2.28861">
        <ele>26.799999237061</ele>
        <time>2019-01-10T09:40:08.000Z</time>
      </trkpt>
      <trkpt lat="47.282" lon="-2.28866">
        <ele>26.799999237061</ele>
        <time>2019-01-10T09:40:10.000Z</time>
      </trkpt>
      <trkpt lat="47.28219" lon="-2.28869">
        <ele>26.799999237061</ele>
        <time>2019-01-10T09:40:15.000Z</time>
      </trkpt>
      <trkpt lat="47.28228" lon="-2.28855">
        <ele>26.799999237061</ele>
        <time>2019-01-10T09:40:18.000Z</time>
      </trkpt>
      <trkpt lat="47.28229" lon="-2.28849">
        <ele>26.799999237061</ele>
        <time>2019-01-10T09:40:19.000Z</time>
      </trkpt>
      <trkpt lat="47.28231" lon="-2.28842">
        <ele>26.799999237061</ele>
        <time>2019-01-10T09:40:20.000Z</time>
      </trkpt>
      <trkpt lat="47.28234" lon="-2.28828">
        <ele>27.200000762939</ele>
        <time>2019-01-10T09:40:22.000Z</time>
      </trkpt>
      <trkpt lat="47.28235" lon="-2.2882">
        <ele>27.60000038147</ele>
        <time>2019-01-10T09:40:23.000Z</time>
      </trkpt>
      <trkpt lat="47.28236" lon="-2.28813">
        <ele>28</ele>
        <time>2019-01-10T09:40:24.000Z</time>
      </trkpt>
      <trkpt lat="47.28238" lon="-2.28807">
        <ele>28.60000038147</ele>
        <time>2019-01-10T09:40:25.000Z</time>
      </trkpt>
      <trkpt lat="47.28239" lon="-2.288">
        <ele>29</ele>
        <time>2019-01-10T09:40:26.000Z</time>
      </trkpt>
      <trkpt lat="47.28244" lon="-2.28764">
        <ele>29</ele>
        <time>2019-01-10T09:40:31.000Z</time>
      </trkpt>
      <trkpt lat="47.28255" lon="-2.28701">
        <ele>29</ele>
        <time>2019-01-10T09:40:40.000Z</time>
      </trkpt>
      <trkpt lat="47.28267" lon="-2.28653">
        <ele>29</ele>
        <time>2019-01-10T09:40:47.000Z</time>
      </trkpt>
      <trkpt lat="47.28275" lon="-2.28614">
        <ele>29</ele>
        <time>2019-01-10T09:40:52.000Z</time>
      </trkpt>
      <trkpt lat="47.28279" lon="-2.28598">
        <ele>29</ele>
        <time>2019-01-10T09:40:54.000Z</time>
      </trkpt>
      <trkpt lat="47.28291" lon="-2.28529">
        <ele>29</ele>
        <time>2019-01-10T09:41:03.000Z</time>
      </trkpt>
      <trkpt lat="47.28296" lon="-2.28491">
        <ele>29</ele>
        <time>2019-01-10T09:41:08.000Z</time>
      </trkpt>
      <trkpt lat="47.28298" lon="-2.28475">
        <ele>29</ele>
        <time>2019-01-10T09:41:10.000Z</time>
      </trkpt>
      <trkpt lat="47.28299" lon="-2.28467">
        <ele>29</ele>
        <time>2019-01-10T09:41:11.000Z</time>
      </trkpt>
      <trkpt lat="47.28306" lon="-2.28437">
        <ele>29</ele>
        <time>2019-01-10T09:41:15.000Z</time>
      </trkpt>
      <trkpt lat="47.28319" lon="-2.28395">
        <ele>29</ele>
        <time>2019-01-10T09:41:21.000Z</time>
      </trkpt>
      <trkpt lat="47.2832" lon="-2.28387">
        <ele>29</ele>
        <time>2019-01-10T09:41:22.000Z</time>
      </trkpt>
      <trkpt lat="47.28326" lon="-2.28326">
        <ele>29</ele>
        <time>2019-01-10T09:41:30.000Z</time>
      </trkpt>
      <trkpt lat="47.28325" lon="-2.28302">
        <ele>29</ele>
        <time>2019-01-10T09:41:33.000Z</time>
      </trkpt>
      <trkpt lat="47.28326" lon="-2.28286">
        <ele>29</ele>
        <time>2019-01-10T09:41:35.000Z</time>
      </trkpt>
      <trkpt lat="47.28326" lon="-2.28269">
        <ele>29</ele>
        <time>2019-01-10T09:41:37.000Z</time>
      </trkpt>
      <trkpt lat="47.28326" lon="-2.28232">
        <ele>29</ele>
        <time>2019-01-10T09:41:41.000Z</time>
      </trkpt>
      <trkpt lat="47.28326" lon="-2.28203">
        <ele>28.60000038147</ele>
        <time>2019-01-10T09:41:44.000Z</time>
      </trkpt>
      <trkpt lat="47.28326" lon="-2.28194">
        <ele>28.200000762939</ele>
        <time>2019-01-10T09:41:45.000Z</time>
      </trkpt>
      <trkpt lat="47.28326" lon="-2.28184">
        <ele>27.60000038147</ele>
        <time>2019-01-10T09:41:46.000Z</time>
      </trkpt>
      <trkpt lat="47.28326" lon="-2.28174">
        <ele>27.200000762939</ele>
        <time>2019-01-10T09:41:47.000Z</time>
      </trkpt>
      <trkpt lat="47.28326" lon="-2.28164">
        <ele>26.799999237061</ele>
        <time>2019-01-10T09:41:48.000Z</time>
      </trkpt>
      <trkpt lat="47.28326" lon="-2.28154">
        <ele>26</ele>
        <time>2019-01-10T09:41:49.000Z</time>
      </trkpt>
      <trkpt lat="47.28326" lon="-2.28143">
        <ele>25.60000038147</ele>
        <time>2019-01-10T09:41:50.000Z</time>
      </trkpt>
      <trkpt lat="47.28326" lon="-2.28134">
        <ele>25.200000762939</ele>
        <time>2019-01-10T09:41:51.000Z</time>
      </trkpt>
      <trkpt lat="47.28326" lon="-2.28126">
        <ele>24.799999237061</ele>
        <time>2019-01-10T09:41:52.000Z</time>
      </trkpt>
      <trkpt lat="47.28326" lon="-2.28119">
        <ele>24.39999961853</ele>
        <time>2019-01-10T09:41:53.000Z</time>
      </trkpt>
      <trkpt lat="47.28326" lon="-2.28113">
        <ele>23.799999237061</ele>
        <time>2019-01-10T09:41:54.000Z</time>
      </trkpt>
      <trkpt lat="47.28327" lon="-2.28108">
        <ele>23.200000762939</ele>
        <time>2019-01-10T09:41:55.000Z</time>
      </trkpt>
      <trkpt lat="47.28327" lon="-2.28104">
        <ele>22.799999237061</ele>
        <time>2019-01-10T09:41:56.000Z</time>
      </trkpt>
      <trkpt lat="47.28327" lon="-2.281">
        <ele>22.200000762939</ele>
        <time>2019-01-10T09:41:57.000Z</time>
      </trkpt>
      <trkpt lat="47.2833" lon="-2.28094">
        <ele>22.200000762939</ele>
        <time>2019-01-10T09:41:59.000Z</time>
      </trkpt>
      <trkpt lat="47.28333" lon="-2.28091">
        <ele>21.799999237061</ele>
        <time>2019-01-10T09:42:01.000Z</time>
      </trkpt>
      <trkpt lat="47.28335" lon="-2.28091">
        <ele>21.39999961853</ele>
        <time>2019-01-10T09:42:02.000Z</time>
      </trkpt>
      <trkpt lat="47.28337" lon="-2.28091">
        <ele>21</ele>
        <time>2019-01-10T09:42:03.000Z</time>
      </trkpt>
      <trkpt lat="47.28339" lon="-2.28091">
        <ele>20.60000038147</ele>
        <time>2019-01-10T09:42:04.000Z</time>
      </trkpt>
      <trkpt lat="47.28341" lon="-2.2809">
        <ele>20.200000762939</ele>
        <time>2019-01-10T09:42:05.000Z</time>
      </trkpt>
      <trkpt lat="47.28353" lon="-2.28086">
        <ele>20.200000762939</ele>
        <time>2019-01-10T09:42:09.000Z</time>
      </trkpt>
      <trkpt lat="47.28357" lon="-2.28085">
        <ele>20.200000762939</ele>
        <time>2019-01-10T09:42:10.000Z</time>
      </trkpt>
      <trkpt lat="47.28362" lon="-2.28081">
        <ele>20.200000762939</ele>
        <time>2019-01-10T09:42:13.000Z</time>
      </trkpt>
      <trkpt lat="47.28364" lon="-2.28071">
        <ele>20.200000762939</ele>
        <time>2019-01-10T09:42:17.000Z</time>
      </trkpt>
      <trkpt lat="47.28364" lon="-2.28069">
        <ele>20.200000762939</ele>
        <time>2019-01-10T09:42:18.000Z</time>
      </trkpt>
      <trkpt lat="47.28365" lon="-2.28063">
        <ele>20.200000762939</ele>
        <time>2019-01-10T09:42:23.000Z</time>
      </trkpt>
      <trkpt lat="47.28367" lon="-2.28062">
        <ele>20.60000038147</ele>
        <time>2019-01-10T09:42:25.000Z</time>
      </trkpt>
      <trkpt lat="47.28367" lon="-2.28062">
        <ele>21</ele>
        <time>2019-01-10T09:42:26.000Z</time>
      </trkpt>
      <trkpt lat="47.28367" lon="-2.28063">
        <ele>21.39999961853</ele>
        <time>2019-01-10T09:42:27.000Z</time>
      </trkpt>
      <trkpt lat="47.28367" lon="-2.28065">
        <ele>21.799999237061</ele>
        <time>2019-01-10T09:42:28.000Z</time>
      </trkpt>
      <trkpt lat="47.28367" lon="-2.28067">
        <ele>22.200000762939</ele>
        <time>2019-01-10T09:42:29.000Z</time>
      </trkpt>
      <trkpt lat="47.28369" lon="-2.2807">
        <ele>22.200000762939</ele>
        <time>2019-01-10T09:42:32.000Z</time>
      </trkpt>
      <trkpt lat="47.28375" lon="-2.28069">
        <ele>22.200000762939</ele>
        <time>2019-01-10T09:42:36.000Z</time>
      </trkpt>
      <trkpt lat="47.28379" lon="-2.2807">
        <ele>22.200000762939</ele>
        <time>2019-01-10T09:42:38.000Z</time>
      </trkpt>
      <trkpt lat="47.2839" lon="-2.2807">
        <ele>22.200000762939</ele>
        <time>2019-01-10T09:42:43.000Z</time>
      </trkpt>
      <trkpt lat="47.284" lon="-2.28074">
        <ele>22.200000762939</ele>
        <time>2019-01-10T09:42:47.000Z</time>
      </trkpt>
      <trkpt lat="47.28413" lon="-2.28076">
        <ele>22.200000762939</ele>
        <time>2019-01-10T09:42:51.000Z</time>
      </trkpt>
      <trkpt lat="47.28423" lon="-2.28078">
        <ele>22.200000762939</ele>
        <time>2019-01-10T09:42:55.000Z</time>
      </trkpt>
      <trkpt lat="47.28434" lon="-2.2808">
        <ele>22.200000762939</ele>
        <time>2019-01-10T09:42:58.000Z</time>
      </trkpt>
      <trkpt lat="47.28437" lon="-2.28083">
        <ele>22.200000762939</ele>
        <time>2019-01-10T09:42:59.000Z</time>
      </trkpt>
      <trkpt lat="47.28447" lon="-2.28086">
        <ele>22.200000762939</ele>
        <time>2019-01-10T09:43:02.000Z</time>
      </trkpt>
      <trkpt lat="47.2845" lon="-2.28087">
        <ele>22.200000762939</ele>
        <time>2019-01-10T09:43:03.000Z</time>
      </trkpt>
      <trkpt lat="47.28455" lon="-2.28095">
        <ele>22.200000762939</ele>
        <time>2019-01-10T09:43:05.000Z</time>
      </trkpt>
      <trkpt lat="47.2846" lon="-2.28097">
        <ele>22.200000762939</ele>
        <time>2019-01-10T09:43:07.000Z</time>
      </trkpt>
      <trkpt lat="47.28463" lon="-2.28098">
        <ele>22.200000762939</ele>
        <time>2019-01-10T09:43:08.000Z</time>
      </trkpt>
      <trkpt lat="47.28476" lon="-2.2809">
        <ele>22.200000762939</ele>
        <time>2019-01-10T09:43:12.000Z</time>
      </trkpt>
      <trkpt lat="47.28483" lon="-2.28086">
        <ele>22.200000762939</ele>
        <time>2019-01-10T09:43:14.000Z</time>
      </trkpt>
      <trkpt lat="47.28486" lon="-2.2808">
        <ele>22.200000762939</ele>
        <time>2019-01-10T09:43:16.000Z</time>
      </trkpt>
      <trkpt lat="47.28484" lon="-2.28075">
        <ele>22.200000762939</ele>
        <time>2019-01-10T09:43:18.000Z</time>
      </trkpt>
      <trkpt lat="47.28481" lon="-2.28068">
        <ele>22.200000762939</ele>
        <time>2019-01-10T09:43:20.000Z</time>
      </trkpt>
      <trkpt lat="47.2848" lon="-2.28064">
        <ele>22.799999237061</ele>
        <time>2019-01-10T09:43:21.000Z</time>
      </trkpt>
      <trkpt lat="47.28479" lon="-2.28059">
        <ele>23.200000762939</ele>
        <time>2019-01-10T09:43:22.000Z</time>
      </trkpt>
      <trkpt lat="47.28479" lon="-2.28056">
        <ele>23.60000038147</ele>
        <time>2019-01-10T09:43:23.000Z</time>
      </trkpt>
      <trkpt lat="47.28479" lon="-2.28053">
        <ele>24</ele>
        <time>2019-01-10T09:43:24.000Z</time>
      </trkpt>
      <trkpt lat="47.2848" lon="-2.2805">
        <ele>24.39999961853</ele>
        <time>2019-01-10T09:43:25.000Z</time>
      </trkpt>
      <trkpt lat="47.28487" lon="-2.28044">
        <ele>24.39999961853</ele>
        <time>2019-01-10T09:43:28.000Z</time>
      </trkpt>
      <trkpt lat="47.28498" lon="-2.28042">
        <ele>24.39999961853</ele>
        <time>2019-01-10T09:43:32.000Z</time>
      </trkpt>
      <trkpt lat="47.28508" lon="-2.28049">
        <ele>24.39999961853</ele>
        <time>2019-01-10T09:43:36.000Z</time>
      </trkpt>
      <trkpt lat="47.2851" lon="-2.28049">
        <ele>24.39999961853</ele>
        <time>2019-01-10T09:43:37.000Z</time>
      </trkpt>
      <trkpt lat="47.28517" lon="-2.28049">
        <ele>24.39999961853</ele>
        <time>2019-01-10T09:43:39.000Z</time>
      </trkpt>
      <trkpt lat="47.28522" lon="-2.28049">
        <ele>24.39999961853</ele>
        <time>2019-01-10T09:43:40.000Z</time>
      </trkpt>
      <trkpt lat="47.28526" lon="-2.2805">
        <ele>24</ele>
        <time>2019-01-10T09:43:41.000Z</time>
      </trkpt>
      <trkpt lat="47.2853" lon="-2.28051">
        <ele>23.60000038147</ele>
        <time>2019-01-10T09:43:42.000Z</time>
      </trkpt>
      <trkpt lat="47.28533" lon="-2.28052">
        <ele>23.200000762939</ele>
        <time>2019-01-10T09:43:43.000Z</time>
      </trkpt>
      <trkpt lat="47.28537" lon="-2.28051">
        <ele>22.799999237061</ele>
        <time>2019-01-10T09:43:44.000Z</time>
      </trkpt>
      <trkpt lat="47.28541" lon="-2.28051">
        <ele>22.200000762939</ele>
        <time>2019-01-10T09:43:45.000Z</time>
      </trkpt>
      <trkpt lat="47.28545" lon="-2.28051">
        <ele>21.799999237061</ele>
        <time>2019-01-10T09:43:46.000Z</time>
      </trkpt>
      <trkpt lat="47.2855" lon="-2.2805">
        <ele>21.200000762939</ele>
        <time>2019-01-10T09:43:47.000Z</time>
      </trkpt>
      <trkpt lat="47.28554" lon="-2.28048">
        <ele>20.60000038147</ele>
        <time>2019-01-10T09:43:48.000Z</time>
      </trkpt>
      <trkpt lat="47.28559" lon="-2.28046">
        <ele>20</ele>
        <time>2019-01-10T09:43:49.000Z</time>
      </trkpt>
      <trkpt lat="47.28565" lon="-2.28043">
        <ele>20</ele>
        <time>2019-01-10T09:43:51.000Z</time>
      </trkpt>
      <trkpt lat="47.28568" lon="-2.28041">
        <ele>19.60000038147</ele>
        <time>2019-01-10T09:43:52.000Z</time>
      </trkpt>
      <trkpt lat="47.28572" lon="-2.28037">
        <ele>19.200000762939</ele>
        <time>2019-01-10T09:43:53.000Z</time>
      </trkpt>
      <trkpt lat="47.28576" lon="-2.28034">
        <ele>18.799999237061</ele>
        <time>2019-01-10T09:43:54.000Z</time>
      </trkpt>
      <trkpt lat="47.2858" lon="-2.28031">
        <ele>18.39999961853</ele>
        <time>2019-01-10T09:43:55.000Z</time>
      </trkpt>
      <trkpt lat="47.28584" lon="-2.28026">
        <ele>18</ele>
        <time>2019-01-10T09:43:56.000Z</time>
      </trkpt>
      <trkpt lat="47.28596" lon="-2.28013">
        <ele>18</ele>
        <time>2019-01-10T09:43:59.000Z</time>
      </trkpt>
      <trkpt lat="47.28599" lon="-2.28007">
        <ele>18</ele>
        <time>2019-01-10T09:44:00.000Z</time>
      </trkpt>
      <trkpt lat="47.28604" lon="-2.27988">
        <ele>18</ele>
        <time>2019-01-10T09:44:03.000Z</time>
      </trkpt>
      <trkpt lat="47.28609" lon="-2.2797">
        <ele>18</ele>
        <time>2019-01-10T09:44:06.000Z</time>
      </trkpt>
      <trkpt lat="47.28617" lon="-2.27952">
        <ele>18</ele>
        <time>2019-01-10T09:44:11.000Z</time>
      </trkpt>
      <trkpt lat="47.28623" lon="-2.27948">
        <ele>18</ele>
        <time>2019-01-10T09:44:16.000Z</time>
      </trkpt>
      <trkpt lat="47.28628" lon="-2.27944">
        <ele>18</ele>
        <time>2019-01-10T09:44:21.000Z</time>
      </trkpt>
      <trkpt lat="47.28628" lon="-2.27941">
        <ele>18</ele>
        <time>2019-01-10T09:44:23.000Z</time>
      </trkpt>
      <trkpt lat="47.28627" lon="-2.27934">
        <ele>18</ele>
        <time>2019-01-10T09:44:25.000Z</time>
      </trkpt>
      <trkpt lat="47.28629" lon="-2.27912">
        <ele>18</ele>
        <time>2019-01-10T09:44:30.000Z</time>
      </trkpt>
      <trkpt lat="47.2863" lon="-2.27907">
        <ele>18</ele>
        <time>2019-01-10T09:44:31.000Z</time>
      </trkpt>
      <trkpt lat="47.28633" lon="-2.27878">
        <ele>18</ele>
        <time>2019-01-10T09:44:37.000Z</time>
      </trkpt>
      <trkpt lat="47.28637" lon="-2.27855">
        <ele>18</ele>
        <time>2019-01-10T09:44:42.000Z</time>
      </trkpt>
      <trkpt lat="47.2864" lon="-2.27839">
        <ele>17.60000038147</ele>
        <time>2019-01-10T09:44:45.000Z</time>
      </trkpt>
      <trkpt lat="47.28642" lon="-2.27833">
        <ele>17.200000762939</ele>
        <time>2019-01-10T09:44:46.000Z</time>
      </trkpt>
      <trkpt lat="47.28643" lon="-2.27827">
        <ele>16.799999237061</ele>
        <time>2019-01-10T09:44:47.000Z</time>
      </trkpt>
      <trkpt lat="47.28644" lon="-2.2782">
        <ele>16.39999961853</ele>
        <time>2019-01-10T09:44:48.000Z</time>
      </trkpt>
      <trkpt lat="47.28645" lon="-2.27814">
        <ele>16</ele>
        <time>2019-01-10T09:44:49.000Z</time>
      </trkpt>
      <trkpt lat="47.28649" lon="-2.27795">
        <ele>16</ele>
        <time>2019-01-10T09:44:52.000Z</time>
      </trkpt>
      <trkpt lat="47.28653" lon="-2.27782">
        <ele>16</ele>
        <time>2019-01-10T09:44:54.000Z</time>
      </trkpt>
      <trkpt lat="47.28661" lon="-2.27757">
        <ele>16</ele>
        <time>2019-01-10T09:44:58.000Z</time>
      </trkpt>
      <trkpt lat="47.28664" lon="-2.27751">
        <ele>16</ele>
        <time>2019-01-10T09:44:59.000Z</time>
      </trkpt>
      <trkpt lat="47.28672" lon="-2.27735">
        <ele>16</ele>
        <time>2019-01-10T09:45:02.000Z</time>
      </trkpt>
      <trkpt lat="47.28692" lon="-2.277">
        <ele>16</ele>
        <time>2019-01-10T09:45:08.000Z</time>
      </trkpt>
      <trkpt lat="47.2871" lon="-2.2767">
        <ele>16</ele>
        <time>2019-01-10T09:45:13.000Z</time>
      </trkpt>
      <trkpt lat="47.28713" lon="-2.27665">
        <ele>16</ele>
        <time>2019-01-10T09:45:14.000Z</time>
      </trkpt>
      <trkpt lat="47.28727" lon="-2.27644">
        <ele>16</ele>
        <time>2019-01-10T09:45:18.000Z</time>
      </trkpt>
      <trkpt lat="47.28751" lon="-2.27609">
        <ele>16</ele>
        <time>2019-01-10T09:45:24.000Z</time>
      </trkpt>
      <trkpt lat="47.28755" lon="-2.27604">
        <ele>16</ele>
        <time>2019-01-10T09:45:25.000Z</time>
      </trkpt>
      <trkpt lat="47.28772" lon="-2.27583">
        <ele>16</ele>
        <time>2019-01-10T09:45:29.000Z</time>
      </trkpt>
      <trkpt lat="47.28785" lon="-2.27566">
        <ele>16</ele>
        <time>2019-01-10T09:45:32.000Z</time>
      </trkpt>
      <trkpt lat="47.28788" lon="-2.27558">
        <ele>16</ele>
        <time>2019-01-10T09:45:33.000Z</time>
      </trkpt>
      <trkpt lat="47.28799" lon="-2.27541">
        <ele>16</ele>
        <time>2019-01-10T09:45:36.000Z</time>
      </trkpt>
      <trkpt lat="47.28824" lon="-2.27536">
        <ele>16</ele>
        <time>2019-01-10T09:45:40.000Z</time>
      </trkpt>
      <trkpt lat="47.2883" lon="-2.27535">
        <ele>16</ele>
        <time>2019-01-10T09:45:41.000Z</time>
      </trkpt>
      <trkpt lat="47.28855" lon="-2.27532">
        <ele>16</ele>
        <time>2019-01-10T09:45:45.000Z</time>
      </trkpt>
      <trkpt lat="47.28885" lon="-2.27526">
        <ele>16</ele>
        <time>2019-01-10T09:45:50.000Z</time>
      </trkpt>
      <trkpt lat="47.28895" lon="-2.27524">
        <ele>16</ele>
        <time>2019-01-10T09:45:52.000Z</time>
      </trkpt>
      <trkpt lat="47.289" lon="-2.27523">
        <ele>15.60000038147</ele>
        <time>2019-01-10T09:45:53.000Z</time>
      </trkpt>
      <trkpt lat="47.28904" lon="-2.27522">
        <ele>15.199999809265</ele>
        <time>2019-01-10T09:45:54.000Z</time>
      </trkpt>
      <trkpt lat="47.28909" lon="-2.27521">
        <ele>14.39999961853</ele>
        <time>2019-01-10T09:45:55.000Z</time>
      </trkpt>
      <trkpt lat="47.28914" lon="-2.2752">
        <ele>14</ele>
        <time>2019-01-10T09:45:56.000Z</time>
      </trkpt>
      <trkpt lat="47.28932" lon="-2.27518">
        <ele>14</ele>
        <time>2019-01-10T09:46:00.000Z</time>
      </trkpt>
      <trkpt lat="47.28958" lon="-2.27518">
        <ele>14</ele>
        <time>2019-01-10T09:46:05.000Z</time>
      </trkpt>
      <trkpt lat="47.28997" lon="-2.27517">
        <ele>14</ele>
        <time>2019-01-10T09:46:12.000Z</time>
      </trkpt>
      <trkpt lat="47.29043" lon="-2.27518">
        <ele>14</ele>
        <time>2019-01-10T09:46:20.000Z</time>
      </trkpt>
      <trkpt lat="47.29071" lon="-2.27521">
        <ele>14</ele>
        <time>2019-01-10T09:46:25.000Z</time>
      </trkpt>
      <trkpt lat="47.29082" lon="-2.27523">
        <ele>14</ele>
        <time>2019-01-10T09:46:27.000Z</time>
      </trkpt>
      <trkpt lat="47.29099" lon="-2.27524">
        <ele>14</ele>
        <time>2019-01-10T09:46:30.000Z</time>
      </trkpt>
      <trkpt lat="47.29132" lon="-2.27523">
        <ele>14</ele>
        <time>2019-01-10T09:46:35.000Z</time>
      </trkpt>
      <trkpt lat="47.29139" lon="-2.27523">
        <ele>14</ele>
        <time>2019-01-10T09:46:36.000Z</time>
      </trkpt>
      <trkpt lat="47.2916" lon="-2.27524">
        <ele>14</ele>
        <time>2019-01-10T09:46:39.000Z</time>
      </trkpt>
      <trkpt lat="47.29207" lon="-2.27525">
        <ele>14</ele>
        <time>2019-01-10T09:46:46.000Z</time>
      </trkpt>
      <trkpt lat="47.29248" lon="-2.27524">
        <ele>14</ele>
        <time>2019-01-10T09:46:53.000Z</time>
      </trkpt>
      <trkpt lat="47.29253" lon="-2.27523">
        <ele>14</ele>
        <time>2019-01-10T09:46:54.000Z</time>
      </trkpt>
      <trkpt lat="47.29271" lon="-2.27517">
        <ele>14</ele>
        <time>2019-01-10T09:46:57.000Z</time>
      </trkpt>
      <trkpt lat="47.29283" lon="-2.2752">
        <ele>14.39999961853</ele>
        <time>2019-01-10T09:46:59.000Z</time>
      </trkpt>
      <trkpt lat="47.29289" lon="-2.27523">
        <ele>14.800000190735</ele>
        <time>2019-01-10T09:47:00.000Z</time>
      </trkpt>
      <trkpt lat="47.29294" lon="-2.27526">
        <ele>15.199999809265</ele>
        <time>2019-01-10T09:47:01.000Z</time>
      </trkpt>
      <trkpt lat="47.29301" lon="-2.27529">
        <ele>15.60000038147</ele>
        <time>2019-01-10T09:47:02.000Z</time>
      </trkpt>
      <trkpt lat="47.29308" lon="-2.2753">
        <ele>16</ele>
        <time>2019-01-10T09:47:03.000Z</time>
      </trkpt>
      <trkpt lat="47.29314" lon="-2.27531">
        <ele>16</ele>
        <time>2019-01-10T09:47:04.000Z</time>
      </trkpt>
      <trkpt lat="47.29349" lon="-2.27528">
        <ele>16</ele>
        <time>2019-01-10T09:47:09.000Z</time>
      </trkpt>
      <trkpt lat="47.29401" lon="-2.27515">
        <ele>16</ele>
        <time>2019-01-10T09:47:17.000Z</time>
      </trkpt>
      <trkpt lat="47.29421" lon="-2.27511">
        <ele>16</ele>
        <time>2019-01-10T09:47:20.000Z</time>
      </trkpt>
      <trkpt lat="47.29442" lon="-2.27511">
        <ele>16</ele>
        <time>2019-01-10T09:47:23.000Z</time>
      </trkpt>
      <trkpt lat="47.29491" lon="-2.27523">
        <ele>16</ele>
        <time>2019-01-10T09:47:30.000Z</time>
      </trkpt>
      <trkpt lat="47.29533" lon="-2.27537">
        <ele>16</ele>
        <time>2019-01-10T09:47:36.000Z</time>
      </trkpt>
      <trkpt lat="47.29577" lon="-2.27555">
        <ele>15.60000038147</ele>
        <time>2019-01-10T09:47:42.000Z</time>
      </trkpt>
      <trkpt lat="47.29584" lon="-2.27558">
        <ele>15.199999809265</ele>
        <time>2019-01-10T09:47:43.000Z</time>
      </trkpt>
      <trkpt lat="47.29591" lon="-2.27562">
        <ele>14.800000190735</ele>
        <time>2019-01-10T09:47:44.000Z</time>
      </trkpt>
      <trkpt lat="47.29599" lon="-2.27567">
        <ele>14.39999961853</ele>
        <time>2019-01-10T09:47:45.000Z</time>
      </trkpt>
      <trkpt lat="47.29606" lon="-2.27572">
        <ele>13.800000190735</ele>
        <time>2019-01-10T09:47:46.000Z</time>
      </trkpt>
      <trkpt lat="47.29613" lon="-2.27577">
        <ele>13.800000190735</ele>
        <time>2019-01-10T09:47:47.000Z</time>
      </trkpt>
      <trkpt lat="47.29651" lon="-2.27602">
        <ele>13.800000190735</ele>
        <time>2019-01-10T09:47:52.000Z</time>
      </trkpt>
      <trkpt lat="47.29659" lon="-2.27606">
        <ele>13.39999961853</ele>
        <time>2019-01-10T09:47:53.000Z</time>
      </trkpt>
      <trkpt lat="47.29667" lon="-2.27609">
        <ele>13</ele>
        <time>2019-01-10T09:47:54.000Z</time>
      </trkpt>
      <trkpt lat="47.29676" lon="-2.27612">
        <ele>12.60000038147</ele>
        <time>2019-01-10T09:47:55.000Z</time>
      </trkpt>
      <trkpt lat="47.29685" lon="-2.27614">
        <ele>12.199999809265</ele>
        <time>2019-01-10T09:47:56.000Z</time>
      </trkpt>
      <trkpt lat="47.29693" lon="-2.27615">
        <ele>11.800000190735</ele>
        <time>2019-01-10T09:47:57.000Z</time>
      </trkpt>
      <trkpt lat="47.29702" lon="-2.27616">
        <ele>11.800000190735</ele>
        <time>2019-01-10T09:47:58.000Z</time>
      </trkpt>
      <trkpt lat="47.29711" lon="-2.27616">
        <ele>10.800000190735</ele>
        <time>2019-01-10T09:47:59.000Z</time>
      </trkpt>
      <trkpt lat="47.2972" lon="-2.27614">
        <ele>10.39999961853</ele>
        <time>2019-01-10T09:48:00.000Z</time>
      </trkpt>
      <trkpt lat="47.29729" lon="-2.27612">
        <ele>10</ele>
        <time>2019-01-10T09:48:01.000Z</time>
      </trkpt>
      <trkpt lat="47.29737" lon="-2.27609">
        <ele>9.6000003814697</ele>
        <time>2019-01-10T09:48:02.000Z</time>
      </trkpt>
      <trkpt lat="47.29762" lon="-2.27597">
        <ele>9.6000003814697</ele>
        <time>2019-01-10T09:48:05.000Z</time>
      </trkpt>
      <trkpt lat="47.29778" lon="-2.27592">
        <ele>9.6000003814697</ele>
        <time>2019-01-10T09:48:07.000Z</time>
      </trkpt>
      <trkpt lat="47.29794" lon="-2.27592">
        <ele>9.6000003814697</ele>
        <time>2019-01-10T09:48:09.000Z</time>
      </trkpt>
      <trkpt lat="47.29825" lon="-2.27609">
        <ele>9.6000003814697</ele>
        <time>2019-01-10T09:48:13.000Z</time>
      </trkpt>
      <trkpt lat="47.29848" lon="-2.27621">
        <ele>9.6000003814697</ele>
        <time>2019-01-10T09:48:16.000Z</time>
      </trkpt>
      <trkpt lat="47.29863" lon="-2.27624">
        <ele>9.6000003814697</ele>
        <time>2019-01-10T09:48:18.000Z</time>
      </trkpt>
      <trkpt lat="47.29884" lon="-2.27616">
        <ele>9.6000003814697</ele>
        <time>2019-01-10T09:48:21.000Z</time>
      </trkpt>
      <trkpt lat="47.29891" lon="-2.27613">
        <ele>9.6000003814697</ele>
        <time>2019-01-10T09:48:22.000Z</time>
      </trkpt>
      <trkpt lat="47.29916" lon="-2.276">
        <ele>9.6000003814697</ele>
        <time>2019-01-10T09:48:26.000Z</time>
      </trkpt>
      <trkpt lat="47.29922" lon="-2.27598">
        <ele>9.6000003814697</ele>
        <time>2019-01-10T09:48:27.000Z</time>
      </trkpt>
      <trkpt lat="47.29941" lon="-2.27597">
        <ele>9.6000003814697</ele>
        <time>2019-01-10T09:48:30.000Z</time>
      </trkpt>
      <trkpt lat="47.29947" lon="-2.27597">
        <ele>9.6000003814697</ele>
        <time>2019-01-10T09:48:31.000Z</time>
      </trkpt>
      <trkpt lat="47.29956" lon="-2.27603">
        <ele>9.6000003814697</ele>
        <time>2019-01-10T09:48:33.000Z</time>
      </trkpt>
      <trkpt lat="47.29959" lon="-2.27609">
        <ele>9.1999998092651</ele>
        <time>2019-01-10T09:48:34.000Z</time>
      </trkpt>
      <trkpt lat="47.2996" lon="-2.27614">
        <ele>8.8000001907349</ele>
        <time>2019-01-10T09:48:35.000Z</time>
      </trkpt>
      <trkpt lat="47.29961" lon="-2.27621">
        <ele>8.3999996185303</ele>
        <time>2019-01-10T09:48:36.000Z</time>
      </trkpt>
      <trkpt lat="47.29961" lon="-2.27628">
        <ele>8</ele>
        <time>2019-01-10T09:48:37.000Z</time>
      </trkpt>
      <trkpt lat="47.29961" lon="-2.27635">
        <ele>7.4000000953674</ele>
        <time>2019-01-10T09:48:38.000Z</time>
      </trkpt>
      <trkpt lat="47.29959" lon="-2.2765">
        <ele>7.4000000953674</ele>
        <time>2019-01-10T09:48:40.000Z</time>
      </trkpt>
      <trkpt lat="47.29959" lon="-2.27656">
        <ele>7.4000000953674</ele>
        <time>2019-01-10T09:48:41.000Z</time>
      </trkpt>
      <trkpt lat="47.29958" lon="-2.27663">
        <ele>7.4000000953674</ele>
        <time>2019-01-10T09:48:42.000Z</time>
      </trkpt>
      <trkpt lat="47.29956" lon="-2.27686">
        <ele>7.4000000953674</ele>
        <time>2019-01-10T09:48:46.000Z</time>
      </trkpt>
      <trkpt lat="47.29954" lon="-2.27717">
        <ele>7.4000000953674</ele>
        <time>2019-01-10T09:48:52.000Z</time>
      </trkpt>
      <trkpt lat="47.2995" lon="-2.27751">
        <ele>7.4000000953674</ele>
        <time>2019-01-10T09:48:58.000Z</time>
      </trkpt>
      <trkpt lat="47.29945" lon="-2.27805">
        <ele>7.4000000953674</ele>
        <time>2019-01-10T09:49:06.000Z</time>
      </trkpt>
      <trkpt lat="47.29943" lon="-2.27841">
        <ele>7.4000000953674</ele>
        <time>2019-01-10T09:49:11.000Z</time>
      </trkpt>
      <trkpt lat="47.29942" lon="-2.27856">
        <ele>8.3999996185303</ele>
        <time>2019-01-10T09:49:13.000Z</time>
      </trkpt>
      <trkpt lat="47.29942" lon="-2.27864">
        <ele>8.8000001907349</ele>
        <time>2019-01-10T09:49:14.000Z</time>
      </trkpt>
      <trkpt lat="47.29941" lon="-2.27872">
        <ele>9.1999998092651</ele>
        <time>2019-01-10T09:49:15.000Z</time>
      </trkpt>
      <trkpt lat="47.2994" lon="-2.2788">
        <ele>9.6000003814697</ele>
        <time>2019-01-10T09:49:16.000Z</time>
      </trkpt>
      <trkpt lat="47.29936" lon="-2.27934">
        <ele>9.6000003814697</ele>
        <time>2019-01-10T09:49:22.000Z</time>
      </trkpt>
      <trkpt lat="47.29932" lon="-2.27976">
        <ele>9.6000003814697</ele>
        <time>2019-01-10T09:49:27.000Z</time>
      </trkpt>
      <trkpt lat="47.29935" lon="-2.28006">
        <ele>9.6000003814697</ele>
        <time>2019-01-10T09:49:31.000Z</time>
      </trkpt>
      <trkpt lat="47.29936" lon="-2.28012">
        <ele>9.6000003814697</ele>
        <time>2019-01-10T09:49:32.000Z</time>
      </trkpt>
      <trkpt lat="47.29941" lon="-2.2803">
        <ele>9.6000003814697</ele>
        <time>2019-01-10T09:49:35.000Z</time>
      </trkpt>
      <trkpt lat="47.29944" lon="-2.28036">
        <ele>9.6000003814697</ele>
        <time>2019-01-10T09:49:36.000Z</time>
      </trkpt>
      <trkpt lat="47.29957" lon="-2.28045">
        <ele>9.6000003814697</ele>
        <time>2019-01-10T09:49:40.000Z</time>
      </trkpt>
      <trkpt lat="47.29966" lon="-2.2804">
        <ele>9.6000003814697</ele>
        <time>2019-01-10T09:49:43.000Z</time>
      </trkpt>
      <trkpt lat="47.2997" lon="-2.28039">
        <ele>9.6000003814697</ele>
        <time>2019-01-10T09:49:45.000Z</time>
      </trkpt>
      <trkpt lat="47.29977" lon="-2.28036">
        <ele>9.6000003814697</ele>
        <time>2019-01-10T09:49:51.000Z</time>
      </trkpt>
      <trkpt lat="47.29981" lon="-2.28033">
        <ele>9.6000003814697</ele>
        <time>2019-01-10T09:50:05.000Z</time>
      </trkpt>
      <trkpt lat="47.29986" lon="-2.28032">
        <ele>9.6000003814697</ele>
        <time>2019-01-10T09:50:07.000Z</time>
      </trkpt>
      <trkpt lat="47.2999" lon="-2.28033">
        <ele>9.6000003814697</ele>
        <time>2019-01-10T09:50:09.000Z</time>
      </trkpt>
      <trkpt lat="47.29991" lon="-2.28036">
        <ele>9.6000003814697</ele>
        <time>2019-01-10T09:50:11.000Z</time>
      </trkpt>
      <trkpt lat="47.29988" lon="-2.28049">
        <ele>9.6000003814697</ele>
        <time>2019-01-10T09:50:15.000Z</time>
      </trkpt>
      <trkpt lat="47.2998" lon="-2.28079">
        <ele>9.6000003814697</ele>
        <time>2019-01-10T09:50:20.000Z</time>
      </trkpt>
      <trkpt lat="47.29973" lon="-2.28106">
        <ele>9.6000003814697</ele>
        <time>2019-01-10T09:50:24.000Z</time>
      </trkpt>
      <trkpt lat="47.29969" lon="-2.28122">
        <ele>9.6000003814697</ele>
        <time>2019-01-10T09:50:26.000Z</time>
      </trkpt>
      <trkpt lat="47.29961" lon="-2.28151">
        <ele>9.6000003814697</ele>
        <time>2019-01-10T09:50:30.000Z</time>
      </trkpt>
      <trkpt lat="47.29957" lon="-2.28164">
        <ele>9.6000003814697</ele>
        <time>2019-01-10T09:50:32.000Z</time>
      </trkpt>
      <trkpt lat="47.29954" lon="-2.28177">
        <ele>9.6000003814697</ele>
        <time>2019-01-10T09:50:34.000Z</time>
      </trkpt>
      <trkpt lat="47.29947" lon="-2.28211">
        <ele>9.6000003814697</ele>
        <time>2019-01-10T09:50:39.000Z</time>
      </trkpt>
      <trkpt lat="47.29947" lon="-2.28219">
        <ele>9.6000003814697</ele>
        <time>2019-01-10T09:50:40.000Z</time>
      </trkpt>
      <trkpt lat="47.29947" lon="-2.28235">
        <ele>9.6000003814697</ele>
        <time>2019-01-10T09:50:42.000Z</time>
      </trkpt>
      <trkpt lat="47.29951" lon="-2.28278">
        <ele>9.6000003814697</ele>
        <time>2019-01-10T09:50:47.000Z</time>
      </trkpt>
      <trkpt lat="47.29951" lon="-2.28296">
        <ele>9.6000003814697</ele>
        <time>2019-01-10T09:50:49.000Z</time>
      </trkpt>
      <trkpt lat="47.29951" lon="-2.28313">
        <ele>9.6000003814697</ele>
        <time>2019-01-10T09:50:51.000Z</time>
      </trkpt>
      <trkpt lat="47.29953" lon="-2.28329">
        <ele>9.6000003814697</ele>
        <time>2019-01-10T09:50:53.000Z</time>
      </trkpt>
      <trkpt lat="47.29952" lon="-2.28337">
        <ele>9.6000003814697</ele>
        <time>2019-01-10T09:50:54.000Z</time>
      </trkpt>
      <trkpt lat="47.29949" lon="-2.28362">
        <ele>9.6000003814697</ele>
        <time>2019-01-10T09:50:57.000Z</time>
      </trkpt>
      <trkpt lat="47.29949" lon="-2.2837">
        <ele>9.6000003814697</ele>
        <time>2019-01-10T09:50:58.000Z</time>
      </trkpt>
      <trkpt lat="47.29949" lon="-2.28378">
        <ele>9.6000003814697</ele>
        <time>2019-01-10T09:50:59.000Z</time>
      </trkpt>
      <trkpt lat="47.29951" lon="-2.28406">
        <ele>9.6000003814697</ele>
        <time>2019-01-10T09:51:02.000Z</time>
      </trkpt>
      <trkpt lat="47.2995" lon="-2.28413">
        <ele>9.6000003814697</ele>
        <time>2019-01-10T09:51:03.000Z</time>
      </trkpt>
      <trkpt lat="47.29944" lon="-2.28425">
        <ele>9.6000003814697</ele>
        <time>2019-01-10T09:51:05.000Z</time>
      </trkpt>
      <trkpt lat="47.29941" lon="-2.28431">
        <ele>9.6000003814697</ele>
        <time>2019-01-10T09:51:06.000Z</time>
      </trkpt>
      <trkpt lat="47.2994" lon="-2.28447">
        <ele>9.6000003814697</ele>
        <time>2019-01-10T09:51:08.000Z</time>
      </trkpt>
      <trkpt lat="47.2994" lon="-2.28467">
        <ele>9.6000003814697</ele>
        <time>2019-01-10T09:51:12.000Z</time>
      </trkpt>
      <trkpt lat="47.2994" lon="-2.28471">
        <ele>9.6000003814697</ele>
        <time>2019-01-10T09:51:13.000Z</time>
      </trkpt>
      <trkpt lat="47.29939" lon="-2.28486">
        <ele>9.6000003814697</ele>
        <time>2019-01-10T09:51:18.000Z</time>
      </trkpt>
      <trkpt lat="47.29939" lon="-2.28486">
        <ele>9.6000003814697</ele>
        <time>2019-01-10T09:51:49.000Z</time>
      </trkpt>
      <trkpt lat="47.2994" lon="-2.28493">
        <ele>9.6000003814697</ele>
        <time>2019-01-10T09:51:51.000Z</time>
      </trkpt>
      <trkpt lat="47.2994" lon="-2.28496">
        <ele>9.6000003814697</ele>
        <time>2019-01-10T09:51:52.000Z</time>
      </trkpt>
      <trkpt lat="47.29934" lon="-2.28515">
        <ele>9.6000003814697</ele>
        <time>2019-01-10T09:51:57.000Z</time>
      </trkpt>
      <trkpt lat="47.29928" lon="-2.28538">
        <ele>9.6000003814697</ele>
        <time>2019-01-10T09:52:01.000Z</time>
      </trkpt>
      <trkpt lat="47.2993" lon="-2.28557">
        <ele>9.6000003814697</ele>
        <time>2019-01-10T09:52:04.000Z</time>
      </trkpt>
      <trkpt lat="47.29934" lon="-2.28562">
        <ele>9.6000003814697</ele>
        <time>2019-01-10T09:52:07.000Z</time>
      </trkpt>
      <trkpt lat="47.29939" lon="-2.28568">
        <ele>9.6000003814697</ele>
        <time>2019-01-10T09:52:13.000Z</time>
      </trkpt>
      <trkpt lat="47.29939" lon="-2.28574">
        <ele>9.6000003814697</ele>
        <time>2019-01-10T09:52:15.000Z</time>
      </trkpt>
      <trkpt lat="47.29939" lon="-2.28587">
        <ele>9.6000003814697</ele>
        <time>2019-01-10T09:52:18.000Z</time>
      </trkpt>
      <trkpt lat="47.29936" lon="-2.28625">
        <ele>9.6000003814697</ele>
        <time>2019-01-10T09:52:24.000Z</time>
      </trkpt>
      <trkpt lat="47.29935" lon="-2.28632">
        <ele>9.6000003814697</ele>
        <time>2019-01-10T09:52:25.000Z</time>
      </trkpt>
      <trkpt lat="47.29932" lon="-2.28647">
        <ele>9.6000003814697</ele>
        <time>2019-01-10T09:52:27.000Z</time>
      </trkpt>
      <trkpt lat="47.2993" lon="-2.28655">
        <ele>9.6000003814697</ele>
        <time>2019-01-10T09:52:28.000Z</time>
      </trkpt>
      <trkpt lat="47.29926" lon="-2.2867">
        <ele>9.6000003814697</ele>
        <time>2019-01-10T09:52:30.000Z</time>
      </trkpt>
      <trkpt lat="47.29922" lon="-2.28691">
        <ele>9.6000003814697</ele>
        <time>2019-01-10T09:52:33.000Z</time>
      </trkpt>
      <trkpt lat="47.2992" lon="-2.28697">
        <ele>9.6000003814697</ele>
        <time>2019-01-10T09:52:34.000Z</time>
      </trkpt>
      <trkpt lat="47.29914" lon="-2.28721">
        <ele>9.6000003814697</ele>
        <time>2019-01-10T09:52:37.000Z</time>
      </trkpt>
      <trkpt lat="47.29911" lon="-2.28729">
        <ele>9.1999998092651</ele>
        <time>2019-01-10T09:52:38.000Z</time>
      </trkpt>
      <trkpt lat="47.29909" lon="-2.28737">
        <ele>8.8000001907349</ele>
        <time>2019-01-10T09:52:39.000Z</time>
      </trkpt>
      <trkpt lat="47.29907" lon="-2.28745">
        <ele>8.3999996185303</ele>
        <time>2019-01-10T09:52:40.000Z</time>
      </trkpt>
      <trkpt lat="47.29906" lon="-2.28753">
        <ele>8</ele>
        <time>2019-01-10T09:52:41.000Z</time>
      </trkpt>
      <trkpt lat="47.29903" lon="-2.28761">
        <ele>7.5999999046326</ele>
        <time>2019-01-10T09:52:42.000Z</time>
      </trkpt>
      <trkpt lat="47.299" lon="-2.28775">
        <ele>7.5999999046326</ele>
        <time>2019-01-10T09:52:44.000Z</time>
      </trkpt>
      <trkpt lat="47.29899" lon="-2.28781">
        <ele>7.5999999046326</ele>
        <time>2019-01-10T09:52:45.000Z</time>
      </trkpt>
      <trkpt lat="47.29892" lon="-2.2881">
        <ele>7.5999999046326</ele>
        <time>2019-01-10T09:52:50.000Z</time>
      </trkpt>
      <trkpt lat="47.29891" lon="-2.2882">
        <ele>7.5999999046326</ele>
        <time>2019-01-10T09:52:51.000Z</time>
      </trkpt>
      <trkpt lat="47.29891" lon="-2.28829">
        <ele>7.5999999046326</ele>
        <time>2019-01-10T09:52:52.000Z</time>
      </trkpt>
      <trkpt lat="47.29888" lon="-2.28855">
        <ele>7.5999999046326</ele>
        <time>2019-01-10T09:52:55.000Z</time>
      </trkpt>
      <trkpt lat="47.29886" lon="-2.28863">
        <ele>7.5999999046326</ele>
        <time>2019-01-10T09:52:56.000Z</time>
      </trkpt>
      <trkpt lat="47.29884" lon="-2.28878">
        <ele>7.5999999046326</ele>
        <time>2019-01-10T09:52:58.000Z</time>
      </trkpt>
      <trkpt lat="47.2988" lon="-2.28891">
        <ele>7.5999999046326</ele>
        <time>2019-01-10T09:53:00.000Z</time>
      </trkpt>
      <trkpt lat="47.29874" lon="-2.2891">
        <ele>7.5999999046326</ele>
        <time>2019-01-10T09:53:04.000Z</time>
      </trkpt>
      <trkpt lat="47.29866" lon="-2.28917">
        <ele>7.5999999046326</ele>
        <time>2019-01-10T09:53:09.000Z</time>
      </trkpt>
      <trkpt lat="47.29863" lon="-2.28914">
        <ele>7.5999999046326</ele>
        <time>2019-01-10T09:53:13.000Z</time>
      </trkpt>
      <trkpt lat="47.29859" lon="-2.28905">
        <ele>9.6000003814697</ele>
        <time>2019-01-10T10:08:23.000Z</time>
      </trkpt>
      <trkpt lat="47.29861" lon="-2.2891">
        <ele>9.6000003814697</ele>
        <time>2019-01-10T10:08:26.000Z</time>
      </trkpt>
      <trkpt lat="47.29864" lon="-2.28917">
        <ele>9.6000003814697</ele>
        <time>2019-01-10T10:08:29.000Z</time>
      </trkpt>
      <trkpt lat="47.29875" lon="-2.28938">
        <ele>9.6000003814697</ele>
        <time>2019-01-10T10:08:36.000Z</time>
      </trkpt>
      <trkpt lat="47.29892" lon="-2.28945">
        <ele>9.6000003814697</ele>
        <time>2019-01-10T10:08:40.000Z</time>
      </trkpt>
      <trkpt lat="47.29901" lon="-2.28948">
        <ele>9.6000003814697</ele>
        <time>2019-01-10T10:08:42.000Z</time>
      </trkpt>
      <trkpt lat="47.29913" lon="-2.28952">
        <ele>9.6000003814697</ele>
        <time>2019-01-10T10:08:45.000Z</time>
      </trkpt>
      <trkpt lat="47.29924" lon="-2.2896">
        <ele>9.6000003814697</ele>
        <time>2019-01-10T10:08:49.000Z</time>
      </trkpt>
      <trkpt lat="47.29937" lon="-2.28982">
        <ele>9.6000003814697</ele>
        <time>2019-01-10T10:08:54.000Z</time>
      </trkpt>
      <trkpt lat="47.29951" lon="-2.29008">
        <ele>9.6000003814697</ele>
        <time>2019-01-10T10:08:59.000Z</time>
      </trkpt>
      <trkpt lat="47.29966" lon="-2.29038">
        <ele>9.6000003814697</ele>
        <time>2019-01-10T10:09:04.000Z</time>
      </trkpt>
      <trkpt lat="47.29971" lon="-2.29044">
        <ele>9.6000003814697</ele>
        <time>2019-01-10T10:09:05.000Z</time>
      </trkpt>
      <trkpt lat="47.29978" lon="-2.29056">
        <ele>9.1999998092651</ele>
        <time>2019-01-10T10:09:07.000Z</time>
      </trkpt>
      <trkpt lat="47.29981" lon="-2.29062">
        <ele>8.6000003814697</ele>
        <time>2019-01-10T10:09:08.000Z</time>
      </trkpt>
      <trkpt lat="47.29983" lon="-2.29068">
        <ele>8.1999998092651</ele>
        <time>2019-01-10T10:09:09.000Z</time>
      </trkpt>
      <trkpt lat="47.29986" lon="-2.29073">
        <ele>7.8000001907349</ele>
        <time>2019-01-10T10:09:10.000Z</time>
      </trkpt>
      <trkpt lat="47.29989" lon="-2.2908">
        <ele>7.4000000953674</ele>
        <time>2019-01-10T10:09:11.000Z</time>
      </trkpt>
      <trkpt lat="47.29993" lon="-2.29085">
        <ele>7.4000000953674</ele>
        <time>2019-01-10T10:09:12.000Z</time>
      </trkpt>
      <trkpt lat="47.29997" lon="-2.2909">
        <ele>7.4000000953674</ele>
        <time>2019-01-10T10:09:13.000Z</time>
      </trkpt>
      <trkpt lat="47.30027" lon="-2.29117">
        <ele>7.4000000953674</ele>
        <time>2019-01-10T10:09:19.000Z</time>
      </trkpt>
      <trkpt lat="47.30059" lon="-2.29142">
        <ele>7.4000000953674</ele>
        <time>2019-01-10T10:09:25.000Z</time>
      </trkpt>
      <trkpt lat="47.30077" lon="-2.29169">
        <ele>7.4000000953674</ele>
        <time>2019-01-10T10:09:29.000Z</time>
      </trkpt>
      <trkpt lat="47.30082" lon="-2.29176">
        <ele>7.4000000953674</ele>
        <time>2019-01-10T10:09:30.000Z</time>
      </trkpt>
      <trkpt lat="47.30111" lon="-2.29221">
        <ele>7.4000000953674</ele>
        <time>2019-01-10T10:09:36.000Z</time>
      </trkpt>
      <trkpt lat="47.30134" lon="-2.29257">
        <ele>7.4000000953674</ele>
        <time>2019-01-10T10:09:41.000Z</time>
      </trkpt>
      <trkpt lat="47.3017" lon="-2.29313">
        <ele>7.4000000953674</ele>
        <time>2019-01-10T10:09:48.000Z</time>
      </trkpt>
      <trkpt lat="47.30193" lon="-2.29351">
        <ele>7.4000000953674</ele>
        <time>2019-01-10T10:09:53.000Z</time>
      </trkpt>
      <trkpt lat="47.30201" lon="-2.29366">
        <ele>7</ele>
        <time>2019-01-10T10:09:55.000Z</time>
      </trkpt>
      <trkpt lat="47.30203" lon="-2.29375">
        <ele>6.5999999046326</ele>
        <time>2019-01-10T10:09:56.000Z</time>
      </trkpt>
      <trkpt lat="47.30205" lon="-2.29384">
        <ele>6.1999998092651</ele>
        <time>2019-01-10T10:09:57.000Z</time>
      </trkpt>
      <trkpt lat="47.30207" lon="-2.29392">
        <ele>5.8000001907349</ele>
        <time>2019-01-10T10:09:58.000Z</time>
      </trkpt>
      <trkpt lat="47.30211" lon="-2.294">
        <ele>5.4000000953674</ele>
        <time>2019-01-10T10:09:59.000Z</time>
      </trkpt>
      <trkpt lat="47.30215" lon="-2.29421">
        <ele>5.4000000953674</ele>
        <time>2019-01-10T10:10:02.000Z</time>
      </trkpt>
      <trkpt lat="47.30213" lon="-2.29427">
        <ele>5.4000000953674</ele>
        <time>2019-01-10T10:10:03.000Z</time>
      </trkpt>
      <trkpt lat="47.30201" lon="-2.29451">
        <ele>5.4000000953674</ele>
        <time>2019-01-10T10:10:07.000Z</time>
      </trkpt>
      <trkpt lat="47.30174" lon="-2.29507">
        <ele>5.4000000953674</ele>
        <time>2019-01-10T10:10:15.000Z</time>
      </trkpt>
      <trkpt lat="47.3015" lon="-2.29552">
        <ele>5.4000000953674</ele>
        <time>2019-01-10T10:10:21.000Z</time>
      </trkpt>
      <trkpt lat="47.3014" lon="-2.29574">
        <ele>5.4000000953674</ele>
        <time>2019-01-10T10:10:24.000Z</time>
      </trkpt>
      <trkpt lat="47.30141" lon="-2.29593">
        <ele>5.4000000953674</ele>
        <time>2019-01-10T10:10:26.000Z</time>
      </trkpt>
      <trkpt lat="47.30141" lon="-2.29642">
        <ele>5.4000000953674</ele>
        <time>2019-01-10T10:10:32.000Z</time>
      </trkpt>
      <trkpt lat="47.30143" lon="-2.29656">
        <ele>5.4000000953674</ele>
        <time>2019-01-10T10:10:35.000Z</time>
      </trkpt>
      <trkpt lat="47.30146" lon="-2.29658">
        <ele>5.4000000953674</ele>
        <time>2019-01-10T10:10:36.000Z</time>
      </trkpt>
      <trkpt lat="47.30166" lon="-2.29671">
        <ele>5.4000000953674</ele>
        <time>2019-01-10T10:10:41.000Z</time>
      </trkpt>
      <trkpt lat="47.30176" lon="-2.29676">
        <ele>5.4000000953674</ele>
        <time>2019-01-10T10:10:43.000Z</time>
      </trkpt>
      <trkpt lat="47.30195" lon="-2.29688">
        <ele>5.4000000953674</ele>
        <time>2019-01-10T10:10:47.000Z</time>
      </trkpt>
      <trkpt lat="47.302" lon="-2.2969">
        <ele>5.4000000953674</ele>
        <time>2019-01-10T10:10:48.000Z</time>
      </trkpt>
      <trkpt lat="47.30222" lon="-2.29703">
        <ele>5.4000000953674</ele>
        <time>2019-01-10T10:10:52.000Z</time>
      </trkpt>
      <trkpt lat="47.30228" lon="-2.29706">
        <ele>5.4000000953674</ele>
        <time>2019-01-10T10:10:53.000Z</time>
      </trkpt>
      <trkpt lat="47.3024" lon="-2.29711">
        <ele>5.4000000953674</ele>
        <time>2019-01-10T10:10:56.000Z</time>
      </trkpt>
      <trkpt lat="47.30243" lon="-2.29711">
        <ele>5.4000000953674</ele>
        <time>2019-01-10T10:10:59.000Z</time>
      </trkpt>
      <trkpt lat="47.30242" lon="-2.29711">
        <ele>5.4000000953674</ele>
        <time>2019-01-10T10:11:02.000Z</time>
      </trkpt>
      <trkpt lat="47.3023" lon="-2.29749">
        <ele>3.4000000953674</ele>
        <time>2019-01-10T10:11:59.000Z</time>
      </trkpt>
      <trkpt lat="47.30228" lon="-2.29752">
        <ele>3.4000000953674</ele>
        <time>2019-01-10T10:12:00.000Z</time>
      </trkpt>
      <trkpt lat="47.30224" lon="-2.29756">
        <ele>3.4000000953674</ele>
        <time>2019-01-10T10:12:03.000Z</time>
      </trkpt>
      <trkpt lat="47.30223" lon="-2.29758">
        <ele>3.4000000953674</ele>
        <time>2019-01-10T10:12:04.000Z</time>
      </trkpt>
      <trkpt lat="47.30223" lon="-2.2976">
        <ele>3.4000000953674</ele>
        <time>2019-01-10T10:12:05.000Z</time>
      </trkpt>
      <trkpt lat="47.30217" lon="-2.29772">
        <ele>3.4000000953674</ele>
        <time>2019-01-10T10:12:09.000Z</time>
      </trkpt>
      <trkpt lat="47.30209" lon="-2.29779">
        <ele>3.4000000953674</ele>
        <time>2019-01-10T10:12:14.000Z</time>
      </trkpt>
      <trkpt lat="47.30208" lon="-2.29782">
        <ele>3.4000000953674</ele>
        <time>2019-01-10T10:12:16.000Z</time>
      </trkpt>
      <trkpt lat="47.30203" lon="-2.29791">
        <ele>3.4000000953674</ele>
        <time>2019-01-10T10:12:23.000Z</time>
      </trkpt>
      <trkpt lat="47.30199" lon="-2.29797">
        <ele>3.4000000953674</ele>
        <time>2019-01-10T10:12:25.000Z</time>
      </trkpt>
      <trkpt lat="47.30193" lon="-2.29802">
        <ele>3.4000000953674</ele>
        <time>2019-01-10T10:12:27.000Z</time>
      </trkpt>
      <trkpt lat="47.30185" lon="-2.29815">
        <ele>3.4000000953674</ele>
        <time>2019-01-10T10:12:30.000Z</time>
      </trkpt>
      <trkpt lat="47.30179" lon="-2.29822">
        <ele>3.4000000953674</ele>
        <time>2019-01-10T10:12:34.000Z</time>
      </trkpt>
      <trkpt lat="47.30177" lon="-2.29824">
        <ele>3.4000000953674</ele>
        <time>2019-01-10T10:12:35.000Z</time>
      </trkpt>
      <trkpt lat="47.30169" lon="-2.29842">
        <ele>3.4000000953674</ele>
        <time>2019-01-10T10:12:40.000Z</time>
      </trkpt>
      <trkpt lat="47.30165" lon="-2.29845">
        <ele>3.4000000953674</ele>
        <time>2019-01-10T10:12:41.000Z</time>
      </trkpt>
      <trkpt lat="47.30156" lon="-2.29856">
        <ele>3.4000000953674</ele>
        <time>2019-01-10T10:12:44.000Z</time>
      </trkpt>
      <trkpt lat="47.30143" lon="-2.29873">
        <ele>3.4000000953674</ele>
        <time>2019-01-10T10:12:49.000Z</time>
      </trkpt>
      <trkpt lat="47.30138" lon="-2.29873">
        <ele>3.4000000953674</ele>
        <time>2019-01-10T10:12:50.000Z</time>
      </trkpt>
      <trkpt lat="47.30132" lon="-2.29878">
        <ele>3.4000000953674</ele>
        <time>2019-01-10T10:12:52.000Z</time>
      </trkpt>
      <trkpt lat="47.30125" lon="-2.29884">
        <ele>3.4000000953674</ele>
        <time>2019-01-10T10:12:54.000Z</time>
      </trkpt>
      <trkpt lat="47.30114" lon="-2.29894">
        <ele>3.4000000953674</ele>
        <time>2019-01-10T10:12:57.000Z</time>
      </trkpt>
      <trkpt lat="47.30104" lon="-2.29904">
        <ele>3.4000000953674</ele>
        <time>2019-01-10T10:13:00.000Z</time>
      </trkpt>
      <trkpt lat="47.30102" lon="-2.29906">
        <ele>3.4000000953674</ele>
        <time>2019-01-10T10:13:01.000Z</time>
      </trkpt>
      <trkpt lat="47.30095" lon="-2.29909">
        <ele>3.4000000953674</ele>
        <time>2019-01-10T10:13:05.000Z</time>
      </trkpt>
      <trkpt lat="47.30093" lon="-2.29921">
        <ele>3.4000000953674</ele>
        <time>2019-01-10T10:13:09.000Z</time>
      </trkpt>
      <trkpt lat="47.30097" lon="-2.29931">
        <ele>3.4000000953674</ele>
        <time>2019-01-10T10:13:13.000Z</time>
      </trkpt>
      <trkpt lat="47.30099" lon="-2.29946">
        <ele>3.4000000953674</ele>
        <time>2019-01-10T10:13:17.000Z</time>
      </trkpt>
      <trkpt lat="47.30098" lon="-2.29963">
        <ele>3.4000000953674</ele>
        <time>2019-01-10T10:13:22.000Z</time>
      </trkpt>
      <trkpt lat="47.30103" lon="-2.29977">
        <ele>3.4000000953674</ele>
        <time>2019-01-10T10:13:26.000Z</time>
      </trkpt>
      <trkpt lat="47.30111" lon="-2.29984">
        <ele>3.4000000953674</ele>
        <time>2019-01-10T10:13:30.000Z</time>
      </trkpt>
      <trkpt lat="47.30119" lon="-2.29995">
        <ele>3.4000000953674</ele>
        <time>2019-01-10T10:13:34.000Z</time>
      </trkpt>
      <trkpt lat="47.3013" lon="-2.30014">
        <ele>3.4000000953674</ele>
        <time>2019-01-10T10:13:39.000Z</time>
      </trkpt>
      <trkpt lat="47.30139" lon="-2.30037">
        <ele>3.7999999523163</ele>
        <time>2019-01-10T10:13:43.000Z</time>
      </trkpt>
      <trkpt lat="47.30141" lon="-2.30041">
        <ele>4.1999998092651</ele>
        <time>2019-01-10T10:13:44.000Z</time>
      </trkpt>
      <trkpt lat="47.30143" lon="-2.30047">
        <ele>4.5999999046326</ele>
        <time>2019-01-10T10:13:45.000Z</time>
      </trkpt>
      <trkpt lat="47.30146" lon="-2.30052">
        <ele>5</ele>
        <time>2019-01-10T10:13:46.000Z</time>
      </trkpt>
      <trkpt lat="47.30148" lon="-2.30057">
        <ele>5.4000000953674</ele>
        <time>2019-01-10T10:13:47.000Z</time>
      </trkpt>
      <trkpt lat="47.3015" lon="-2.30061">
        <ele>5.4000000953674</ele>
        <time>2019-01-10T10:13:48.000Z</time>
      </trkpt>
      <trkpt lat="47.30161" lon="-2.30091">
        <ele>5.4000000953674</ele>
        <time>2019-01-10T10:13:54.000Z</time>
      </trkpt>
      <trkpt lat="47.30172" lon="-2.3012">
        <ele>5.4000000953674</ele>
        <time>2019-01-10T10:13:59.000Z</time>
      </trkpt>
      <trkpt lat="47.30185" lon="-2.30154">
        <ele>5.4000000953674</ele>
        <time>2019-01-10T10:14:04.000Z</time>
      </trkpt>
      <trkpt lat="47.30197" lon="-2.30184">
        <ele>5.4000000953674</ele>
        <time>2019-01-10T10:14:09.000Z</time>
      </trkpt>
      <trkpt lat="47.30203" lon="-2.30211">
        <ele>5.4000000953674</ele>
        <time>2019-01-10T10:14:14.000Z</time>
      </trkpt>
      <trkpt lat="47.30202" lon="-2.30215">
        <ele>5.4000000953674</ele>
        <time>2019-01-10T10:14:15.000Z</time>
      </trkpt>
      <trkpt lat="47.30197" lon="-2.30226">
        <ele>5.4000000953674</ele>
        <time>2019-01-10T10:14:18.000Z</time>
      </trkpt>
      <trkpt lat="47.30192" lon="-2.30233">
        <ele>5.4000000953674</ele>
        <time>2019-01-10T10:14:20.000Z</time>
      </trkpt>
      <trkpt lat="47.30181" lon="-2.30239">
        <ele>5.4000000953674</ele>
        <time>2019-01-10T10:14:23.000Z</time>
      </trkpt>
      <trkpt lat="47.30173" lon="-2.30244">
        <ele>5.8000001907349</ele>
        <time>2019-01-10T10:14:25.000Z</time>
      </trkpt>
      <trkpt lat="47.30168" lon="-2.30246">
        <ele>6.1999998092651</ele>
        <time>2019-01-10T10:14:26.000Z</time>
      </trkpt>
      <trkpt lat="47.30164" lon="-2.30249">
        <ele>6.5999999046326</ele>
        <time>2019-01-10T10:14:27.000Z</time>
      </trkpt>
      <trkpt lat="47.3016" lon="-2.30251">
        <ele>7</ele>
        <time>2019-01-10T10:14:28.000Z</time>
      </trkpt>
      <trkpt lat="47.30155" lon="-2.30252">
        <ele>7.4000000953674</ele>
        <time>2019-01-10T10:14:29.000Z</time>
      </trkpt>
      <trkpt lat="47.30121" lon="-2.30263">
        <ele>7.4000000953674</ele>
        <time>2019-01-10T10:14:37.000Z</time>
      </trkpt>
      <trkpt lat="47.30112" lon="-2.30268">
        <ele>7.4000000953674</ele>
        <time>2019-01-10T10:14:39.000Z</time>
      </trkpt>
      <trkpt lat="47.30107" lon="-2.3028">
        <ele>7.4000000953674</ele>
        <time>2019-01-10T10:14:41.000Z</time>
      </trkpt>
      <trkpt lat="47.30108" lon="-2.30303">
        <ele>7.4000000953674</ele>
        <time>2019-01-10T10:14:44.000Z</time>
      </trkpt>
      <trkpt lat="47.30114" lon="-2.30323">
        <ele>7.4000000953674</ele>
        <time>2019-01-10T10:14:47.000Z</time>
      </trkpt>
      <trkpt lat="47.30116" lon="-2.3033">
        <ele>7.4000000953674</ele>
        <time>2019-01-10T10:14:48.000Z</time>
      </trkpt>
      <trkpt lat="47.30132" lon="-2.30387">
        <ele>7.4000000953674</ele>
        <time>2019-01-10T10:14:56.000Z</time>
      </trkpt>
      <trkpt lat="47.30145" lon="-2.30432">
        <ele>7.4000000953674</ele>
        <time>2019-01-10T10:15:02.000Z</time>
      </trkpt>
      <trkpt lat="47.30163" lon="-2.30469">
        <ele>7.4000000953674</ele>
        <time>2019-01-10T10:15:08.000Z</time>
      </trkpt>
      <trkpt lat="47.3017" lon="-2.30481">
        <ele>7.4000000953674</ele>
        <time>2019-01-10T10:15:10.000Z</time>
      </trkpt>
      <trkpt lat="47.30187" lon="-2.305">
        <ele>7.4000000953674</ele>
        <time>2019-01-10T10:15:14.000Z</time>
      </trkpt>
      <trkpt lat="47.30214" lon="-2.30525">
        <ele>7.4000000953674</ele>
        <time>2019-01-10T10:15:21.000Z</time>
      </trkpt>
      <trkpt lat="47.3023" lon="-2.30548">
        <ele>7.4000000953674</ele>
        <time>2019-01-10T10:15:28.000Z</time>
      </trkpt>
      <trkpt lat="47.30239" lon="-2.30564">
        <ele>7.4000000953674</ele>
        <time>2019-01-10T10:15:34.000Z</time>
      </trkpt>
      <trkpt lat="47.30247" lon="-2.30566">
        <ele>7.4000000953674</ele>
        <time>2019-01-10T10:15:40.000Z</time>
      </trkpt>
      <trkpt lat="47.3025" lon="-2.30566">
        <ele>7.4000000953674</ele>
        <time>2019-01-10T10:15:43.000Z</time>
      </trkpt>
      <trkpt lat="47.30253" lon="-2.30563">
        <ele>7.4000000953674</ele>
        <time>2019-01-10T10:15:45.000Z</time>
      </trkpt>
      <trkpt lat="47.30251" lon="-2.30556">
        <ele>7.4000000953674</ele>
        <time>2019-01-10T10:15:49.000Z</time>
      </trkpt>
      <trkpt lat="47.30239" lon="-2.30564">
        <ele>7.4000000953674</ele>
        <time>2019-01-10T10:15:53.000Z</time>
      </trkpt>
      <trkpt lat="47.30234" lon="-2.30577">
        <ele>7.4000000953674</ele>
        <time>2019-01-10T10:15:56.000Z</time>
      </trkpt>
      <trkpt lat="47.30231" lon="-2.30581">
        <ele>7.4000000953674</ele>
        <time>2019-01-10T10:15:57.000Z</time>
      </trkpt>
      <trkpt lat="47.30216" lon="-2.30596">
        <ele>7.4000000953674</ele>
        <time>2019-01-10T10:16:03.000Z</time>
      </trkpt>
      <trkpt lat="47.30208" lon="-2.30599">
        <ele>7.4000000953674</ele>
        <time>2019-01-10T10:16:09.000Z</time>
      </trkpt>
      <trkpt lat="47.30208" lon="-2.30599">
        <ele>7.4000000953674</ele>
        <time>2019-01-10T10:16:15.000Z</time>
      </trkpt>
      <trkpt lat="47.30207" lon="-2.306">
        <ele>7.4000000953674</ele>
        <time>2019-01-10T10:16:16.000Z</time>
      </trkpt>
      <trkpt lat="47.30208" lon="-2.30599">
        <ele>7.4000000953674</ele>
        <time>2019-01-10T10:16:17.000Z</time>
      </trkpt>
      <trkpt lat="47.30204" lon="-2.30602">
        <ele>7.4000000953674</ele>
        <time>2019-01-10T10:16:22.000Z</time>
      </trkpt>
      <trkpt lat="47.30201" lon="-2.30609">
        <ele>7.4000000953674</ele>
        <time>2019-01-10T10:16:24.000Z</time>
      </trkpt>
      <trkpt lat="47.30191" lon="-2.30622">
        <ele>7.4000000953674</ele>
        <time>2019-01-10T10:16:29.000Z</time>
      </trkpt>
      <trkpt lat="47.30172" lon="-2.3064">
        <ele>7.4000000953674</ele>
        <time>2019-01-10T10:16:35.000Z</time>
      </trkpt>
      <trkpt lat="47.30167" lon="-2.30662">
        <ele>7.4000000953674</ele>
        <time>2019-01-10T10:16:38.000Z</time>
      </trkpt>
      <trkpt lat="47.30171" lon="-2.30697">
        <ele>7.4000000953674</ele>
        <time>2019-01-10T10:16:42.000Z</time>
      </trkpt>
      <trkpt lat="47.30174" lon="-2.3072">
        <ele>7.4000000953674</ele>
        <time>2019-01-10T10:16:45.000Z</time>
      </trkpt>
      <trkpt lat="47.30172" lon="-2.30736">
        <ele>7.4000000953674</ele>
        <time>2019-01-10T10:16:47.000Z</time>
      </trkpt>
      <trkpt lat="47.30176" lon="-2.30747">
        <ele>7.4000000953674</ele>
        <time>2019-01-10T10:16:50.000Z</time>
      </trkpt>
      <trkpt lat="47.3018" lon="-2.30751">
        <ele>7.4000000953674</ele>
        <time>2019-01-10T10:16:53.000Z</time>
      </trkpt>
      <trkpt lat="47.30181" lon="-2.30754">
        <ele>7.4000000953674</ele>
        <time>2019-01-10T10:16:54.000Z</time>
      </trkpt>
      <trkpt lat="47.30181" lon="-2.30762">
        <ele>7</ele>
        <time>2019-01-10T10:16:56.000Z</time>
      </trkpt>
      <trkpt lat="47.3018" lon="-2.30767">
        <ele>6.5999999046326</ele>
        <time>2019-01-10T10:16:57.000Z</time>
      </trkpt>
      <trkpt lat="47.3018" lon="-2.30771">
        <ele>6.1999998092651</ele>
        <time>2019-01-10T10:16:58.000Z</time>
      </trkpt>
      <trkpt lat="47.3018" lon="-2.30777">
        <ele>5.8000001907349</ele>
        <time>2019-01-10T10:16:59.000Z</time>
      </trkpt>
      <trkpt lat="47.3018" lon="-2.30782">
        <ele>5.4000000953674</ele>
        <time>2019-01-10T10:17:00.000Z</time>
      </trkpt>
      <trkpt lat="47.3018" lon="-2.30785">
        <ele>5.4000000953674</ele>
        <time>2019-01-10T10:17:01.000Z</time>
      </trkpt>
      <trkpt lat="47.30179" lon="-2.30789">
        <ele>5.4000000953674</ele>
        <time>2019-01-10T10:17:02.000Z</time>
      </trkpt>
      <trkpt lat="47.30185" lon="-2.30806">
        <ele>5.4000000953674</ele>
        <time>2019-01-10T10:17:05.000Z</time>
      </trkpt>
      <trkpt lat="47.30208" lon="-2.30833">
        <ele>5.4000000953674</ele>
        <time>2019-01-10T10:17:11.000Z</time>
      </trkpt>
      <trkpt lat="47.30221" lon="-2.30848">
        <ele>5.8000001907349</ele>
        <time>2019-01-10T10:17:14.000Z</time>
      </trkpt>
      <trkpt lat="47.30225" lon="-2.30852">
        <ele>6.1999998092651</ele>
        <time>2019-01-10T10:17:15.000Z</time>
      </trkpt>
      <trkpt lat="47.3023" lon="-2.30858">
        <ele>6.5999999046326</ele>
        <time>2019-01-10T10:17:16.000Z</time>
      </trkpt>
      <trkpt lat="47.30235" lon="-2.30862">
        <ele>7</ele>
        <time>2019-01-10T10:17:17.000Z</time>
      </trkpt>
      <trkpt lat="47.30239" lon="-2.30867">
        <ele>7.4000000953674</ele>
        <time>2019-01-10T10:17:18.000Z</time>
      </trkpt>
      <trkpt lat="47.30244" lon="-2.30873">
        <ele>7.4000000953674</ele>
        <time>2019-01-10T10:17:19.000Z</time>
      </trkpt>
      <trkpt lat="47.30274" lon="-2.30914">
        <ele>7.8000001907349</ele>
        <time>2019-01-10T10:17:27.000Z</time>
      </trkpt>
      <trkpt lat="47.30277" lon="-2.30918">
        <ele>8.3999996185303</ele>
        <time>2019-01-10T10:17:28.000Z</time>
      </trkpt>
      <trkpt lat="47.3028" lon="-2.30923">
        <ele>8.8000001907349</ele>
        <time>2019-01-10T10:17:29.000Z</time>
      </trkpt>
      <trkpt lat="47.30283" lon="-2.30928">
        <ele>9.1999998092651</ele>
        <time>2019-01-10T10:17:30.000Z</time>
      </trkpt>
      <trkpt lat="47.30286" lon="-2.30932">
        <ele>9.6000003814697</ele>
        <time>2019-01-10T10:17:31.000Z</time>
      </trkpt>
      <trkpt lat="47.30293" lon="-2.30943">
        <ele>9.6000003814697</ele>
        <time>2019-01-10T10:17:33.000Z</time>
      </trkpt>
      <trkpt lat="47.30307" lon="-2.30963">
        <ele>10</ele>
        <time>2019-01-10T10:17:37.000Z</time>
      </trkpt>
      <trkpt lat="47.3031" lon="-2.30968">
        <ele>10.39999961853</ele>
        <time>2019-01-10T10:17:38.000Z</time>
      </trkpt>
      <trkpt lat="47.30314" lon="-2.30973">
        <ele>11.39999961853</ele>
        <time>2019-01-10T10:17:39.000Z</time>
      </trkpt>
      <trkpt lat="47.30317" lon="-2.30977">
        <ele>11.800000190735</ele>
        <time>2019-01-10T10:17:40.000Z</time>
      </trkpt>
      <trkpt lat="47.3032" lon="-2.30983">
        <ele>11.800000190735</ele>
        <time>2019-01-10T10:17:41.000Z</time>
      </trkpt>
      <trkpt lat="47.30332" lon="-2.31">
        <ele>12.199999809265</ele>
        <time>2019-01-10T10:17:45.000Z</time>
      </trkpt>
      <trkpt lat="47.30335" lon="-2.31004">
        <ele>12.800000190735</ele>
        <time>2019-01-10T10:17:46.000Z</time>
      </trkpt>
      <trkpt lat="47.30338" lon="-2.31008">
        <ele>13.199999809265</ele>
        <time>2019-01-10T10:17:47.000Z</time>
      </trkpt>
      <trkpt lat="47.30341" lon="-2.31012">
        <ele>13.60000038147</ele>
        <time>2019-01-10T10:17:48.000Z</time>
      </trkpt>
      <trkpt lat="47.30344" lon="-2.31016">
        <ele>14</ele>
        <time>2019-01-10T10:17:49.000Z</time>
      </trkpt>
      <trkpt lat="47.30354" lon="-2.31029">
        <ele>14</ele>
        <time>2019-01-10T10:17:52.000Z</time>
      </trkpt>
      <trkpt lat="47.30368" lon="-2.31048">
        <ele>14.39999961853</ele>
        <time>2019-01-10T10:17:56.000Z</time>
      </trkpt>
      <trkpt lat="47.30371" lon="-2.31053">
        <ele>14.800000190735</ele>
        <time>2019-01-10T10:17:57.000Z</time>
      </trkpt>
      <trkpt lat="47.30375" lon="-2.31058">
        <ele>15.199999809265</ele>
        <time>2019-01-10T10:17:58.000Z</time>
      </trkpt>
      <trkpt lat="47.30379" lon="-2.31063">
        <ele>15.60000038147</ele>
        <time>2019-01-10T10:17:59.000Z</time>
      </trkpt>
      <trkpt lat="47.30382" lon="-2.31069">
        <ele>16</ele>
        <time>2019-01-10T10:18:00.000Z</time>
      </trkpt>
      <trkpt lat="47.30391" lon="-2.31079">
        <ele>16</ele>
        <time>2019-01-10T10:18:02.000Z</time>
      </trkpt>
      <trkpt lat="47.30403" lon="-2.31091">
        <ele>16</ele>
        <time>2019-01-10T10:18:05.000Z</time>
      </trkpt>
      <trkpt lat="47.30424" lon="-2.31108">
        <ele>16</ele>
        <time>2019-01-10T10:18:10.000Z</time>
      </trkpt>
      <trkpt lat="47.30429" lon="-2.31112">
        <ele>16</ele>
        <time>2019-01-10T10:18:11.000Z</time>
      </trkpt>
      <trkpt lat="47.30437" lon="-2.31119">
        <ele>16</ele>
        <time>2019-01-10T10:18:13.000Z</time>
      </trkpt>
      <trkpt lat="47.3044" lon="-2.31124">
        <ele>16.39999961853</ele>
        <time>2019-01-10T10:18:14.000Z</time>
      </trkpt>
      <trkpt lat="47.30443" lon="-2.31129">
        <ele>16.799999237061</ele>
        <time>2019-01-10T10:18:15.000Z</time>
      </trkpt>
      <trkpt lat="47.30446" lon="-2.31135">
        <ele>17.200000762939</ele>
        <time>2019-01-10T10:18:16.000Z</time>
      </trkpt>
      <trkpt lat="47.30449" lon="-2.31142">
        <ele>17.799999237061</ele>
        <time>2019-01-10T10:18:17.000Z</time>
      </trkpt>
      <trkpt lat="47.30451" lon="-2.31149">
        <ele>18.200000762939</ele>
        <time>2019-01-10T10:18:18.000Z</time>
      </trkpt>
      <trkpt lat="47.30456" lon="-2.31164">
        <ele>18.200000762939</ele>
        <time>2019-01-10T10:18:20.000Z</time>
      </trkpt>
      <trkpt lat="47.30461" lon="-2.31179">
        <ele>18.200000762939</ele>
        <time>2019-01-10T10:18:22.000Z</time>
      </trkpt>
      <trkpt lat="47.30465" lon="-2.31194">
        <ele>18.200000762939</ele>
        <time>2019-01-10T10:18:24.000Z</time>
      </trkpt>
      <trkpt lat="47.3047" lon="-2.3121">
        <ele>18.200000762939</ele>
        <time>2019-01-10T10:18:26.000Z</time>
      </trkpt>
      <trkpt lat="47.30476" lon="-2.31224">
        <ele>18.200000762939</ele>
        <time>2019-01-10T10:18:28.000Z</time>
      </trkpt>
      <trkpt lat="47.30483" lon="-2.31239">
        <ele>18.200000762939</ele>
        <time>2019-01-10T10:18:30.000Z</time>
      </trkpt>
      <trkpt lat="47.30516" lon="-2.31295">
        <ele>18.200000762939</ele>
        <time>2019-01-10T10:18:38.000Z</time>
      </trkpt>
      <trkpt lat="47.30537" lon="-2.31329">
        <ele>18.200000762939</ele>
        <time>2019-01-10T10:18:43.000Z</time>
      </trkpt>
      <trkpt lat="47.30559" lon="-2.31361">
        <ele>18.200000762939</ele>
        <time>2019-01-10T10:18:48.000Z</time>
      </trkpt>
      <trkpt lat="47.30571" lon="-2.3138">
        <ele>18.200000762939</ele>
        <time>2019-01-10T10:18:51.000Z</time>
      </trkpt>
      <trkpt lat="47.30581" lon="-2.314">
        <ele>18.200000762939</ele>
        <time>2019-01-10T10:18:54.000Z</time>
      </trkpt>
      <trkpt lat="47.30605" lon="-2.31455">
        <ele>18.200000762939</ele>
        <time>2019-01-10T10:19:01.000Z</time>
      </trkpt>
      <trkpt lat="47.30633" lon="-2.31523">
        <ele>18.200000762939</ele>
        <time>2019-01-10T10:19:09.000Z</time>
      </trkpt>
      <trkpt lat="47.30662" lon="-2.31588">
        <ele>18.200000762939</ele>
        <time>2019-01-10T10:19:16.000Z</time>
      </trkpt>
      <trkpt lat="47.30666" lon="-2.31597">
        <ele>17.799999237061</ele>
        <time>2019-01-10T10:19:17.000Z</time>
      </trkpt>
      <trkpt lat="47.30671" lon="-2.31607">
        <ele>16.799999237061</ele>
        <time>2019-01-10T10:19:18.000Z</time>
      </trkpt>
      <trkpt lat="47.30675" lon="-2.31617">
        <ele>16.39999961853</ele>
        <time>2019-01-10T10:19:19.000Z</time>
      </trkpt>
      <trkpt lat="47.30679" lon="-2.31627">
        <ele>16</ele>
        <time>2019-01-10T10:19:20.000Z</time>
      </trkpt>
      <trkpt lat="47.30686" lon="-2.31649">
        <ele>16</ele>
        <time>2019-01-10T10:19:22.000Z</time>
      </trkpt>
      <trkpt lat="47.30696" lon="-2.31678">
        <ele>16</ele>
        <time>2019-01-10T10:19:25.000Z</time>
      </trkpt>
      <trkpt lat="47.30704" lon="-2.31694">
        <ele>16</ele>
        <time>2019-01-10T10:19:27.000Z</time>
      </trkpt>
      <trkpt lat="47.3071" lon="-2.3171">
        <ele>16</ele>
        <time>2019-01-10T10:19:29.000Z</time>
      </trkpt>
      <trkpt lat="47.30718" lon="-2.31731">
        <ele>16</ele>
        <time>2019-01-10T10:19:32.000Z</time>
      </trkpt>
      <trkpt lat="47.3073" lon="-2.31762">
        <ele>16</ele>
        <time>2019-01-10T10:19:37.000Z</time>
      </trkpt>
      <trkpt lat="47.30734" lon="-2.31762">
        <ele>16</ele>
        <time>2019-01-10T10:19:38.000Z</time>
      </trkpt>
      <trkpt lat="47.30755" lon="-2.31751">
        <ele>16</ele>
        <time>2019-01-10T10:19:43.000Z</time>
      </trkpt>
      <trkpt lat="47.30759" lon="-2.31747">
        <ele>16</ele>
        <time>2019-01-10T10:19:44.000Z</time>
      </trkpt>
      <trkpt lat="47.30772" lon="-2.31735">
        <ele>16</ele>
        <time>2019-01-10T10:19:47.000Z</time>
      </trkpt>
      <trkpt lat="47.30776" lon="-2.3173">
        <ele>16</ele>
        <time>2019-01-10T10:19:48.000Z</time>
      </trkpt>
      <trkpt lat="47.30805" lon="-2.31695">
        <ele>16</ele>
        <time>2019-01-10T10:19:55.000Z</time>
      </trkpt>
      <trkpt lat="47.30836" lon="-2.31656">
        <ele>16</ele>
        <time>2019-01-10T10:20:03.000Z</time>
      </trkpt>
      <trkpt lat="47.30844" lon="-2.31649">
        <ele>16</ele>
        <time>2019-01-10T10:20:05.000Z</time>
      </trkpt>
      <trkpt lat="47.30848" lon="-2.31647">
        <ele>16.39999961853</ele>
        <time>2019-01-10T10:20:06.000Z</time>
      </trkpt>
      <trkpt lat="47.30852" lon="-2.31649">
        <ele>16.799999237061</ele>
        <time>2019-01-10T10:20:07.000Z</time>
      </trkpt>
      <trkpt lat="47.30856" lon="-2.31653">
        <ele>17.799999237061</ele>
        <time>2019-01-10T10:20:08.000Z</time>
      </trkpt>
      <trkpt lat="47.3086" lon="-2.31658">
        <ele>18.200000762939</ele>
        <time>2019-01-10T10:20:09.000Z</time>
      </trkpt>
      <trkpt lat="47.30864" lon="-2.31664">
        <ele>18.200000762939</ele>
        <time>2019-01-10T10:20:10.000Z</time>
      </trkpt>
      <trkpt lat="47.30868" lon="-2.3167">
        <ele>18.200000762939</ele>
        <time>2019-01-10T10:20:11.000Z</time>
      </trkpt>
      <trkpt lat="47.30909" lon="-2.31721">
        <ele>18.200000762939</ele>
        <time>2019-01-10T10:20:20.000Z</time>
      </trkpt>
      <trkpt lat="47.30942" lon="-2.31759">
        <ele>18.200000762939</ele>
        <time>2019-01-10T10:20:27.000Z</time>
      </trkpt>
      <trkpt lat="47.30978" lon="-2.31797">
        <ele>18.200000762939</ele>
        <time>2019-01-10T10:20:34.000Z</time>
      </trkpt>
      <trkpt lat="47.31" lon="-2.31818">
        <ele>18.200000762939</ele>
        <time>2019-01-10T10:20:39.000Z</time>
      </trkpt>
      <trkpt lat="47.31002" lon="-2.31823">
        <ele>18.200000762939</ele>
        <time>2019-01-10T10:20:40.000Z</time>
      </trkpt>
      <trkpt lat="47.31001" lon="-2.31835">
        <ele>18.200000762939</ele>
        <time>2019-01-10T10:20:42.000Z</time>
      </trkpt>
      <trkpt lat="47.3099" lon="-2.31868">
        <ele>18.200000762939</ele>
        <time>2019-01-10T10:20:47.000Z</time>
      </trkpt>
      <trkpt lat="47.30988" lon="-2.31883">
        <ele>18.200000762939</ele>
        <time>2019-01-10T10:20:49.000Z</time>
      </trkpt>
      <trkpt lat="47.30983" lon="-2.31907">
        <ele>18.200000762939</ele>
        <time>2019-01-10T10:20:52.000Z</time>
      </trkpt>
      <trkpt lat="47.30971" lon="-2.31943">
        <ele>18.200000762939</ele>
        <time>2019-01-10T10:20:57.000Z</time>
      </trkpt>
      <trkpt lat="47.30969" lon="-2.31951">
        <ele>18.200000762939</ele>
        <time>2019-01-10T10:20:58.000Z</time>
      </trkpt>
      <trkpt lat="47.3097" lon="-2.31967">
        <ele>18.200000762939</ele>
        <time>2019-01-10T10:21:00.000Z</time>
      </trkpt>
      <trkpt lat="47.30975" lon="-2.31981">
        <ele>18.200000762939</ele>
        <time>2019-01-10T10:21:02.000Z</time>
      </trkpt>
      <trkpt lat="47.30981" lon="-2.32">
        <ele>18.200000762939</ele>
        <time>2019-01-10T10:21:05.000Z</time>
      </trkpt>
      <trkpt lat="47.30995" lon="-2.32034">
        <ele>18.200000762939</ele>
        <time>2019-01-10T10:21:11.000Z</time>
      </trkpt>
      <trkpt lat="47.30997" lon="-2.3204">
        <ele>18.200000762939</ele>
        <time>2019-01-10T10:21:12.000Z</time>
      </trkpt>
      <trkpt lat="47.31008" lon="-2.3206">
        <ele>18.200000762939</ele>
        <time>2019-01-10T10:21:16.000Z</time>
      </trkpt>
      <trkpt lat="47.3102" lon="-2.3208">
        <ele>18.200000762939</ele>
        <time>2019-01-10T10:21:20.000Z</time>
      </trkpt>
      <trkpt lat="47.31026" lon="-2.3209">
        <ele>18.200000762939</ele>
        <time>2019-01-10T10:21:22.000Z</time>
      </trkpt>
      <trkpt lat="47.31042" lon="-2.32114">
        <ele>18.200000762939</ele>
        <time>2019-01-10T10:21:28.000Z</time>
      </trkpt>
      <trkpt lat="47.31045" lon="-2.32121">
        <ele>18.200000762939</ele>
        <time>2019-01-10T10:21:33.000Z</time>
      </trkpt>
      <trkpt lat="47.31051" lon="-2.32131">
        <ele>18.200000762939</ele>
        <time>2019-01-10T10:21:40.000Z</time>
      </trkpt>
      <trkpt lat="47.31052" lon="-2.32132">
        <ele>18.200000762939</ele>
        <time>2019-01-10T10:21:42.000Z</time>
      </trkpt>
      <trkpt lat="47.31065" lon="-2.32151">
        <ele>20.200000762939</ele>
        <time>2019-01-10T10:22:07.000Z</time>
      </trkpt>
      <trkpt lat="47.31066" lon="-2.32154">
        <ele>20.200000762939</ele>
        <time>2019-01-10T10:22:08.000Z</time>
      </trkpt>
      <trkpt lat="47.31076" lon="-2.32171">
        <ele>20.200000762939</ele>
        <time>2019-01-10T10:22:14.000Z</time>
      </trkpt>
      <trkpt lat="47.31085" lon="-2.32189">
        <ele>20.200000762939</ele>
        <time>2019-01-10T10:22:20.000Z</time>
      </trkpt>
      <trkpt lat="47.31092" lon="-2.32205">
        <ele>20.200000762939</ele>
        <time>2019-01-10T10:22:25.000Z</time>
      </trkpt>
      <trkpt lat="47.31097" lon="-2.32217">
        <ele>20.200000762939</ele>
        <time>2019-01-10T10:22:30.000Z</time>
      </trkpt>
      <trkpt lat="47.31102" lon="-2.32232">
        <ele>21</ele>
        <time>2019-01-10T10:22:36.000Z</time>
      </trkpt>
      <trkpt lat="47.31103" lon="-2.32235">
        <ele>21.39999961853</ele>
        <time>2019-01-10T10:22:37.000Z</time>
      </trkpt>
      <trkpt lat="47.31103" lon="-2.32237">
        <ele>21.799999237061</ele>
        <time>2019-01-10T10:22:38.000Z</time>
      </trkpt>
      <trkpt lat="47.31104" lon="-2.3224">
        <ele>22.200000762939</ele>
        <time>2019-01-10T10:22:39.000Z</time>
      </trkpt>
      <trkpt lat="47.31106" lon="-2.32245">
        <ele>22.200000762939</ele>
        <time>2019-01-10T10:22:42.000Z</time>
      </trkpt>
      <trkpt lat="47.31115" lon="-2.32264">
        <ele>22.200000762939</ele>
        <time>2019-01-10T10:22:49.000Z</time>
      </trkpt>
      <trkpt lat="47.31123" lon="-2.32281">
        <ele>22.60000038147</ele>
        <time>2019-01-10T10:22:54.000Z</time>
      </trkpt>
      <trkpt lat="47.31125" lon="-2.32285">
        <ele>23.200000762939</ele>
        <time>2019-01-10T10:22:55.000Z</time>
      </trkpt>
      <trkpt lat="47.31127" lon="-2.32289">
        <ele>23.60000038147</ele>
        <time>2019-01-10T10:22:56.000Z</time>
      </trkpt>
      <trkpt lat="47.31128" lon="-2.32292">
        <ele>24</ele>
        <time>2019-01-10T10:22:57.000Z</time>
      </trkpt>
      <trkpt lat="47.31129" lon="-2.32295">
        <ele>24.39999961853</ele>
        <time>2019-01-10T10:22:58.000Z</time>
      </trkpt>
      <trkpt lat="47.31133" lon="-2.32307">
        <ele>24.39999961853</ele>
        <time>2019-01-10T10:23:01.000Z</time>
      </trkpt>
      <trkpt lat="47.31141" lon="-2.32339">
        <ele>24.39999961853</ele>
        <time>2019-01-10T10:23:08.000Z</time>
      </trkpt>
      <trkpt lat="47.31142" lon="-2.32362">
        <ele>24.39999961853</ele>
        <time>2019-01-10T10:23:13.000Z</time>
      </trkpt>
      <trkpt lat="47.31142" lon="-2.32366">
        <ele>24.799999237061</ele>
        <time>2019-01-10T10:23:14.000Z</time>
      </trkpt>
      <trkpt lat="47.31142" lon="-2.32372">
        <ele>25.200000762939</ele>
        <time>2019-01-10T10:23:15.000Z</time>
      </trkpt>
      <trkpt lat="47.31142" lon="-2.32376">
        <ele>25.799999237061</ele>
        <time>2019-01-10T10:23:16.000Z</time>
      </trkpt>
      <trkpt lat="47.31142" lon="-2.3238">
        <ele>26.200000762939</ele>
        <time>2019-01-10T10:23:17.000Z</time>
      </trkpt>
      <trkpt lat="47.31142" lon="-2.32385">
        <ele>26.60000038147</ele>
        <time>2019-01-10T10:23:18.000Z</time>
      </trkpt>
      <trkpt lat="47.31145" lon="-2.32408">
        <ele>26.60000038147</ele>
        <time>2019-01-10T10:23:22.000Z</time>
      </trkpt>
      <trkpt lat="47.31147" lon="-2.32414">
        <ele>26.60000038147</ele>
        <time>2019-01-10T10:23:23.000Z</time>
      </trkpt>
      <trkpt lat="47.31163" lon="-2.32426">
        <ele>26.60000038147</ele>
        <time>2019-01-10T10:23:27.000Z</time>
      </trkpt>
      <trkpt lat="47.31166" lon="-2.32428">
        <ele>26.60000038147</ele>
        <time>2019-01-10T10:23:28.000Z</time>
      </trkpt>
      <trkpt lat="47.31176" lon="-2.32436">
        <ele>26.60000038147</ele>
        <time>2019-01-10T10:23:31.000Z</time>
      </trkpt>
      <trkpt lat="47.31178" lon="-2.32439">
        <ele>26.60000038147</ele>
        <time>2019-01-10T10:23:32.000Z</time>
      </trkpt>
      <trkpt lat="47.31183" lon="-2.32441">
        <ele>26.60000038147</ele>
        <time>2019-01-10T10:23:37.000Z</time>
      </trkpt>
      <trkpt lat="47.31182" lon="-2.32435">
        <ele>26.60000038147</ele>
        <time>2019-01-10T10:23:42.000Z</time>
      </trkpt>
      <trkpt lat="47.3118" lon="-2.32436">
        <ele>26.60000038147</ele>
        <time>2019-01-10T10:23:45.000Z</time>
      </trkpt>
      <trkpt lat="47.31179" lon="-2.32439">
        <ele>26.60000038147</ele>
        <time>2019-01-10T10:23:47.000Z</time>
      </trkpt>
      <trkpt lat="47.31179" lon="-2.32441">
        <ele>26.60000038147</ele>
        <time>2019-01-10T10:23:49.000Z</time>
      </trkpt>
      <trkpt lat="47.31182" lon="-2.32441">
        <ele>26.60000038147</ele>
        <time>2019-01-10T10:23:53.000Z</time>
      </trkpt>
      <trkpt lat="47.31184" lon="-2.3244">
        <ele>26.60000038147</ele>
        <time>2019-01-10T10:23:54.000Z</time>
      </trkpt>
      <trkpt lat="47.31189" lon="-2.32435">
        <ele>26.60000038147</ele>
        <time>2019-01-10T10:23:57.000Z</time>
      </trkpt>
      <trkpt lat="47.31195" lon="-2.32431">
        <ele>26.60000038147</ele>
        <time>2019-01-10T10:23:59.000Z</time>
      </trkpt>
      <trkpt lat="47.31219" lon="-2.32415">
        <ele>26.60000038147</ele>
        <time>2019-01-10T10:24:05.000Z</time>
      </trkpt>
      <trkpt lat="47.31239" lon="-2.32402">
        <ele>27</ele>
        <time>2019-01-10T10:24:09.000Z</time>
      </trkpt>
      <trkpt lat="47.31245" lon="-2.32398">
        <ele>27.39999961853</ele>
        <time>2019-01-10T10:24:10.000Z</time>
      </trkpt>
      <trkpt lat="47.3125" lon="-2.32394">
        <ele>27.799999237061</ele>
        <time>2019-01-10T10:24:11.000Z</time>
      </trkpt>
      <trkpt lat="47.31255" lon="-2.32389">
        <ele>28.200000762939</ele>
        <time>2019-01-10T10:24:12.000Z</time>
      </trkpt>
      <trkpt lat="47.31261" lon="-2.32385">
        <ele>28.60000038147</ele>
        <time>2019-01-10T10:24:13.000Z</time>
      </trkpt>
      <trkpt lat="47.31282" lon="-2.32365">
        <ele>28.60000038147</ele>
        <time>2019-01-10T10:24:17.000Z</time>
      </trkpt>
      <trkpt lat="47.31312" lon="-2.32333">
        <ele>28.200000762939</ele>
        <time>2019-01-10T10:24:23.000Z</time>
      </trkpt>
      <trkpt lat="47.31317" lon="-2.32328">
        <ele>27.799999237061</ele>
        <time>2019-01-10T10:24:24.000Z</time>
      </trkpt>
      <trkpt lat="47.31321" lon="-2.32323">
        <ele>27.39999961853</ele>
        <time>2019-01-10T10:24:25.000Z</time>
      </trkpt>
      <trkpt lat="47.31325" lon="-2.32319">
        <ele>27</ele>
        <time>2019-01-10T10:24:26.000Z</time>
      </trkpt>
      <trkpt lat="47.31329" lon="-2.32314">
        <ele>26.39999961853</ele>
        <time>2019-01-10T10:24:27.000Z</time>
      </trkpt>
      <trkpt lat="47.31333" lon="-2.3231">
        <ele>26.39999961853</ele>
        <time>2019-01-10T10:24:28.000Z</time>
      </trkpt>
      <trkpt lat="47.31346" lon="-2.323">
        <ele>26.39999961853</ele>
        <time>2019-01-10T10:24:32.000Z</time>
      </trkpt>
      <trkpt lat="47.31358" lon="-2.32294">
        <ele>26.39999961853</ele>
        <time>2019-01-10T10:24:35.000Z</time>
      </trkpt>
      <trkpt lat="47.31363" lon="-2.32292">
        <ele>26.39999961853</ele>
        <time>2019-01-10T10:24:36.000Z</time>
      </trkpt>
      <trkpt lat="47.314" lon="-2.32278">
        <ele>26.39999961853</ele>
        <time>2019-01-10T10:24:43.000Z</time>
      </trkpt>
      <trkpt lat="47.31421" lon="-2.32271">
        <ele>26.39999961853</ele>
        <time>2019-01-10T10:24:47.000Z</time>
      </trkpt>
      <trkpt lat="47.31437" lon="-2.32265">
        <ele>26.39999961853</ele>
        <time>2019-01-10T10:24:50.000Z</time>
      </trkpt>
      <trkpt lat="47.31447" lon="-2.32257">
        <ele>26.39999961853</ele>
        <time>2019-01-10T10:24:52.000Z</time>
      </trkpt>
      <trkpt lat="47.31461" lon="-2.3223">
        <ele>27</ele>
        <time>2019-01-10T10:24:56.000Z</time>
      </trkpt>
      <trkpt lat="47.31464" lon="-2.32222">
        <ele>27.39999961853</ele>
        <time>2019-01-10T10:24:57.000Z</time>
      </trkpt>
      <trkpt lat="47.31467" lon="-2.32214">
        <ele>27.799999237061</ele>
        <time>2019-01-10T10:24:58.000Z</time>
      </trkpt>
      <trkpt lat="47.3147" lon="-2.32207">
        <ele>28.200000762939</ele>
        <time>2019-01-10T10:24:59.000Z</time>
      </trkpt>
      <trkpt lat="47.31473" lon="-2.322">
        <ele>28.60000038147</ele>
        <time>2019-01-10T10:25:00.000Z</time>
      </trkpt>
      <trkpt lat="47.31479" lon="-2.32185">
        <ele>28.60000038147</ele>
        <time>2019-01-10T10:25:02.000Z</time>
      </trkpt>
      <trkpt lat="47.31483" lon="-2.32178">
        <ele>28.60000038147</ele>
        <time>2019-01-10T10:25:03.000Z</time>
      </trkpt>
      <trkpt lat="47.31492" lon="-2.32173">
        <ele>28.60000038147</ele>
        <time>2019-01-10T10:25:05.000Z</time>
      </trkpt>
      <trkpt lat="47.31504" lon="-2.32182">
        <ele>28.60000038147</ele>
        <time>2019-01-10T10:25:08.000Z</time>
      </trkpt>
      <trkpt lat="47.31515" lon="-2.32183">
        <ele>28.60000038147</ele>
        <time>2019-01-10T10:25:11.000Z</time>
      </trkpt>
      <trkpt lat="47.31517" lon="-2.32172">
        <ele>28.60000038147</ele>
        <time>2019-01-10T10:25:14.000Z</time>
      </trkpt>
      <trkpt lat="47.31511" lon="-2.32158">
        <ele>28.60000038147</ele>
        <time>2019-01-10T10:25:17.000Z</time>
      </trkpt>
      <trkpt lat="47.31509" lon="-2.32153">
        <ele>28.60000038147</ele>
        <time>2019-01-10T10:25:18.000Z</time>
      </trkpt>
      <trkpt lat="47.31496" lon="-2.32123">
        <ele>28.60000038147</ele>
        <time>2019-01-10T10:25:23.000Z</time>
      </trkpt>
      <trkpt lat="47.31496" lon="-2.32117">
        <ele>28.60000038147</ele>
        <time>2019-01-10T10:25:24.000Z</time>
      </trkpt>
      <trkpt lat="47.315" lon="-2.32109">
        <ele>28.60000038147</ele>
        <time>2019-01-10T10:25:27.000Z</time>
      </trkpt>
      <trkpt lat="47.3151" lon="-2.32108">
        <ele>28.60000038147</ele>
        <time>2019-01-10T10:25:32.000Z</time>
      </trkpt>
      <trkpt lat="47.31519" lon="-2.32112">
        <ele>28.60000038147</ele>
        <time>2019-01-10T10:25:35.000Z</time>
      </trkpt>
      <trkpt lat="47.31523" lon="-2.32113">
        <ele>28.60000038147</ele>
        <time>2019-01-10T10:25:36.000Z</time>
      </trkpt>
      <trkpt lat="47.31532" lon="-2.32115">
        <ele>28.60000038147</ele>
        <time>2019-01-10T10:25:38.000Z</time>
      </trkpt>
      <trkpt lat="47.31541" lon="-2.32117">
        <ele>29</ele>
        <time>2019-01-10T10:25:40.000Z</time>
      </trkpt>
      <trkpt lat="47.31546" lon="-2.32118">
        <ele>29.39999961853</ele>
        <time>2019-01-10T10:25:41.000Z</time>
      </trkpt>
      <trkpt lat="47.31551" lon="-2.32119">
        <ele>29.799999237061</ele>
        <time>2019-01-10T10:25:42.000Z</time>
      </trkpt>
      <trkpt lat="47.31556" lon="-2.3212">
        <ele>30.39999961853</ele>
        <time>2019-01-10T10:25:43.000Z</time>
      </trkpt>
      <trkpt lat="47.31561" lon="-2.32121">
        <ele>30.799999237061</ele>
        <time>2019-01-10T10:25:44.000Z</time>
      </trkpt>
      <trkpt lat="47.31577" lon="-2.32124">
        <ele>30.799999237061</ele>
        <time>2019-01-10T10:25:47.000Z</time>
      </trkpt>
      <trkpt lat="47.31615" lon="-2.32135">
        <ele>30.799999237061</ele>
        <time>2019-01-10T10:25:54.000Z</time>
      </trkpt>
      <trkpt lat="47.31641" lon="-2.32141">
        <ele>30.799999237061</ele>
        <time>2019-01-10T10:25:59.000Z</time>
      </trkpt>
      <trkpt lat="47.31656" lon="-2.32146">
        <ele>31.200000762939</ele>
        <time>2019-01-10T10:26:02.000Z</time>
      </trkpt>
      <trkpt lat="47.31661" lon="-2.32147">
        <ele>31.60000038147</ele>
        <time>2019-01-10T10:26:03.000Z</time>
      </trkpt>
      <trkpt lat="47.31667" lon="-2.32149">
        <ele>32</ele>
        <time>2019-01-10T10:26:04.000Z</time>
      </trkpt>
      <trkpt lat="47.31672" lon="-2.32151">
        <ele>32.400001525879</ele>
        <time>2019-01-10T10:26:05.000Z</time>
      </trkpt>
      <trkpt lat="47.31677" lon="-2.32152">
        <ele>32.799999237061</ele>
        <time>2019-01-10T10:26:06.000Z</time>
      </trkpt>
      <trkpt lat="47.31699" lon="-2.32156">
        <ele>32.799999237061</ele>
        <time>2019-01-10T10:26:10.000Z</time>
      </trkpt>
      <trkpt lat="47.3174" lon="-2.32167">
        <ele>32.799999237061</ele>
        <time>2019-01-10T10:26:18.000Z</time>
      </trkpt>
      <trkpt lat="47.31773" lon="-2.32175">
        <ele>32.799999237061</ele>
        <time>2019-01-10T10:26:24.000Z</time>
      </trkpt>
      <trkpt lat="47.31804" lon="-2.32181">
        <ele>32.400001525879</ele>
        <time>2019-01-10T10:26:29.000Z</time>
      </trkpt>
      <trkpt lat="47.3181" lon="-2.32183">
        <ele>32</ele>
        <time>2019-01-10T10:26:30.000Z</time>
      </trkpt>
      <trkpt lat="47.31817" lon="-2.32184">
        <ele>31.60000038147</ele>
        <time>2019-01-10T10:26:31.000Z</time>
      </trkpt>
      <trkpt lat="47.31823" lon="-2.32186">
        <ele>31.200000762939</ele>
        <time>2019-01-10T10:26:32.000Z</time>
      </trkpt>
      <trkpt lat="47.31829" lon="-2.32187">
        <ele>30.799999237061</ele>
        <time>2019-01-10T10:26:33.000Z</time>
      </trkpt>
      <trkpt lat="47.31862" lon="-2.32194">
        <ele>30.39999961853</ele>
        <time>2019-01-10T10:26:38.000Z</time>
      </trkpt>
      <trkpt lat="47.31868" lon="-2.32195">
        <ele>30</ele>
        <time>2019-01-10T10:26:39.000Z</time>
      </trkpt>
      <trkpt lat="47.31873" lon="-2.32196">
        <ele>29.60000038147</ele>
        <time>2019-01-10T10:26:40.000Z</time>
      </trkpt>
      <trkpt lat="47.31879" lon="-2.32196">
        <ele>29.200000762939</ele>
        <time>2019-01-10T10:26:41.000Z</time>
      </trkpt>
      <trkpt lat="47.31885" lon="-2.32196">
        <ele>28.200000762939</ele>
        <time>2019-01-10T10:26:42.000Z</time>
      </trkpt>
      <trkpt lat="47.31889" lon="-2.32197">
        <ele>27.799999237061</ele>
        <time>2019-01-10T10:26:43.000Z</time>
      </trkpt>
      <trkpt lat="47.31891" lon="-2.32199">
        <ele>27.200000762939</ele>
        <time>2019-01-10T10:26:44.000Z</time>
      </trkpt>
      <trkpt lat="47.31892" lon="-2.32201">
        <ele>26.799999237061</ele>
        <time>2019-01-10T10:26:45.000Z</time>
      </trkpt>
      <trkpt lat="47.31892" lon="-2.32204">
        <ele>26.200000762939</ele>
        <time>2019-01-10T10:26:46.000Z</time>
      </trkpt>
      <trkpt lat="47.31891" lon="-2.32206">
        <ele>25.799999237061</ele>
        <time>2019-01-10T10:26:47.000Z</time>
      </trkpt>
      <trkpt lat="47.31888" lon="-2.32208">
        <ele>25.200000762939</ele>
        <time>2019-01-10T10:26:48.000Z</time>
      </trkpt>
      <trkpt lat="47.31884" lon="-2.32209">
        <ele>24.799999237061</ele>
        <time>2019-01-10T10:26:49.000Z</time>
      </trkpt>
      <trkpt lat="47.3188" lon="-2.3221">
        <ele>24.39999961853</ele>
        <time>2019-01-10T10:26:50.000Z</time>
      </trkpt>
      <trkpt lat="47.31876" lon="-2.32211">
        <ele>24.39999961853</ele>
        <time>2019-01-10T10:26:51.000Z</time>
      </trkpt>
      <trkpt lat="47.31859" lon="-2.32217">
        <ele>24.39999961853</ele>
        <time>2019-01-10T10:26:55.000Z</time>
      </trkpt>
      <trkpt lat="47.31844" lon="-2.32222">
        <ele>24.799999237061</ele>
        <time>2019-01-10T10:26:59.000Z</time>
      </trkpt>
      <trkpt lat="47.3184" lon="-2.32223">
        <ele>25.200000762939</ele>
        <time>2019-01-10T10:27:00.000Z</time>
      </trkpt>
      <trkpt lat="47.31836" lon="-2.32224">
        <ele>25.60000038147</ele>
        <time>2019-01-10T10:27:01.000Z</time>
      </trkpt>
      <trkpt lat="47.31832" lon="-2.32224">
        <ele>26.200000762939</ele>
        <time>2019-01-10T10:27:02.000Z</time>
      </trkpt>
      <trkpt lat="47.31828" lon="-2.32224">
        <ele>26.60000038147</ele>
        <time>2019-01-10T10:27:03.000Z</time>
      </trkpt>
      <trkpt lat="47.31823" lon="-2.32225">
        <ele>26.60000038147</ele>
        <time>2019-01-10T10:27:04.000Z</time>
      </trkpt>
      <trkpt lat="47.31814" lon="-2.32226">
        <ele>27</ele>
        <time>2019-01-10T10:27:06.000Z</time>
      </trkpt>
      <trkpt lat="47.3181" lon="-2.32226">
        <ele>27.799999237061</ele>
        <time>2019-01-10T10:27:07.000Z</time>
      </trkpt>
      <trkpt lat="47.31805" lon="-2.32227">
        <ele>28.200000762939</ele>
        <time>2019-01-10T10:27:08.000Z</time>
      </trkpt>
      <trkpt lat="47.31801" lon="-2.32227">
        <ele>28.60000038147</ele>
        <time>2019-01-10T10:27:09.000Z</time>
      </trkpt>
      <trkpt lat="47.31787" lon="-2.32228">
        <ele>28.60000038147</ele>
        <time>2019-01-10T10:27:12.000Z</time>
      </trkpt>
      <trkpt lat="47.31778" lon="-2.32229">
        <ele>29</ele>
        <time>2019-01-10T10:27:14.000Z</time>
      </trkpt>
      <trkpt lat="47.31773" lon="-2.3223">
        <ele>29.39999961853</ele>
        <time>2019-01-10T10:27:15.000Z</time>
      </trkpt>
      <trkpt lat="47.31769" lon="-2.32231">
        <ele>29.799999237061</ele>
        <time>2019-01-10T10:27:16.000Z</time>
      </trkpt>
      <trkpt lat="47.31764" lon="-2.32232">
        <ele>30.200000762939</ele>
        <time>2019-01-10T10:27:17.000Z</time>
      </trkpt>
      <trkpt lat="47.3176" lon="-2.32234">
        <ele>30.60000038147</ele>
        <time>2019-01-10T10:27:18.000Z</time>
      </trkpt>
      <trkpt lat="47.31756" lon="-2.32244">
        <ele>30.60000038147</ele>
        <time>2019-01-10T10:27:20.000Z</time>
      </trkpt>
      <trkpt lat="47.31759" lon="-2.32264">
        <ele>30.60000038147</ele>
        <time>2019-01-10T10:27:23.000Z</time>
      </trkpt>
      <trkpt lat="47.31761" lon="-2.32271">
        <ele>30.60000038147</ele>
        <time>2019-01-10T10:27:24.000Z</time>
      </trkpt>
      <trkpt lat="47.31769" lon="-2.32309">
        <ele>30.60000038147</ele>
        <time>2019-01-10T10:27:29.000Z</time>
      </trkpt>
      <trkpt lat="47.31778" lon="-2.32363">
        <ele>30.60000038147</ele>
        <time>2019-01-10T10:27:35.000Z</time>
      </trkpt>
      <trkpt lat="47.31788" lon="-2.32412">
        <ele>30.60000038147</ele>
        <time>2019-01-10T10:27:40.000Z</time>
      </trkpt>
      <trkpt lat="47.31791" lon="-2.32433">
        <ele>30.60000038147</ele>
        <time>2019-01-10T10:27:42.000Z</time>
      </trkpt>
      <trkpt lat="47.31792" lon="-2.32444">
        <ele>30.200000762939</ele>
        <time>2019-01-10T10:27:43.000Z</time>
      </trkpt>
      <trkpt lat="47.31793" lon="-2.32455">
        <ele>29.799999237061</ele>
        <time>2019-01-10T10:27:44.000Z</time>
      </trkpt>
      <trkpt lat="47.31796" lon="-2.32465">
        <ele>29.39999961853</ele>
        <time>2019-01-10T10:27:45.000Z</time>
      </trkpt>
      <trkpt lat="47.31799" lon="-2.32475">
        <ele>29</ele>
        <time>2019-01-10T10:27:46.000Z</time>
      </trkpt>
      <trkpt lat="47.31801" lon="-2.32485">
        <ele>28.60000038147</ele>
        <time>2019-01-10T10:27:47.000Z</time>
      </trkpt>
      <trkpt lat="47.31805" lon="-2.32495">
        <ele>28.200000762939</ele>
        <time>2019-01-10T10:27:48.000Z</time>
      </trkpt>
      <trkpt lat="47.31808" lon="-2.32507">
        <ele>27.799999237061</ele>
        <time>2019-01-10T10:27:49.000Z</time>
      </trkpt>
      <trkpt lat="47.31811" lon="-2.32519">
        <ele>27.200000762939</ele>
        <time>2019-01-10T10:27:50.000Z</time>
      </trkpt>
      <trkpt lat="47.31813" lon="-2.3253">
        <ele>26.799999237061</ele>
        <time>2019-01-10T10:27:51.000Z</time>
      </trkpt>
      <trkpt lat="47.31816" lon="-2.32542">
        <ele>26.39999961853</ele>
        <time>2019-01-10T10:27:52.000Z</time>
      </trkpt>
      <trkpt lat="47.31819" lon="-2.32553">
        <ele>25.799999237061</ele>
        <time>2019-01-10T10:27:53.000Z</time>
      </trkpt>
      <trkpt lat="47.31822" lon="-2.32565">
        <ele>25.39999961853</ele>
        <time>2019-01-10T10:27:54.000Z</time>
      </trkpt>
      <trkpt lat="47.31824" lon="-2.32576">
        <ele>24.799999237061</ele>
        <time>2019-01-10T10:27:55.000Z</time>
      </trkpt>
      <trkpt lat="47.31826" lon="-2.32588">
        <ele>24.200000762939</ele>
        <time>2019-01-10T10:27:56.000Z</time>
      </trkpt>
      <trkpt lat="47.31837" lon="-2.32633">
        <ele>23.799999237061</ele>
        <time>2019-01-10T10:28:00.000Z</time>
      </trkpt>
      <trkpt lat="47.31839" lon="-2.32644">
        <ele>23.39999961853</ele>
        <time>2019-01-10T10:28:01.000Z</time>
      </trkpt>
      <trkpt lat="47.31842" lon="-2.32655">
        <ele>23</ele>
        <time>2019-01-10T10:28:02.000Z</time>
      </trkpt>
      <trkpt lat="47.31846" lon="-2.32665">
        <ele>22.60000038147</ele>
        <time>2019-01-10T10:28:03.000Z</time>
      </trkpt>
      <trkpt lat="47.3185" lon="-2.32676">
        <ele>22.200000762939</ele>
        <time>2019-01-10T10:28:04.000Z</time>
      </trkpt>
      <trkpt lat="47.31863" lon="-2.32705">
        <ele>22.200000762939</ele>
        <time>2019-01-10T10:28:07.000Z</time>
      </trkpt>
      <trkpt lat="47.31866" lon="-2.32715">
        <ele>21.799999237061</ele>
        <time>2019-01-10T10:28:08.000Z</time>
      </trkpt>
      <trkpt lat="47.31869" lon="-2.32724">
        <ele>21.39999961853</ele>
        <time>2019-01-10T10:28:09.000Z</time>
      </trkpt>
      <trkpt lat="47.31872" lon="-2.32733">
        <ele>20.799999237061</ele>
        <time>2019-01-10T10:28:10.000Z</time>
      </trkpt>
      <trkpt lat="47.31875" lon="-2.32741">
        <ele>20.39999961853</ele>
        <time>2019-01-10T10:28:11.000Z</time>
      </trkpt>
      <trkpt lat="47.31878" lon="-2.3275">
        <ele>20</ele>
        <time>2019-01-10T10:28:12.000Z</time>
      </trkpt>
      <trkpt lat="47.31882" lon="-2.32768">
        <ele>20</ele>
        <time>2019-01-10T10:28:14.000Z</time>
      </trkpt>
      <trkpt lat="47.31883" lon="-2.32778">
        <ele>20</ele>
        <time>2019-01-10T10:28:15.000Z</time>
      </trkpt>
      <trkpt lat="47.31885" lon="-2.32807">
        <ele>20</ele>
        <time>2019-01-10T10:28:18.000Z</time>
      </trkpt>
      <trkpt lat="47.31886" lon="-2.32816">
        <ele>19.60000038147</ele>
        <time>2019-01-10T10:28:19.000Z</time>
      </trkpt>
      <trkpt lat="47.31886" lon="-2.32826">
        <ele>19</ele>
        <time>2019-01-10T10:28:20.000Z</time>
      </trkpt>
      <trkpt lat="47.31887" lon="-2.32836">
        <ele>18.200000762939</ele>
        <time>2019-01-10T10:28:21.000Z</time>
      </trkpt>
      <trkpt lat="47.31888" lon="-2.32846">
        <ele>17.799999237061</ele>
        <time>2019-01-10T10:28:22.000Z</time>
      </trkpt>
      <trkpt lat="47.3189" lon="-2.32905">
        <ele>17.799999237061</ele>
        <time>2019-01-10T10:28:28.000Z</time>
      </trkpt>
      <trkpt lat="47.31892" lon="-2.32945">
        <ele>17.799999237061</ele>
        <time>2019-01-10T10:28:33.000Z</time>
      </trkpt>
      <trkpt lat="47.31892" lon="-2.32953">
        <ele>17.799999237061</ele>
        <time>2019-01-10T10:28:34.000Z</time>
      </trkpt>
      <trkpt lat="47.31889" lon="-2.3298">
        <ele>17.799999237061</ele>
        <time>2019-01-10T10:28:37.000Z</time>
      </trkpt>
      <trkpt lat="47.31888" lon="-2.32989">
        <ele>17.799999237061</ele>
        <time>2019-01-10T10:28:38.000Z</time>
      </trkpt>
      <trkpt lat="47.31889" lon="-2.3303">
        <ele>17.799999237061</ele>
        <time>2019-01-10T10:28:42.000Z</time>
      </trkpt>
      <trkpt lat="47.31887" lon="-2.33072">
        <ele>17.799999237061</ele>
        <time>2019-01-10T10:28:46.000Z</time>
      </trkpt>
      <trkpt lat="47.31885" lon="-2.33098">
        <ele>17.799999237061</ele>
        <time>2019-01-10T10:28:49.000Z</time>
      </trkpt>
      <trkpt lat="47.31882" lon="-2.33113">
        <ele>17.799999237061</ele>
        <time>2019-01-10T10:28:51.000Z</time>
      </trkpt>
      <trkpt lat="47.31876" lon="-2.33139">
        <ele>17.799999237061</ele>
        <time>2019-01-10T10:28:55.000Z</time>
      </trkpt>
      <trkpt lat="47.31875" lon="-2.33144">
        <ele>17.799999237061</ele>
        <time>2019-01-10T10:28:56.000Z</time>
      </trkpt>
      <trkpt lat="47.31872" lon="-2.33163">
        <ele>17.799999237061</ele>
        <time>2019-01-10T10:28:59.000Z</time>
      </trkpt>
      <trkpt lat="47.31871" lon="-2.3317">
        <ele>17.799999237061</ele>
        <time>2019-01-10T10:29:00.000Z</time>
      </trkpt>
      <trkpt lat="47.3187" lon="-2.33192">
        <ele>18.200000762939</ele>
        <time>2019-01-10T10:29:03.000Z</time>
      </trkpt>
      <trkpt lat="47.3187" lon="-2.332">
        <ele>18.799999237061</ele>
        <time>2019-01-10T10:29:04.000Z</time>
      </trkpt>
      <trkpt lat="47.31868" lon="-2.33207">
        <ele>19.200000762939</ele>
        <time>2019-01-10T10:29:05.000Z</time>
      </trkpt>
      <trkpt lat="47.31867" lon="-2.33214">
        <ele>19.60000038147</ele>
        <time>2019-01-10T10:29:06.000Z</time>
      </trkpt>
      <trkpt lat="47.31865" lon="-2.33222">
        <ele>20</ele>
        <time>2019-01-10T10:29:07.000Z</time>
      </trkpt>
      <trkpt lat="47.31864" lon="-2.33229">
        <ele>20</ele>
        <time>2019-01-10T10:29:08.000Z</time>
      </trkpt>
      <trkpt lat="47.31862" lon="-2.33236">
        <ele>20</ele>
        <time>2019-01-10T10:29:09.000Z</time>
      </trkpt>
      <trkpt lat="47.3186" lon="-2.33242">
        <ele>20</ele>
        <time>2019-01-10T10:29:10.000Z</time>
      </trkpt>
      <trkpt lat="47.31852" lon="-2.33259">
        <ele>20</ele>
        <time>2019-01-10T10:29:13.000Z</time>
      </trkpt>
      <trkpt lat="47.3184" lon="-2.3328">
        <ele>20</ele>
        <time>2019-01-10T10:29:18.000Z</time>
      </trkpt>
      <trkpt lat="47.31836" lon="-2.33283">
        <ele>20.39999961853</ele>
        <time>2019-01-10T10:29:19.000Z</time>
      </trkpt>
      <trkpt lat="47.31832" lon="-2.33286">
        <ele>20.799999237061</ele>
        <time>2019-01-10T10:29:20.000Z</time>
      </trkpt>
      <trkpt lat="47.31828" lon="-2.3329">
        <ele>21.200000762939</ele>
        <time>2019-01-10T10:29:21.000Z</time>
      </trkpt>
      <trkpt lat="47.31826" lon="-2.33293">
        <ele>21.799999237061</ele>
        <time>2019-01-10T10:29:22.000Z</time>
      </trkpt>
      <trkpt lat="47.31823" lon="-2.33296">
        <ele>22.200000762939</ele>
        <time>2019-01-10T10:29:23.000Z</time>
      </trkpt>
      <trkpt lat="47.31812" lon="-2.33307">
        <ele>22.60000038147</ele>
        <time>2019-01-10T10:29:27.000Z</time>
      </trkpt>
      <trkpt lat="47.3181" lon="-2.33309">
        <ele>23</ele>
        <time>2019-01-10T10:29:28.000Z</time>
      </trkpt>
      <trkpt lat="47.31807" lon="-2.33311">
        <ele>23.39999961853</ele>
        <time>2019-01-10T10:29:29.000Z</time>
      </trkpt>
      <trkpt lat="47.31804" lon="-2.33313">
        <ele>23.799999237061</ele>
        <time>2019-01-10T10:29:30.000Z</time>
      </trkpt>
      <trkpt lat="47.31802" lon="-2.33315">
        <ele>24.200000762939</ele>
        <time>2019-01-10T10:29:31.000Z</time>
      </trkpt>
      <trkpt lat="47.31795" lon="-2.3332">
        <ele>24.200000762939</ele>
        <time>2019-01-10T10:29:34.000Z</time>
      </trkpt>
      <trkpt lat="47.31792" lon="-2.33322">
        <ele>24.60000038147</ele>
        <time>2019-01-10T10:29:35.000Z</time>
      </trkpt>
      <trkpt lat="47.3179" lon="-2.33324">
        <ele>25</ele>
        <time>2019-01-10T10:29:36.000Z</time>
      </trkpt>
      <trkpt lat="47.31787" lon="-2.33326">
        <ele>25.39999961853</ele>
        <time>2019-01-10T10:29:37.000Z</time>
      </trkpt>
      <trkpt lat="47.31784" lon="-2.33326">
        <ele>25.799999237061</ele>
        <time>2019-01-10T10:29:38.000Z</time>
      </trkpt>
      <trkpt lat="47.31781" lon="-2.33326">
        <ele>26.200000762939</ele>
        <time>2019-01-10T10:29:39.000Z</time>
      </trkpt>
      <trkpt lat="47.31778" lon="-2.33325">
        <ele>26.200000762939</ele>
        <time>2019-01-10T10:29:40.000Z</time>
      </trkpt>
      <trkpt lat="47.31774" lon="-2.33321">
        <ele>26.200000762939</ele>
        <time>2019-01-10T10:29:42.000Z</time>
      </trkpt>
      <trkpt lat="47.31772" lon="-2.33318">
        <ele>26.200000762939</ele>
        <time>2019-01-10T10:29:43.000Z</time>
      </trkpt>
      <trkpt lat="47.31766" lon="-2.33309">
        <ele>26.60000038147</ele>
        <time>2019-01-10T10:29:46.000Z</time>
      </trkpt>
      <trkpt lat="47.31765" lon="-2.33306">
        <ele>27</ele>
        <time>2019-01-10T10:29:47.000Z</time>
      </trkpt>
      <trkpt lat="47.31763" lon="-2.33303">
        <ele>27.60000038147</ele>
        <time>2019-01-10T10:29:48.000Z</time>
      </trkpt>
      <trkpt lat="47.31762" lon="-2.333">
        <ele>28</ele>
        <time>2019-01-10T10:29:49.000Z</time>
      </trkpt>
      <trkpt lat="47.3176" lon="-2.33297">
        <ele>28.39999961853</ele>
        <time>2019-01-10T10:29:50.000Z</time>
      </trkpt>
      <trkpt lat="47.31754" lon="-2.33285">
        <ele>28.39999961853</ele>
        <time>2019-01-10T10:29:54.000Z</time>
      </trkpt>
      <trkpt lat="47.31754" lon="-2.33281">
        <ele>28.39999961853</ele>
        <time>2019-01-10T10:29:55.000Z</time>
      </trkpt>
      <trkpt lat="47.31752" lon="-2.33266">
        <ele>28.39999961853</ele>
        <time>2019-01-10T10:29:58.000Z</time>
      </trkpt>
      <trkpt lat="47.3175" lon="-2.33261">
        <ele>28.39999961853</ele>
        <time>2019-01-10T10:29:59.000Z</time>
      </trkpt>
      <trkpt lat="47.31745" lon="-2.33256">
        <ele>28.39999961853</ele>
        <time>2019-01-10T10:30:01.000Z</time>
      </trkpt>
      <trkpt lat="47.31736" lon="-2.33255">
        <ele>28.39999961853</ele>
        <time>2019-01-10T10:30:04.000Z</time>
      </trkpt>
      <trkpt lat="47.3173" lon="-2.33256">
        <ele>28.39999961853</ele>
        <time>2019-01-10T10:30:06.000Z</time>
      </trkpt>
      <trkpt lat="47.31716" lon="-2.33259">
        <ele>28.799999237061</ele>
        <time>2019-01-10T10:30:10.000Z</time>
      </trkpt>
      <trkpt lat="47.31713" lon="-2.33259">
        <ele>29.200000762939</ele>
        <time>2019-01-10T10:30:11.000Z</time>
      </trkpt>
      <trkpt lat="47.3171" lon="-2.3326">
        <ele>29.60000038147</ele>
        <time>2019-01-10T10:30:12.000Z</time>
      </trkpt>
      <trkpt lat="47.31707" lon="-2.33261">
        <ele>30</ele>
        <time>2019-01-10T10:30:13.000Z</time>
      </trkpt>
      <trkpt lat="47.31705" lon="-2.33261">
        <ele>30.39999961853</ele>
        <time>2019-01-10T10:30:14.000Z</time>
      </trkpt>
      <trkpt lat="47.31695" lon="-2.33265">
        <ele>30.39999961853</ele>
        <time>2019-01-10T10:30:17.000Z</time>
      </trkpt>
      <trkpt lat="47.31687" lon="-2.33269">
        <ele>30.799999237061</ele>
        <time>2019-01-10T10:30:19.000Z</time>
      </trkpt>
      <trkpt lat="47.31683" lon="-2.33271">
        <ele>31.39999961853</ele>
        <time>2019-01-10T10:30:20.000Z</time>
      </trkpt>
      <trkpt lat="47.31679" lon="-2.33273">
        <ele>31.799999237061</ele>
        <time>2019-01-10T10:30:21.000Z</time>
      </trkpt>
      <trkpt lat="47.31675" lon="-2.33274">
        <ele>32.200000762939</ele>
        <time>2019-01-10T10:30:22.000Z</time>
      </trkpt>
      <trkpt lat="47.31671" lon="-2.33275">
        <ele>32.599998474121</ele>
        <time>2019-01-10T10:30:23.000Z</time>
      </trkpt>
      <trkpt lat="47.31666" lon="-2.33277">
        <ele>32.599998474121</ele>
        <time>2019-01-10T10:30:24.000Z</time>
      </trkpt>
      <trkpt lat="47.31635" lon="-2.33291">
        <ele>32.599998474121</ele>
        <time>2019-01-10T10:30:31.000Z</time>
      </trkpt>
      <trkpt lat="47.31626" lon="-2.33296">
        <ele>32.599998474121</ele>
        <time>2019-01-10T10:30:33.000Z</time>
      </trkpt>
      <trkpt lat="47.31621" lon="-2.33299">
        <ele>33</ele>
        <time>2019-01-10T10:30:34.000Z</time>
      </trkpt>
      <trkpt lat="47.31616" lon="-2.33301">
        <ele>33.400001525879</ele>
        <time>2019-01-10T10:30:35.000Z</time>
      </trkpt>
      <trkpt lat="47.31612" lon="-2.33303">
        <ele>33.799999237061</ele>
        <time>2019-01-10T10:30:36.000Z</time>
      </trkpt>
      <trkpt lat="47.31607" lon="-2.33306">
        <ele>34.200000762939</ele>
        <time>2019-01-10T10:30:37.000Z</time>
      </trkpt>
      <trkpt lat="47.31602" lon="-2.33309">
        <ele>34.599998474121</ele>
        <time>2019-01-10T10:30:38.000Z</time>
      </trkpt>
      <trkpt lat="47.31579" lon="-2.33322">
        <ele>34.599998474121</ele>
        <time>2019-01-10T10:30:43.000Z</time>
      </trkpt>
      <trkpt lat="47.31542" lon="-2.33339">
        <ele>34.599998474121</ele>
        <time>2019-01-10T10:30:50.000Z</time>
      </trkpt>
      <trkpt lat="47.31508" lon="-2.3336">
        <ele>34.599998474121</ele>
        <time>2019-01-10T10:30:56.000Z</time>
      </trkpt>
      <trkpt lat="47.31496" lon="-2.33367">
        <ele>34.599998474121</ele>
        <time>2019-01-10T10:30:58.000Z</time>
      </trkpt>
      <trkpt lat="47.31484" lon="-2.33367">
        <ele>34.599998474121</ele>
        <time>2019-01-10T10:31:00.000Z</time>
      </trkpt>
      <trkpt lat="47.3147" lon="-2.33349">
        <ele>34.599998474121</ele>
        <time>2019-01-10T10:31:03.000Z</time>
      </trkpt>
      <trkpt lat="47.31466" lon="-2.33341">
        <ele>34.599998474121</ele>
        <time>2019-01-10T10:31:04.000Z</time>
      </trkpt>
      <trkpt lat="47.31454" lon="-2.33318">
        <ele>34.599998474121</ele>
        <time>2019-01-10T10:31:07.000Z</time>
      </trkpt>
      <trkpt lat="47.31446" lon="-2.33302">
        <ele>34.599998474121</ele>
        <time>2019-01-10T10:31:09.000Z</time>
      </trkpt>
      <trkpt lat="47.31435" lon="-2.33289">
        <ele>34.599998474121</ele>
        <time>2019-01-10T10:31:11.000Z</time>
      </trkpt>
      <trkpt lat="47.31423" lon="-2.33277">
        <ele>34.599998474121</ele>
        <time>2019-01-10T10:31:13.000Z</time>
      </trkpt>
      <trkpt lat="47.31378" lon="-2.33243">
        <ele>34.599998474121</ele>
        <time>2019-01-10T10:31:20.000Z</time>
      </trkpt>
      <trkpt lat="47.31334" lon="-2.33208">
        <ele>34.599998474121</ele>
        <time>2019-01-10T10:31:27.000Z</time>
      </trkpt>
      <trkpt lat="47.31317" lon="-2.33193">
        <ele>34.200000762939</ele>
        <time>2019-01-10T10:31:30.000Z</time>
      </trkpt>
      <trkpt lat="47.31311" lon="-2.33188">
        <ele>33.799999237061</ele>
        <time>2019-01-10T10:31:31.000Z</time>
      </trkpt>
      <trkpt lat="47.31306" lon="-2.33184">
        <ele>33.400001525879</ele>
        <time>2019-01-10T10:31:32.000Z</time>
      </trkpt>
      <trkpt lat="47.313" lon="-2.33179">
        <ele>33</ele>
        <time>2019-01-10T10:31:33.000Z</time>
      </trkpt>
      <trkpt lat="47.31295" lon="-2.33174">
        <ele>32.599998474121</ele>
        <time>2019-01-10T10:31:34.000Z</time>
      </trkpt>
      <trkpt lat="47.31278" lon="-2.33163">
        <ele>32.599998474121</ele>
        <time>2019-01-10T10:31:37.000Z</time>
      </trkpt>
      <trkpt lat="47.31272" lon="-2.33161">
        <ele>32.599998474121</ele>
        <time>2019-01-10T10:31:38.000Z</time>
      </trkpt>
      <trkpt lat="47.31233" lon="-2.33152">
        <ele>32.599998474121</ele>
        <time>2019-01-10T10:31:44.000Z</time>
      </trkpt>
      <trkpt lat="47.31213" lon="-2.33153">
        <ele>32.599998474121</ele>
        <time>2019-01-10T10:31:47.000Z</time>
      </trkpt>
      <trkpt lat="47.31207" lon="-2.33156">
        <ele>32.599998474121</ele>
        <time>2019-01-10T10:31:48.000Z</time>
      </trkpt>
      <trkpt lat="47.31172" lon="-2.33175">
        <ele>32.599998474121</ele>
        <time>2019-01-10T10:31:54.000Z</time>
      </trkpt>
      <trkpt lat="47.3114" lon="-2.33193">
        <ele>32.599998474121</ele>
        <time>2019-01-10T10:32:00.000Z</time>
      </trkpt>
      <trkpt lat="47.31108" lon="-2.33213">
        <ele>32.599998474121</ele>
        <time>2019-01-10T10:32:06.000Z</time>
      </trkpt>
      <trkpt lat="47.31103" lon="-2.33234">
        <ele>32.599998474121</ele>
        <time>2019-01-10T10:32:09.000Z</time>
      </trkpt>
      <trkpt lat="47.31104" lon="-2.33254">
        <ele>32.599998474121</ele>
        <time>2019-01-10T10:32:13.000Z</time>
      </trkpt>
      <trkpt lat="47.31102" lon="-2.33273">
        <ele>32.599998474121</ele>
        <time>2019-01-10T10:32:18.000Z</time>
      </trkpt>
      <trkpt lat="47.31101" lon="-2.33298">
        <ele>32.599998474121</ele>
        <time>2019-01-10T10:32:24.000Z</time>
      </trkpt>
      <trkpt lat="47.31101" lon="-2.33305">
        <ele>32.599998474121</ele>
        <time>2019-01-10T10:32:26.000Z</time>
      </trkpt>
      <trkpt lat="47.31101" lon="-2.33318">
        <ele>32.599998474121</ele>
        <time>2019-01-10T10:32:29.000Z</time>
      </trkpt>
      <trkpt lat="47.311" lon="-2.33347">
        <ele>32.599998474121</ele>
        <time>2019-01-10T10:32:34.000Z</time>
      </trkpt>
      <trkpt lat="47.311" lon="-2.33375">
        <ele>33</ele>
        <time>2019-01-10T10:32:39.000Z</time>
      </trkpt>
      <trkpt lat="47.311" lon="-2.33381">
        <ele>33.400001525879</ele>
        <time>2019-01-10T10:32:40.000Z</time>
      </trkpt>
      <trkpt lat="47.31099" lon="-2.33387">
        <ele>33.799999237061</ele>
        <time>2019-01-10T10:32:41.000Z</time>
      </trkpt>
      <trkpt lat="47.31099" lon="-2.33395">
        <ele>34.200000762939</ele>
        <time>2019-01-10T10:32:42.000Z</time>
      </trkpt>
      <trkpt lat="47.311" lon="-2.33402">
        <ele>34.599998474121</ele>
        <time>2019-01-10T10:32:43.000Z</time>
      </trkpt>
      <trkpt lat="47.31101" lon="-2.33419">
        <ele>34.599998474121</ele>
        <time>2019-01-10T10:32:45.000Z</time>
      </trkpt>
      <trkpt lat="47.31102" lon="-2.3346">
        <ele>34.599998474121</ele>
        <time>2019-01-10T10:32:50.000Z</time>
      </trkpt>
      <trkpt lat="47.31105" lon="-2.33476">
        <ele>34.599998474121</ele>
        <time>2019-01-10T10:32:52.000Z</time>
      </trkpt>
      <trkpt lat="47.31113" lon="-2.33528">
        <ele>35</ele>
        <time>2019-01-10T10:32:59.000Z</time>
      </trkpt>
      <trkpt lat="47.31115" lon="-2.33536">
        <ele>35.400001525879</ele>
        <time>2019-01-10T10:33:00.000Z</time>
      </trkpt>
      <trkpt lat="47.31115" lon="-2.33544">
        <ele>35.799999237061</ele>
        <time>2019-01-10T10:33:01.000Z</time>
      </trkpt>
      <trkpt lat="47.31116" lon="-2.33552">
        <ele>36.200000762939</ele>
        <time>2019-01-10T10:33:02.000Z</time>
      </trkpt>
      <trkpt lat="47.31116" lon="-2.33559">
        <ele>36.599998474121</ele>
        <time>2019-01-10T10:33:03.000Z</time>
      </trkpt>
      <trkpt lat="47.31117" lon="-2.33566">
        <ele>36.599998474121</ele>
        <time>2019-01-10T10:33:04.000Z</time>
      </trkpt>
      <trkpt lat="47.31116" lon="-2.33602">
        <ele>36.599998474121</ele>
        <time>2019-01-10T10:33:08.000Z</time>
      </trkpt>
      <trkpt lat="47.31115" lon="-2.33629">
        <ele>36.599998474121</ele>
        <time>2019-01-10T10:33:11.000Z</time>
      </trkpt>
      <trkpt lat="47.31112" lon="-2.33657">
        <ele>36.599998474121</ele>
        <time>2019-01-10T10:33:14.000Z</time>
      </trkpt>
      <trkpt lat="47.31103" lon="-2.3372">
        <ele>36.599998474121</ele>
        <time>2019-01-10T10:33:21.000Z</time>
      </trkpt>
      <trkpt lat="47.311" lon="-2.33735">
        <ele>36.599998474121</ele>
        <time>2019-01-10T10:33:23.000Z</time>
      </trkpt>
      <trkpt lat="47.31089" lon="-2.33763">
        <ele>36.599998474121</ele>
        <time>2019-01-10T10:33:27.000Z</time>
      </trkpt>
      <trkpt lat="47.31086" lon="-2.3377">
        <ele>36.599998474121</ele>
        <time>2019-01-10T10:33:28.000Z</time>
      </trkpt>
      <trkpt lat="47.31073" lon="-2.338">
        <ele>36.599998474121</ele>
        <time>2019-01-10T10:33:32.000Z</time>
      </trkpt>
      <trkpt lat="47.3107" lon="-2.33808">
        <ele>36.599998474121</ele>
        <time>2019-01-10T10:33:33.000Z</time>
      </trkpt>
      <trkpt lat="47.31069" lon="-2.33817">
        <ele>36.599998474121</ele>
        <time>2019-01-10T10:33:34.000Z</time>
      </trkpt>
      <trkpt lat="47.31066" lon="-2.33851">
        <ele>36.599998474121</ele>
        <time>2019-01-10T10:33:38.000Z</time>
      </trkpt>
      <trkpt lat="47.31064" lon="-2.33918">
        <ele>36.599998474121</ele>
        <time>2019-01-10T10:33:46.000Z</time>
      </trkpt>
      <trkpt lat="47.31064" lon="-2.33972">
        <ele>36.599998474121</ele>
        <time>2019-01-10T10:33:52.000Z</time>
      </trkpt>
      <trkpt lat="47.31068" lon="-2.34045">
        <ele>36.599998474121</ele>
        <time>2019-01-10T10:34:00.000Z</time>
      </trkpt>
      <trkpt lat="47.31071" lon="-2.34064">
        <ele>36.599998474121</ele>
        <time>2019-01-10T10:34:02.000Z</time>
      </trkpt>
      <trkpt lat="47.3108" lon="-2.34091">
        <ele>36.599998474121</ele>
        <time>2019-01-10T10:34:05.000Z</time>
      </trkpt>
      <trkpt lat="47.31096" lon="-2.34127">
        <ele>36.200000762939</ele>
        <time>2019-01-10T10:34:09.000Z</time>
      </trkpt>
      <trkpt lat="47.31101" lon="-2.34137">
        <ele>35.799999237061</ele>
        <time>2019-01-10T10:34:10.000Z</time>
      </trkpt>
      <trkpt lat="47.31106" lon="-2.34147">
        <ele>35.200000762939</ele>
        <time>2019-01-10T10:34:11.000Z</time>
      </trkpt>
      <trkpt lat="47.31111" lon="-2.34157">
        <ele>34.799999237061</ele>
        <time>2019-01-10T10:34:12.000Z</time>
      </trkpt>
      <trkpt lat="47.31116" lon="-2.34167">
        <ele>34.400001525879</ele>
        <time>2019-01-10T10:34:13.000Z</time>
      </trkpt>
      <trkpt lat="47.31122" lon="-2.34177">
        <ele>34</ele>
        <time>2019-01-10T10:34:14.000Z</time>
      </trkpt>
      <trkpt lat="47.31127" lon="-2.34187">
        <ele>33.400001525879</ele>
        <time>2019-01-10T10:34:15.000Z</time>
      </trkpt>
      <trkpt lat="47.31132" lon="-2.34197">
        <ele>33</ele>
        <time>2019-01-10T10:34:16.000Z</time>
      </trkpt>
      <trkpt lat="47.31138" lon="-2.34208">
        <ele>32.599998474121</ele>
        <time>2019-01-10T10:34:17.000Z</time>
      </trkpt>
      <trkpt lat="47.31143" lon="-2.34219">
        <ele>32</ele>
        <time>2019-01-10T10:34:18.000Z</time>
      </trkpt>
      <trkpt lat="47.31149" lon="-2.3423">
        <ele>31.39999961853</ele>
        <time>2019-01-10T10:34:19.000Z</time>
      </trkpt>
      <trkpt lat="47.31155" lon="-2.3424">
        <ele>30.200000762939</ele>
        <time>2019-01-10T10:34:20.000Z</time>
      </trkpt>
      <trkpt lat="47.3116" lon="-2.34252">
        <ele>29.60000038147</ele>
        <time>2019-01-10T10:34:21.000Z</time>
      </trkpt>
      <trkpt lat="47.31175" lon="-2.34286">
        <ele>29.60000038147</ele>
        <time>2019-01-10T10:34:24.000Z</time>
      </trkpt>
      <trkpt lat="47.31189" lon="-2.34317">
        <ele>29.200000762939</ele>
        <time>2019-01-10T10:34:27.000Z</time>
      </trkpt>
      <trkpt lat="47.31195" lon="-2.34325">
        <ele>28.799999237061</ele>
        <time>2019-01-10T10:34:28.000Z</time>
      </trkpt>
      <trkpt lat="47.31201" lon="-2.34332">
        <ele>28.39999961853</ele>
        <time>2019-01-10T10:34:29.000Z</time>
      </trkpt>
      <trkpt lat="47.31208" lon="-2.34338">
        <ele>28</ele>
        <time>2019-01-10T10:34:30.000Z</time>
      </trkpt>
      <trkpt lat="47.31214" lon="-2.34342">
        <ele>27.60000038147</ele>
        <time>2019-01-10T10:34:31.000Z</time>
      </trkpt>
      <trkpt lat="47.31228" lon="-2.34348">
        <ele>27.60000038147</ele>
        <time>2019-01-10T10:34:33.000Z</time>
      </trkpt>
      <trkpt lat="47.31234" lon="-2.3435">
        <ele>27.60000038147</ele>
        <time>2019-01-10T10:34:34.000Z</time>
      </trkpt>
      <trkpt lat="47.31252" lon="-2.34363">
        <ele>27.60000038147</ele>
        <time>2019-01-10T10:34:37.000Z</time>
      </trkpt>
      <trkpt lat="47.31256" lon="-2.34369">
        <ele>27.60000038147</ele>
        <time>2019-01-10T10:34:38.000Z</time>
      </trkpt>
      <trkpt lat="47.31264" lon="-2.34391">
        <ele>27.60000038147</ele>
        <time>2019-01-10T10:34:41.000Z</time>
      </trkpt>
      <trkpt lat="47.31268" lon="-2.34408">
        <ele>27.60000038147</ele>
        <time>2019-01-10T10:34:43.000Z</time>
      </trkpt>
      <trkpt lat="47.3127" lon="-2.34424">
        <ele>28.39999961853</ele>
        <time>2019-01-10T10:34:45.000Z</time>
      </trkpt>
      <trkpt lat="47.31271" lon="-2.34433">
        <ele>28.799999237061</ele>
        <time>2019-01-10T10:34:46.000Z</time>
      </trkpt>
      <trkpt lat="47.31273" lon="-2.34442">
        <ele>29.200000762939</ele>
        <time>2019-01-10T10:34:47.000Z</time>
      </trkpt>
      <trkpt lat="47.31274" lon="-2.34452">
        <ele>29.60000038147</ele>
        <time>2019-01-10T10:34:48.000Z</time>
      </trkpt>
      <trkpt lat="47.31279" lon="-2.34497">
        <ele>29.60000038147</ele>
        <time>2019-01-10T10:34:53.000Z</time>
      </trkpt>
      <trkpt lat="47.31282" lon="-2.34534">
        <ele>30</ele>
        <time>2019-01-10T10:34:57.000Z</time>
      </trkpt>
      <trkpt lat="47.31283" lon="-2.34544">
        <ele>30.39999961853</ele>
        <time>2019-01-10T10:34:58.000Z</time>
      </trkpt>
      <trkpt lat="47.31285" lon="-2.34553">
        <ele>31</ele>
        <time>2019-01-10T10:34:59.000Z</time>
      </trkpt>
      <trkpt lat="47.31285" lon="-2.34562">
        <ele>31.39999961853</ele>
        <time>2019-01-10T10:35:00.000Z</time>
      </trkpt>
      <trkpt lat="47.31287" lon="-2.34572">
        <ele>31.799999237061</ele>
        <time>2019-01-10T10:35:01.000Z</time>
      </trkpt>
      <trkpt lat="47.3129" lon="-2.34614">
        <ele>31.799999237061</ele>
        <time>2019-01-10T10:35:06.000Z</time>
      </trkpt>
      <trkpt lat="47.31291" lon="-2.34622">
        <ele>32.200000762939</ele>
        <time>2019-01-10T10:35:07.000Z</time>
      </trkpt>
      <trkpt lat="47.31292" lon="-2.34629">
        <ele>32.599998474121</ele>
        <time>2019-01-10T10:35:08.000Z</time>
      </trkpt>
      <trkpt lat="47.31293" lon="-2.34637">
        <ele>33.400001525879</ele>
        <time>2019-01-10T10:35:09.000Z</time>
      </trkpt>
      <trkpt lat="47.31294" lon="-2.34644">
        <ele>33.799999237061</ele>
        <time>2019-01-10T10:35:10.000Z</time>
      </trkpt>
      <trkpt lat="47.31295" lon="-2.34658">
        <ele>33.799999237061</ele>
        <time>2019-01-10T10:35:12.000Z</time>
      </trkpt>
      <trkpt lat="47.31295" lon="-2.34665">
        <ele>34.200000762939</ele>
        <time>2019-01-10T10:35:13.000Z</time>
      </trkpt>
      <trkpt lat="47.31294" lon="-2.34673">
        <ele>34.599998474121</ele>
        <time>2019-01-10T10:35:14.000Z</time>
      </trkpt>
      <trkpt lat="47.31292" lon="-2.34679">
        <ele>35.200000762939</ele>
        <time>2019-01-10T10:35:15.000Z</time>
      </trkpt>
      <trkpt lat="47.31289" lon="-2.34685">
        <ele>35.599998474121</ele>
        <time>2019-01-10T10:35:16.000Z</time>
      </trkpt>
      <trkpt lat="47.31285" lon="-2.3469">
        <ele>36</ele>
        <time>2019-01-10T10:35:17.000Z</time>
      </trkpt>
      <trkpt lat="47.31282" lon="-2.34695">
        <ele>36</ele>
        <time>2019-01-10T10:35:18.000Z</time>
      </trkpt>
      <trkpt lat="47.31279" lon="-2.347">
        <ele>36</ele>
        <time>2019-01-10T10:35:19.000Z</time>
      </trkpt>
      <trkpt lat="47.31279" lon="-2.34707">
        <ele>36</ele>
        <time>2019-01-10T10:35:20.000Z</time>
      </trkpt>
      <trkpt lat="47.31282" lon="-2.34736">
        <ele>36</ele>
        <time>2019-01-10T10:35:24.000Z</time>
      </trkpt>
      <trkpt lat="47.31285" lon="-2.34751">
        <ele>36</ele>
        <time>2019-01-10T10:35:26.000Z</time>
      </trkpt>
      <trkpt lat="47.31289" lon="-2.34774">
        <ele>36</ele>
        <time>2019-01-10T10:35:29.000Z</time>
      </trkpt>
      <trkpt lat="47.31297" lon="-2.34824">
        <ele>36</ele>
        <time>2019-01-10T10:35:35.000Z</time>
      </trkpt>
      <trkpt lat="47.31298" lon="-2.34833">
        <ele>36</ele>
        <time>2019-01-10T10:35:36.000Z</time>
      </trkpt>
      <trkpt lat="47.31301" lon="-2.34841">
        <ele>36</ele>
        <time>2019-01-10T10:35:37.000Z</time>
      </trkpt>
      <trkpt lat="47.31309" lon="-2.34874">
        <ele>36</ele>
        <time>2019-01-10T10:35:41.000Z</time>
      </trkpt>
      <trkpt lat="47.31329" lon="-2.34935">
        <ele>36</ele>
        <time>2019-01-10T10:35:48.000Z</time>
      </trkpt>
      <trkpt lat="47.31343" lon="-2.34999">
        <ele>36</ele>
        <time>2019-01-10T10:35:55.000Z</time>
      </trkpt>
      <trkpt lat="47.31343" lon="-2.35008">
        <ele>36</ele>
        <time>2019-01-10T10:35:56.000Z</time>
      </trkpt>
      <trkpt lat="47.31345" lon="-2.35035">
        <ele>36</ele>
        <time>2019-01-10T10:35:59.000Z</time>
      </trkpt>
      <trkpt lat="47.31345" lon="-2.35043">
        <ele>36</ele>
        <time>2019-01-10T10:36:00.000Z</time>
      </trkpt>
      <trkpt lat="47.31345" lon="-2.35115">
        <ele>36</ele>
        <time>2019-01-10T10:36:08.000Z</time>
      </trkpt>
      <trkpt lat="47.31342" lon="-2.35181">
        <ele>36</ele>
        <time>2019-01-10T10:36:15.000Z</time>
      </trkpt>
      <trkpt lat="47.31342" lon="-2.35199">
        <ele>36</ele>
        <time>2019-01-10T10:36:17.000Z</time>
      </trkpt>
      <trkpt lat="47.31342" lon="-2.35225">
        <ele>36</ele>
        <time>2019-01-10T10:36:20.000Z</time>
      </trkpt>
      <trkpt lat="47.31341" lon="-2.35234">
        <ele>36</ele>
        <time>2019-01-10T10:36:21.000Z</time>
      </trkpt>
      <trkpt lat="47.31341" lon="-2.35276">
        <ele>36</ele>
        <time>2019-01-10T10:36:26.000Z</time>
      </trkpt>
      <trkpt lat="47.3134" lon="-2.35295">
        <ele>36</ele>
        <time>2019-01-10T10:36:28.000Z</time>
      </trkpt>
      <trkpt lat="47.31339" lon="-2.35321">
        <ele>36</ele>
        <time>2019-01-10T10:36:31.000Z</time>
      </trkpt>
      <trkpt lat="47.31339" lon="-2.35348">
        <ele>36</ele>
        <time>2019-01-10T10:36:34.000Z</time>
      </trkpt>
      <trkpt lat="47.31339" lon="-2.35364">
        <ele>36</ele>
        <time>2019-01-10T10:36:36.000Z</time>
      </trkpt>
      <trkpt lat="47.31341" lon="-2.35416">
        <ele>36</ele>
        <time>2019-01-10T10:36:42.000Z</time>
      </trkpt>
      <trkpt lat="47.31341" lon="-2.35427">
        <ele>36</ele>
        <time>2019-01-10T10:36:43.000Z</time>
      </trkpt>
      <trkpt lat="47.31341" lon="-2.35454">
        <ele>36</ele>
        <time>2019-01-10T10:36:46.000Z</time>
      </trkpt>
      <trkpt lat="47.31341" lon="-2.3548">
        <ele>36</ele>
        <time>2019-01-10T10:36:49.000Z</time>
      </trkpt>
      <trkpt lat="47.3134" lon="-2.35499">
        <ele>36</ele>
        <time>2019-01-10T10:36:51.000Z</time>
      </trkpt>
      <trkpt lat="47.31338" lon="-2.35513">
        <ele>36</ele>
        <time>2019-01-10T10:36:53.000Z</time>
      </trkpt>
      <trkpt lat="47.31337" lon="-2.35524">
        <ele>36</ele>
        <time>2019-01-10T10:36:55.000Z</time>
      </trkpt>
      <trkpt lat="47.31338" lon="-2.3554">
        <ele>36</ele>
        <time>2019-01-10T10:36:59.000Z</time>
      </trkpt>
      <trkpt lat="47.3134" lon="-2.35543">
        <ele>36</ele>
        <time>2019-01-10T10:37:01.000Z</time>
      </trkpt>
      <trkpt lat="47.31341" lon="-2.35544">
        <ele>36</ele>
        <time>2019-01-10T10:37:03.000Z</time>
      </trkpt>
      <trkpt lat="47.31343" lon="-2.35544">
        <ele>36</ele>
        <time>2019-01-10T10:37:06.000Z</time>
      </trkpt>
      <trkpt lat="47.31343" lon="-2.35544">
        <ele>36</ele>
        <time>2019-01-10T10:38:33.000Z</time>
      </trkpt>
      <trkpt lat="47.31345" lon="-2.35542">
        <ele>36</ele>
        <time>2019-01-10T10:38:36.000Z</time>
      </trkpt>
      <trkpt lat="47.3135" lon="-2.35539">
        <ele>36</ele>
        <time>2019-01-10T10:38:41.000Z</time>
      </trkpt>
      <trkpt lat="47.31358" lon="-2.35537">
        <ele>36</ele>
        <time>2019-01-10T10:39:49.000Z</time>
      </trkpt>
      <trkpt lat="47.31372" lon="-2.3553">
        <ele>36</ele>
        <time>2019-01-10T10:39:54.000Z</time>
      </trkpt>
      <trkpt lat="47.31389" lon="-2.3553">
        <ele>36</ele>
        <time>2019-01-10T10:39:58.000Z</time>
      </trkpt>
      <trkpt lat="47.31423" lon="-2.35529">
        <ele>36</ele>
        <time>2019-01-10T10:40:05.000Z</time>
      </trkpt>
      <trkpt lat="47.31449" lon="-2.35526">
        <ele>36</ele>
        <time>2019-01-10T10:40:11.000Z</time>
      </trkpt>
      <trkpt lat="47.31463" lon="-2.35522">
        <ele>36</ele>
        <time>2019-01-10T10:40:16.000Z</time>
      </trkpt>
      <trkpt lat="47.31473" lon="-2.35512">
        <ele>36</ele>
        <time>2019-01-10T10:40:20.000Z</time>
      </trkpt>
      <trkpt lat="47.31481" lon="-2.35489">
        <ele>36</ele>
        <time>2019-01-10T10:40:25.000Z</time>
      </trkpt>
      <trkpt lat="47.31484" lon="-2.35478">
        <ele>36</ele>
        <time>2019-01-10T10:40:27.000Z</time>
      </trkpt>
      <trkpt lat="47.31487" lon="-2.35459">
        <ele>36</ele>
        <time>2019-01-10T10:40:30.000Z</time>
      </trkpt>
      <trkpt lat="47.31489" lon="-2.35453">
        <ele>36</ele>
        <time>2019-01-10T10:40:31.000Z</time>
      </trkpt>
      <trkpt lat="47.31497" lon="-2.35432">
        <ele>36</ele>
        <time>2019-01-10T10:40:34.000Z</time>
      </trkpt>
      <trkpt lat="47.3151" lon="-2.35419">
        <ele>36</ele>
        <time>2019-01-10T10:40:37.000Z</time>
      </trkpt>
      <trkpt lat="47.3152" lon="-2.35411">
        <ele>36</ele>
        <time>2019-01-10T10:40:39.000Z</time>
      </trkpt>
      <trkpt lat="47.31535" lon="-2.354">
        <ele>35.599998474121</ele>
        <time>2019-01-10T10:40:42.000Z</time>
      </trkpt>
      <trkpt lat="47.31541" lon="-2.35397">
        <ele>35.200000762939</ele>
        <time>2019-01-10T10:40:43.000Z</time>
      </trkpt>
      <trkpt lat="47.31546" lon="-2.35394">
        <ele>34.799999237061</ele>
        <time>2019-01-10T10:40:44.000Z</time>
      </trkpt>
      <trkpt lat="47.31551" lon="-2.3539">
        <ele>34.200000762939</ele>
        <time>2019-01-10T10:40:45.000Z</time>
      </trkpt>
      <trkpt lat="47.31557" lon="-2.35387">
        <ele>33.799999237061</ele>
        <time>2019-01-10T10:40:46.000Z</time>
      </trkpt>
      <trkpt lat="47.31562" lon="-2.35384">
        <ele>33.799999237061</ele>
        <time>2019-01-10T10:40:47.000Z</time>
      </trkpt>
      <trkpt lat="47.31587" lon="-2.35369">
        <ele>33.799999237061</ele>
        <time>2019-01-10T10:40:52.000Z</time>
      </trkpt>
      <trkpt lat="47.31592" lon="-2.35367">
        <ele>33.799999237061</ele>
        <time>2019-01-10T10:40:53.000Z</time>
      </trkpt>
      <trkpt lat="47.31606" lon="-2.35362">
        <ele>33.799999237061</ele>
        <time>2019-01-10T10:40:56.000Z</time>
      </trkpt>
      <trkpt lat="47.31623" lon="-2.35364">
        <ele>33.799999237061</ele>
        <time>2019-01-10T10:40:59.000Z</time>
      </trkpt>
      <trkpt lat="47.3163" lon="-2.35366">
        <ele>33.799999237061</ele>
        <time>2019-01-10T10:41:00.000Z</time>
      </trkpt>
      <trkpt lat="47.31657" lon="-2.35375">
        <ele>33.799999237061</ele>
        <time>2019-01-10T10:41:04.000Z</time>
      </trkpt>
      <trkpt lat="47.31684" lon="-2.35375">
        <ele>33.799999237061</ele>
        <time>2019-01-10T10:41:09.000Z</time>
      </trkpt>
      <trkpt lat="47.31696" lon="-2.35373">
        <ele>33.799999237061</ele>
        <time>2019-01-10T10:41:13.000Z</time>
      </trkpt>
      <trkpt lat="47.31707" lon="-2.35371">
        <ele>33.799999237061</ele>
        <time>2019-01-10T10:41:18.000Z</time>
      </trkpt>
      <trkpt lat="47.31712" lon="-2.35369">
        <ele>33.799999237061</ele>
        <time>2019-01-10T10:41:21.000Z</time>
      </trkpt>
      <trkpt lat="47.31715" lon="-2.35368">
        <ele>33.799999237061</ele>
        <time>2019-01-10T10:41:23.000Z</time>
      </trkpt>
      <trkpt lat="47.31728" lon="-2.35363">
        <ele>33.799999237061</ele>
        <time>2019-01-10T10:41:29.000Z</time>
      </trkpt>
      <trkpt lat="47.3173" lon="-2.35363">
        <ele>33.400001525879</ele>
        <time>2019-01-10T10:41:30.000Z</time>
      </trkpt>
      <trkpt lat="47.31731" lon="-2.35362">
        <ele>33</ele>
        <time>2019-01-10T10:41:31.000Z</time>
      </trkpt>
      <trkpt lat="47.31732" lon="-2.35361">
        <ele>32.599998474121</ele>
        <time>2019-01-10T10:41:32.000Z</time>
      </trkpt>
      <trkpt lat="47.31733" lon="-2.3536">
        <ele>32.200000762939</ele>
        <time>2019-01-10T10:41:33.000Z</time>
      </trkpt>
      <trkpt lat="47.31735" lon="-2.3536">
        <ele>31.799999237061</ele>
        <time>2019-01-10T10:41:34.000Z</time>
      </trkpt>
      <trkpt lat="47.31737" lon="-2.3536">
        <ele>31.799999237061</ele>
        <time>2019-01-10T10:41:35.000Z</time>
      </trkpt>
      <trkpt lat="47.3174" lon="-2.35363">
        <ele>31.799999237061</ele>
        <time>2019-01-10T10:41:37.000Z</time>
      </trkpt>
      <trkpt lat="47.31741" lon="-2.35364">
        <ele>31.799999237061</ele>
        <time>2019-01-10T10:41:38.000Z</time>
      </trkpt>
      <trkpt lat="47.31742" lon="-2.35373">
        <ele>31.799999237061</ele>
        <time>2019-01-10T10:41:42.000Z</time>
      </trkpt>
      <trkpt lat="47.31743" lon="-2.35375">
        <ele>31.799999237061</ele>
        <time>2019-01-10T10:41:43.000Z</time>
      </trkpt>
      <trkpt lat="47.31747" lon="-2.3538">
        <ele>31.799999237061</ele>
        <time>2019-01-10T10:41:46.000Z</time>
      </trkpt>
      <trkpt lat="47.31759" lon="-2.35391">
        <ele>31.799999237061</ele>
        <time>2019-01-10T10:41:51.000Z</time>
      </trkpt>
      <trkpt lat="47.31767" lon="-2.35397">
        <ele>31.39999961853</ele>
        <time>2019-01-10T10:41:54.000Z</time>
      </trkpt>
      <trkpt lat="47.31771" lon="-2.35403">
        <ele>31</ele>
        <time>2019-01-10T10:41:55.000Z</time>
      </trkpt>
      <trkpt lat="47.31774" lon="-2.35406">
        <ele>30.60000038147</ele>
        <time>2019-01-10T10:41:56.000Z</time>
      </trkpt>
      <trkpt lat="47.31777" lon="-2.35411">
        <ele>30.200000762939</ele>
        <time>2019-01-10T10:41:57.000Z</time>
      </trkpt>
      <trkpt lat="47.31781" lon="-2.3542">
        <ele>29.799999237061</ele>
        <time>2019-01-10T10:41:58.000Z</time>
      </trkpt>
      <trkpt lat="47.31789" lon="-2.35436">
        <ele>29.799999237061</ele>
        <time>2019-01-10T10:42:01.000Z</time>
      </trkpt>
      <trkpt lat="47.31791" lon="-2.3544">
        <ele>29.200000762939</ele>
        <time>2019-01-10T10:42:02.000Z</time>
      </trkpt>
      <trkpt lat="47.31794" lon="-2.35446">
        <ele>28.799999237061</ele>
        <time>2019-01-10T10:42:03.000Z</time>
      </trkpt>
      <trkpt lat="47.31797" lon="-2.35451">
        <ele>28</ele>
        <time>2019-01-10T10:42:05.000Z</time>
      </trkpt>
      <trkpt lat="47.31799" lon="-2.35455">
        <ele>27.60000038147</ele>
        <time>2019-01-10T10:42:06.000Z</time>
      </trkpt>
      <trkpt lat="47.318" lon="-2.35458">
        <ele>27.60000038147</ele>
        <time>2019-01-10T10:42:07.000Z</time>
      </trkpt>
      <trkpt lat="47.31807" lon="-2.3547">
        <ele>27.60000038147</ele>
        <time>2019-01-10T10:42:10.000Z</time>
      </trkpt>
      <trkpt lat="47.3181" lon="-2.35474">
        <ele>27.60000038147</ele>
        <time>2019-01-10T10:42:11.000Z</time>
      </trkpt>
      <trkpt lat="47.31817" lon="-2.35489">
        <ele>27.60000038147</ele>
        <time>2019-01-10T10:42:14.000Z</time>
      </trkpt>
      <trkpt lat="47.3182" lon="-2.35495">
        <ele>27.60000038147</ele>
        <time>2019-01-10T10:42:15.000Z</time>
      </trkpt>
      <trkpt lat="47.31831" lon="-2.3552">
        <ele>27.60000038147</ele>
        <time>2019-01-10T10:42:19.000Z</time>
      </trkpt>
      <trkpt lat="47.31832" lon="-2.35526">
        <ele>27.60000038147</ele>
        <time>2019-01-10T10:42:20.000Z</time>
      </trkpt>
      <trkpt lat="47.31825" lon="-2.35543">
        <ele>27.60000038147</ele>
        <time>2019-01-10T10:42:23.000Z</time>
      </trkpt>
      <trkpt lat="47.3182" lon="-2.35548">
        <ele>27.60000038147</ele>
        <time>2019-01-10T10:42:24.000Z</time>
      </trkpt>
      <trkpt lat="47.31813" lon="-2.35558">
        <ele>27.60000038147</ele>
        <time>2019-01-10T10:42:26.000Z</time>
      </trkpt>
      <trkpt lat="47.31808" lon="-2.35569">
        <ele>27.60000038147</ele>
        <time>2019-01-10T10:42:28.000Z</time>
      </trkpt>
      <trkpt lat="47.31799" lon="-2.35591">
        <ele>27.60000038147</ele>
        <time>2019-01-10T10:42:32.000Z</time>
      </trkpt>
      <trkpt lat="47.31795" lon="-2.35596">
        <ele>27.60000038147</ele>
        <time>2019-01-10T10:42:33.000Z</time>
      </trkpt>
      <trkpt lat="47.31785" lon="-2.3561">
        <ele>27.60000038147</ele>
        <time>2019-01-10T10:42:36.000Z</time>
      </trkpt>
      <trkpt lat="47.31783" lon="-2.35617">
        <ele>27.60000038147</ele>
        <time>2019-01-10T10:42:37.000Z</time>
      </trkpt>
      <trkpt lat="47.31783" lon="-2.35625">
        <ele>28</ele>
        <time>2019-01-10T10:42:38.000Z</time>
      </trkpt>
      <trkpt lat="47.31782" lon="-2.35632">
        <ele>28.39999961853</ele>
        <time>2019-01-10T10:42:39.000Z</time>
      </trkpt>
      <trkpt lat="47.31782" lon="-2.3564">
        <ele>28.799999237061</ele>
        <time>2019-01-10T10:42:40.000Z</time>
      </trkpt>
      <trkpt lat="47.31782" lon="-2.35647">
        <ele>29.200000762939</ele>
        <time>2019-01-10T10:42:41.000Z</time>
      </trkpt>
      <trkpt lat="47.31782" lon="-2.35654">
        <ele>29.60000038147</ele>
        <time>2019-01-10T10:42:42.000Z</time>
      </trkpt>
      <trkpt lat="47.31783" lon="-2.35676">
        <ele>29.60000038147</ele>
        <time>2019-01-10T10:42:45.000Z</time>
      </trkpt>
      <trkpt lat="47.31783" lon="-2.35684">
        <ele>29.60000038147</ele>
        <time>2019-01-10T10:42:46.000Z</time>
      </trkpt>
      <trkpt lat="47.31783" lon="-2.35705">
        <ele>30.200000762939</ele>
        <time>2019-01-10T10:42:49.000Z</time>
      </trkpt>
      <trkpt lat="47.31783" lon="-2.35711">
        <ele>30.60000038147</ele>
        <time>2019-01-10T10:42:50.000Z</time>
      </trkpt>
      <trkpt lat="47.31783" lon="-2.35717">
        <ele>31</ele>
        <time>2019-01-10T10:42:51.000Z</time>
      </trkpt>
      <trkpt lat="47.31782" lon="-2.35724">
        <ele>31.39999961853</ele>
        <time>2019-01-10T10:42:52.000Z</time>
      </trkpt>
      <trkpt lat="47.31782" lon="-2.3573">
        <ele>31.799999237061</ele>
        <time>2019-01-10T10:42:53.000Z</time>
      </trkpt>
      <trkpt lat="47.3178" lon="-2.35739">
        <ele>31.799999237061</ele>
        <time>2019-01-10T10:42:55.000Z</time>
      </trkpt>
      <trkpt lat="47.31783" lon="-2.35765">
        <ele>31.799999237061</ele>
        <time>2019-01-10T10:42:59.000Z</time>
      </trkpt>
      <trkpt lat="47.31785" lon="-2.35771">
        <ele>31.799999237061</ele>
        <time>2019-01-10T10:43:00.000Z</time>
      </trkpt>
      <trkpt lat="47.31788" lon="-2.35778">
        <ele>32.200000762939</ele>
        <time>2019-01-10T10:43:01.000Z</time>
      </trkpt>
      <trkpt lat="47.31791" lon="-2.35785">
        <ele>32.599998474121</ele>
        <time>2019-01-10T10:43:02.000Z</time>
      </trkpt>
      <trkpt lat="47.31793" lon="-2.3579">
        <ele>33</ele>
        <time>2019-01-10T10:43:03.000Z</time>
      </trkpt>
      <trkpt lat="47.31796" lon="-2.35795">
        <ele>33.400001525879</ele>
        <time>2019-01-10T10:43:04.000Z</time>
      </trkpt>
      <trkpt lat="47.318" lon="-2.358">
        <ele>33.799999237061</ele>
        <time>2019-01-10T10:43:05.000Z</time>
      </trkpt>
      <trkpt lat="47.31807" lon="-2.35808">
        <ele>33.799999237061</ele>
        <time>2019-01-10T10:43:07.000Z</time>
      </trkpt>
      <trkpt lat="47.31811" lon="-2.35814">
        <ele>33.799999237061</ele>
        <time>2019-01-10T10:43:08.000Z</time>
      </trkpt>
      <trkpt lat="47.31814" lon="-2.35819">
        <ele>33.799999237061</ele>
        <time>2019-01-10T10:43:09.000Z</time>
      </trkpt>
      <trkpt lat="47.31822" lon="-2.35832">
        <ele>33.799999237061</ele>
        <time>2019-01-10T10:43:12.000Z</time>
      </trkpt>
      <trkpt lat="47.31827" lon="-2.35855">
        <ele>33.799999237061</ele>
        <time>2019-01-10T10:43:16.000Z</time>
      </trkpt>
      <trkpt lat="47.31819" lon="-2.35873">
        <ele>33.799999237061</ele>
        <time>2019-01-10T10:43:19.000Z</time>
      </trkpt>
      <trkpt lat="47.31804" lon="-2.35883">
        <ele>33.799999237061</ele>
        <time>2019-01-10T10:43:23.000Z</time>
      </trkpt>
      <trkpt lat="47.31779" lon="-2.35902">
        <ele>33.799999237061</ele>
        <time>2019-01-10T10:43:29.000Z</time>
      </trkpt>
      <trkpt lat="47.31771" lon="-2.35907">
        <ele>33.799999237061</ele>
        <time>2019-01-10T10:43:31.000Z</time>
      </trkpt>
      <trkpt lat="47.31759" lon="-2.35914">
        <ele>33.799999237061</ele>
        <time>2019-01-10T10:43:34.000Z</time>
      </trkpt>
      <trkpt lat="47.31739" lon="-2.35924">
        <ele>33.799999237061</ele>
        <time>2019-01-10T10:43:39.000Z</time>
      </trkpt>
      <trkpt lat="47.3172" lon="-2.35936">
        <ele>34.200000762939</ele>
        <time>2019-01-10T10:43:44.000Z</time>
      </trkpt>
      <trkpt lat="47.31716" lon="-2.35939">
        <ele>34.599998474121</ele>
        <time>2019-01-10T10:43:45.000Z</time>
      </trkpt>
      <trkpt lat="47.31712" lon="-2.35941">
        <ele>35</ele>
        <time>2019-01-10T10:43:46.000Z</time>
      </trkpt>
      <trkpt lat="47.31708" lon="-2.35944">
        <ele>35.400001525879</ele>
        <time>2019-01-10T10:43:47.000Z</time>
      </trkpt>
      <trkpt lat="47.31704" lon="-2.35946">
        <ele>35.799999237061</ele>
        <time>2019-01-10T10:43:48.000Z</time>
      </trkpt>
      <trkpt lat="47.31689" lon="-2.35955">
        <ele>35.799999237061</ele>
        <time>2019-01-10T10:43:52.000Z</time>
      </trkpt>
      <trkpt lat="47.3166" lon="-2.35972">
        <ele>35.799999237061</ele>
        <time>2019-01-10T10:43:59.000Z</time>
      </trkpt>
      <trkpt lat="47.31648" lon="-2.35981">
        <ele>36.400001525879</ele>
        <time>2019-01-10T10:44:02.000Z</time>
      </trkpt>
      <trkpt lat="47.31645" lon="-2.35985">
        <ele>36.799999237061</ele>
        <time>2019-01-10T10:44:03.000Z</time>
      </trkpt>
      <trkpt lat="47.31642" lon="-2.35988">
        <ele>37.200000762939</ele>
        <time>2019-01-10T10:44:04.000Z</time>
      </trkpt>
      <trkpt lat="47.31638" lon="-2.35992">
        <ele>37.599998474121</ele>
        <time>2019-01-10T10:44:05.000Z</time>
      </trkpt>
      <trkpt lat="47.31634" lon="-2.35995">
        <ele>38</ele>
        <time>2019-01-10T10:44:06.000Z</time>
      </trkpt>
      <trkpt lat="47.31613" lon="-2.36019">
        <ele>38</ele>
        <time>2019-01-10T10:44:12.000Z</time>
      </trkpt>
      <trkpt lat="47.31592" lon="-2.3604">
        <ele>38</ele>
        <time>2019-01-10T10:44:18.000Z</time>
      </trkpt>
      <trkpt lat="47.31572" lon="-2.3606">
        <ele>38</ele>
        <time>2019-01-10T10:44:24.000Z</time>
      </trkpt>
      <trkpt lat="47.31566" lon="-2.36067">
        <ele>38</ele>
        <time>2019-01-10T10:44:26.000Z</time>
      </trkpt>
      <trkpt lat="47.31562" lon="-2.3607">
        <ele>38.400001525879</ele>
        <time>2019-01-10T10:44:27.000Z</time>
      </trkpt>
      <trkpt lat="47.31558" lon="-2.36074">
        <ele>38.799999237061</ele>
        <time>2019-01-10T10:44:28.000Z</time>
      </trkpt>
      <trkpt lat="47.31554" lon="-2.36078">
        <ele>39.200000762939</ele>
        <time>2019-01-10T10:44:29.000Z</time>
      </trkpt>
      <trkpt lat="47.3155" lon="-2.36082">
        <ele>39.599998474121</ele>
        <time>2019-01-10T10:44:30.000Z</time>
      </trkpt>
      <trkpt lat="47.31546" lon="-2.36086">
        <ele>40</ele>
        <time>2019-01-10T10:44:31.000Z</time>
      </trkpt>
      <trkpt lat="47.31538" lon="-2.36095">
        <ele>40</ele>
        <time>2019-01-10T10:44:33.000Z</time>
      </trkpt>
      <trkpt lat="47.3153" lon="-2.36104">
        <ele>40</ele>
        <time>2019-01-10T10:44:35.000Z</time>
      </trkpt>
      <trkpt lat="47.3151" lon="-2.36128">
        <ele>40</ele>
        <time>2019-01-10T10:44:40.000Z</time>
      </trkpt>
      <trkpt lat="47.31486" lon="-2.36155">
        <ele>40</ele>
        <time>2019-01-10T10:44:46.000Z</time>
      </trkpt>
      <trkpt lat="47.31471" lon="-2.36173">
        <ele>40</ele>
        <time>2019-01-10T10:44:51.000Z</time>
      </trkpt>
      <trkpt lat="47.31453" lon="-2.3618">
        <ele>40</ele>
        <time>2019-01-10T10:44:55.000Z</time>
      </trkpt>
      <trkpt lat="47.31443" lon="-2.36186">
        <ele>40</ele>
        <time>2019-01-10T10:44:57.000Z</time>
      </trkpt>
      <trkpt lat="47.31434" lon="-2.36193">
        <ele>40</ele>
        <time>2019-01-10T10:44:59.000Z</time>
      </trkpt>
      <trkpt lat="47.31419" lon="-2.36202">
        <ele>40</ele>
        <time>2019-01-10T10:45:03.000Z</time>
      </trkpt>
      <trkpt lat="47.31415" lon="-2.36204">
        <ele>40.400001525879</ele>
        <time>2019-01-10T10:45:04.000Z</time>
      </trkpt>
      <trkpt lat="47.31412" lon="-2.36205">
        <ele>40.799999237061</ele>
        <time>2019-01-10T10:45:05.000Z</time>
      </trkpt>
      <trkpt lat="47.31408" lon="-2.36207">
        <ele>41.400001525879</ele>
        <time>2019-01-10T10:45:06.000Z</time>
      </trkpt>
      <trkpt lat="47.31405" lon="-2.36209">
        <ele>41.799999237061</ele>
        <time>2019-01-10T10:45:07.000Z</time>
      </trkpt>
      <trkpt lat="47.31401" lon="-2.36211">
        <ele>42.200000762939</ele>
        <time>2019-01-10T10:45:08.000Z</time>
      </trkpt>
      <trkpt lat="47.31397" lon="-2.36213">
        <ele>42.200000762939</ele>
        <time>2019-01-10T10:45:09.000Z</time>
      </trkpt>
      <trkpt lat="47.31384" lon="-2.36216">
        <ele>42.200000762939</ele>
        <time>2019-01-10T10:45:12.000Z</time>
      </trkpt>
      <trkpt lat="47.31375" lon="-2.36222">
        <ele>42.200000762939</ele>
        <time>2019-01-10T10:45:14.000Z</time>
      </trkpt>
      <trkpt lat="47.31367" lon="-2.3623">
        <ele>42.200000762939</ele>
        <time>2019-01-10T10:45:16.000Z</time>
      </trkpt>
      <trkpt lat="47.3136" lon="-2.36239">
        <ele>42.200000762939</ele>
        <time>2019-01-10T10:45:18.000Z</time>
      </trkpt>
      <trkpt lat="47.31357" lon="-2.36244">
        <ele>42.200000762939</ele>
        <time>2019-01-10T10:45:19.000Z</time>
      </trkpt>
      <trkpt lat="47.3135" lon="-2.36254">
        <ele>42.200000762939</ele>
        <time>2019-01-10T10:45:21.000Z</time>
      </trkpt>
      <trkpt lat="47.31337" lon="-2.36267">
        <ele>42.200000762939</ele>
        <time>2019-01-10T10:45:24.000Z</time>
      </trkpt>
      <trkpt lat="47.31315" lon="-2.36287">
        <ele>42.200000762939</ele>
        <time>2019-01-10T10:45:29.000Z</time>
      </trkpt>
      <trkpt lat="47.31306" lon="-2.36292">
        <ele>42.200000762939</ele>
        <time>2019-01-10T10:45:31.000Z</time>
      </trkpt>
      <trkpt lat="47.31272" lon="-2.3631">
        <ele>42.200000762939</ele>
        <time>2019-01-10T10:45:38.000Z</time>
      </trkpt>
      <trkpt lat="47.31262" lon="-2.36314">
        <ele>42.200000762939</ele>
        <time>2019-01-10T10:45:40.000Z</time>
      </trkpt>
      <trkpt lat="47.31253" lon="-2.36321">
        <ele>42.200000762939</ele>
        <time>2019-01-10T10:45:42.000Z</time>
      </trkpt>
      <trkpt lat="47.31248" lon="-2.36325">
        <ele>41.799999237061</ele>
        <time>2019-01-10T10:45:43.000Z</time>
      </trkpt>
      <trkpt lat="47.31243" lon="-2.36328">
        <ele>41.400001525879</ele>
        <time>2019-01-10T10:45:44.000Z</time>
      </trkpt>
      <trkpt lat="47.31239" lon="-2.3633">
        <ele>41</ele>
        <time>2019-01-10T10:45:45.000Z</time>
      </trkpt>
      <trkpt lat="47.31234" lon="-2.36333">
        <ele>40.599998474121</ele>
        <time>2019-01-10T10:45:46.000Z</time>
      </trkpt>
      <trkpt lat="47.31229" lon="-2.36336">
        <ele>40.200000762939</ele>
        <time>2019-01-10T10:45:47.000Z</time>
      </trkpt>
      <trkpt lat="47.31209" lon="-2.36346">
        <ele>40.200000762939</ele>
        <time>2019-01-10T10:45:51.000Z</time>
      </trkpt>
      <trkpt lat="47.31171" lon="-2.36369">
        <ele>40.200000762939</ele>
        <time>2019-01-10T10:45:58.000Z</time>
      </trkpt>
      <trkpt lat="47.31166" lon="-2.36373">
        <ele>40.200000762939</ele>
        <time>2019-01-10T10:45:59.000Z</time>
      </trkpt>
      <trkpt lat="47.31143" lon="-2.3639">
        <ele>40.200000762939</ele>
        <time>2019-01-10T10:46:03.000Z</time>
      </trkpt>
      <trkpt lat="47.31108" lon="-2.36413">
        <ele>39.599998474121</ele>
        <time>2019-01-10T10:46:09.000Z</time>
      </trkpt>
      <trkpt lat="47.31104" lon="-2.36416">
        <ele>39.200000762939</ele>
        <time>2019-01-10T10:46:10.000Z</time>
      </trkpt>
      <trkpt lat="47.31099" lon="-2.36417">
        <ele>38.799999237061</ele>
        <time>2019-01-10T10:46:11.000Z</time>
      </trkpt>
      <trkpt lat="47.31096" lon="-2.36418">
        <ele>38.400001525879</ele>
        <time>2019-01-10T10:46:12.000Z</time>
      </trkpt>
      <trkpt lat="47.31093" lon="-2.36418">
        <ele>38</ele>
        <time>2019-01-10T10:46:13.000Z</time>
      </trkpt>
      <trkpt lat="47.3109" lon="-2.36417">
        <ele>38</ele>
        <time>2019-01-10T10:46:14.000Z</time>
      </trkpt>
      <trkpt lat="47.31079" lon="-2.36417">
        <ele>38</ele>
        <time>2019-01-10T10:46:17.000Z</time>
      </trkpt>
      <trkpt lat="47.31074" lon="-2.36418">
        <ele>38</ele>
        <time>2019-01-10T10:46:18.000Z</time>
      </trkpt>
      <trkpt lat="47.31052" lon="-2.3642">
        <ele>38</ele>
        <time>2019-01-10T10:46:23.000Z</time>
      </trkpt>
      <trkpt lat="47.3103" lon="-2.36423">
        <ele>38</ele>
        <time>2019-01-10T10:46:27.000Z</time>
      </trkpt>
      <trkpt lat="47.31024" lon="-2.36425">
        <ele>38</ele>
        <time>2019-01-10T10:46:28.000Z</time>
      </trkpt>
      <trkpt lat="47.3099" lon="-2.36438">
        <ele>38</ele>
        <time>2019-01-10T10:46:34.000Z</time>
      </trkpt>
      <trkpt lat="47.30963" lon="-2.36452">
        <ele>38.400001525879</ele>
        <time>2019-01-10T10:46:39.000Z</time>
      </trkpt>
      <trkpt lat="47.30957" lon="-2.36454">
        <ele>38.799999237061</ele>
        <time>2019-01-10T10:46:40.000Z</time>
      </trkpt>
      <trkpt lat="47.30952" lon="-2.36457">
        <ele>39.799999237061</ele>
        <time>2019-01-10T10:46:41.000Z</time>
      </trkpt>
      <trkpt lat="47.30946" lon="-2.36459">
        <ele>40.200000762939</ele>
        <time>2019-01-10T10:46:42.000Z</time>
      </trkpt>
      <trkpt lat="47.30934" lon="-2.36462">
        <ele>40.200000762939</ele>
        <time>2019-01-10T10:46:44.000Z</time>
      </trkpt>
      <trkpt lat="47.30898" lon="-2.36473">
        <ele>40.200000762939</ele>
        <time>2019-01-10T10:46:50.000Z</time>
      </trkpt>
      <trkpt lat="47.30892" lon="-2.36475">
        <ele>40.200000762939</ele>
        <time>2019-01-10T10:46:51.000Z</time>
      </trkpt>
      <trkpt lat="47.3087" lon="-2.36481">
        <ele>40.200000762939</ele>
        <time>2019-01-10T10:46:55.000Z</time>
      </trkpt>
      <trkpt lat="47.30833" lon="-2.36487">
        <ele>40.200000762939</ele>
        <time>2019-01-10T10:47:02.000Z</time>
      </trkpt>
      <trkpt lat="47.30819" lon="-2.36477">
        <ele>40.200000762939</ele>
        <time>2019-01-10T10:47:05.000Z</time>
      </trkpt>
      <trkpt lat="47.30802" lon="-2.36473">
        <ele>40.200000762939</ele>
        <time>2019-01-10T10:47:08.000Z</time>
      </trkpt>
      <trkpt lat="47.30791" lon="-2.36478">
        <ele>40.200000762939</ele>
        <time>2019-01-10T10:47:10.000Z</time>
      </trkpt>
      <trkpt lat="47.30769" lon="-2.36487">
        <ele>40.200000762939</ele>
        <time>2019-01-10T10:47:14.000Z</time>
      </trkpt>
      <trkpt lat="47.30763" lon="-2.36489">
        <ele>40.599998474121</ele>
        <time>2019-01-10T10:47:15.000Z</time>
      </trkpt>
      <trkpt lat="47.30757" lon="-2.36491">
        <ele>41</ele>
        <time>2019-01-10T10:47:16.000Z</time>
      </trkpt>
      <trkpt lat="47.30752" lon="-2.36493">
        <ele>41.400001525879</ele>
        <time>2019-01-10T10:47:17.000Z</time>
      </trkpt>
      <trkpt lat="47.30746" lon="-2.36495">
        <ele>41.799999237061</ele>
        <time>2019-01-10T10:47:18.000Z</time>
      </trkpt>
      <trkpt lat="47.3074" lon="-2.36497">
        <ele>42.200000762939</ele>
        <time>2019-01-10T10:47:19.000Z</time>
      </trkpt>
      <trkpt lat="47.30723" lon="-2.36505">
        <ele>42.200000762939</ele>
        <time>2019-01-10T10:47:22.000Z</time>
      </trkpt>
      <trkpt lat="47.30714" lon="-2.36511">
        <ele>42.200000762939</ele>
        <time>2019-01-10T10:47:24.000Z</time>
      </trkpt>
      <trkpt lat="47.30704" lon="-2.3652">
        <ele>42.200000762939</ele>
        <time>2019-01-10T10:47:27.000Z</time>
      </trkpt>
      <trkpt lat="47.30701" lon="-2.3652">
        <ele>42.200000762939</ele>
        <time>2019-01-10T10:47:28.000Z</time>
      </trkpt>
      <trkpt lat="47.30697" lon="-2.36516">
        <ele>43</ele>
        <time>2019-01-10T10:47:30.000Z</time>
      </trkpt>
      <trkpt lat="47.30695" lon="-2.36513">
        <ele>43.599998474121</ele>
        <time>2019-01-10T10:47:31.000Z</time>
      </trkpt>
      <trkpt lat="47.30692" lon="-2.36511">
        <ele>44</ele>
        <time>2019-01-10T10:47:32.000Z</time>
      </trkpt>
      <trkpt lat="47.30689" lon="-2.36512">
        <ele>44.400001525879</ele>
        <time>2019-01-10T10:47:33.000Z</time>
      </trkpt>
      <trkpt lat="47.30677" lon="-2.36517">
        <ele>44.400001525879</ele>
        <time>2019-01-10T10:47:36.000Z</time>
      </trkpt>
      <trkpt lat="47.30669" lon="-2.36521">
        <ele>44.400001525879</ele>
        <time>2019-01-10T10:47:38.000Z</time>
      </trkpt>
      <trkpt lat="47.30639" lon="-2.36538">
        <ele>44.400001525879</ele>
        <time>2019-01-10T10:47:45.000Z</time>
      </trkpt>
      <trkpt lat="47.30604" lon="-2.36548">
        <ele>44.400001525879</ele>
        <time>2019-01-10T10:47:52.000Z</time>
      </trkpt>
      <trkpt lat="47.30589" lon="-2.36552">
        <ele>44.400001525879</ele>
        <time>2019-01-10T10:47:55.000Z</time>
      </trkpt>
      <trkpt lat="47.30579" lon="-2.36557">
        <ele>44.400001525879</ele>
        <time>2019-01-10T10:47:57.000Z</time>
      </trkpt>
      <trkpt lat="47.30564" lon="-2.36565">
        <ele>44.400001525879</ele>
        <time>2019-01-10T10:48:00.000Z</time>
      </trkpt>
      <trkpt lat="47.30556" lon="-2.36572">
        <ele>44.400001525879</ele>
        <time>2019-01-10T10:48:02.000Z</time>
      </trkpt>
      <trkpt lat="47.30541" lon="-2.36583">
        <ele>44.400001525879</ele>
        <time>2019-01-10T10:48:06.000Z</time>
      </trkpt>
      <trkpt lat="47.30537" lon="-2.36585">
        <ele>44.400001525879</ele>
        <time>2019-01-10T10:48:07.000Z</time>
      </trkpt>
      <trkpt lat="47.30519" lon="-2.36595">
        <ele>44.400001525879</ele>
        <time>2019-01-10T10:48:11.000Z</time>
      </trkpt>
      <trkpt lat="47.30515" lon="-2.36596">
        <ele>44.400001525879</ele>
        <time>2019-01-10T10:48:12.000Z</time>
      </trkpt>
      <trkpt lat="47.30491" lon="-2.36604">
        <ele>44.400001525879</ele>
        <time>2019-01-10T10:48:17.000Z</time>
      </trkpt>
      <trkpt lat="47.30487" lon="-2.36606">
        <ele>44.400001525879</ele>
        <time>2019-01-10T10:48:18.000Z</time>
      </trkpt>
      <trkpt lat="47.30473" lon="-2.36612">
        <ele>44.400001525879</ele>
        <time>2019-01-10T10:48:22.000Z</time>
      </trkpt>
      <trkpt lat="47.30449" lon="-2.3663">
        <ele>44.400001525879</ele>
        <time>2019-01-10T10:48:28.000Z</time>
      </trkpt>
      <trkpt lat="47.30426" lon="-2.3665">
        <ele>44.400001525879</ele>
        <time>2019-01-10T10:48:34.000Z</time>
      </trkpt>
      <trkpt lat="47.30418" lon="-2.36654">
        <ele>44.400001525879</ele>
        <time>2019-01-10T10:48:36.000Z</time>
      </trkpt>
      <trkpt lat="47.30408" lon="-2.36657">
        <ele>44.400001525879</ele>
        <time>2019-01-10T10:48:38.000Z</time>
      </trkpt>
      <trkpt lat="47.30376" lon="-2.36658">
        <ele>44.400001525879</ele>
        <time>2019-01-10T10:48:44.000Z</time>
      </trkpt>
      <trkpt lat="47.30339" lon="-2.36652">
        <ele>44.400001525879</ele>
        <time>2019-01-10T10:48:50.000Z</time>
      </trkpt>
      <trkpt lat="47.30313" lon="-2.36647">
        <ele>44.400001525879</ele>
        <time>2019-01-10T10:48:54.000Z</time>
      </trkpt>
      <trkpt lat="47.30307" lon="-2.36648">
        <ele>44.400001525879</ele>
        <time>2019-01-10T10:48:55.000Z</time>
      </trkpt>
      <trkpt lat="47.30289" lon="-2.36655">
        <ele>44.400001525879</ele>
        <time>2019-01-10T10:48:58.000Z</time>
      </trkpt>
      <trkpt lat="47.30283" lon="-2.36657">
        <ele>44.400001525879</ele>
        <time>2019-01-10T10:48:59.000Z</time>
      </trkpt>
      <trkpt lat="47.30256" lon="-2.36665">
        <ele>44.400001525879</ele>
        <time>2019-01-10T10:49:04.000Z</time>
      </trkpt>
      <trkpt lat="47.30212" lon="-2.36671">
        <ele>44.400001525879</ele>
        <time>2019-01-10T10:49:12.000Z</time>
      </trkpt>
      <trkpt lat="47.30184" lon="-2.36678">
        <ele>44.400001525879</ele>
        <time>2019-01-10T10:49:18.000Z</time>
      </trkpt>
      <trkpt lat="47.30181" lon="-2.36679">
        <ele>44</ele>
        <time>2019-01-10T10:49:19.000Z</time>
      </trkpt>
      <trkpt lat="47.30179" lon="-2.3668">
        <ele>43.599998474121</ele>
        <time>2019-01-10T10:49:20.000Z</time>
      </trkpt>
      <trkpt lat="47.30177" lon="-2.36681">
        <ele>43.200000762939</ele>
        <time>2019-01-10T10:49:21.000Z</time>
      </trkpt>
      <trkpt lat="47.30175" lon="-2.36681">
        <ele>42.799999237061</ele>
        <time>2019-01-10T10:49:22.000Z</time>
      </trkpt>
      <trkpt lat="47.30175" lon="-2.36681">
        <ele>42.400001525879</ele>
        <time>2019-01-10T10:49:23.000Z</time>
      </trkpt>
      <trkpt lat="47.30171" lon="-2.36684">
        <ele>40.400001525879</ele>
        <time>2019-01-10T10:53:45.000Z</time>
      </trkpt>
      <trkpt lat="47.30169" lon="-2.36684">
        <ele>40.400001525879</ele>
        <time>2019-01-10T10:53:46.000Z</time>
      </trkpt>
      <trkpt lat="47.30156" lon="-2.36685">
        <ele>40.400001525879</ele>
        <time>2019-01-10T10:53:50.000Z</time>
      </trkpt>
      <trkpt lat="47.3015" lon="-2.36687">
        <ele>40.400001525879</ele>
        <time>2019-01-10T10:53:51.000Z</time>
      </trkpt>
      <trkpt lat="47.30135" lon="-2.367">
        <ele>39.799999237061</ele>
        <time>2019-01-10T10:53:54.000Z</time>
      </trkpt>
      <trkpt lat="47.3013" lon="-2.36705">
        <ele>39.400001525879</ele>
        <time>2019-01-10T10:53:55.000Z</time>
      </trkpt>
      <trkpt lat="47.30125" lon="-2.36709">
        <ele>39</ele>
        <time>2019-01-10T10:53:56.000Z</time>
      </trkpt>
      <trkpt lat="47.3012" lon="-2.36713">
        <ele>38.400001525879</ele>
        <time>2019-01-10T10:53:57.000Z</time>
      </trkpt>
      <trkpt lat="47.30115" lon="-2.36718">
        <ele>38</ele>
        <time>2019-01-10T10:53:58.000Z</time>
      </trkpt>
      <trkpt lat="47.30096" lon="-2.36732">
        <ele>38</ele>
        <time>2019-01-10T10:54:02.000Z</time>
      </trkpt>
      <trkpt lat="47.30083" lon="-2.36743">
        <ele>38.400001525879</ele>
        <time>2019-01-10T10:54:05.000Z</time>
      </trkpt>
      <trkpt lat="47.30079" lon="-2.36748">
        <ele>39.200000762939</ele>
        <time>2019-01-10T10:54:06.000Z</time>
      </trkpt>
      <trkpt lat="47.30075" lon="-2.36752">
        <ele>39.599998474121</ele>
        <time>2019-01-10T10:54:07.000Z</time>
      </trkpt>
      <trkpt lat="47.30071" lon="-2.36757">
        <ele>40</ele>
        <time>2019-01-10T10:54:08.000Z</time>
      </trkpt>
      <trkpt lat="47.30042" lon="-2.36789">
        <ele>40</ele>
        <time>2019-01-10T10:54:15.000Z</time>
      </trkpt>
      <trkpt lat="47.30011" lon="-2.36827">
        <ele>40</ele>
        <time>2019-01-10T10:54:22.000Z</time>
      </trkpt>
      <trkpt lat="47.29988" lon="-2.36855">
        <ele>40</ele>
        <time>2019-01-10T10:54:27.000Z</time>
      </trkpt>
      <trkpt lat="47.29984" lon="-2.36861">
        <ele>40</ele>
        <time>2019-01-10T10:54:28.000Z</time>
      </trkpt>
      <trkpt lat="47.29957" lon="-2.36892">
        <ele>40</ele>
        <time>2019-01-10T10:54:34.000Z</time>
      </trkpt>
      <trkpt lat="47.29922" lon="-2.36934">
        <ele>40</ele>
        <time>2019-01-10T10:54:42.000Z</time>
      </trkpt>
      <trkpt lat="47.29912" lon="-2.36948">
        <ele>40</ele>
        <time>2019-01-10T10:54:46.000Z</time>
      </trkpt>
      <trkpt lat="47.29911" lon="-2.36951">
        <ele>40</ele>
        <time>2019-01-10T10:54:49.000Z</time>
      </trkpt>
      <trkpt lat="47.2991" lon="-2.36954">
        <ele>40</ele>
        <time>2019-01-10T10:54:52.000Z</time>
      </trkpt>
      <trkpt lat="47.29905" lon="-2.36971">
        <ele>40</ele>
        <time>2019-01-10T10:54:57.000Z</time>
      </trkpt>
      <trkpt lat="47.29898" lon="-2.36973">
        <ele>40.400001525879</ele>
        <time>2019-01-10T10:54:59.000Z</time>
      </trkpt>
      <trkpt lat="47.29895" lon="-2.36973">
        <ele>40.799999237061</ele>
        <time>2019-01-10T10:55:00.000Z</time>
      </trkpt>
      <trkpt lat="47.29891" lon="-2.36972">
        <ele>41.200000762939</ele>
        <time>2019-01-10T10:55:01.000Z</time>
      </trkpt>
      <trkpt lat="47.29887" lon="-2.36973">
        <ele>41.799999237061</ele>
        <time>2019-01-10T10:55:02.000Z</time>
      </trkpt>
      <trkpt lat="47.29883" lon="-2.36974">
        <ele>42.200000762939</ele>
        <time>2019-01-10T10:55:03.000Z</time>
      </trkpt>
      <trkpt lat="47.29875" lon="-2.3698">
        <ele>42.200000762939</ele>
        <time>2019-01-10T10:55:05.000Z</time>
      </trkpt>
      <trkpt lat="47.29863" lon="-2.36993">
        <ele>42.200000762939</ele>
        <time>2019-01-10T10:55:08.000Z</time>
      </trkpt>
      <trkpt lat="47.29854" lon="-2.37003">
        <ele>42.200000762939</ele>
        <time>2019-01-10T10:55:10.000Z</time>
      </trkpt>
      <trkpt lat="47.29826" lon="-2.37039">
        <ele>42.200000762939</ele>
        <time>2019-01-10T10:55:16.000Z</time>
      </trkpt>
      <trkpt lat="47.29813" lon="-2.37068">
        <ele>42.200000762939</ele>
        <time>2019-01-10T10:55:20.000Z</time>
      </trkpt>
      <trkpt lat="47.29811" lon="-2.37076">
        <ele>42.200000762939</ele>
        <time>2019-01-10T10:55:21.000Z</time>
      </trkpt>
      <trkpt lat="47.29804" lon="-2.37118">
        <ele>42.200000762939</ele>
        <time>2019-01-10T10:55:26.000Z</time>
      </trkpt>
      <trkpt lat="47.298" lon="-2.37135">
        <ele>42.200000762939</ele>
        <time>2019-01-10T10:55:28.000Z</time>
      </trkpt>
      <trkpt lat="47.2979" lon="-2.37156">
        <ele>42.200000762939</ele>
        <time>2019-01-10T10:55:31.000Z</time>
      </trkpt>
      <trkpt lat="47.29767" lon="-2.37178">
        <ele>42.200000762939</ele>
        <time>2019-01-10T10:55:36.000Z</time>
      </trkpt>
      <trkpt lat="47.29762" lon="-2.37181">
        <ele>42.200000762939</ele>
        <time>2019-01-10T10:55:37.000Z</time>
      </trkpt>
      <trkpt lat="47.29745" lon="-2.37184">
        <ele>42.200000762939</ele>
        <time>2019-01-10T10:55:40.000Z</time>
      </trkpt>
      <trkpt lat="47.2974" lon="-2.37184">
        <ele>42.200000762939</ele>
        <time>2019-01-10T10:55:41.000Z</time>
      </trkpt>
      <trkpt lat="47.29713" lon="-2.37189">
        <ele>42.200000762939</ele>
        <time>2019-01-10T10:55:46.000Z</time>
      </trkpt>
      <trkpt lat="47.29677" lon="-2.37204">
        <ele>42.200000762939</ele>
        <time>2019-01-10T10:55:53.000Z</time>
      </trkpt>
      <trkpt lat="47.29642" lon="-2.37218">
        <ele>42.200000762939</ele>
        <time>2019-01-10T10:55:59.000Z</time>
      </trkpt>
      <trkpt lat="47.29624" lon="-2.37227">
        <ele>41.799999237061</ele>
        <time>2019-01-10T10:56:02.000Z</time>
      </trkpt>
      <trkpt lat="47.29618" lon="-2.3723">
        <ele>41.400001525879</ele>
        <time>2019-01-10T10:56:03.000Z</time>
      </trkpt>
      <trkpt lat="47.29611" lon="-2.37233">
        <ele>41</ele>
        <time>2019-01-10T10:56:04.000Z</time>
      </trkpt>
      <trkpt lat="47.29605" lon="-2.37236">
        <ele>40.400001525879</ele>
        <time>2019-01-10T10:56:05.000Z</time>
      </trkpt>
      <trkpt lat="47.29599" lon="-2.3724">
        <ele>40</ele>
        <time>2019-01-10T10:56:06.000Z</time>
      </trkpt>
      <trkpt lat="47.29593" lon="-2.37244">
        <ele>40</ele>
        <time>2019-01-10T10:56:07.000Z</time>
      </trkpt>
      <trkpt lat="47.29569" lon="-2.37257">
        <ele>39.599998474121</ele>
        <time>2019-01-10T10:56:11.000Z</time>
      </trkpt>
      <trkpt lat="47.29563" lon="-2.37261">
        <ele>39.200000762939</ele>
        <time>2019-01-10T10:56:12.000Z</time>
      </trkpt>
      <trkpt lat="47.29558" lon="-2.37264">
        <ele>38.799999237061</ele>
        <time>2019-01-10T10:56:13.000Z</time>
      </trkpt>
      <trkpt lat="47.29552" lon="-2.37266">
        <ele>38.400001525879</ele>
        <time>2019-01-10T10:56:14.000Z</time>
      </trkpt>
      <trkpt lat="47.29546" lon="-2.37269">
        <ele>38</ele>
        <time>2019-01-10T10:56:15.000Z</time>
      </trkpt>
      <trkpt lat="47.29526" lon="-2.3728">
        <ele>38</ele>
        <time>2019-01-10T10:56:18.000Z</time>
      </trkpt>
      <trkpt lat="47.29519" lon="-2.37283">
        <ele>37.599998474121</ele>
        <time>2019-01-10T10:56:19.000Z</time>
      </trkpt>
      <trkpt lat="47.29511" lon="-2.37285">
        <ele>37</ele>
        <time>2019-01-10T10:56:20.000Z</time>
      </trkpt>
      <trkpt lat="47.29504" lon="-2.37285">
        <ele>36.599998474121</ele>
        <time>2019-01-10T10:56:21.000Z</time>
      </trkpt>
      <trkpt lat="47.29497" lon="-2.37285">
        <ele>36.200000762939</ele>
        <time>2019-01-10T10:56:22.000Z</time>
      </trkpt>
      <trkpt lat="47.29492" lon="-2.37284">
        <ele>35.799999237061</ele>
        <time>2019-01-10T10:56:23.000Z</time>
      </trkpt>
      <trkpt lat="47.29487" lon="-2.37285">
        <ele>35.799999237061</ele>
        <time>2019-01-10T10:56:24.000Z</time>
      </trkpt>
      <trkpt lat="47.29484" lon="-2.37286">
        <ele>35.200000762939</ele>
        <time>2019-01-10T10:56:25.000Z</time>
      </trkpt>
      <trkpt lat="47.29481" lon="-2.3729">
        <ele>34.799999237061</ele>
        <time>2019-01-10T10:56:26.000Z</time>
      </trkpt>
      <trkpt lat="47.29479" lon="-2.37294">
        <ele>34.400001525879</ele>
        <time>2019-01-10T10:56:27.000Z</time>
      </trkpt>
      <trkpt lat="47.29481" lon="-2.373">
        <ele>34</ele>
        <time>2019-01-10T10:56:28.000Z</time>
      </trkpt>
      <trkpt lat="47.29483" lon="-2.37304">
        <ele>33.599998474121</ele>
        <time>2019-01-10T10:56:29.000Z</time>
      </trkpt>
      <trkpt lat="47.2949" lon="-2.37312">
        <ele>33.599998474121</ele>
        <time>2019-01-10T10:56:31.000Z</time>
      </trkpt>
      <trkpt lat="47.29504" lon="-2.3733">
        <ele>33.599998474121</ele>
        <time>2019-01-10T10:56:35.000Z</time>
      </trkpt>
      <trkpt lat="47.29514" lon="-2.37341">
        <ele>33.599998474121</ele>
        <time>2019-01-10T10:56:38.000Z</time>
      </trkpt>
      <trkpt lat="47.29521" lon="-2.37349">
        <ele>33.599998474121</ele>
        <time>2019-01-10T10:56:40.000Z</time>
      </trkpt>
      <trkpt lat="47.29538" lon="-2.37372">
        <ele>33.599998474121</ele>
        <time>2019-01-10T10:56:45.000Z</time>
      </trkpt>
      <trkpt lat="47.29551" lon="-2.37389">
        <ele>33.599998474121</ele>
        <time>2019-01-10T10:56:48.000Z</time>
      </trkpt>
      <trkpt lat="47.29559" lon="-2.37401">
        <ele>33.599998474121</ele>
        <time>2019-01-10T10:56:50.000Z</time>
      </trkpt>
      <trkpt lat="47.29575" lon="-2.37426">
        <ele>34</ele>
        <time>2019-01-10T10:56:54.000Z</time>
      </trkpt>
      <trkpt lat="47.29578" lon="-2.37433">
        <ele>34.400001525879</ele>
        <time>2019-01-10T10:56:55.000Z</time>
      </trkpt>
      <trkpt lat="47.29581" lon="-2.3744">
        <ele>34.799999237061</ele>
        <time>2019-01-10T10:56:56.000Z</time>
      </trkpt>
      <trkpt lat="47.29585" lon="-2.37446">
        <ele>35.200000762939</ele>
        <time>2019-01-10T10:56:57.000Z</time>
      </trkpt>
      <trkpt lat="47.29589" lon="-2.37452">
        <ele>35.599998474121</ele>
        <time>2019-01-10T10:56:58.000Z</time>
      </trkpt>
      <trkpt lat="47.29608" lon="-2.37484">
        <ele>35.599998474121</ele>
        <time>2019-01-10T10:57:03.000Z</time>
      </trkpt>
      <trkpt lat="47.29613" lon="-2.3749">
        <ele>35.599998474121</ele>
        <time>2019-01-10T10:57:04.000Z</time>
      </trkpt>
      <trkpt lat="47.29631" lon="-2.37503">
        <ele>35.200000762939</ele>
        <time>2019-01-10T10:57:07.000Z</time>
      </trkpt>
      <trkpt lat="47.29637" lon="-2.37507">
        <ele>34.799999237061</ele>
        <time>2019-01-10T10:57:08.000Z</time>
      </trkpt>
      <trkpt lat="47.29644" lon="-2.37512">
        <ele>34.400001525879</ele>
        <time>2019-01-10T10:57:09.000Z</time>
      </trkpt>
      <trkpt lat="47.29651" lon="-2.37517">
        <ele>34</ele>
        <time>2019-01-10T10:57:10.000Z</time>
      </trkpt>
      <trkpt lat="47.29658" lon="-2.37521">
        <ele>33.400001525879</ele>
        <time>2019-01-10T10:57:11.000Z</time>
      </trkpt>
      <trkpt lat="47.2969" lon="-2.37545">
        <ele>33.400001525879</ele>
        <time>2019-01-10T10:57:16.000Z</time>
      </trkpt>
      <trkpt lat="47.29701" lon="-2.37556">
        <ele>33.400001525879</ele>
        <time>2019-01-10T10:57:18.000Z</time>
      </trkpt>
      <trkpt lat="47.29715" lon="-2.37571">
        <ele>33.400001525879</ele>
        <time>2019-01-10T10:57:21.000Z</time>
      </trkpt>
      <trkpt lat="47.29738" lon="-2.37601">
        <ele>33.400001525879</ele>
        <time>2019-01-10T10:57:26.000Z</time>
      </trkpt>
      <trkpt lat="47.29759" lon="-2.37629">
        <ele>33.799999237061</ele>
        <time>2019-01-10T10:57:31.000Z</time>
      </trkpt>
      <trkpt lat="47.29764" lon="-2.37634">
        <ele>34.200000762939</ele>
        <time>2019-01-10T10:57:32.000Z</time>
      </trkpt>
      <trkpt lat="47.29768" lon="-2.3764">
        <ele>34.599998474121</ele>
        <time>2019-01-10T10:57:33.000Z</time>
      </trkpt>
      <trkpt lat="47.29771" lon="-2.37645">
        <ele>35.200000762939</ele>
        <time>2019-01-10T10:57:34.000Z</time>
      </trkpt>
      <trkpt lat="47.29775" lon="-2.3765">
        <ele>35.599998474121</ele>
        <time>2019-01-10T10:57:35.000Z</time>
      </trkpt>
      <trkpt lat="47.29789" lon="-2.3767">
        <ele>35.599998474121</ele>
        <time>2019-01-10T10:57:39.000Z</time>
      </trkpt>
      <trkpt lat="47.29808" lon="-2.37702">
        <ele>35.599998474121</ele>
        <time>2019-01-10T10:57:45.000Z</time>
      </trkpt>
      <trkpt lat="47.29837" lon="-2.3775">
        <ele>35.599998474121</ele>
        <time>2019-01-10T10:57:54.000Z</time>
      </trkpt>
      <trkpt lat="47.29857" lon="-2.37783">
        <ele>35.599998474121</ele>
        <time>2019-01-10T10:58:00.000Z</time>
      </trkpt>
      <trkpt lat="47.29863" lon="-2.37795">
        <ele>35.599998474121</ele>
        <time>2019-01-10T10:58:02.000Z</time>
      </trkpt>
      <trkpt lat="47.29869" lon="-2.37807">
        <ele>35.599998474121</ele>
        <time>2019-01-10T10:58:04.000Z</time>
      </trkpt>
      <trkpt lat="47.2987" lon="-2.37814">
        <ele>35</ele>
        <time>2019-01-10T10:58:05.000Z</time>
      </trkpt>
      <trkpt lat="47.29868" lon="-2.3782">
        <ele>34.599998474121</ele>
        <time>2019-01-10T10:58:06.000Z</time>
      </trkpt>
      <trkpt lat="47.29866" lon="-2.37827">
        <ele>34.200000762939</ele>
        <time>2019-01-10T10:58:07.000Z</time>
      </trkpt>
      <trkpt lat="47.29863" lon="-2.37832">
        <ele>33.799999237061</ele>
        <time>2019-01-10T10:58:08.000Z</time>
      </trkpt>
      <trkpt lat="47.2986" lon="-2.37838">
        <ele>33.400001525879</ele>
        <time>2019-01-10T10:58:09.000Z</time>
      </trkpt>
      <trkpt lat="47.29857" lon="-2.37844">
        <ele>33.400001525879</ele>
        <time>2019-01-10T10:58:10.000Z</time>
      </trkpt>
      <trkpt lat="47.29848" lon="-2.37862">
        <ele>33.400001525879</ele>
        <time>2019-01-10T10:58:13.000Z</time>
      </trkpt>
      <trkpt lat="47.2984" lon="-2.37873">
        <ele>33.400001525879</ele>
        <time>2019-01-10T10:58:15.000Z</time>
      </trkpt>
      <trkpt lat="47.29826" lon="-2.37885">
        <ele>33.400001525879</ele>
        <time>2019-01-10T10:58:18.000Z</time>
      </trkpt>
      <trkpt lat="47.29821" lon="-2.37889">
        <ele>33.400001525879</ele>
        <time>2019-01-10T10:58:19.000Z</time>
      </trkpt>
      <trkpt lat="47.29815" lon="-2.37892">
        <ele>33.400001525879</ele>
        <time>2019-01-10T10:58:20.000Z</time>
      </trkpt>
      <trkpt lat="47.29799" lon="-2.37903">
        <ele>33.400001525879</ele>
        <time>2019-01-10T10:58:23.000Z</time>
      </trkpt>
      <trkpt lat="47.29782" lon="-2.37915">
        <ele>33.400001525879</ele>
        <time>2019-01-10T10:58:26.000Z</time>
      </trkpt>
      <trkpt lat="47.29776" lon="-2.3792">
        <ele>33.400001525879</ele>
        <time>2019-01-10T10:58:27.000Z</time>
      </trkpt>
      <trkpt lat="47.29754" lon="-2.3794">
        <ele>33.400001525879</ele>
        <time>2019-01-10T10:58:31.000Z</time>
      </trkpt>
      <trkpt lat="47.29749" lon="-2.37946">
        <ele>33.400001525879</ele>
        <time>2019-01-10T10:58:32.000Z</time>
      </trkpt>
      <trkpt lat="47.29741" lon="-2.37966">
        <ele>33</ele>
        <time>2019-01-10T10:58:35.000Z</time>
      </trkpt>
      <trkpt lat="47.29738" lon="-2.37973">
        <ele>32.599998474121</ele>
        <time>2019-01-10T10:58:36.000Z</time>
      </trkpt>
      <trkpt lat="47.29735" lon="-2.37978">
        <ele>32.200000762939</ele>
        <time>2019-01-10T10:58:37.000Z</time>
      </trkpt>
      <trkpt lat="47.29733" lon="-2.37984">
        <ele>31.200000762939</ele>
        <time>2019-01-10T10:58:38.000Z</time>
      </trkpt>
      <trkpt lat="47.29731" lon="-2.3799">
        <ele>30.60000038147</ele>
        <time>2019-01-10T10:58:39.000Z</time>
      </trkpt>
      <trkpt lat="47.2973" lon="-2.37996">
        <ele>30</ele>
        <time>2019-01-10T10:58:40.000Z</time>
      </trkpt>
      <trkpt lat="47.2973" lon="-2.38003">
        <ele>29.39999961853</ele>
        <time>2019-01-10T10:58:41.000Z</time>
      </trkpt>
      <trkpt lat="47.29731" lon="-2.38009">
        <ele>28.60000038147</ele>
        <time>2019-01-10T10:58:42.000Z</time>
      </trkpt>
      <trkpt lat="47.29732" lon="-2.38016">
        <ele>28</ele>
        <time>2019-01-10T10:58:43.000Z</time>
      </trkpt>
      <trkpt lat="47.29733" lon="-2.38022">
        <ele>27.200000762939</ele>
        <time>2019-01-10T10:58:44.000Z</time>
      </trkpt>
      <trkpt lat="47.29733" lon="-2.38028">
        <ele>26.39999961853</ele>
        <time>2019-01-10T10:58:45.000Z</time>
      </trkpt>
      <trkpt lat="47.2973" lon="-2.38033">
        <ele>25.799999237061</ele>
        <time>2019-01-10T10:58:46.000Z</time>
      </trkpt>
      <trkpt lat="47.29726" lon="-2.38038">
        <ele>25</ele>
        <time>2019-01-10T10:58:47.000Z</time>
      </trkpt>
      <trkpt lat="47.29721" lon="-2.38042">
        <ele>24.200000762939</ele>
        <time>2019-01-10T10:58:48.000Z</time>
      </trkpt>
      <trkpt lat="47.29715" lon="-2.38047">
        <ele>23.39999961853</ele>
        <time>2019-01-10T10:58:49.000Z</time>
      </trkpt>
      <trkpt lat="47.29708" lon="-2.38053">
        <ele>22.799999237061</ele>
        <time>2019-01-10T10:58:50.000Z</time>
      </trkpt>
      <trkpt lat="47.29701" lon="-2.38059">
        <ele>22</ele>
        <time>2019-01-10T10:58:51.000Z</time>
      </trkpt>
      <trkpt lat="47.29693" lon="-2.38066">
        <ele>21.39999961853</ele>
        <time>2019-01-10T10:58:52.000Z</time>
      </trkpt>
      <trkpt lat="47.29686" lon="-2.38072">
        <ele>20.799999237061</ele>
        <time>2019-01-10T10:58:53.000Z</time>
      </trkpt>
      <trkpt lat="47.29677" lon="-2.38078">
        <ele>19.799999237061</ele>
        <time>2019-01-10T10:58:54.000Z</time>
      </trkpt>
      <trkpt lat="47.29669" lon="-2.38083">
        <ele>19</ele>
        <time>2019-01-10T10:58:55.000Z</time>
      </trkpt>
      <trkpt lat="47.2966" lon="-2.38089">
        <ele>18.200000762939</ele>
        <time>2019-01-10T10:58:56.000Z</time>
      </trkpt>
      <trkpt lat="47.29651" lon="-2.38093">
        <ele>17.200000762939</ele>
        <time>2019-01-10T10:58:57.000Z</time>
      </trkpt>
      <trkpt lat="47.29643" lon="-2.38098">
        <ele>16.39999961853</ele>
        <time>2019-01-10T10:58:58.000Z</time>
      </trkpt>
      <trkpt lat="47.29635" lon="-2.38102">
        <ele>15.39999961853</ele>
        <time>2019-01-10T10:58:59.000Z</time>
      </trkpt>
      <trkpt lat="47.29627" lon="-2.38106">
        <ele>14.60000038147</ele>
        <time>2019-01-10T10:59:00.000Z</time>
      </trkpt>
      <trkpt lat="47.29619" lon="-2.38109">
        <ele>14</ele>
        <time>2019-01-10T10:59:01.000Z</time>
      </trkpt>
      <trkpt lat="47.29611" lon="-2.38112">
        <ele>12.60000038147</ele>
        <time>2019-01-10T10:59:02.000Z</time>
      </trkpt>
      <trkpt lat="47.29603" lon="-2.38114">
        <ele>12</ele>
        <time>2019-01-10T10:59:03.000Z</time>
      </trkpt>
      <trkpt lat="47.29595" lon="-2.38116">
        <ele>11.39999961853</ele>
        <time>2019-01-10T10:59:04.000Z</time>
      </trkpt>
      <trkpt lat="47.29587" lon="-2.38118">
        <ele>10.800000190735</ele>
        <time>2019-01-10T10:59:05.000Z</time>
      </trkpt>
      <trkpt lat="47.29578" lon="-2.3812">
        <ele>10.39999961853</ele>
        <time>2019-01-10T10:59:06.000Z</time>
      </trkpt>
      <trkpt lat="47.2957" lon="-2.38122">
        <ele>10</ele>
        <time>2019-01-10T10:59:07.000Z</time>
      </trkpt>
      <trkpt lat="47.29562" lon="-2.38123">
        <ele>9.6000003814697</ele>
        <time>2019-01-10T10:59:08.000Z</time>
      </trkpt>
      <trkpt lat="47.29555" lon="-2.38124">
        <ele>9.1999998092651</ele>
        <time>2019-01-10T10:59:09.000Z</time>
      </trkpt>
      <trkpt lat="47.29538" lon="-2.38125">
        <ele>8.8000001907349</ele>
        <time>2019-01-10T10:59:11.000Z</time>
      </trkpt>
      <trkpt lat="47.2953" lon="-2.38124">
        <ele>8.3999996185303</ele>
        <time>2019-01-10T10:59:12.000Z</time>
      </trkpt>
      <trkpt lat="47.29522" lon="-2.38124">
        <ele>8</ele>
        <time>2019-01-10T10:59:13.000Z</time>
      </trkpt>
      <trkpt lat="47.29514" lon="-2.38123">
        <ele>7.5999999046326</ele>
        <time>2019-01-10T10:59:14.000Z</time>
      </trkpt>
      <trkpt lat="47.29506" lon="-2.38122">
        <ele>7.1999998092651</ele>
        <time>2019-01-10T10:59:15.000Z</time>
      </trkpt>
      <trkpt lat="47.29497" lon="-2.38122">
        <ele>6.8000001907349</ele>
        <time>2019-01-10T10:59:16.000Z</time>
      </trkpt>
      <trkpt lat="47.29489" lon="-2.38125">
        <ele>6.1999998092651</ele>
        <time>2019-01-10T10:59:17.000Z</time>
      </trkpt>
      <trkpt lat="47.29483" lon="-2.38129">
        <ele>5.8000001907349</ele>
        <time>2019-01-10T10:59:18.000Z</time>
      </trkpt>
      <trkpt lat="47.29477" lon="-2.38134">
        <ele>5.4000000953674</ele>
        <time>2019-01-10T10:59:19.000Z</time>
      </trkpt>
      <trkpt lat="47.2947" lon="-2.38139">
        <ele>5</ele>
        <time>2019-01-10T10:59:20.000Z</time>
      </trkpt>
      <trkpt lat="47.29464" lon="-2.38143">
        <ele>5</ele>
        <time>2019-01-10T10:59:21.000Z</time>
      </trkpt>
      <trkpt lat="47.2946" lon="-2.38147">
        <ele>5</ele>
        <time>2019-01-10T10:59:22.000Z</time>
      </trkpt>
      <trkpt lat="47.29456" lon="-2.38149">
        <ele>4.5999999046326</ele>
        <time>2019-01-10T10:59:23.000Z</time>
      </trkpt>
      <trkpt lat="47.29453" lon="-2.38151">
        <ele>4</ele>
        <time>2019-01-10T10:59:24.000Z</time>
      </trkpt>
      <trkpt lat="47.2945" lon="-2.38152">
        <ele>3.5999999046326</ele>
        <time>2019-01-10T10:59:25.000Z</time>
      </trkpt>
      <trkpt lat="47.29448" lon="-2.38149">
        <ele>3.2000000476837</ele>
        <time>2019-01-10T10:59:26.000Z</time>
      </trkpt>
      <trkpt lat="47.29444" lon="-2.38146">
        <ele>2.5999999046326</ele>
        <time>2019-01-10T10:59:27.000Z</time>
      </trkpt>
      <trkpt lat="47.2944" lon="-2.38134">
        <ele>2.5999999046326</ele>
        <time>2019-01-10T10:59:29.000Z</time>
      </trkpt>
      <trkpt lat="47.29437" lon="-2.38128">
        <ele>2.5999999046326</ele>
        <time>2019-01-10T10:59:30.000Z</time>
      </trkpt>
      <trkpt lat="47.29422" lon="-2.38084">
        <ele>2.5999999046326</ele>
        <time>2019-01-10T10:59:36.000Z</time>
      </trkpt>
      <trkpt lat="47.29411" lon="-2.38054">
        <ele>2.5999999046326</ele>
        <time>2019-01-10T10:59:41.000Z</time>
      </trkpt>
      <trkpt lat="47.29396" lon="-2.38009">
        <ele>2.5999999046326</ele>
        <time>2019-01-10T10:59:49.000Z</time>
      </trkpt>
      <trkpt lat="47.29388" lon="-2.37987">
        <ele>2.5999999046326</ele>
        <time>2019-01-10T10:59:53.000Z</time>
      </trkpt>
      <trkpt lat="47.29382" lon="-2.37969">
        <ele>2.5999999046326</ele>
        <time>2019-01-10T10:59:56.000Z</time>
      </trkpt>
      <trkpt lat="47.2938" lon="-2.37963">
        <ele>2.5999999046326</ele>
        <time>2019-01-10T10:59:57.000Z</time>
      </trkpt>
      <trkpt lat="47.29369" lon="-2.37935">
        <ele>2.5999999046326</ele>
        <time>2019-01-10T11:00:01.000Z</time>
      </trkpt>
      <trkpt lat="47.29359" lon="-2.37907">
        <ele>3</ele>
        <time>2019-01-10T11:00:05.000Z</time>
      </trkpt>
      <trkpt lat="47.29357" lon="-2.379">
        <ele>3.4000000953674</ele>
        <time>2019-01-10T11:00:06.000Z</time>
      </trkpt>
      <trkpt lat="47.29354" lon="-2.37894">
        <ele>3.7999999523163</ele>
        <time>2019-01-10T11:00:07.000Z</time>
      </trkpt>
      <trkpt lat="47.29352" lon="-2.37887">
        <ele>4.1999998092651</ele>
        <time>2019-01-10T11:00:08.000Z</time>
      </trkpt>
      <trkpt lat="47.2935" lon="-2.3788">
        <ele>4.5999999046326</ele>
        <time>2019-01-10T11:00:09.000Z</time>
      </trkpt>
      <trkpt lat="47.29343" lon="-2.3786">
        <ele>4.5999999046326</ele>
        <time>2019-01-10T11:00:12.000Z</time>
      </trkpt>
      <trkpt lat="47.2934" lon="-2.37846">
        <ele>4.5999999046326</ele>
        <time>2019-01-10T11:00:14.000Z</time>
      </trkpt>
      <trkpt lat="47.29337" lon="-2.37831">
        <ele>4.5999999046326</ele>
        <time>2019-01-10T11:00:16.000Z</time>
      </trkpt>
      <trkpt lat="47.29336" lon="-2.37823">
        <ele>5.4000000953674</ele>
        <time>2019-01-10T11:00:17.000Z</time>
      </trkpt>
      <trkpt lat="47.29336" lon="-2.37815">
        <ele>6</ele>
        <time>2019-01-10T11:00:18.000Z</time>
      </trkpt>
      <trkpt lat="47.29336" lon="-2.37807">
        <ele>6.4000000953674</ele>
        <time>2019-01-10T11:00:19.000Z</time>
      </trkpt>
      <trkpt lat="47.29335" lon="-2.378">
        <ele>6.8000001907349</ele>
        <time>2019-01-10T11:00:20.000Z</time>
      </trkpt>
      <trkpt lat="47.29332" lon="-2.37756">
        <ele>7.1999998092651</ele>
        <time>2019-01-10T11:00:26.000Z</time>
      </trkpt>
      <trkpt lat="47.29332" lon="-2.37749">
        <ele>7.5999999046326</ele>
        <time>2019-01-10T11:00:27.000Z</time>
      </trkpt>
      <trkpt lat="47.29331" lon="-2.37742">
        <ele>8</ele>
        <time>2019-01-10T11:00:28.000Z</time>
      </trkpt>
      <trkpt lat="47.29331" lon="-2.37735">
        <ele>8.3999996185303</ele>
        <time>2019-01-10T11:00:29.000Z</time>
      </trkpt>
      <trkpt lat="47.2933" lon="-2.37729">
        <ele>8.8000001907349</ele>
        <time>2019-01-10T11:00:30.000Z</time>
      </trkpt>
      <trkpt lat="47.2933" lon="-2.37708">
        <ele>9.1999998092651</ele>
        <time>2019-01-10T11:00:33.000Z</time>
      </trkpt>
      <trkpt lat="47.2933" lon="-2.37701">
        <ele>9.8000001907349</ele>
        <time>2019-01-10T11:00:34.000Z</time>
      </trkpt>
      <trkpt lat="47.29329" lon="-2.37694">
        <ele>10.199999809265</ele>
        <time>2019-01-10T11:00:35.000Z</time>
      </trkpt>
      <trkpt lat="47.29329" lon="-2.37688">
        <ele>10.60000038147</ele>
        <time>2019-01-10T11:00:36.000Z</time>
      </trkpt>
      <trkpt lat="47.29329" lon="-2.37681">
        <ele>11</ele>
        <time>2019-01-10T11:00:37.000Z</time>
      </trkpt>
      <trkpt lat="47.29329" lon="-2.37661">
        <ele>11</ele>
        <time>2019-01-10T11:00:40.000Z</time>
      </trkpt>
      <trkpt lat="47.29328" lon="-2.37654">
        <ele>11.39999961853</ele>
        <time>2019-01-10T11:00:41.000Z</time>
      </trkpt>
      <trkpt lat="47.29327" lon="-2.37648">
        <ele>11.800000190735</ele>
        <time>2019-01-10T11:00:42.000Z</time>
      </trkpt>
      <trkpt lat="47.29325" lon="-2.37641">
        <ele>12.39999961853</ele>
        <time>2019-01-10T11:00:43.000Z</time>
      </trkpt>
      <trkpt lat="47.29324" lon="-2.37634">
        <ele>12.800000190735</ele>
        <time>2019-01-10T11:00:44.000Z</time>
      </trkpt>
      <trkpt lat="47.29323" lon="-2.37627">
        <ele>13.199999809265</ele>
        <time>2019-01-10T11:00:45.000Z</time>
      </trkpt>
      <trkpt lat="47.29321" lon="-2.37621">
        <ele>13.199999809265</ele>
        <time>2019-01-10T11:00:46.000Z</time>
      </trkpt>
      <trkpt lat="47.29309" lon="-2.37598">
        <ele>13.199999809265</ele>
        <time>2019-01-10T11:00:50.000Z</time>
      </trkpt>
      <trkpt lat="47.29306" lon="-2.37592">
        <ele>13.199999809265</ele>
        <time>2019-01-10T11:00:51.000Z</time>
      </trkpt>
      <trkpt lat="47.29284" lon="-2.37556">
        <ele>13.199999809265</ele>
        <time>2019-01-10T11:00:57.000Z</time>
      </trkpt>
      <trkpt lat="47.29265" lon="-2.37523">
        <ele>13.199999809265</ele>
        <time>2019-01-10T11:01:02.000Z</time>
      </trkpt>
      <trkpt lat="47.29246" lon="-2.37496">
        <ele>13.199999809265</ele>
        <time>2019-01-10T11:01:07.000Z</time>
      </trkpt>
      <trkpt lat="47.29226" lon="-2.37466">
        <ele>13.60000038147</ele>
        <time>2019-01-10T11:01:12.000Z</time>
      </trkpt>
      <trkpt lat="47.29222" lon="-2.37461">
        <ele>14</ele>
        <time>2019-01-10T11:01:13.000Z</time>
      </trkpt>
      <trkpt lat="47.29219" lon="-2.37455">
        <ele>14.39999961853</ele>
        <time>2019-01-10T11:01:14.000Z</time>
      </trkpt>
      <trkpt lat="47.29215" lon="-2.37449">
        <ele>15</ele>
        <time>2019-01-10T11:01:15.000Z</time>
      </trkpt>
      <trkpt lat="47.29211" lon="-2.37443">
        <ele>15.39999961853</ele>
        <time>2019-01-10T11:01:16.000Z</time>
      </trkpt>
      <trkpt lat="47.29204" lon="-2.3743">
        <ele>15.39999961853</ele>
        <time>2019-01-10T11:01:18.000Z</time>
      </trkpt>
      <trkpt lat="47.29187" lon="-2.37405">
        <ele>15.39999961853</ele>
        <time>2019-01-10T11:01:22.000Z</time>
      </trkpt>
      <trkpt lat="47.29184" lon="-2.374">
        <ele>15.800000190735</ele>
        <time>2019-01-10T11:01:23.000Z</time>
      </trkpt>
      <trkpt lat="47.2918" lon="-2.37394">
        <ele>16.200000762939</ele>
        <time>2019-01-10T11:01:24.000Z</time>
      </trkpt>
      <trkpt lat="47.29176" lon="-2.37388">
        <ele>16.799999237061</ele>
        <time>2019-01-10T11:01:25.000Z</time>
      </trkpt>
      <trkpt lat="47.29173" lon="-2.37383">
        <ele>17.200000762939</ele>
        <time>2019-01-10T11:01:26.000Z</time>
      </trkpt>
      <trkpt lat="47.29169" lon="-2.37377">
        <ele>17.60000038147</ele>
        <time>2019-01-10T11:01:27.000Z</time>
      </trkpt>
      <trkpt lat="47.29162" lon="-2.37365">
        <ele>17.60000038147</ele>
        <time>2019-01-10T11:01:29.000Z</time>
      </trkpt>
      <trkpt lat="47.29157" lon="-2.37363">
        <ele>17.60000038147</ele>
        <time>2019-01-10T11:01:30.000Z</time>
      </trkpt>
      <trkpt lat="47.29151" lon="-2.37364">
        <ele>17.60000038147</ele>
        <time>2019-01-10T11:01:31.000Z</time>
      </trkpt>
      <trkpt lat="47.29131" lon="-2.37381">
        <ele>17.60000038147</ele>
        <time>2019-01-10T11:01:34.000Z</time>
      </trkpt>
      <trkpt lat="47.29124" lon="-2.37389">
        <ele>17.60000038147</ele>
        <time>2019-01-10T11:01:35.000Z</time>
      </trkpt>
      <trkpt lat="47.29117" lon="-2.37397">
        <ele>17.200000762939</ele>
        <time>2019-01-10T11:01:36.000Z</time>
      </trkpt>
      <trkpt lat="47.2911" lon="-2.37405">
        <ele>16.799999237061</ele>
        <time>2019-01-10T11:01:37.000Z</time>
      </trkpt>
      <trkpt lat="47.29102" lon="-2.37413">
        <ele>16.39999961853</ele>
        <time>2019-01-10T11:01:38.000Z</time>
      </trkpt>
      <trkpt lat="47.29094" lon="-2.37423">
        <ele>16</ele>
        <time>2019-01-10T11:01:39.000Z</time>
      </trkpt>
      <trkpt lat="47.29086" lon="-2.37433">
        <ele>15.39999961853</ele>
        <time>2019-01-10T11:01:40.000Z</time>
      </trkpt>
      <trkpt lat="47.29078" lon="-2.37443">
        <ele>14.800000190735</ele>
        <time>2019-01-10T11:01:41.000Z</time>
      </trkpt>
      <trkpt lat="47.29069" lon="-2.37453">
        <ele>14.39999961853</ele>
        <time>2019-01-10T11:01:42.000Z</time>
      </trkpt>
      <trkpt lat="47.29061" lon="-2.37463">
        <ele>13.60000038147</ele>
        <time>2019-01-10T11:01:43.000Z</time>
      </trkpt>
      <trkpt lat="47.29052" lon="-2.37474">
        <ele>13</ele>
        <time>2019-01-10T11:01:44.000Z</time>
      </trkpt>
      <trkpt lat="47.29044" lon="-2.37485">
        <ele>12.39999961853</ele>
        <time>2019-01-10T11:01:45.000Z</time>
      </trkpt>
      <trkpt lat="47.29036" lon="-2.37497">
        <ele>11.60000038147</ele>
        <time>2019-01-10T11:01:46.000Z</time>
      </trkpt>
      <trkpt lat="47.29028" lon="-2.37509">
        <ele>11</ele>
        <time>2019-01-10T11:01:47.000Z</time>
      </trkpt>
      <trkpt lat="47.2902" lon="-2.3752">
        <ele>10.199999809265</ele>
        <time>2019-01-10T11:01:48.000Z</time>
      </trkpt>
      <trkpt lat="47.29013" lon="-2.37532">
        <ele>9.6000003814697</ele>
        <time>2019-01-10T11:01:49.000Z</time>
      </trkpt>
      <trkpt lat="47.29005" lon="-2.37544">
        <ele>9</ele>
        <time>2019-01-10T11:01:50.000Z</time>
      </trkpt>
      <trkpt lat="47.28998" lon="-2.37556">
        <ele>8.3999996185303</ele>
        <time>2019-01-10T11:01:51.000Z</time>
      </trkpt>
      <trkpt lat="47.28991" lon="-2.37567">
        <ele>7.8000001907349</ele>
        <time>2019-01-10T11:01:52.000Z</time>
      </trkpt>
      <trkpt lat="47.28984" lon="-2.37578">
        <ele>7.1999998092651</ele>
        <time>2019-01-10T11:01:53.000Z</time>
      </trkpt>
      <trkpt lat="47.28978" lon="-2.3759">
        <ele>6.5999999046326</ele>
        <time>2019-01-10T11:01:54.000Z</time>
      </trkpt>
      <trkpt lat="47.28968" lon="-2.37611">
        <ele>6.1999998092651</ele>
        <time>2019-01-10T11:01:56.000Z</time>
      </trkpt>
      <trkpt lat="47.28963" lon="-2.37621">
        <ele>5.8000001907349</ele>
        <time>2019-01-10T11:01:57.000Z</time>
      </trkpt>
      <trkpt lat="47.28959" lon="-2.37626">
        <ele>5.4000000953674</ele>
        <time>2019-01-10T11:01:58.000Z</time>
      </trkpt>
      <trkpt lat="47.28955" lon="-2.37632">
        <ele>5</ele>
        <time>2019-01-10T11:01:59.000Z</time>
      </trkpt>
      <trkpt lat="47.28951" lon="-2.37636">
        <ele>4.4000000953674</ele>
        <time>2019-01-10T11:02:00.000Z</time>
      </trkpt>
      <trkpt lat="47.28947" lon="-2.37639">
        <ele>4.4000000953674</ele>
        <time>2019-01-10T11:02:01.000Z</time>
      </trkpt>
      <trkpt lat="47.2894" lon="-2.37642">
        <ele>4.4000000953674</ele>
        <time>2019-01-10T11:02:03.000Z</time>
      </trkpt>
      <trkpt lat="47.28932" lon="-2.37644">
        <ele>4.4000000953674</ele>
        <time>2019-01-10T11:02:06.000Z</time>
      </trkpt>
      <trkpt lat="47.2891" lon="-2.37649">
        <ele>4.4000000953674</ele>
        <time>2019-01-10T11:02:11.000Z</time>
      </trkpt>
      <trkpt lat="47.2888" lon="-2.37655">
        <ele>4.4000000953674</ele>
        <time>2019-01-10T11:02:18.000Z</time>
      </trkpt>
      <trkpt lat="47.28862" lon="-2.37649">
        <ele>4.4000000953674</ele>
        <time>2019-01-10T11:02:23.000Z</time>
      </trkpt>
      <trkpt lat="47.28859" lon="-2.37635">
        <ele>4.4000000953674</ele>
        <time>2019-01-10T11:02:26.000Z</time>
      </trkpt>
      <trkpt lat="47.2886" lon="-2.37626">
        <ele>4.4000000953674</ele>
        <time>2019-01-10T11:02:28.000Z</time>
      </trkpt>
      <trkpt lat="47.28862" lon="-2.37612">
        <ele>4.4000000953674</ele>
        <time>2019-01-10T11:02:31.000Z</time>
      </trkpt>
      <trkpt lat="47.28869" lon="-2.37588">
        <ele>4.4000000953674</ele>
        <time>2019-01-10T11:02:36.000Z</time>
      </trkpt>
      <trkpt lat="47.28883" lon="-2.37557">
        <ele>4.4000000953674</ele>
        <time>2019-01-10T11:02:42.000Z</time>
      </trkpt>
      <trkpt lat="47.28884" lon="-2.3755">
        <ele>4.4000000953674</ele>
        <time>2019-01-10T11:02:43.000Z</time>
      </trkpt>
      <trkpt lat="47.28882" lon="-2.37527">
        <ele>4.4000000953674</ele>
        <time>2019-01-10T11:02:46.000Z</time>
      </trkpt>
      <trkpt lat="47.28881" lon="-2.37519">
        <ele>4.4000000953674</ele>
        <time>2019-01-10T11:02:47.000Z</time>
      </trkpt>
      <trkpt lat="47.28881" lon="-2.37512">
        <ele>4.4000000953674</ele>
        <time>2019-01-10T11:02:48.000Z</time>
      </trkpt>
      <trkpt lat="47.28878" lon="-2.37487">
        <ele>4.4000000953674</ele>
        <time>2019-01-10T11:02:51.000Z</time>
      </trkpt>
      <trkpt lat="47.28876" lon="-2.37462">
        <ele>4.4000000953674</ele>
        <time>2019-01-10T11:02:54.000Z</time>
      </trkpt>
      <trkpt lat="47.28875" lon="-2.37447">
        <ele>4.4000000953674</ele>
        <time>2019-01-10T11:02:56.000Z</time>
      </trkpt>
      <trkpt lat="47.28874" lon="-2.37439">
        <ele>4.4000000953674</ele>
        <time>2019-01-10T11:02:57.000Z</time>
      </trkpt>
      <trkpt lat="47.28869" lon="-2.374">
        <ele>4.4000000953674</ele>
        <time>2019-01-10T11:03:02.000Z</time>
      </trkpt>
      <trkpt lat="47.28866" lon="-2.37376">
        <ele>4.4000000953674</ele>
        <time>2019-01-10T11:03:05.000Z</time>
      </trkpt>
      <trkpt lat="47.28863" lon="-2.37353">
        <ele>4.4000000953674</ele>
        <time>2019-01-10T11:03:08.000Z</time>
      </trkpt>
      <trkpt lat="47.28863" lon="-2.37345">
        <ele>4.4000000953674</ele>
        <time>2019-01-10T11:03:09.000Z</time>
      </trkpt>
      <trkpt lat="47.28861" lon="-2.37314">
        <ele>4.4000000953674</ele>
        <time>2019-01-10T11:03:13.000Z</time>
      </trkpt>
      <trkpt lat="47.28857" lon="-2.37286">
        <ele>4.4000000953674</ele>
        <time>2019-01-10T11:03:17.000Z</time>
      </trkpt>
      <trkpt lat="47.28855" lon="-2.37273">
        <ele>4.4000000953674</ele>
        <time>2019-01-10T11:03:19.000Z</time>
      </trkpt>
      <trkpt lat="47.28854" lon="-2.37256">
        <ele>4.4000000953674</ele>
        <time>2019-01-10T11:03:22.000Z</time>
      </trkpt>
      <trkpt lat="47.28849" lon="-2.37242">
        <ele>4.4000000953674</ele>
        <time>2019-01-10T11:03:27.000Z</time>
      </trkpt>
      <trkpt lat="47.28845" lon="-2.37223">
        <ele>4.4000000953674</ele>
        <time>2019-01-10T11:03:31.000Z</time>
      </trkpt>
      <trkpt lat="47.28842" lon="-2.37208">
        <ele>4.4000000953674</ele>
        <time>2019-01-10T11:03:35.000Z</time>
      </trkpt>
      <trkpt lat="47.28838" lon="-2.37191">
        <ele>5</ele>
        <time>2019-01-10T11:03:38.000Z</time>
      </trkpt>
      <trkpt lat="47.28838" lon="-2.37185">
        <ele>5.4000000953674</ele>
        <time>2019-01-10T11:03:39.000Z</time>
      </trkpt>
      <trkpt lat="47.28837" lon="-2.3718">
        <ele>5.8000001907349</ele>
        <time>2019-01-10T11:03:40.000Z</time>
      </trkpt>
      <trkpt lat="47.28837" lon="-2.37174">
        <ele>6.1999998092651</ele>
        <time>2019-01-10T11:03:41.000Z</time>
      </trkpt>
      <trkpt lat="47.28836" lon="-2.3717">
        <ele>6.5999999046326</ele>
        <time>2019-01-10T11:03:42.000Z</time>
      </trkpt>
      <trkpt lat="47.28832" lon="-2.37152">
        <ele>6.5999999046326</ele>
        <time>2019-01-10T11:03:45.000Z</time>
      </trkpt>
      <trkpt lat="47.2883" lon="-2.37132">
        <ele>6.5999999046326</ele>
        <time>2019-01-10T11:03:50.000Z</time>
      </trkpt>
      <trkpt lat="47.28829" lon="-2.37128">
        <ele>6.5999999046326</ele>
        <time>2019-01-10T11:03:54.000Z</time>
      </trkpt>
      <trkpt lat="47.28829" lon="-2.37125">
        <ele>6.5999999046326</ele>
        <time>2019-01-10T11:03:58.000Z</time>
      </trkpt>
      <trkpt lat="47.28827" lon="-2.37115">
        <ele>6.5999999046326</ele>
        <time>2019-01-10T11:04:02.000Z</time>
      </trkpt>
      <trkpt lat="47.28825" lon="-2.37118">
        <ele>7</ele>
        <time>2019-01-10T11:04:04.000Z</time>
      </trkpt>
      <trkpt lat="47.28824" lon="-2.37119">
        <ele>7.4000000953674</ele>
        <time>2019-01-10T11:04:05.000Z</time>
      </trkpt>
      <trkpt lat="47.28824" lon="-2.37119">
        <ele>7.8000001907349</ele>
        <time>2019-01-10T11:04:06.000Z</time>
      </trkpt>
      <trkpt lat="47.28823" lon="-2.37119">
        <ele>8.1999998092651</ele>
        <time>2019-01-10T11:04:07.000Z</time>
      </trkpt>
      <trkpt lat="47.28822" lon="-2.3712">
        <ele>8.6000003814697</ele>
        <time>2019-01-10T11:04:08.000Z</time>
      </trkpt>
      <trkpt lat="47.2882" lon="-2.3712">
        <ele>9</ele>
        <time>2019-01-10T11:04:09.000Z</time>
      </trkpt>
      <trkpt lat="47.28819" lon="-2.3712">
        <ele>9.3999996185303</ele>
        <time>2019-01-10T11:04:10.000Z</time>
      </trkpt>
      <trkpt lat="47.28817" lon="-2.3712">
        <ele>10</ele>
        <time>2019-01-10T11:04:11.000Z</time>
      </trkpt>
      <trkpt lat="47.28815" lon="-2.3712">
        <ele>10.39999961853</ele>
        <time>2019-01-10T11:04:12.000Z</time>
      </trkpt>
      <trkpt lat="47.28814" lon="-2.3712">
        <ele>10.800000190735</ele>
        <time>2019-01-10T11:04:13.000Z</time>
      </trkpt>
      <trkpt lat="47.28813" lon="-2.37121">
        <ele>10.800000190735</ele>
        <time>2019-01-10T11:04:15.000Z</time>
      </trkpt>
      <trkpt lat="47.28808" lon="-2.37119">
        <ele>12.199999809265</ele>
        <time>2019-01-10T11:04:18.000Z</time>
      </trkpt>
      <trkpt lat="47.28806" lon="-2.37119">
        <ele>12.60000038147</ele>
        <time>2019-01-10T11:04:19.000Z</time>
      </trkpt>
      <trkpt lat="47.28804" lon="-2.37117">
        <ele>13</ele>
        <time>2019-01-10T11:04:20.000Z</time>
      </trkpt>
      <trkpt lat="47.28802" lon="-2.37112">
        <ele>13</ele>
        <time>2019-01-10T11:04:22.000Z</time>
      </trkpt>
      <trkpt lat="47.288" lon="-2.37086">
        <ele>13.39999961853</ele>
        <time>2019-01-10T11:04:28.000Z</time>
      </trkpt>
      <trkpt lat="47.28799" lon="-2.37081">
        <ele>13.800000190735</ele>
        <time>2019-01-10T11:04:29.000Z</time>
      </trkpt>
      <trkpt lat="47.28797" lon="-2.37077">
        <ele>14.199999809265</ele>
        <time>2019-01-10T11:04:30.000Z</time>
      </trkpt>
      <trkpt lat="47.28796" lon="-2.37073">
        <ele>14.60000038147</ele>
        <time>2019-01-10T11:04:31.000Z</time>
      </trkpt>
      <trkpt lat="47.28796" lon="-2.37069">
        <ele>15</ele>
        <time>2019-01-10T11:04:32.000Z</time>
      </trkpt>
      <trkpt lat="47.28794" lon="-2.37065">
        <ele>15</ele>
        <time>2019-01-10T11:04:33.000Z</time>
      </trkpt>
      <trkpt lat="47.28792" lon="-2.3706">
        <ele>15.60000038147</ele>
        <time>2019-01-10T11:04:34.000Z</time>
      </trkpt>
      <trkpt lat="47.2879" lon="-2.37058">
        <ele>16</ele>
        <time>2019-01-10T11:04:35.000Z</time>
      </trkpt>
      <trkpt lat="47.28789" lon="-2.37056">
        <ele>16.39999961853</ele>
        <time>2019-01-10T11:04:36.000Z</time>
      </trkpt>
      <trkpt lat="47.28788" lon="-2.37053">
        <ele>17</ele>
        <time>2019-01-10T11:04:37.000Z</time>
      </trkpt>
      <trkpt lat="47.28786" lon="-2.37049">
        <ele>17.39999961853</ele>
        <time>2019-01-10T11:04:38.000Z</time>
      </trkpt>
      <trkpt lat="47.28784" lon="-2.37034">
        <ele>17.39999961853</ele>
        <time>2019-01-10T11:04:42.000Z</time>
      </trkpt>
      <trkpt lat="47.28783" lon="-2.37029">
        <ele>17.39999961853</ele>
        <time>2019-01-10T11:04:43.000Z</time>
      </trkpt>
      <trkpt lat="47.28779" lon="-2.37019">
        <ele>17.799999237061</ele>
        <time>2019-01-10T11:04:45.000Z</time>
      </trkpt>
      <trkpt lat="47.28777" lon="-2.37016">
        <ele>18.200000762939</ele>
        <time>2019-01-10T11:04:46.000Z</time>
      </trkpt>
      <trkpt lat="47.28775" lon="-2.37012">
        <ele>18.60000038147</ele>
        <time>2019-01-10T11:04:47.000Z</time>
      </trkpt>
      <trkpt lat="47.28773" lon="-2.37008">
        <ele>19</ele>
        <time>2019-01-10T11:04:48.000Z</time>
      </trkpt>
      <trkpt lat="47.28771" lon="-2.37006">
        <ele>19.39999961853</ele>
        <time>2019-01-10T11:04:49.000Z</time>
      </trkpt>
      <trkpt lat="47.28766" lon="-2.36998">
        <ele>19.39999961853</ele>
        <time>2019-01-10T11:04:51.000Z</time>
      </trkpt>
      <trkpt lat="47.28763" lon="-2.36992">
        <ele>19.39999961853</ele>
        <time>2019-01-10T11:04:52.000Z</time>
      </trkpt>
      <trkpt lat="47.28758" lon="-2.36965">
        <ele>19.39999961853</ele>
        <time>2019-01-10T11:04:57.000Z</time>
      </trkpt>
      <trkpt lat="47.28752" lon="-2.36949">
        <ele>19</ele>
        <time>2019-01-10T11:05:00.000Z</time>
      </trkpt>
      <trkpt lat="47.2875" lon="-2.36945">
        <ele>18.60000038147</ele>
        <time>2019-01-10T11:05:01.000Z</time>
      </trkpt>
      <trkpt lat="47.28745" lon="-2.36941">
        <ele>18</ele>
        <time>2019-01-10T11:05:02.000Z</time>
      </trkpt>
      <trkpt lat="47.28741" lon="-2.36936">
        <ele>17.60000038147</ele>
        <time>2019-01-10T11:05:03.000Z</time>
      </trkpt>
      <trkpt lat="47.28736" lon="-2.36932">
        <ele>17</ele>
        <time>2019-01-10T11:05:04.000Z</time>
      </trkpt>
      <trkpt lat="47.28731" lon="-2.36931">
        <ele>16.39999961853</ele>
        <time>2019-01-10T11:05:05.000Z</time>
      </trkpt>
      <trkpt lat="47.28729" lon="-2.36928">
        <ele>15.800000190735</ele>
        <time>2019-01-10T11:05:06.000Z</time>
      </trkpt>
      <trkpt lat="47.28727" lon="-2.36926">
        <ele>15.199999809265</ele>
        <time>2019-01-10T11:05:07.000Z</time>
      </trkpt>
      <trkpt lat="47.28725" lon="-2.36923">
        <ele>14.60000038147</ele>
        <time>2019-01-10T11:05:08.000Z</time>
      </trkpt>
      <trkpt lat="47.28721" lon="-2.36916">
        <ele>14.60000038147</ele>
        <time>2019-01-10T11:05:10.000Z</time>
      </trkpt>
      <trkpt lat="47.2872" lon="-2.36912">
        <ele>14.60000038147</ele>
        <time>2019-01-10T11:05:11.000Z</time>
      </trkpt>
      <trkpt lat="47.28719" lon="-2.36908">
        <ele>15</ele>
        <time>2019-01-10T11:05:12.000Z</time>
      </trkpt>
      <trkpt lat="47.28718" lon="-2.36904">
        <ele>15.60000038147</ele>
        <time>2019-01-10T11:05:13.000Z</time>
      </trkpt>
      <trkpt lat="47.28716" lon="-2.369">
        <ele>16.39999961853</ele>
        <time>2019-01-10T11:05:14.000Z</time>
      </trkpt>
      <trkpt lat="47.28715" lon="-2.36897">
        <ele>16.799999237061</ele>
        <time>2019-01-10T11:05:15.000Z</time>
      </trkpt>
      <trkpt lat="47.28712" lon="-2.36893">
        <ele>16.799999237061</ele>
        <time>2019-01-10T11:05:16.000Z</time>
      </trkpt>
      <trkpt lat="47.28699" lon="-2.36867">
        <ele>16.799999237061</ele>
        <time>2019-01-10T11:05:22.000Z</time>
      </trkpt>
      <trkpt lat="47.28694" lon="-2.36859">
        <ele>17.200000762939</ele>
        <time>2019-01-10T11:05:24.000Z</time>
      </trkpt>
      <trkpt lat="47.28692" lon="-2.36855">
        <ele>17.799999237061</ele>
        <time>2019-01-10T11:05:25.000Z</time>
      </trkpt>
      <trkpt lat="47.28691" lon="-2.3685">
        <ele>18.200000762939</ele>
        <time>2019-01-10T11:05:26.000Z</time>
      </trkpt>
      <trkpt lat="47.2869" lon="-2.36845">
        <ele>18.60000038147</ele>
        <time>2019-01-10T11:05:27.000Z</time>
      </trkpt>
      <trkpt lat="47.28688" lon="-2.3684">
        <ele>19</ele>
        <time>2019-01-10T11:05:28.000Z</time>
      </trkpt>
      <trkpt lat="47.28671" lon="-2.36816">
        <ele>19</ele>
        <time>2019-01-10T11:05:34.000Z</time>
      </trkpt>
      <trkpt lat="47.28654" lon="-2.36812">
        <ele>19</ele>
        <time>2019-01-10T11:05:38.000Z</time>
      </trkpt>
      <trkpt lat="47.28626" lon="-2.36833">
        <ele>19</ele>
        <time>2019-01-10T11:05:44.000Z</time>
      </trkpt>
      <trkpt lat="47.28617" lon="-2.36844">
        <ele>19</ele>
        <time>2019-01-10T11:05:46.000Z</time>
      </trkpt>
      <trkpt lat="47.28605" lon="-2.36845">
        <ele>19</ele>
        <time>2019-01-10T11:05:48.000Z</time>
      </trkpt>
      <trkpt lat="47.28589" lon="-2.36831">
        <ele>19</ele>
        <time>2019-01-10T11:05:51.000Z</time>
      </trkpt>
      <trkpt lat="47.28582" lon="-2.36817">
        <ele>19</ele>
        <time>2019-01-10T11:05:53.000Z</time>
      </trkpt>
      <trkpt lat="47.28575" lon="-2.36805">
        <ele>19</ele>
        <time>2019-01-10T11:05:55.000Z</time>
      </trkpt>
      <trkpt lat="47.28555" lon="-2.36769">
        <ele>19</ele>
        <time>2019-01-10T11:06:01.000Z</time>
      </trkpt>
      <trkpt lat="47.28532" lon="-2.36732">
        <ele>19</ele>
        <time>2019-01-10T11:06:08.000Z</time>
      </trkpt>
      <trkpt lat="47.28528" lon="-2.36722">
        <ele>19.39999961853</ele>
        <time>2019-01-10T11:06:10.000Z</time>
      </trkpt>
      <trkpt lat="47.28525" lon="-2.36717">
        <ele>19.799999237061</ele>
        <time>2019-01-10T11:06:11.000Z</time>
      </trkpt>
      <trkpt lat="47.28523" lon="-2.36713">
        <ele>20.200000762939</ele>
        <time>2019-01-10T11:06:12.000Z</time>
      </trkpt>
      <trkpt lat="47.2852" lon="-2.36709">
        <ele>20.60000038147</ele>
        <time>2019-01-10T11:06:13.000Z</time>
      </trkpt>
      <trkpt lat="47.28518" lon="-2.36705">
        <ele>21</ele>
        <time>2019-01-10T11:06:14.000Z</time>
      </trkpt>
      <trkpt lat="47.2851" lon="-2.36689">
        <ele>21.60000038147</ele>
        <time>2019-01-10T11:06:18.000Z</time>
      </trkpt>
      <trkpt lat="47.28508" lon="-2.36688">
        <ele>22</ele>
        <time>2019-01-10T11:06:19.000Z</time>
      </trkpt>
      <trkpt lat="47.28507" lon="-2.36687">
        <ele>22.39999961853</ele>
        <time>2019-01-10T11:06:20.000Z</time>
      </trkpt>
      <trkpt lat="47.28505" lon="-2.36686">
        <ele>23</ele>
        <time>2019-01-10T11:06:21.000Z</time>
      </trkpt>
      <trkpt lat="47.28503" lon="-2.36685">
        <ele>23.39999961853</ele>
        <time>2019-01-10T11:06:22.000Z</time>
      </trkpt>
      <trkpt lat="47.28499" lon="-2.3668">
        <ele>23.39999961853</ele>
        <time>2019-01-10T11:06:25.000Z</time>
      </trkpt>
      <trkpt lat="47.28494" lon="-2.36659">
        <ele>23.39999961853</ele>
        <time>2019-01-10T11:06:30.000Z</time>
      </trkpt>
      <trkpt lat="47.28491" lon="-2.36652">
        <ele>23.39999961853</ele>
        <time>2019-01-10T11:06:31.000Z</time>
      </trkpt>
      <trkpt lat="47.28485" lon="-2.36629">
        <ele>23.39999961853</ele>
        <time>2019-01-10T11:06:34.000Z</time>
      </trkpt>
      <trkpt lat="47.28473" lon="-2.3659">
        <ele>23.39999961853</ele>
        <time>2019-01-10T11:06:40.000Z</time>
      </trkpt>
      <trkpt lat="47.2847" lon="-2.36567">
        <ele>23.39999961853</ele>
        <time>2019-01-10T11:06:45.000Z</time>
      </trkpt>
      <trkpt lat="47.28479" lon="-2.36554">
        <ele>23.39999961853</ele>
        <time>2019-01-10T11:06:50.000Z</time>
      </trkpt>
      <trkpt lat="47.28485" lon="-2.36549">
        <ele>23.799999237061</ele>
        <time>2019-01-10T11:06:53.000Z</time>
      </trkpt>
      <trkpt lat="47.28488" lon="-2.36545">
        <ele>24.60000038147</ele>
        <time>2019-01-10T11:06:54.000Z</time>
      </trkpt>
      <trkpt lat="47.2849" lon="-2.36541">
        <ele>25</ele>
        <time>2019-01-10T11:06:55.000Z</time>
      </trkpt>
      <trkpt lat="47.28492" lon="-2.36538">
        <ele>25.39999961853</ele>
        <time>2019-01-10T11:06:56.000Z</time>
      </trkpt>
      <trkpt lat="47.28505" lon="-2.36523">
        <ele>25.39999961853</ele>
        <time>2019-01-10T11:07:00.000Z</time>
      </trkpt>
      <trkpt lat="47.28507" lon="-2.3652">
        <ele>25.39999961853</ele>
        <time>2019-01-10T11:07:01.000Z</time>
      </trkpt>
      <trkpt lat="47.28519" lon="-2.36504">
        <ele>25.799999237061</ele>
        <time>2019-01-10T11:07:05.000Z</time>
      </trkpt>
      <trkpt lat="47.2852" lon="-2.36501">
        <ele>26.200000762939</ele>
        <time>2019-01-10T11:07:06.000Z</time>
      </trkpt>
      <trkpt lat="47.28521" lon="-2.36496">
        <ele>26.60000038147</ele>
        <time>2019-01-10T11:07:07.000Z</time>
      </trkpt>
      <trkpt lat="47.28521" lon="-2.36492">
        <ele>27</ele>
        <time>2019-01-10T11:07:08.000Z</time>
      </trkpt>
      <trkpt lat="47.28519" lon="-2.36489">
        <ele>27.39999961853</ele>
        <time>2019-01-10T11:07:09.000Z</time>
      </trkpt>
      <trkpt lat="47.28519" lon="-2.36486">
        <ele>27.39999961853</ele>
        <time>2019-01-10T11:07:10.000Z</time>
      </trkpt>
      <trkpt lat="47.28517" lon="-2.36467">
        <ele>27.39999961853</ele>
        <time>2019-01-10T11:07:14.000Z</time>
      </trkpt>
      <trkpt lat="47.28515" lon="-2.36462">
        <ele>27.799999237061</ele>
        <time>2019-01-10T11:07:15.000Z</time>
      </trkpt>
      <trkpt lat="47.28512" lon="-2.36457">
        <ele>28.39999961853</ele>
        <time>2019-01-10T11:07:16.000Z</time>
      </trkpt>
      <trkpt lat="47.28508" lon="-2.36452">
        <ele>28.799999237061</ele>
        <time>2019-01-10T11:07:17.000Z</time>
      </trkpt>
      <trkpt lat="47.28503" lon="-2.36449">
        <ele>29.200000762939</ele>
        <time>2019-01-10T11:07:18.000Z</time>
      </trkpt>
      <trkpt lat="47.28497" lon="-2.36446">
        <ele>29.60000038147</ele>
        <time>2019-01-10T11:07:19.000Z</time>
      </trkpt>
      <trkpt lat="47.28493" lon="-2.36444">
        <ele>29.60000038147</ele>
        <time>2019-01-10T11:07:20.000Z</time>
      </trkpt>
      <trkpt lat="47.28483" lon="-2.36438">
        <ele>29.60000038147</ele>
        <time>2019-01-10T11:07:22.000Z</time>
      </trkpt>
      <trkpt lat="47.28479" lon="-2.36435">
        <ele>29.60000038147</ele>
        <time>2019-01-10T11:07:23.000Z</time>
      </trkpt>
      <trkpt lat="47.28471" lon="-2.36428">
        <ele>29.60000038147</ele>
        <time>2019-01-10T11:07:26.000Z</time>
      </trkpt>
      <trkpt lat="47.28469" lon="-2.36422">
        <ele>29.60000038147</ele>
        <time>2019-01-10T11:07:28.000Z</time>
      </trkpt>
      <trkpt lat="47.28467" lon="-2.36417">
        <ele>29.60000038147</ele>
        <time>2019-01-10T11:07:30.000Z</time>
      </trkpt>
      <trkpt lat="47.28461" lon="-2.36408">
        <ele>29.60000038147</ele>
        <time>2019-01-10T11:07:33.000Z</time>
      </trkpt>
      <trkpt lat="47.28457" lon="-2.36405">
        <ele>29.60000038147</ele>
        <time>2019-01-10T11:07:34.000Z</time>
      </trkpt>
      <trkpt lat="47.28436" lon="-2.36392">
        <ele>29.60000038147</ele>
        <time>2019-01-10T11:07:38.000Z</time>
      </trkpt>
      <trkpt lat="47.28431" lon="-2.36389">
        <ele>29.60000038147</ele>
        <time>2019-01-10T11:07:39.000Z</time>
      </trkpt>
      <trkpt lat="47.28426" lon="-2.36379">
        <ele>29.60000038147</ele>
        <time>2019-01-10T11:07:41.000Z</time>
      </trkpt>
      <trkpt lat="47.28422" lon="-2.3637">
        <ele>29.60000038147</ele>
        <time>2019-01-10T11:07:43.000Z</time>
      </trkpt>
      <trkpt lat="47.28413" lon="-2.3636">
        <ele>29.60000038147</ele>
        <time>2019-01-10T11:07:45.000Z</time>
      </trkpt>
      <trkpt lat="47.28409" lon="-2.36355">
        <ele>29.200000762939</ele>
        <time>2019-01-10T11:07:46.000Z</time>
      </trkpt>
      <trkpt lat="47.28405" lon="-2.36349">
        <ele>28.799999237061</ele>
        <time>2019-01-10T11:07:47.000Z</time>
      </trkpt>
      <trkpt lat="47.28401" lon="-2.36346">
        <ele>28.39999961853</ele>
        <time>2019-01-10T11:07:48.000Z</time>
      </trkpt>
      <trkpt lat="47.28396" lon="-2.36342">
        <ele>28</ele>
        <time>2019-01-10T11:07:49.000Z</time>
      </trkpt>
      <trkpt lat="47.28392" lon="-2.3634">
        <ele>27.60000038147</ele>
        <time>2019-01-10T11:07:50.000Z</time>
      </trkpt>
      <trkpt lat="47.28386" lon="-2.36337">
        <ele>27.60000038147</ele>
        <time>2019-01-10T11:07:51.000Z</time>
      </trkpt>
      <trkpt lat="47.28374" lon="-2.36321">
        <ele>27</ele>
        <time>2019-01-10T11:07:54.000Z</time>
      </trkpt>
      <trkpt lat="47.28372" lon="-2.36315">
        <ele>26.60000038147</ele>
        <time>2019-01-10T11:07:55.000Z</time>
      </trkpt>
      <trkpt lat="47.28373" lon="-2.36308">
        <ele>26.200000762939</ele>
        <time>2019-01-10T11:07:56.000Z</time>
      </trkpt>
      <trkpt lat="47.28372" lon="-2.36297">
        <ele>25.799999237061</ele>
        <time>2019-01-10T11:07:57.000Z</time>
      </trkpt>
      <trkpt lat="47.28372" lon="-2.36289">
        <ele>25.39999961853</ele>
        <time>2019-01-10T11:07:58.000Z</time>
      </trkpt>
      <trkpt lat="47.28378" lon="-2.36267">
        <ele>25.39999961853</ele>
        <time>2019-01-10T11:08:01.000Z</time>
      </trkpt>
      <trkpt lat="47.28391" lon="-2.36253">
        <ele>25.39999961853</ele>
        <time>2019-01-10T11:08:05.000Z</time>
      </trkpt>
      <trkpt lat="47.28401" lon="-2.36243">
        <ele>26</ele>
        <time>2019-01-10T11:08:08.000Z</time>
      </trkpt>
      <trkpt lat="47.28404" lon="-2.36239">
        <ele>26.39999961853</ele>
        <time>2019-01-10T11:08:09.000Z</time>
      </trkpt>
      <trkpt lat="47.28406" lon="-2.36236">
        <ele>26.799999237061</ele>
        <time>2019-01-10T11:08:10.000Z</time>
      </trkpt>
      <trkpt lat="47.28409" lon="-2.36232">
        <ele>27.200000762939</ele>
        <time>2019-01-10T11:08:11.000Z</time>
      </trkpt>
      <trkpt lat="47.28412" lon="-2.36228">
        <ele>27.799999237061</ele>
        <time>2019-01-10T11:08:12.000Z</time>
      </trkpt>
      <trkpt lat="47.28416" lon="-2.36225">
        <ele>28.200000762939</ele>
        <time>2019-01-10T11:08:13.000Z</time>
      </trkpt>
      <trkpt lat="47.2842" lon="-2.36223">
        <ele>28.60000038147</ele>
        <time>2019-01-10T11:08:14.000Z</time>
      </trkpt>
      <trkpt lat="47.28423" lon="-2.36222">
        <ele>29</ele>
        <time>2019-01-10T11:08:15.000Z</time>
      </trkpt>
      <trkpt lat="47.28427" lon="-2.3622">
        <ele>29.39999961853</ele>
        <time>2019-01-10T11:08:16.000Z</time>
      </trkpt>
      <trkpt lat="47.2843" lon="-2.36218">
        <ele>29.799999237061</ele>
        <time>2019-01-10T11:08:17.000Z</time>
      </trkpt>
      <trkpt lat="47.28433" lon="-2.36213">
        <ele>29.799999237061</ele>
        <time>2019-01-10T11:08:19.000Z</time>
      </trkpt>
      <trkpt lat="47.28436" lon="-2.36209">
        <ele>29.799999237061</ele>
        <time>2019-01-10T11:08:23.000Z</time>
      </trkpt>
      <trkpt lat="47.28448" lon="-2.36189">
        <ele>31</ele>
        <time>2019-01-10T11:09:19.000Z</time>
      </trkpt>
      <trkpt lat="47.28446" lon="-2.36187">
        <ele>31.39999961853</ele>
        <time>2019-01-10T11:09:20.000Z</time>
      </trkpt>
      <trkpt lat="47.28446" lon="-2.36183">
        <ele>31.799999237061</ele>
        <time>2019-01-10T11:09:21.000Z</time>
      </trkpt>
      <trkpt lat="47.28447" lon="-2.36167">
        <ele>32.200000762939</ele>
        <time>2019-01-10T11:09:26.000Z</time>
      </trkpt>
      <trkpt lat="47.28448" lon="-2.36163">
        <ele>32.599998474121</ele>
        <time>2019-01-10T11:09:27.000Z</time>
      </trkpt>
      <trkpt lat="47.28448" lon="-2.36158">
        <ele>33</ele>
        <time>2019-01-10T11:09:28.000Z</time>
      </trkpt>
      <trkpt lat="47.28446" lon="-2.36154">
        <ele>33.400001525879</ele>
        <time>2019-01-10T11:09:29.000Z</time>
      </trkpt>
      <trkpt lat="47.28444" lon="-2.36151">
        <ele>33.799999237061</ele>
        <time>2019-01-10T11:09:30.000Z</time>
      </trkpt>
      <trkpt lat="47.28442" lon="-2.36147">
        <ele>33.799999237061</ele>
        <time>2019-01-10T11:09:31.000Z</time>
      </trkpt>
      <trkpt lat="47.28441" lon="-2.36143">
        <ele>34.200000762939</ele>
        <time>2019-01-10T11:09:32.000Z</time>
      </trkpt>
      <trkpt lat="47.28442" lon="-2.36136">
        <ele>34.599998474121</ele>
        <time>2019-01-10T11:09:33.000Z</time>
      </trkpt>
      <trkpt lat="47.28442" lon="-2.36131">
        <ele>35</ele>
        <time>2019-01-10T11:09:34.000Z</time>
      </trkpt>
      <trkpt lat="47.2844" lon="-2.36125">
        <ele>35.400001525879</ele>
        <time>2019-01-10T11:09:35.000Z</time>
      </trkpt>
      <trkpt lat="47.28439" lon="-2.36121">
        <ele>35.799999237061</ele>
        <time>2019-01-10T11:09:36.000Z</time>
      </trkpt>
      <trkpt lat="47.28438" lon="-2.3611">
        <ele>35.799999237061</ele>
        <time>2019-01-10T11:09:38.000Z</time>
      </trkpt>
      <trkpt lat="47.28436" lon="-2.36099">
        <ele>36.400001525879</ele>
        <time>2019-01-10T11:09:40.000Z</time>
      </trkpt>
      <trkpt lat="47.28436" lon="-2.36094">
        <ele>36.799999237061</ele>
        <time>2019-01-10T11:09:41.000Z</time>
      </trkpt>
      <trkpt lat="47.28435" lon="-2.36089">
        <ele>37.200000762939</ele>
        <time>2019-01-10T11:09:42.000Z</time>
      </trkpt>
      <trkpt lat="47.28435" lon="-2.36084">
        <ele>37.599998474121</ele>
        <time>2019-01-10T11:09:43.000Z</time>
      </trkpt>
      <trkpt lat="47.28435" lon="-2.36079">
        <ele>38.200000762939</ele>
        <time>2019-01-10T11:09:44.000Z</time>
      </trkpt>
      <trkpt lat="47.28434" lon="-2.36073">
        <ele>38.200000762939</ele>
        <time>2019-01-10T11:09:45.000Z</time>
      </trkpt>
      <trkpt lat="47.28434" lon="-2.36064">
        <ele>38.599998474121</ele>
        <time>2019-01-10T11:09:47.000Z</time>
      </trkpt>
      <trkpt lat="47.28434" lon="-2.36058">
        <ele>39</ele>
        <time>2019-01-10T11:09:48.000Z</time>
      </trkpt>
      <trkpt lat="47.28434" lon="-2.36052">
        <ele>39.400001525879</ele>
        <time>2019-01-10T11:09:49.000Z</time>
      </trkpt>
      <trkpt lat="47.28434" lon="-2.36047">
        <ele>39.799999237061</ele>
        <time>2019-01-10T11:09:50.000Z</time>
      </trkpt>
      <trkpt lat="47.28434" lon="-2.36043">
        <ele>40.200000762939</ele>
        <time>2019-01-10T11:09:51.000Z</time>
      </trkpt>
      <trkpt lat="47.28437" lon="-2.36026">
        <ele>40.200000762939</ele>
        <time>2019-01-10T11:09:55.000Z</time>
      </trkpt>
      <trkpt lat="47.28443" lon="-2.36011">
        <ele>40.200000762939</ele>
        <time>2019-01-10T11:10:00.000Z</time>
      </trkpt>
      <trkpt lat="47.28448" lon="-2.36002">
        <ele>40.200000762939</ele>
        <time>2019-01-10T11:10:04.000Z</time>
      </trkpt>
      <trkpt lat="47.28456" lon="-2.35977">
        <ele>40.200000762939</ele>
        <time>2019-01-10T11:10:08.000Z</time>
      </trkpt>
      <trkpt lat="47.28462" lon="-2.35955">
        <ele>40.200000762939</ele>
        <time>2019-01-10T11:10:11.000Z</time>
      </trkpt>
      <trkpt lat="47.28468" lon="-2.3594">
        <ele>40.200000762939</ele>
        <time>2019-01-10T11:10:13.000Z</time>
      </trkpt>
      <trkpt lat="47.28472" lon="-2.35934">
        <ele>39.799999237061</ele>
        <time>2019-01-10T11:10:14.000Z</time>
      </trkpt>
      <trkpt lat="47.28474" lon="-2.35925">
        <ele>39.400001525879</ele>
        <time>2019-01-10T11:10:15.000Z</time>
      </trkpt>
      <trkpt lat="47.28476" lon="-2.35918">
        <ele>38.799999237061</ele>
        <time>2019-01-10T11:10:16.000Z</time>
      </trkpt>
      <trkpt lat="47.28476" lon="-2.3591">
        <ele>38.200000762939</ele>
        <time>2019-01-10T11:10:17.000Z</time>
      </trkpt>
      <trkpt lat="47.28475" lon="-2.35905">
        <ele>37.400001525879</ele>
        <time>2019-01-10T11:10:18.000Z</time>
      </trkpt>
      <trkpt lat="47.28471" lon="-2.35899">
        <ele>36.799999237061</ele>
        <time>2019-01-10T11:10:19.000Z</time>
      </trkpt>
      <trkpt lat="47.28467" lon="-2.35896">
        <ele>36</ele>
        <time>2019-01-10T11:10:20.000Z</time>
      </trkpt>
      <trkpt lat="47.28462" lon="-2.35892">
        <ele>35.200000762939</ele>
        <time>2019-01-10T11:10:21.000Z</time>
      </trkpt>
      <trkpt lat="47.28457" lon="-2.3589">
        <ele>34.400001525879</ele>
        <time>2019-01-10T11:10:22.000Z</time>
      </trkpt>
      <trkpt lat="47.28451" lon="-2.35888">
        <ele>33.599998474121</ele>
        <time>2019-01-10T11:10:23.000Z</time>
      </trkpt>
      <trkpt lat="47.28446" lon="-2.35885">
        <ele>32.799999237061</ele>
        <time>2019-01-10T11:10:24.000Z</time>
      </trkpt>
      <trkpt lat="47.28441" lon="-2.35881">
        <ele>32.799999237061</ele>
        <time>2019-01-10T11:10:25.000Z</time>
      </trkpt>
      <trkpt lat="47.28438" lon="-2.35877">
        <ele>32.799999237061</ele>
        <time>2019-01-10T11:10:26.000Z</time>
      </trkpt>
      <trkpt lat="47.28436" lon="-2.35872">
        <ele>32.400001525879</ele>
        <time>2019-01-10T11:10:27.000Z</time>
      </trkpt>
      <trkpt lat="47.28433" lon="-2.35867">
        <ele>32</ele>
        <time>2019-01-10T11:10:28.000Z</time>
      </trkpt>
      <trkpt lat="47.28432" lon="-2.35861">
        <ele>31.39999961853</ele>
        <time>2019-01-10T11:10:29.000Z</time>
      </trkpt>
      <trkpt lat="47.28429" lon="-2.35856">
        <ele>31</ele>
        <time>2019-01-10T11:10:30.000Z</time>
      </trkpt>
      <trkpt lat="47.28426" lon="-2.35851">
        <ele>30.60000038147</ele>
        <time>2019-01-10T11:10:31.000Z</time>
      </trkpt>
      <trkpt lat="47.28419" lon="-2.35838">
        <ele>30.60000038147</ele>
        <time>2019-01-10T11:10:33.000Z</time>
      </trkpt>
      <trkpt lat="47.28414" lon="-2.35832">
        <ele>30.60000038147</ele>
        <time>2019-01-10T11:10:34.000Z</time>
      </trkpt>
      <trkpt lat="47.28395" lon="-2.35812">
        <ele>30.60000038147</ele>
        <time>2019-01-10T11:10:38.000Z</time>
      </trkpt>
      <trkpt lat="47.28373" lon="-2.35798">
        <ele>30.60000038147</ele>
        <time>2019-01-10T11:10:42.000Z</time>
      </trkpt>
      <trkpt lat="47.28359" lon="-2.35801">
        <ele>30.60000038147</ele>
        <time>2019-01-10T11:10:44.000Z</time>
      </trkpt>
      <trkpt lat="47.28353" lon="-2.35805">
        <ele>30.60000038147</ele>
        <time>2019-01-10T11:10:45.000Z</time>
      </trkpt>
      <trkpt lat="47.28342" lon="-2.35811">
        <ele>30.60000038147</ele>
        <time>2019-01-10T11:10:47.000Z</time>
      </trkpt>
      <trkpt lat="47.28334" lon="-2.35822">
        <ele>30.60000038147</ele>
        <time>2019-01-10T11:10:49.000Z</time>
      </trkpt>
      <trkpt lat="47.28317" lon="-2.35842">
        <ele>30.60000038147</ele>
        <time>2019-01-10T11:10:53.000Z</time>
      </trkpt>
      <trkpt lat="47.28311" lon="-2.35846">
        <ele>30.60000038147</ele>
        <time>2019-01-10T11:10:54.000Z</time>
      </trkpt>
      <trkpt lat="47.283" lon="-2.35856">
        <ele>30</ele>
        <time>2019-01-10T11:10:56.000Z</time>
      </trkpt>
      <trkpt lat="47.28296" lon="-2.35861">
        <ele>29.60000038147</ele>
        <time>2019-01-10T11:10:57.000Z</time>
      </trkpt>
      <trkpt lat="47.28292" lon="-2.35864">
        <ele>29.200000762939</ele>
        <time>2019-01-10T11:10:58.000Z</time>
      </trkpt>
      <trkpt lat="47.28289" lon="-2.35863">
        <ele>28.60000038147</ele>
        <time>2019-01-10T11:10:59.000Z</time>
      </trkpt>
      <trkpt lat="47.28287" lon="-2.35862">
        <ele>28.200000762939</ele>
        <time>2019-01-10T11:11:00.000Z</time>
      </trkpt>
      <trkpt lat="47.28286" lon="-2.3586">
        <ele>27.799999237061</ele>
        <time>2019-01-10T11:11:01.000Z</time>
      </trkpt>
      <trkpt lat="47.28284" lon="-2.35859">
        <ele>27.39999961853</ele>
        <time>2019-01-10T11:11:02.000Z</time>
      </trkpt>
      <trkpt lat="47.28282" lon="-2.35859">
        <ele>27</ele>
        <time>2019-01-10T11:11:03.000Z</time>
      </trkpt>
      <trkpt lat="47.2828" lon="-2.35858">
        <ele>26.60000038147</ele>
        <time>2019-01-10T11:11:04.000Z</time>
      </trkpt>
      <trkpt lat="47.28278" lon="-2.35856">
        <ele>26.200000762939</ele>
        <time>2019-01-10T11:11:05.000Z</time>
      </trkpt>
      <trkpt lat="47.28277" lon="-2.35852">
        <ele>26.200000762939</ele>
        <time>2019-01-10T11:11:06.000Z</time>
      </trkpt>
      <trkpt lat="47.28271" lon="-2.35831">
        <ele>26.200000762939</ele>
        <time>2019-01-10T11:11:11.000Z</time>
      </trkpt>
      <trkpt lat="47.28263" lon="-2.35807">
        <ele>26.200000762939</ele>
        <time>2019-01-10T11:11:16.000Z</time>
      </trkpt>
      <trkpt lat="47.28253" lon="-2.358">
        <ele>26.200000762939</ele>
        <time>2019-01-10T11:11:19.000Z</time>
      </trkpt>
      <trkpt lat="47.28237" lon="-2.35783">
        <ele>26.200000762939</ele>
        <time>2019-01-10T11:11:25.000Z</time>
      </trkpt>
      <trkpt lat="47.28222" lon="-2.35765">
        <ele>26.200000762939</ele>
        <time>2019-01-10T11:11:29.000Z</time>
      </trkpt>
      <trkpt lat="47.28214" lon="-2.35752">
        <ele>26.200000762939</ele>
        <time>2019-01-10T11:11:31.000Z</time>
      </trkpt>
      <trkpt lat="47.28208" lon="-2.35739">
        <ele>26.200000762939</ele>
        <time>2019-01-10T11:11:33.000Z</time>
      </trkpt>
      <trkpt lat="47.28198" lon="-2.35731">
        <ele>26.200000762939</ele>
        <time>2019-01-10T11:11:36.000Z</time>
      </trkpt>
      <trkpt lat="47.28193" lon="-2.35722">
        <ele>26.200000762939</ele>
        <time>2019-01-10T11:11:39.000Z</time>
      </trkpt>
      <trkpt lat="47.28187" lon="-2.35711">
        <ele>26.200000762939</ele>
        <time>2019-01-10T11:11:41.000Z</time>
      </trkpt>
      <trkpt lat="47.28184" lon="-2.3571">
        <ele>26.60000038147</ele>
        <time>2019-01-10T11:11:42.000Z</time>
      </trkpt>
      <trkpt lat="47.28184" lon="-2.35709">
        <ele>27</ele>
        <time>2019-01-10T11:11:43.000Z</time>
      </trkpt>
      <trkpt lat="47.28183" lon="-2.35708">
        <ele>27.39999961853</ele>
        <time>2019-01-10T11:11:44.000Z</time>
      </trkpt>
      <trkpt lat="47.28181" lon="-2.35707">
        <ele>27.799999237061</ele>
        <time>2019-01-10T11:11:45.000Z</time>
      </trkpt>
      <trkpt lat="47.2818" lon="-2.35705">
        <ele>28.200000762939</ele>
        <time>2019-01-10T11:11:46.000Z</time>
      </trkpt>
      <trkpt lat="47.28179" lon="-2.35702">
        <ele>28.60000038147</ele>
        <time>2019-01-10T11:11:48.000Z</time>
      </trkpt>
      <trkpt lat="47.28178" lon="-2.357">
        <ele>29.200000762939</ele>
        <time>2019-01-10T11:11:49.000Z</time>
      </trkpt>
      <trkpt lat="47.28176" lon="-2.35698">
        <ele>29.60000038147</ele>
        <time>2019-01-10T11:11:50.000Z</time>
      </trkpt>
      <trkpt lat="47.28175" lon="-2.35698">
        <ele>30.60000038147</ele>
        <time>2019-01-10T11:11:51.000Z</time>
      </trkpt>
      <trkpt lat="47.28173" lon="-2.35695">
        <ele>30.60000038147</ele>
        <time>2019-01-10T11:11:54.000Z</time>
      </trkpt>
      <trkpt lat="47.2817" lon="-2.35694">
        <ele>30.60000038147</ele>
        <time>2019-01-10T11:11:56.000Z</time>
      </trkpt>
      <trkpt lat="47.28166" lon="-2.35689">
        <ele>31.200000762939</ele>
        <time>2019-01-10T11:11:58.000Z</time>
      </trkpt>
      <trkpt lat="47.28164" lon="-2.35687">
        <ele>31.60000038147</ele>
        <time>2019-01-10T11:11:59.000Z</time>
      </trkpt>
      <trkpt lat="47.28162" lon="-2.35685">
        <ele>32</ele>
        <time>2019-01-10T11:12:00.000Z</time>
      </trkpt>
      <trkpt lat="47.28159" lon="-2.35683">
        <ele>32.400001525879</ele>
        <time>2019-01-10T11:12:01.000Z</time>
      </trkpt>
      <trkpt lat="47.28158" lon="-2.35682">
        <ele>33</ele>
        <time>2019-01-10T11:12:02.000Z</time>
      </trkpt>
      <trkpt lat="47.28158" lon="-2.35682">
        <ele>33.400001525879</ele>
        <time>2019-01-10T11:12:03.000Z</time>
      </trkpt>
      <trkpt lat="47.28157" lon="-2.35678">
        <ele>34</ele>
        <time>2019-01-10T11:12:04.000Z</time>
      </trkpt>
      <trkpt lat="47.28156" lon="-2.35676">
        <ele>34.400001525879</ele>
        <time>2019-01-10T11:12:05.000Z</time>
      </trkpt>
      <trkpt lat="47.28156" lon="-2.35674">
        <ele>35</ele>
        <time>2019-01-10T11:12:06.000Z</time>
      </trkpt>
      <trkpt lat="47.28155" lon="-2.35671">
        <ele>35</ele>
        <time>2019-01-10T11:12:07.000Z</time>
      </trkpt>
      <trkpt lat="47.28152" lon="-2.35659">
        <ele>35</ele>
        <time>2019-01-10T11:12:10.000Z</time>
      </trkpt>
      <trkpt lat="47.28152" lon="-2.3564">
        <ele>35</ele>
        <time>2019-01-10T11:12:14.000Z</time>
      </trkpt>
      <trkpt lat="47.28151" lon="-2.35637">
        <ele>34.400001525879</ele>
        <time>2019-01-10T11:12:15.000Z</time>
      </trkpt>
      <trkpt lat="47.28151" lon="-2.35633">
        <ele>33.400001525879</ele>
        <time>2019-01-10T11:12:16.000Z</time>
      </trkpt>
      <trkpt lat="47.28152" lon="-2.3563">
        <ele>33</ele>
        <time>2019-01-10T11:12:17.000Z</time>
      </trkpt>
      <trkpt lat="47.28152" lon="-2.35628">
        <ele>32.400001525879</ele>
        <time>2019-01-10T11:12:18.000Z</time>
      </trkpt>
      <trkpt lat="47.28152" lon="-2.35625">
        <ele>31.799999237061</ele>
        <time>2019-01-10T11:12:19.000Z</time>
      </trkpt>
      <trkpt lat="47.28152" lon="-2.35622">
        <ele>31.200000762939</ele>
        <time>2019-01-10T11:12:20.000Z</time>
      </trkpt>
      <trkpt lat="47.28152" lon="-2.35618">
        <ele>30.39999961853</ele>
        <time>2019-01-10T11:12:21.000Z</time>
      </trkpt>
      <trkpt lat="47.28151" lon="-2.35616">
        <ele>29.799999237061</ele>
        <time>2019-01-10T11:12:22.000Z</time>
      </trkpt>
      <trkpt lat="47.28147" lon="-2.35615">
        <ele>29.200000762939</ele>
        <time>2019-01-10T11:12:23.000Z</time>
      </trkpt>
      <trkpt lat="47.28145" lon="-2.35615">
        <ele>28.60000038147</ele>
        <time>2019-01-10T11:12:24.000Z</time>
      </trkpt>
      <trkpt lat="47.28143" lon="-2.35614">
        <ele>28</ele>
        <time>2019-01-10T11:12:25.000Z</time>
      </trkpt>
      <trkpt lat="47.2814" lon="-2.35612">
        <ele>27.39999961853</ele>
        <time>2019-01-10T11:12:26.000Z</time>
      </trkpt>
      <trkpt lat="47.28138" lon="-2.35611">
        <ele>26.60000038147</ele>
        <time>2019-01-10T11:12:27.000Z</time>
      </trkpt>
      <trkpt lat="47.28139" lon="-2.3561">
        <ele>26</ele>
        <time>2019-01-10T11:12:28.000Z</time>
      </trkpt>
      <trkpt lat="47.28138" lon="-2.35609">
        <ele>25.200000762939</ele>
        <time>2019-01-10T11:12:29.000Z</time>
      </trkpt>
      <trkpt lat="47.28114" lon="-2.35588">
        <ele>24.60000038147</ele>
        <time>2019-01-10T11:13:01.000Z</time>
      </trkpt>
      <trkpt lat="47.28113" lon="-2.35588">
        <ele>24.60000038147</ele>
        <time>2019-01-10T11:13:03.000Z</time>
      </trkpt>
      <trkpt lat="47.2811" lon="-2.35591">
        <ele>22.799999237061</ele>
        <time>2019-01-10T11:13:07.000Z</time>
      </trkpt>
      <trkpt lat="47.28109" lon="-2.35592">
        <ele>22.39999961853</ele>
        <time>2019-01-10T11:13:08.000Z</time>
      </trkpt>
      <trkpt lat="47.28106" lon="-2.35598">
        <ele>22.39999961853</ele>
        <time>2019-01-10T11:13:10.000Z</time>
      </trkpt>
      <trkpt lat="47.28105" lon="-2.35599">
        <ele>22.39999961853</ele>
        <time>2019-01-10T11:13:11.000Z</time>
      </trkpt>
      <trkpt lat="47.281" lon="-2.3561">
        <ele>22.39999961853</ele>
        <time>2019-01-10T11:13:13.000Z</time>
      </trkpt>
      <trkpt lat="47.28089" lon="-2.35612">
        <ele>22.39999961853</ele>
        <time>2019-01-10T11:13:16.000Z</time>
      </trkpt>
      <trkpt lat="47.28072" lon="-2.35607">
        <ele>22.39999961853</ele>
        <time>2019-01-10T11:13:21.000Z</time>
      </trkpt>
      <trkpt lat="47.2806" lon="-2.35605">
        <ele>22.39999961853</ele>
        <time>2019-01-10T11:13:25.000Z</time>
      </trkpt>
      <trkpt lat="47.28048" lon="-2.35602">
        <ele>22.39999961853</ele>
        <time>2019-01-10T11:13:28.000Z</time>
      </trkpt>
      <trkpt lat="47.28044" lon="-2.35602">
        <ele>22.39999961853</ele>
        <time>2019-01-10T11:13:29.000Z</time>
      </trkpt>
      <trkpt lat="47.28039" lon="-2.35595">
        <ele>22.39999961853</ele>
        <time>2019-01-10T11:13:32.000Z</time>
      </trkpt>
      <trkpt lat="47.28039" lon="-2.3559">
        <ele>22.39999961853</ele>
        <time>2019-01-10T11:13:33.000Z</time>
      </trkpt>
      <trkpt lat="47.28032" lon="-2.35571">
        <ele>22.39999961853</ele>
        <time>2019-01-10T11:13:37.000Z</time>
      </trkpt>
      <trkpt lat="47.2803" lon="-2.3557">
        <ele>22.39999961853</ele>
        <time>2019-01-10T11:13:38.000Z</time>
      </trkpt>
      <trkpt lat="47.28031" lon="-2.35569">
        <ele>22</ele>
        <time>2019-01-10T11:13:40.000Z</time>
      </trkpt>
      <trkpt lat="47.28026" lon="-2.35565">
        <ele>20.200000762939</ele>
        <time>2019-01-10T11:15:49.000Z</time>
      </trkpt>
      <trkpt lat="47.28015" lon="-2.35565">
        <ele>20.200000762939</ele>
        <time>2019-01-10T11:15:53.000Z</time>
      </trkpt>
      <trkpt lat="47.27995" lon="-2.35569">
        <ele>20.200000762939</ele>
        <time>2019-01-10T11:15:58.000Z</time>
      </trkpt>
      <trkpt lat="47.27976" lon="-2.35575">
        <ele>20.200000762939</ele>
        <time>2019-01-10T11:16:02.000Z</time>
      </trkpt>
      <trkpt lat="47.27968" lon="-2.35578">
        <ele>20.200000762939</ele>
        <time>2019-01-10T11:16:04.000Z</time>
      </trkpt>
      <trkpt lat="47.27939" lon="-2.35588">
        <ele>20.200000762939</ele>
        <time>2019-01-10T11:16:10.000Z</time>
      </trkpt>
      <trkpt lat="47.27928" lon="-2.35591">
        <ele>20.200000762939</ele>
        <time>2019-01-10T11:16:12.000Z</time>
      </trkpt>
      <trkpt lat="47.27918" lon="-2.35594">
        <ele>20.200000762939</ele>
        <time>2019-01-10T11:16:14.000Z</time>
      </trkpt>
      <trkpt lat="47.27889" lon="-2.356">
        <ele>20.200000762939</ele>
        <time>2019-01-10T11:16:19.000Z</time>
      </trkpt>
      <trkpt lat="47.2787" lon="-2.35605">
        <ele>19.799999237061</ele>
        <time>2019-01-10T11:16:22.000Z</time>
      </trkpt>
      <trkpt lat="47.27863" lon="-2.35607">
        <ele>19</ele>
        <time>2019-01-10T11:16:23.000Z</time>
      </trkpt>
      <trkpt lat="47.27856" lon="-2.35609">
        <ele>18.60000038147</ele>
        <time>2019-01-10T11:16:24.000Z</time>
      </trkpt>
      <trkpt lat="47.27849" lon="-2.3561">
        <ele>18</ele>
        <time>2019-01-10T11:16:25.000Z</time>
      </trkpt>
      <trkpt lat="47.27829" lon="-2.35616">
        <ele>17.60000038147</ele>
        <time>2019-01-10T11:16:28.000Z</time>
      </trkpt>
      <trkpt lat="47.27823" lon="-2.35618">
        <ele>17.200000762939</ele>
        <time>2019-01-10T11:16:29.000Z</time>
      </trkpt>
      <trkpt lat="47.27816" lon="-2.3562">
        <ele>16.799999237061</ele>
        <time>2019-01-10T11:16:30.000Z</time>
      </trkpt>
      <trkpt lat="47.27809" lon="-2.35623">
        <ele>16.39999961853</ele>
        <time>2019-01-10T11:16:31.000Z</time>
      </trkpt>
      <trkpt lat="47.27802" lon="-2.35625">
        <ele>16</ele>
        <time>2019-01-10T11:16:32.000Z</time>
      </trkpt>
      <trkpt lat="47.27788" lon="-2.35631">
        <ele>16</ele>
        <time>2019-01-10T11:16:34.000Z</time>
      </trkpt>
      <trkpt lat="47.27782" lon="-2.35636">
        <ele>16</ele>
        <time>2019-01-10T11:16:35.000Z</time>
      </trkpt>
      <trkpt lat="47.27753" lon="-2.35669">
        <ele>15.60000038147</ele>
        <time>2019-01-10T11:16:40.000Z</time>
      </trkpt>
      <trkpt lat="47.27747" lon="-2.35677">
        <ele>15.199999809265</ele>
        <time>2019-01-10T11:16:41.000Z</time>
      </trkpt>
      <trkpt lat="47.27742" lon="-2.35685">
        <ele>14.800000190735</ele>
        <time>2019-01-10T11:16:42.000Z</time>
      </trkpt>
      <trkpt lat="47.27736" lon="-2.35693">
        <ele>14.39999961853</ele>
        <time>2019-01-10T11:16:43.000Z</time>
      </trkpt>
      <trkpt lat="47.27731" lon="-2.357">
        <ele>14</ele>
        <time>2019-01-10T11:16:44.000Z</time>
      </trkpt>
      <trkpt lat="47.27714" lon="-2.35719">
        <ele>14</ele>
        <time>2019-01-10T11:16:47.000Z</time>
      </trkpt>
      <trkpt lat="47.27702" lon="-2.35728">
        <ele>14</ele>
        <time>2019-01-10T11:16:49.000Z</time>
      </trkpt>
      <trkpt lat="47.27691" lon="-2.35737">
        <ele>13.60000038147</ele>
        <time>2019-01-10T11:16:51.000Z</time>
      </trkpt>
      <trkpt lat="47.27686" lon="-2.35743">
        <ele>13.199999809265</ele>
        <time>2019-01-10T11:16:52.000Z</time>
      </trkpt>
      <trkpt lat="47.27682" lon="-2.35747">
        <ele>12.800000190735</ele>
        <time>2019-01-10T11:16:53.000Z</time>
      </trkpt>
      <trkpt lat="47.27678" lon="-2.35749">
        <ele>12.39999961853</ele>
        <time>2019-01-10T11:16:54.000Z</time>
      </trkpt>
      <trkpt lat="47.27674" lon="-2.35746">
        <ele>12</ele>
        <time>2019-01-10T11:16:55.000Z</time>
      </trkpt>
      <trkpt lat="47.27665" lon="-2.35737">
        <ele>12</ele>
        <time>2019-01-10T11:16:57.000Z</time>
      </trkpt>
      <trkpt lat="47.27646" lon="-2.35726">
        <ele>12</ele>
        <time>2019-01-10T11:17:00.000Z</time>
      </trkpt>
      <trkpt lat="47.27607" lon="-2.35714">
        <ele>12</ele>
        <time>2019-01-10T11:17:05.000Z</time>
      </trkpt>
      <trkpt lat="47.27584" lon="-2.35707">
        <ele>12</ele>
        <time>2019-01-10T11:17:08.000Z</time>
      </trkpt>
      <trkpt lat="47.27576" lon="-2.35706">
        <ele>11.60000038147</ele>
        <time>2019-01-10T11:17:09.000Z</time>
      </trkpt>
      <trkpt lat="47.27569" lon="-2.35704">
        <ele>11.199999809265</ele>
        <time>2019-01-10T11:17:10.000Z</time>
      </trkpt>
      <trkpt lat="47.27562" lon="-2.35702">
        <ele>10.800000190735</ele>
        <time>2019-01-10T11:17:11.000Z</time>
      </trkpt>
      <trkpt lat="47.27554" lon="-2.357">
        <ele>10</ele>
        <time>2019-01-10T11:17:12.000Z</time>
      </trkpt>
      <trkpt lat="47.27519" lon="-2.3569">
        <ele>10</ele>
        <time>2019-01-10T11:17:17.000Z</time>
      </trkpt>
      <trkpt lat="47.27504" lon="-2.35687">
        <ele>9.6000003814697</ele>
        <time>2019-01-10T11:17:19.000Z</time>
      </trkpt>
      <trkpt lat="47.27497" lon="-2.35684">
        <ele>9.1999998092651</ele>
        <time>2019-01-10T11:17:20.000Z</time>
      </trkpt>
      <trkpt lat="47.2749" lon="-2.35683">
        <ele>8.8000001907349</ele>
        <time>2019-01-10T11:17:21.000Z</time>
      </trkpt>
      <trkpt lat="47.27483" lon="-2.35681">
        <ele>8.3999996185303</ele>
        <time>2019-01-10T11:17:22.000Z</time>
      </trkpt>
      <trkpt lat="47.27476" lon="-2.3568">
        <ele>8</ele>
        <time>2019-01-10T11:17:23.000Z</time>
      </trkpt>
      <trkpt lat="47.27469" lon="-2.35679">
        <ele>8</ele>
        <time>2019-01-10T11:17:24.000Z</time>
      </trkpt>
      <trkpt lat="47.27422" lon="-2.35668">
        <ele>8</ele>
        <time>2019-01-10T11:17:31.000Z</time>
      </trkpt>
      <trkpt lat="47.27408" lon="-2.35668">
        <ele>8</ele>
        <time>2019-01-10T11:17:33.000Z</time>
      </trkpt>
      <trkpt lat="47.27401" lon="-2.35671">
        <ele>8</ele>
        <time>2019-01-10T11:17:34.000Z</time>
      </trkpt>
      <trkpt lat="47.27368" lon="-2.35695">
        <ele>8</ele>
        <time>2019-01-10T11:17:39.000Z</time>
      </trkpt>
      <trkpt lat="47.27349" lon="-2.35709">
        <ele>7.5999999046326</ele>
        <time>2019-01-10T11:17:42.000Z</time>
      </trkpt>
      <trkpt lat="47.27343" lon="-2.35714">
        <ele>7</ele>
        <time>2019-01-10T11:17:43.000Z</time>
      </trkpt>
      <trkpt lat="47.27337" lon="-2.35719">
        <ele>6.5999999046326</ele>
        <time>2019-01-10T11:17:44.000Z</time>
      </trkpt>
      <trkpt lat="47.27332" lon="-2.35725">
        <ele>6.1999998092651</ele>
        <time>2019-01-10T11:17:45.000Z</time>
      </trkpt>
      <trkpt lat="47.27327" lon="-2.35731">
        <ele>5.8000001907349</ele>
        <time>2019-01-10T11:17:46.000Z</time>
      </trkpt>
      <trkpt lat="47.27319" lon="-2.3574">
        <ele>5.8000001907349</ele>
        <time>2019-01-10T11:17:48.000Z</time>
      </trkpt>
      <trkpt lat="47.27315" lon="-2.35742">
        <ele>5.8000001907349</ele>
        <time>2019-01-10T11:17:49.000Z</time>
      </trkpt>
      <trkpt lat="47.27307" lon="-2.35736">
        <ele>5.8000001907349</ele>
        <time>2019-01-10T11:17:51.000Z</time>
      </trkpt>
      <trkpt lat="47.27301" lon="-2.3572">
        <ele>5.8000001907349</ele>
        <time>2019-01-10T11:17:53.000Z</time>
      </trkpt>
      <trkpt lat="47.27296" lon="-2.35704">
        <ele>5.8000001907349</ele>
        <time>2019-01-10T11:17:55.000Z</time>
      </trkpt>
      <trkpt lat="47.27276" lon="-2.35665">
        <ele>5.8000001907349</ele>
        <time>2019-01-10T11:18:00.000Z</time>
      </trkpt>
      <trkpt lat="47.27259" lon="-2.35624">
        <ele>6.1999998092651</ele>
        <time>2019-01-10T11:18:05.000Z</time>
      </trkpt>
      <trkpt lat="47.27255" lon="-2.35616">
        <ele>6.5999999046326</ele>
        <time>2019-01-10T11:18:06.000Z</time>
      </trkpt>
      <trkpt lat="47.27251" lon="-2.35608">
        <ele>7</ele>
        <time>2019-01-10T11:18:07.000Z</time>
      </trkpt>
      <trkpt lat="47.27248" lon="-2.356">
        <ele>7.5999999046326</ele>
        <time>2019-01-10T11:18:08.000Z</time>
      </trkpt>
      <trkpt lat="47.27244" lon="-2.35592">
        <ele>8</ele>
        <time>2019-01-10T11:18:09.000Z</time>
      </trkpt>
      <trkpt lat="47.27211" lon="-2.35521">
        <ele>8</ele>
        <time>2019-01-10T11:18:18.000Z</time>
      </trkpt>
      <trkpt lat="47.27201" lon="-2.35499">
        <ele>8.3999996185303</ele>
        <time>2019-01-10T11:18:21.000Z</time>
      </trkpt>
      <trkpt lat="47.27197" lon="-2.3549">
        <ele>8.8000001907349</ele>
        <time>2019-01-10T11:18:22.000Z</time>
      </trkpt>
      <trkpt lat="47.27193" lon="-2.35482">
        <ele>9.1999998092651</ele>
        <time>2019-01-10T11:18:23.000Z</time>
      </trkpt>
      <trkpt lat="47.27189" lon="-2.35474">
        <ele>9.6000003814697</ele>
        <time>2019-01-10T11:18:24.000Z</time>
      </trkpt>
      <trkpt lat="47.27186" lon="-2.35466">
        <ele>10.199999809265</ele>
        <time>2019-01-10T11:18:25.000Z</time>
      </trkpt>
      <trkpt lat="47.27153" lon="-2.35402">
        <ele>10.199999809265</ele>
        <time>2019-01-10T11:18:33.000Z</time>
      </trkpt>
      <trkpt lat="47.27149" lon="-2.35393">
        <ele>10.199999809265</ele>
        <time>2019-01-10T11:18:34.000Z</time>
      </trkpt>
      <trkpt lat="47.27112" lon="-2.35333">
        <ele>10.199999809265</ele>
        <time>2019-01-10T11:18:42.000Z</time>
      </trkpt>
      <trkpt lat="47.27078" lon="-2.3528">
        <ele>10.199999809265</ele>
        <time>2019-01-10T11:18:49.000Z</time>
      </trkpt>
      <trkpt lat="47.27039" lon="-2.3522">
        <ele>10.199999809265</ele>
        <time>2019-01-10T11:18:57.000Z</time>
      </trkpt>
      <trkpt lat="47.27034" lon="-2.35212">
        <ele>10.199999809265</ele>
        <time>2019-01-10T11:18:58.000Z</time>
      </trkpt>
      <trkpt lat="47.27" lon="-2.3516">
        <ele>10.199999809265</ele>
        <time>2019-01-10T11:19:05.000Z</time>
      </trkpt>
      <trkpt lat="47.26961" lon="-2.35097">
        <ele>10.199999809265</ele>
        <time>2019-01-10T11:19:13.000Z</time>
      </trkpt>
      <trkpt lat="47.26956" lon="-2.35089">
        <ele>10.199999809265</ele>
        <time>2019-01-10T11:19:14.000Z</time>
      </trkpt>
      <trkpt lat="47.26935" lon="-2.35057">
        <ele>9.8000001907349</ele>
        <time>2019-01-10T11:19:18.000Z</time>
      </trkpt>
      <trkpt lat="47.2693" lon="-2.35049">
        <ele>9.3999996185303</ele>
        <time>2019-01-10T11:19:19.000Z</time>
      </trkpt>
      <trkpt lat="47.26925" lon="-2.35041">
        <ele>9</ele>
        <time>2019-01-10T11:19:20.000Z</time>
      </trkpt>
      <trkpt lat="47.2692" lon="-2.35034">
        <ele>8.3999996185303</ele>
        <time>2019-01-10T11:19:21.000Z</time>
      </trkpt>
      <trkpt lat="47.26914" lon="-2.35026">
        <ele>8</ele>
        <time>2019-01-10T11:19:22.000Z</time>
      </trkpt>
      <trkpt lat="47.26909" lon="-2.35018">
        <ele>8</ele>
        <time>2019-01-10T11:19:23.000Z</time>
      </trkpt>
      <trkpt lat="47.26878" lon="-2.3497">
        <ele>8</ele>
        <time>2019-01-10T11:19:29.000Z</time>
      </trkpt>
      <trkpt lat="47.26842" lon="-2.34914">
        <ele>8</ele>
        <time>2019-01-10T11:19:36.000Z</time>
      </trkpt>
      <trkpt lat="47.26798" lon="-2.34851">
        <ele>8</ele>
        <time>2019-01-10T11:19:44.000Z</time>
      </trkpt>
      <trkpt lat="47.26756" lon="-2.34792">
        <ele>8</ele>
        <time>2019-01-10T11:19:52.000Z</time>
      </trkpt>
      <trkpt lat="47.26716" lon="-2.34743">
        <ele>8</ele>
        <time>2019-01-10T11:19:59.000Z</time>
      </trkpt>
      <trkpt lat="47.26676" lon="-2.34694">
        <ele>8</ele>
        <time>2019-01-10T11:20:06.000Z</time>
      </trkpt>
      <trkpt lat="47.26631" lon="-2.34638">
        <ele>8</ele>
        <time>2019-01-10T11:20:14.000Z</time>
      </trkpt>
      <trkpt lat="47.26592" lon="-2.34591">
        <ele>8</ele>
        <time>2019-01-10T11:20:21.000Z</time>
      </trkpt>
      <trkpt lat="47.26558" lon="-2.34554">
        <ele>8</ele>
        <time>2019-01-10T11:20:27.000Z</time>
      </trkpt>
      <trkpt lat="47.2651" lon="-2.34511">
        <ele>8</ele>
        <time>2019-01-10T11:20:35.000Z</time>
      </trkpt>
      <trkpt lat="47.26462" lon="-2.34477">
        <ele>8</ele>
        <time>2019-01-10T11:20:42.000Z</time>
      </trkpt>
      <trkpt lat="47.26416" lon="-2.34444">
        <ele>8</ele>
        <time>2019-01-10T11:20:49.000Z</time>
      </trkpt>
      <trkpt lat="47.26378" lon="-2.34412">
        <ele>8</ele>
        <time>2019-01-10T11:20:55.000Z</time>
      </trkpt>
      <trkpt lat="47.2634" lon="-2.34381">
        <ele>8</ele>
        <time>2019-01-10T11:21:01.000Z</time>
      </trkpt>
      <trkpt lat="47.26321" lon="-2.34368">
        <ele>8</ele>
        <time>2019-01-10T11:21:04.000Z</time>
      </trkpt>
      <trkpt lat="47.26299" lon="-2.34339">
        <ele>8</ele>
        <time>2019-01-10T11:21:08.000Z</time>
      </trkpt>
      <trkpt lat="47.26249" lon="-2.34288">
        <ele>8</ele>
        <time>2019-01-10T11:21:16.000Z</time>
      </trkpt>
      <trkpt lat="47.26201" lon="-2.34237">
        <ele>8</ele>
        <time>2019-01-10T11:21:24.000Z</time>
      </trkpt>
      <trkpt lat="47.2616" lon="-2.34196">
        <ele>8</ele>
        <time>2019-01-10T11:21:31.000Z</time>
      </trkpt>
      <trkpt lat="47.26148" lon="-2.34186">
        <ele>8</ele>
        <time>2019-01-10T11:21:33.000Z</time>
      </trkpt>
      <trkpt lat="47.26134" lon="-2.34179">
        <ele>8</ele>
        <time>2019-01-10T11:21:35.000Z</time>
      </trkpt>
      <trkpt lat="47.26124" lon="-2.34169">
        <ele>8</ele>
        <time>2019-01-10T11:21:37.000Z</time>
      </trkpt>
      <trkpt lat="47.26118" lon="-2.34164">
        <ele>8</ele>
        <time>2019-01-10T11:21:38.000Z</time>
      </trkpt>
      <trkpt lat="47.26089" lon="-2.34147">
        <ele>8</ele>
        <time>2019-01-10T11:21:42.000Z</time>
      </trkpt>
      <trkpt lat="47.26037" lon="-2.34122">
        <ele>8</ele>
        <time>2019-01-10T11:21:49.000Z</time>
      </trkpt>
      <trkpt lat="47.25987" lon="-2.34097">
        <ele>7.5999999046326</ele>
        <time>2019-01-10T11:21:56.000Z</time>
      </trkpt>
      <trkpt lat="47.2598" lon="-2.34094">
        <ele>7.1999998092651</ele>
        <time>2019-01-10T11:21:57.000Z</time>
      </trkpt>
      <trkpt lat="47.25973" lon="-2.34091">
        <ele>6.8000001907349</ele>
        <time>2019-01-10T11:21:58.000Z</time>
      </trkpt>
      <trkpt lat="47.25966" lon="-2.34088">
        <ele>6.4000000953674</ele>
        <time>2019-01-10T11:21:59.000Z</time>
      </trkpt>
      <trkpt lat="47.25959" lon="-2.34084">
        <ele>6</ele>
        <time>2019-01-10T11:22:00.000Z</time>
      </trkpt>
      <trkpt lat="47.25925" lon="-2.34069">
        <ele>6</ele>
        <time>2019-01-10T11:22:05.000Z</time>
      </trkpt>
      <trkpt lat="47.25901" lon="-2.34058">
        <ele>6</ele>
        <time>2019-01-10T11:22:09.000Z</time>
      </trkpt>
      <trkpt lat="47.25898" lon="-2.34032">
        <ele>6</ele>
        <time>2019-01-10T11:22:12.000Z</time>
      </trkpt>
      <trkpt lat="47.25909" lon="-2.34">
        <ele>6</ele>
        <time>2019-01-10T11:22:16.000Z</time>
      </trkpt>
      <trkpt lat="47.25914" lon="-2.33984">
        <ele>6</ele>
        <time>2019-01-10T11:22:18.000Z</time>
      </trkpt>
      <trkpt lat="47.25917" lon="-2.33976">
        <ele>6</ele>
        <time>2019-01-10T11:22:19.000Z</time>
      </trkpt>
      <trkpt lat="47.25924" lon="-2.3396">
        <ele>6</ele>
        <time>2019-01-10T11:22:21.000Z</time>
      </trkpt>
      <trkpt lat="47.25931" lon="-2.33944">
        <ele>6</ele>
        <time>2019-01-10T11:22:23.000Z</time>
      </trkpt>
      <trkpt lat="47.25944" lon="-2.33925">
        <ele>6</ele>
        <time>2019-01-10T11:22:26.000Z</time>
      </trkpt>
      <trkpt lat="47.25948" lon="-2.33901">
        <ele>6</ele>
        <time>2019-01-10T11:22:29.000Z</time>
      </trkpt>
      <trkpt lat="47.25953" lon="-2.33888">
        <ele>6</ele>
        <time>2019-01-10T11:22:31.000Z</time>
      </trkpt>
      <trkpt lat="47.25956" lon="-2.33882">
        <ele>6</ele>
        <time>2019-01-10T11:22:32.000Z</time>
      </trkpt>
      <trkpt lat="47.25958" lon="-2.33876">
        <ele>5.1999998092651</ele>
        <time>2019-01-10T11:22:33.000Z</time>
      </trkpt>
      <trkpt lat="47.2596" lon="-2.33869">
        <ele>4.8000001907349</ele>
        <time>2019-01-10T11:22:34.000Z</time>
      </trkpt>
      <trkpt lat="47.25962" lon="-2.33862">
        <ele>4.4000000953674</ele>
        <time>2019-01-10T11:22:35.000Z</time>
      </trkpt>
      <trkpt lat="47.25964" lon="-2.33855">
        <ele>4</ele>
        <time>2019-01-10T11:22:36.000Z</time>
      </trkpt>
      <trkpt lat="47.25966" lon="-2.33848">
        <ele>4</ele>
        <time>2019-01-10T11:22:37.000Z</time>
      </trkpt>
      <trkpt lat="47.25976" lon="-2.33822">
        <ele>4</ele>
        <time>2019-01-10T11:22:41.000Z</time>
      </trkpt>
      <trkpt lat="47.25979" lon="-2.33807">
        <ele>4</ele>
        <time>2019-01-10T11:22:43.000Z</time>
      </trkpt>
      <trkpt lat="47.25997" lon="-2.33755">
        <ele>4</ele>
        <time>2019-01-10T11:22:50.000Z</time>
      </trkpt>
      <trkpt lat="47.26004" lon="-2.33733">
        <ele>4</ele>
        <time>2019-01-10T11:22:53.000Z</time>
      </trkpt>
      <trkpt lat="47.26012" lon="-2.33709">
        <ele>4</ele>
        <time>2019-01-10T11:22:56.000Z</time>
      </trkpt>
      <trkpt lat="47.26015" lon="-2.337">
        <ele>4</ele>
        <time>2019-01-10T11:22:57.000Z</time>
      </trkpt>
      <trkpt lat="47.26021" lon="-2.33668">
        <ele>4</ele>
        <time>2019-01-10T11:23:01.000Z</time>
      </trkpt>
      <trkpt lat="47.26024" lon="-2.33651">
        <ele>4</ele>
        <time>2019-01-10T11:23:03.000Z</time>
      </trkpt>
      <trkpt lat="47.26023" lon="-2.33635">
        <ele>4</ele>
        <time>2019-01-10T11:23:05.000Z</time>
      </trkpt>
      <trkpt lat="47.26021" lon="-2.33627">
        <ele>4</ele>
        <time>2019-01-10T11:23:06.000Z</time>
      </trkpt>
      <trkpt lat="47.26014" lon="-2.33595">
        <ele>4</ele>
        <time>2019-01-10T11:23:10.000Z</time>
      </trkpt>
      <trkpt lat="47.25998" lon="-2.33559">
        <ele>4</ele>
        <time>2019-01-10T11:23:15.000Z</time>
      </trkpt>
      <trkpt lat="47.25985" lon="-2.33531">
        <ele>4</ele>
        <time>2019-01-10T11:23:19.000Z</time>
      </trkpt>
      <trkpt lat="47.25977" lon="-2.33512">
        <ele>4</ele>
        <time>2019-01-10T11:23:22.000Z</time>
      </trkpt>
      <trkpt lat="47.25966" lon="-2.33495">
        <ele>4</ele>
        <time>2019-01-10T11:23:25.000Z</time>
      </trkpt>
      <trkpt lat="47.25953" lon="-2.33465">
        <ele>4</ele>
        <time>2019-01-10T11:23:29.000Z</time>
      </trkpt>
      <trkpt lat="47.25931" lon="-2.33416">
        <ele>4</ele>
        <time>2019-01-10T11:23:35.000Z</time>
      </trkpt>
      <trkpt lat="47.25918" lon="-2.33377">
        <ele>4</ele>
        <time>2019-01-10T11:23:40.000Z</time>
      </trkpt>
      <trkpt lat="47.25909" lon="-2.33328">
        <ele>4</ele>
        <time>2019-01-10T11:23:46.000Z</time>
      </trkpt>
      <trkpt lat="47.25905" lon="-2.33301">
        <ele>4</ele>
        <time>2019-01-10T11:23:49.000Z</time>
      </trkpt>
      <trkpt lat="47.25904" lon="-2.33283">
        <ele>4</ele>
        <time>2019-01-10T11:23:51.000Z</time>
      </trkpt>
      <trkpt lat="47.25904" lon="-2.33229">
        <ele>4</ele>
        <time>2019-01-10T11:23:57.000Z</time>
      </trkpt>
      <trkpt lat="47.25902" lon="-2.33184">
        <ele>4</ele>
        <time>2019-01-10T11:24:02.000Z</time>
      </trkpt>
      <trkpt lat="47.25895" lon="-2.33133">
        <ele>4</ele>
        <time>2019-01-10T11:24:08.000Z</time>
      </trkpt>
      <trkpt lat="47.25891" lon="-2.33117">
        <ele>4</ele>
        <time>2019-01-10T11:24:10.000Z</time>
      </trkpt>
      <trkpt lat="47.25883" lon="-2.33094">
        <ele>4</ele>
        <time>2019-01-10T11:24:13.000Z</time>
      </trkpt>
      <trkpt lat="47.2587" lon="-2.3305">
        <ele>4.4000000953674</ele>
        <time>2019-01-10T11:24:19.000Z</time>
      </trkpt>
      <trkpt lat="47.25869" lon="-2.33043">
        <ele>4.8000001907349</ele>
        <time>2019-01-10T11:24:20.000Z</time>
      </trkpt>
      <trkpt lat="47.25867" lon="-2.33037">
        <ele>5.1999998092651</ele>
        <time>2019-01-10T11:24:21.000Z</time>
      </trkpt>
      <trkpt lat="47.25865" lon="-2.33029">
        <ele>5.5999999046326</ele>
        <time>2019-01-10T11:24:22.000Z</time>
      </trkpt>
      <trkpt lat="47.25862" lon="-2.33023">
        <ele>6</ele>
        <time>2019-01-10T11:24:23.000Z</time>
      </trkpt>
      <trkpt lat="47.25855" lon="-2.33004">
        <ele>6</ele>
        <time>2019-01-10T11:24:26.000Z</time>
      </trkpt>
      <trkpt lat="47.25833" lon="-2.32968">
        <ele>6</ele>
        <time>2019-01-10T11:24:32.000Z</time>
      </trkpt>
      <trkpt lat="47.25829" lon="-2.32963">
        <ele>6.4000000953674</ele>
        <time>2019-01-10T11:24:33.000Z</time>
      </trkpt>
      <trkpt lat="47.25825" lon="-2.32958">
        <ele>6.8000001907349</ele>
        <time>2019-01-10T11:24:34.000Z</time>
      </trkpt>
      <trkpt lat="47.25821" lon="-2.32953">
        <ele>7.1999998092651</ele>
        <time>2019-01-10T11:24:35.000Z</time>
      </trkpt>
      <trkpt lat="47.25817" lon="-2.32948">
        <ele>8.1999998092651</ele>
        <time>2019-01-10T11:24:36.000Z</time>
      </trkpt>
      <trkpt lat="47.25813" lon="-2.32943">
        <ele>8.1999998092651</ele>
        <time>2019-01-10T11:24:37.000Z</time>
      </trkpt>
      <trkpt lat="47.25786" lon="-2.32906">
        <ele>8.1999998092651</ele>
        <time>2019-01-10T11:24:44.000Z</time>
      </trkpt>
      <trkpt lat="47.25769" lon="-2.3288">
        <ele>8.1999998092651</ele>
        <time>2019-01-10T11:24:49.000Z</time>
      </trkpt>
      <trkpt lat="47.25766" lon="-2.32875">
        <ele>8.1999998092651</ele>
        <time>2019-01-10T11:24:50.000Z</time>
      </trkpt>
      <trkpt lat="47.25753" lon="-2.32845">
        <ele>8.1999998092651</ele>
        <time>2019-01-10T11:24:55.000Z</time>
      </trkpt>
      <trkpt lat="47.2575" lon="-2.32838">
        <ele>8.6000003814697</ele>
        <time>2019-01-10T11:24:56.000Z</time>
      </trkpt>
      <trkpt lat="47.25748" lon="-2.32832">
        <ele>9</ele>
        <time>2019-01-10T11:24:57.000Z</time>
      </trkpt>
      <trkpt lat="47.25745" lon="-2.32825">
        <ele>9.3999996185303</ele>
        <time>2019-01-10T11:24:58.000Z</time>
      </trkpt>
      <trkpt lat="47.25742" lon="-2.32818">
        <ele>9.8000001907349</ele>
        <time>2019-01-10T11:24:59.000Z</time>
      </trkpt>
      <trkpt lat="47.2574" lon="-2.3281">
        <ele>10.199999809265</ele>
        <time>2019-01-10T11:25:00.000Z</time>
      </trkpt>
      <trkpt lat="47.25738" lon="-2.32802">
        <ele>10.199999809265</ele>
        <time>2019-01-10T11:25:01.000Z</time>
      </trkpt>
      <trkpt lat="47.25728" lon="-2.32737">
        <ele>10.199999809265</ele>
        <time>2019-01-10T11:25:09.000Z</time>
      </trkpt>
      <trkpt lat="47.25723" lon="-2.32701">
        <ele>10.199999809265</ele>
        <time>2019-01-10T11:25:13.000Z</time>
      </trkpt>
      <trkpt lat="47.25722" lon="-2.32692">
        <ele>10.199999809265</ele>
        <time>2019-01-10T11:25:14.000Z</time>
      </trkpt>
      <trkpt lat="47.25715" lon="-2.32628">
        <ele>10.199999809265</ele>
        <time>2019-01-10T11:25:21.000Z</time>
      </trkpt>
      <trkpt lat="47.257" lon="-2.32569">
        <ele>10.199999809265</ele>
        <time>2019-01-10T11:25:28.000Z</time>
      </trkpt>
      <trkpt lat="47.25692" lon="-2.32542">
        <ele>9.8000001907349</ele>
        <time>2019-01-10T11:25:31.000Z</time>
      </trkpt>
      <trkpt lat="47.25689" lon="-2.32532">
        <ele>9.3999996185303</ele>
        <time>2019-01-10T11:25:32.000Z</time>
      </trkpt>
      <trkpt lat="47.25686" lon="-2.32523">
        <ele>9</ele>
        <time>2019-01-10T11:25:33.000Z</time>
      </trkpt>
      <trkpt lat="47.25684" lon="-2.32514">
        <ele>8.6000003814697</ele>
        <time>2019-01-10T11:25:34.000Z</time>
      </trkpt>
      <trkpt lat="47.25681" lon="-2.32504">
        <ele>8.1999998092651</ele>
        <time>2019-01-10T11:25:35.000Z</time>
      </trkpt>
      <trkpt lat="47.25666" lon="-2.32456">
        <ele>8.1999998092651</ele>
        <time>2019-01-10T11:25:40.000Z</time>
      </trkpt>
      <trkpt lat="47.25664" lon="-2.32446">
        <ele>7.8000001907349</ele>
        <time>2019-01-10T11:25:41.000Z</time>
      </trkpt>
      <trkpt lat="47.25663" lon="-2.32437">
        <ele>7.4000000953674</ele>
        <time>2019-01-10T11:25:42.000Z</time>
      </trkpt>
      <trkpt lat="47.25661" lon="-2.32429">
        <ele>7</ele>
        <time>2019-01-10T11:25:43.000Z</time>
      </trkpt>
      <trkpt lat="47.25658" lon="-2.3242">
        <ele>6.5999999046326</ele>
        <time>2019-01-10T11:25:44.000Z</time>
      </trkpt>
      <trkpt lat="47.25657" lon="-2.32411">
        <ele>6.1999998092651</ele>
        <time>2019-01-10T11:25:45.000Z</time>
      </trkpt>
      <trkpt lat="47.25656" lon="-2.32383">
        <ele>6.1999998092651</ele>
        <time>2019-01-10T11:25:48.000Z</time>
      </trkpt>
      <trkpt lat="47.25654" lon="-2.32331">
        <ele>6.1999998092651</ele>
        <time>2019-01-10T11:25:54.000Z</time>
      </trkpt>
      <trkpt lat="47.25651" lon="-2.32299">
        <ele>6.5999999046326</ele>
        <time>2019-01-10T11:25:58.000Z</time>
      </trkpt>
      <trkpt lat="47.2565" lon="-2.32291">
        <ele>7</ele>
        <time>2019-01-10T11:25:59.000Z</time>
      </trkpt>
      <trkpt lat="47.2565" lon="-2.32283">
        <ele>7.4000000953674</ele>
        <time>2019-01-10T11:26:00.000Z</time>
      </trkpt>
      <trkpt lat="47.25649" lon="-2.32275">
        <ele>7.8000001907349</ele>
        <time>2019-01-10T11:26:01.000Z</time>
      </trkpt>
      <trkpt lat="47.25649" lon="-2.32267">
        <ele>8.3999996185303</ele>
        <time>2019-01-10T11:26:02.000Z</time>
      </trkpt>
      <trkpt lat="47.25648" lon="-2.32252">
        <ele>8.8000001907349</ele>
        <time>2019-01-10T11:26:04.000Z</time>
      </trkpt>
      <trkpt lat="47.25648" lon="-2.32245">
        <ele>9.1999998092651</ele>
        <time>2019-01-10T11:26:05.000Z</time>
      </trkpt>
      <trkpt lat="47.25647" lon="-2.32238">
        <ele>9.6000003814697</ele>
        <time>2019-01-10T11:26:06.000Z</time>
      </trkpt>
      <trkpt lat="47.25647" lon="-2.32231">
        <ele>10</ele>
        <time>2019-01-10T11:26:07.000Z</time>
      </trkpt>
      <trkpt lat="47.25647" lon="-2.32224">
        <ele>10.60000038147</ele>
        <time>2019-01-10T11:26:08.000Z</time>
      </trkpt>
      <trkpt lat="47.25646" lon="-2.32211">
        <ele>11</ele>
        <time>2019-01-10T11:26:10.000Z</time>
      </trkpt>
      <trkpt lat="47.25645" lon="-2.32204">
        <ele>11.39999961853</ele>
        <time>2019-01-10T11:26:11.000Z</time>
      </trkpt>
      <trkpt lat="47.25644" lon="-2.32198">
        <ele>11.800000190735</ele>
        <time>2019-01-10T11:26:12.000Z</time>
      </trkpt>
      <trkpt lat="47.25642" lon="-2.32191">
        <ele>12.199999809265</ele>
        <time>2019-01-10T11:26:13.000Z</time>
      </trkpt>
      <trkpt lat="47.25641" lon="-2.32184">
        <ele>12.800000190735</ele>
        <time>2019-01-10T11:26:14.000Z</time>
      </trkpt>
      <trkpt lat="47.25625" lon="-2.32128">
        <ele>12.800000190735</ele>
        <time>2019-01-10T11:26:22.000Z</time>
      </trkpt>
      <trkpt lat="47.25618" lon="-2.32109">
        <ele>13.199999809265</ele>
        <time>2019-01-10T11:26:25.000Z</time>
      </trkpt>
      <trkpt lat="47.25616" lon="-2.32102">
        <ele>13.60000038147</ele>
        <time>2019-01-10T11:26:26.000Z</time>
      </trkpt>
      <trkpt lat="47.25614" lon="-2.32095">
        <ele>14</ele>
        <time>2019-01-10T11:26:27.000Z</time>
      </trkpt>
      <trkpt lat="47.25611" lon="-2.32088">
        <ele>14.39999961853</ele>
        <time>2019-01-10T11:26:28.000Z</time>
      </trkpt>
      <trkpt lat="47.25609" lon="-2.32082">
        <ele>15</ele>
        <time>2019-01-10T11:26:29.000Z</time>
      </trkpt>
      <trkpt lat="47.25598" lon="-2.32055">
        <ele>15</ele>
        <time>2019-01-10T11:26:33.000Z</time>
      </trkpt>
      <trkpt lat="47.25582" lon="-2.32009">
        <ele>15</ele>
        <time>2019-01-10T11:26:40.000Z</time>
      </trkpt>
      <trkpt lat="47.25579" lon="-2.31996">
        <ele>15</ele>
        <time>2019-01-10T11:26:42.000Z</time>
      </trkpt>
      <trkpt lat="47.25573" lon="-2.31969">
        <ele>15</ele>
        <time>2019-01-10T11:26:46.000Z</time>
      </trkpt>
      <trkpt lat="47.25569" lon="-2.31949">
        <ele>15</ele>
        <time>2019-01-10T11:26:49.000Z</time>
      </trkpt>
      <trkpt lat="47.25567" lon="-2.31937">
        <ele>15</ele>
        <time>2019-01-10T11:26:51.000Z</time>
      </trkpt>
      <trkpt lat="47.25563" lon="-2.31917">
        <ele>15</ele>
        <time>2019-01-10T11:26:56.000Z</time>
      </trkpt>
      <trkpt lat="47.25562" lon="-2.31915">
        <ele>15</ele>
        <time>2019-01-10T11:26:57.000Z</time>
      </trkpt>
      <trkpt lat="47.25556" lon="-2.31915">
        <ele>15.39999961853</ele>
        <time>2019-01-10T11:26:59.000Z</time>
      </trkpt>
      <trkpt lat="47.25553" lon="-2.31917">
        <ele>15.800000190735</ele>
        <time>2019-01-10T11:27:00.000Z</time>
      </trkpt>
      <trkpt lat="47.25551" lon="-2.31918">
        <ele>16.200000762939</ele>
        <time>2019-01-10T11:27:01.000Z</time>
      </trkpt>
      <trkpt lat="47.25548" lon="-2.31917">
        <ele>16.60000038147</ele>
        <time>2019-01-10T11:27:02.000Z</time>
      </trkpt>
      <trkpt lat="47.25546" lon="-2.31916">
        <ele>17</ele>
        <time>2019-01-10T11:27:03.000Z</time>
      </trkpt>
      <trkpt lat="47.25543" lon="-2.31909">
        <ele>17</ele>
        <time>2019-01-10T11:27:06.000Z</time>
      </trkpt>
      <trkpt lat="47.25542" lon="-2.31907">
        <ele>17</ele>
        <time>2019-01-10T11:27:07.000Z</time>
      </trkpt>
      <trkpt lat="47.2554" lon="-2.31898">
        <ele>17</ele>
        <time>2019-01-10T11:27:11.000Z</time>
      </trkpt>
      <trkpt lat="47.25539" lon="-2.31897">
        <ele>17</ele>
        <time>2019-01-10T11:27:12.000Z</time>
      </trkpt>
      <trkpt lat="47.25539" lon="-2.31896">
        <ele>17</ele>
        <time>2019-01-10T11:27:13.000Z</time>
      </trkpt>
      <trkpt lat="47.25534" lon="-2.31895">
        <ele>19</ele>
        <time>2019-01-10T11:34:28.000Z</time>
      </trkpt>
      <trkpt lat="47.25532" lon="-2.31895">
        <ele>19</ele>
        <time>2019-01-10T11:34:29.000Z</time>
      </trkpt>
      <trkpt lat="47.25523" lon="-2.31888">
        <ele>19</ele>
        <time>2019-01-10T11:34:34.000Z</time>
      </trkpt>
      <trkpt lat="47.25521" lon="-2.31868">
        <ele>19</ele>
        <time>2019-01-10T11:34:39.000Z</time>
      </trkpt>
      <trkpt lat="47.25515" lon="-2.31849">
        <ele>19</ele>
        <time>2019-01-10T11:34:44.000Z</time>
      </trkpt>
      <trkpt lat="47.25513" lon="-2.31846">
        <ele>19</ele>
        <time>2019-01-10T11:34:45.000Z</time>
      </trkpt>
      <trkpt lat="47.25509" lon="-2.31836">
        <ele>19</ele>
        <time>2019-01-10T11:34:48.000Z</time>
      </trkpt>
      <trkpt lat="47.25511" lon="-2.3183">
        <ele>19</ele>
        <time>2019-01-10T11:34:50.000Z</time>
      </trkpt>
      <trkpt lat="47.25516" lon="-2.31829">
        <ele>19</ele>
        <time>2019-01-10T11:34:52.000Z</time>
      </trkpt>
      <trkpt lat="47.25522" lon="-2.31826">
        <ele>19</ele>
        <time>2019-01-10T11:34:54.000Z</time>
      </trkpt>
      <trkpt lat="47.25527" lon="-2.31814">
        <ele>19</ele>
        <time>2019-01-10T11:34:58.000Z</time>
      </trkpt>
      <trkpt lat="47.25534" lon="-2.31808">
        <ele>19</ele>
        <time>2019-01-10T11:35:01.000Z</time>
      </trkpt>
      <trkpt lat="47.25537" lon="-2.31807">
        <ele>19</ele>
        <time>2019-01-10T11:35:02.000Z</time>
      </trkpt>
      <trkpt lat="47.25558" lon="-2.31799">
        <ele>19</ele>
        <time>2019-01-10T11:35:07.000Z</time>
      </trkpt>
      <trkpt lat="47.25562" lon="-2.31797">
        <ele>19</ele>
        <time>2019-01-10T11:35:08.000Z</time>
      </trkpt>
      <trkpt lat="47.25567" lon="-2.31787">
        <ele>19</ele>
        <time>2019-01-10T11:35:10.000Z</time>
      </trkpt>
      <trkpt lat="47.25573" lon="-2.31776">
        <ele>19</ele>
        <time>2019-01-10T11:35:12.000Z</time>
      </trkpt>
      <trkpt lat="47.25583" lon="-2.3176">
        <ele>19</ele>
        <time>2019-01-10T11:35:15.000Z</time>
      </trkpt>
      <trkpt lat="47.25589" lon="-2.31746">
        <ele>18.60000038147</ele>
        <time>2019-01-10T11:35:17.000Z</time>
      </trkpt>
      <trkpt lat="47.25591" lon="-2.31739">
        <ele>18.200000762939</ele>
        <time>2019-01-10T11:35:18.000Z</time>
      </trkpt>
      <trkpt lat="47.25592" lon="-2.31732">
        <ele>17.200000762939</ele>
        <time>2019-01-10T11:35:19.000Z</time>
      </trkpt>
      <trkpt lat="47.25594" lon="-2.31725">
        <ele>16.799999237061</ele>
        <time>2019-01-10T11:35:20.000Z</time>
      </trkpt>
      <trkpt lat="47.25602" lon="-2.31712">
        <ele>16.799999237061</ele>
        <time>2019-01-10T11:35:23.000Z</time>
      </trkpt>
      <trkpt lat="47.2562" lon="-2.31709">
        <ele>16.799999237061</ele>
        <time>2019-01-10T11:35:27.000Z</time>
      </trkpt>
      <trkpt lat="47.25629" lon="-2.31707">
        <ele>16.799999237061</ele>
        <time>2019-01-10T11:35:29.000Z</time>
      </trkpt>
      <trkpt lat="47.25634" lon="-2.31705">
        <ele>16.799999237061</ele>
        <time>2019-01-10T11:35:30.000Z</time>
      </trkpt>
      <trkpt lat="47.25649" lon="-2.31695">
        <ele>16.799999237061</ele>
        <time>2019-01-10T11:35:33.000Z</time>
      </trkpt>
      <trkpt lat="47.25657" lon="-2.31681">
        <ele>16.39999961853</ele>
        <time>2019-01-10T11:35:35.000Z</time>
      </trkpt>
      <trkpt lat="47.2566" lon="-2.31672">
        <ele>16</ele>
        <time>2019-01-10T11:35:36.000Z</time>
      </trkpt>
      <trkpt lat="47.25663" lon="-2.31666">
        <ele>15.60000038147</ele>
        <time>2019-01-10T11:35:37.000Z</time>
      </trkpt>
      <trkpt lat="47.25668" lon="-2.31663">
        <ele>15.199999809265</ele>
        <time>2019-01-10T11:35:38.000Z</time>
      </trkpt>
      <trkpt lat="47.25674" lon="-2.31664">
        <ele>14.800000190735</ele>
        <time>2019-01-10T11:35:39.000Z</time>
      </trkpt>
      <trkpt lat="47.25682" lon="-2.31672">
        <ele>14.800000190735</ele>
        <time>2019-01-10T11:35:41.000Z</time>
      </trkpt>
      <trkpt lat="47.25688" lon="-2.31675">
        <ele>14.800000190735</ele>
        <time>2019-01-10T11:35:42.000Z</time>
      </trkpt>
      <trkpt lat="47.25693" lon="-2.31677">
        <ele>14.39999961853</ele>
        <time>2019-01-10T11:35:43.000Z</time>
      </trkpt>
      <trkpt lat="47.25699" lon="-2.31679">
        <ele>13.60000038147</ele>
        <time>2019-01-10T11:35:44.000Z</time>
      </trkpt>
      <trkpt lat="47.25705" lon="-2.31682">
        <ele>13</ele>
        <time>2019-01-10T11:35:45.000Z</time>
      </trkpt>
      <trkpt lat="47.2571" lon="-2.31686">
        <ele>12.60000038147</ele>
        <time>2019-01-10T11:35:46.000Z</time>
      </trkpt>
      <trkpt lat="47.25715" lon="-2.3169">
        <ele>12.60000038147</ele>
        <time>2019-01-10T11:35:47.000Z</time>
      </trkpt>
      <trkpt lat="47.25726" lon="-2.31697">
        <ele>12.60000038147</ele>
        <time>2019-01-10T11:35:49.000Z</time>
      </trkpt>
      <trkpt lat="47.25737" lon="-2.31694">
        <ele>12.60000038147</ele>
        <time>2019-01-10T11:35:51.000Z</time>
      </trkpt>
      <trkpt lat="47.25747" lon="-2.31687">
        <ele>12.60000038147</ele>
        <time>2019-01-10T11:35:53.000Z</time>
      </trkpt>
      <trkpt lat="47.25762" lon="-2.31675">
        <ele>12.60000038147</ele>
        <time>2019-01-10T11:35:56.000Z</time>
      </trkpt>
      <trkpt lat="47.25784" lon="-2.3166">
        <ele>12.60000038147</ele>
        <time>2019-01-10T11:36:01.000Z</time>
      </trkpt>
      <trkpt lat="47.25814" lon="-2.31638">
        <ele>12.60000038147</ele>
        <time>2019-01-10T11:36:08.000Z</time>
      </trkpt>
      <trkpt lat="47.25834" lon="-2.31623">
        <ele>12.60000038147</ele>
        <time>2019-01-10T11:36:13.000Z</time>
      </trkpt>
      <trkpt lat="47.25845" lon="-2.31611">
        <ele>12.60000038147</ele>
        <time>2019-01-10T11:36:16.000Z</time>
      </trkpt>
      <trkpt lat="47.25854" lon="-2.31602">
        <ele>12.60000038147</ele>
        <time>2019-01-10T11:36:18.000Z</time>
      </trkpt>
      <trkpt lat="47.25871" lon="-2.31584">
        <ele>12.60000038147</ele>
        <time>2019-01-10T11:36:22.000Z</time>
      </trkpt>
      <trkpt lat="47.25889" lon="-2.31559">
        <ele>12.60000038147</ele>
        <time>2019-01-10T11:36:26.000Z</time>
      </trkpt>
      <trkpt lat="47.25892" lon="-2.31551">
        <ele>12.199999809265</ele>
        <time>2019-01-10T11:36:27.000Z</time>
      </trkpt>
      <trkpt lat="47.25895" lon="-2.31543">
        <ele>11.800000190735</ele>
        <time>2019-01-10T11:36:28.000Z</time>
      </trkpt>
      <trkpt lat="47.25898" lon="-2.31535">
        <ele>11.39999961853</ele>
        <time>2019-01-10T11:36:29.000Z</time>
      </trkpt>
      <trkpt lat="47.259" lon="-2.31528">
        <ele>11</ele>
        <time>2019-01-10T11:36:30.000Z</time>
      </trkpt>
      <trkpt lat="47.25903" lon="-2.31522">
        <ele>10.60000038147</ele>
        <time>2019-01-10T11:36:31.000Z</time>
      </trkpt>
      <trkpt lat="47.25911" lon="-2.31514">
        <ele>10.199999809265</ele>
        <time>2019-01-10T11:36:34.000Z</time>
      </trkpt>
      <trkpt lat="47.25913" lon="-2.3151">
        <ele>9.8000001907349</ele>
        <time>2019-01-10T11:36:35.000Z</time>
      </trkpt>
      <trkpt lat="47.25914" lon="-2.31508">
        <ele>9.3999996185303</ele>
        <time>2019-01-10T11:36:36.000Z</time>
      </trkpt>
      <trkpt lat="47.25913" lon="-2.31506">
        <ele>8.8000001907349</ele>
        <time>2019-01-10T11:36:37.000Z</time>
      </trkpt>
      <trkpt lat="47.25913" lon="-2.31505">
        <ele>8.3999996185303</ele>
        <time>2019-01-10T11:36:38.000Z</time>
      </trkpt>
      <trkpt lat="47.25915" lon="-2.31497">
        <ele>8.3999996185303</ele>
        <time>2019-01-10T11:36:41.000Z</time>
      </trkpt>
      <trkpt lat="47.25921" lon="-2.31477">
        <ele>8.3999996185303</ele>
        <time>2019-01-10T11:36:45.000Z</time>
      </trkpt>
      <trkpt lat="47.25923" lon="-2.31471">
        <ele>8.3999996185303</ele>
        <time>2019-01-10T11:36:46.000Z</time>
      </trkpt>
      <trkpt lat="47.25929" lon="-2.31461">
        <ele>8.3999996185303</ele>
        <time>2019-01-10T11:36:48.000Z</time>
      </trkpt>
      <trkpt lat="47.25937" lon="-2.31458">
        <ele>8.3999996185303</ele>
        <time>2019-01-10T11:36:50.000Z</time>
      </trkpt>
      <trkpt lat="47.25949" lon="-2.31467">
        <ele>8.3999996185303</ele>
        <time>2019-01-10T11:36:53.000Z</time>
      </trkpt>
      <trkpt lat="47.25957" lon="-2.31474">
        <ele>8.3999996185303</ele>
        <time>2019-01-10T11:36:55.000Z</time>
      </trkpt>
      <trkpt lat="47.25971" lon="-2.31493">
        <ele>8.3999996185303</ele>
        <time>2019-01-10T11:36:59.000Z</time>
      </trkpt>
      <trkpt lat="47.25974" lon="-2.31498">
        <ele>8.3999996185303</ele>
        <time>2019-01-10T11:37:00.000Z</time>
      </trkpt>
      <trkpt lat="47.25982" lon="-2.31517">
        <ele>8.3999996185303</ele>
        <time>2019-01-10T11:37:03.000Z</time>
      </trkpt>
      <trkpt lat="47.25985" lon="-2.31522">
        <ele>8</ele>
        <time>2019-01-10T11:37:04.000Z</time>
      </trkpt>
      <trkpt lat="47.25989" lon="-2.31528">
        <ele>7.5999999046326</ele>
        <time>2019-01-10T11:37:05.000Z</time>
      </trkpt>
      <trkpt lat="47.25992" lon="-2.31535">
        <ele>7.1999998092651</ele>
        <time>2019-01-10T11:37:06.000Z</time>
      </trkpt>
      <trkpt lat="47.25995" lon="-2.3154">
        <ele>6.5999999046326</ele>
        <time>2019-01-10T11:37:07.000Z</time>
      </trkpt>
      <trkpt lat="47.25998" lon="-2.31545">
        <ele>6.1999998092651</ele>
        <time>2019-01-10T11:37:08.000Z</time>
      </trkpt>
      <trkpt lat="47.26001" lon="-2.31551">
        <ele>6.1999998092651</ele>
        <time>2019-01-10T11:37:09.000Z</time>
      </trkpt>
      <trkpt lat="47.26017" lon="-2.31564">
        <ele>6.1999998092651</ele>
        <time>2019-01-10T11:37:13.000Z</time>
      </trkpt>
      <trkpt lat="47.2602" lon="-2.31561">
        <ele>6.1999998092651</ele>
        <time>2019-01-10T11:37:14.000Z</time>
      </trkpt>
      <trkpt lat="47.26027" lon="-2.31551">
        <ele>6.1999998092651</ele>
        <time>2019-01-10T11:37:16.000Z</time>
      </trkpt>
      <trkpt lat="47.26031" lon="-2.3154">
        <ele>6.1999998092651</ele>
        <time>2019-01-10T11:37:18.000Z</time>
      </trkpt>
      <trkpt lat="47.26038" lon="-2.31532">
        <ele>6.1999998092651</ele>
        <time>2019-01-10T11:37:21.000Z</time>
      </trkpt>
      <trkpt lat="47.26052" lon="-2.31533">
        <ele>6.1999998092651</ele>
        <time>2019-01-10T11:37:24.000Z</time>
      </trkpt>
      <trkpt lat="47.26061" lon="-2.3154">
        <ele>6.1999998092651</ele>
        <time>2019-01-10T11:37:27.000Z</time>
      </trkpt>
      <trkpt lat="47.26068" lon="-2.31558">
        <ele>6.1999998092651</ele>
        <time>2019-01-10T11:37:30.000Z</time>
      </trkpt>
      <trkpt lat="47.26072" lon="-2.31569">
        <ele>6.1999998092651</ele>
        <time>2019-01-10T11:37:32.000Z</time>
      </trkpt>
      <trkpt lat="47.26084" lon="-2.31582">
        <ele>6.1999998092651</ele>
        <time>2019-01-10T11:37:36.000Z</time>
      </trkpt>
      <trkpt lat="47.26093" lon="-2.31593">
        <ele>6.1999998092651</ele>
        <time>2019-01-10T11:37:39.000Z</time>
      </trkpt>
      <trkpt lat="47.26096" lon="-2.31598">
        <ele>6.1999998092651</ele>
        <time>2019-01-10T11:37:40.000Z</time>
      </trkpt>
      <trkpt lat="47.26105" lon="-2.31613">
        <ele>6.1999998092651</ele>
        <time>2019-01-10T11:37:43.000Z</time>
      </trkpt>
      <trkpt lat="47.26109" lon="-2.31616">
        <ele>5.8000001907349</ele>
        <time>2019-01-10T11:37:44.000Z</time>
      </trkpt>
      <trkpt lat="47.26114" lon="-2.31617">
        <ele>5.4000000953674</ele>
        <time>2019-01-10T11:37:45.000Z</time>
      </trkpt>
      <trkpt lat="47.2612" lon="-2.31617">
        <ele>5</ele>
        <time>2019-01-10T11:37:46.000Z</time>
      </trkpt>
      <trkpt lat="47.26125" lon="-2.31616">
        <ele>4.5999999046326</ele>
        <time>2019-01-10T11:37:47.000Z</time>
      </trkpt>
      <trkpt lat="47.2613" lon="-2.31615">
        <ele>4.1999998092651</ele>
        <time>2019-01-10T11:37:48.000Z</time>
      </trkpt>
      <trkpt lat="47.26135" lon="-2.31614">
        <ele>4.1999998092651</ele>
        <time>2019-01-10T11:37:49.000Z</time>
      </trkpt>
      <trkpt lat="47.26149" lon="-2.3161">
        <ele>4.1999998092651</ele>
        <time>2019-01-10T11:37:52.000Z</time>
      </trkpt>
      <trkpt lat="47.26164" lon="-2.31604">
        <ele>4.1999998092651</ele>
        <time>2019-01-10T11:37:55.000Z</time>
      </trkpt>
      <trkpt lat="47.26191" lon="-2.31594">
        <ele>4.1999998092651</ele>
        <time>2019-01-10T11:38:01.000Z</time>
      </trkpt>
      <trkpt lat="47.26196" lon="-2.31593">
        <ele>4.1999998092651</ele>
        <time>2019-01-10T11:38:02.000Z</time>
      </trkpt>
      <trkpt lat="47.26218" lon="-2.31591">
        <ele>4.1999998092651</ele>
        <time>2019-01-10T11:38:07.000Z</time>
      </trkpt>
      <trkpt lat="47.26222" lon="-2.31593">
        <ele>4.1999998092651</ele>
        <time>2019-01-10T11:38:08.000Z</time>
      </trkpt>
      <trkpt lat="47.26243" lon="-2.31608">
        <ele>4.1999998092651</ele>
        <time>2019-01-10T11:38:14.000Z</time>
      </trkpt>
      <trkpt lat="47.26259" lon="-2.31632">
        <ele>4.1999998092651</ele>
        <time>2019-01-10T11:38:19.000Z</time>
      </trkpt>
      <trkpt lat="47.26277" lon="-2.31672">
        <ele>4.1999998092651</ele>
        <time>2019-01-10T11:38:26.000Z</time>
      </trkpt>
      <trkpt lat="47.26286" lon="-2.31688">
        <ele>4.1999998092651</ele>
        <time>2019-01-10T11:38:29.000Z</time>
      </trkpt>
      <trkpt lat="47.26299" lon="-2.31708">
        <ele>4.1999998092651</ele>
        <time>2019-01-10T11:38:33.000Z</time>
      </trkpt>
      <trkpt lat="47.26311" lon="-2.31712">
        <ele>4.1999998092651</ele>
        <time>2019-01-10T11:38:36.000Z</time>
      </trkpt>
      <trkpt lat="47.26327" lon="-2.31705">
        <ele>4.1999998092651</ele>
        <time>2019-01-10T11:38:40.000Z</time>
      </trkpt>
      <trkpt lat="47.2633" lon="-2.31703">
        <ele>4.1999998092651</ele>
        <time>2019-01-10T11:38:41.000Z</time>
      </trkpt>
      <trkpt lat="47.26332" lon="-2.31698">
        <ele>4.1999998092651</ele>
        <time>2019-01-10T11:38:42.000Z</time>
      </trkpt>
      <trkpt lat="47.26335" lon="-2.31689">
        <ele>4.1999998092651</ele>
        <time>2019-01-10T11:38:44.000Z</time>
      </trkpt>
      <trkpt lat="47.26346" lon="-2.31685">
        <ele>4.1999998092651</ele>
        <time>2019-01-10T11:38:47.000Z</time>
      </trkpt>
      <trkpt lat="47.26349" lon="-2.31683">
        <ele>4.1999998092651</ele>
        <time>2019-01-10T11:38:48.000Z</time>
      </trkpt>
      <trkpt lat="47.26356" lon="-2.3168">
        <ele>4.5999999046326</ele>
        <time>2019-01-10T11:38:50.000Z</time>
      </trkpt>
      <trkpt lat="47.26359" lon="-2.31679">
        <ele>5</ele>
        <time>2019-01-10T11:38:51.000Z</time>
      </trkpt>
      <trkpt lat="47.26363" lon="-2.31677">
        <ele>5.4000000953674</ele>
        <time>2019-01-10T11:38:52.000Z</time>
      </trkpt>
      <trkpt lat="47.26366" lon="-2.31675">
        <ele>5.8000001907349</ele>
        <time>2019-01-10T11:38:53.000Z</time>
      </trkpt>
      <trkpt lat="47.2637" lon="-2.31675">
        <ele>6.1999998092651</ele>
        <time>2019-01-10T11:38:54.000Z</time>
      </trkpt>
      <trkpt lat="47.26388" lon="-2.31666">
        <ele>6.1999998092651</ele>
        <time>2019-01-10T11:38:59.000Z</time>
      </trkpt>
      <trkpt lat="47.26408" lon="-2.31655">
        <ele>6.1999998092651</ele>
        <time>2019-01-10T11:39:05.000Z</time>
      </trkpt>
      <trkpt lat="47.26411" lon="-2.3165">
        <ele>6.1999998092651</ele>
        <time>2019-01-10T11:39:06.000Z</time>
      </trkpt>
      <trkpt lat="47.26412" lon="-2.3164">
        <ele>6.1999998092651</ele>
        <time>2019-01-10T11:39:08.000Z</time>
      </trkpt>
      <trkpt lat="47.26412" lon="-2.31616">
        <ele>6.1999998092651</ele>
        <time>2019-01-10T11:39:13.000Z</time>
      </trkpt>
      <trkpt lat="47.26412" lon="-2.316">
        <ele>6.1999998092651</ele>
        <time>2019-01-10T11:39:16.000Z</time>
      </trkpt>
      <trkpt lat="47.26411" lon="-2.31595">
        <ele>6.5999999046326</ele>
        <time>2019-01-10T11:39:17.000Z</time>
      </trkpt>
      <trkpt lat="47.26412" lon="-2.31591">
        <ele>7</ele>
        <time>2019-01-10T11:39:18.000Z</time>
      </trkpt>
      <trkpt lat="47.26412" lon="-2.31586">
        <ele>7.5999999046326</ele>
        <time>2019-01-10T11:39:19.000Z</time>
      </trkpt>
      <trkpt lat="47.26413" lon="-2.31581">
        <ele>8</ele>
        <time>2019-01-10T11:39:20.000Z</time>
      </trkpt>
      <trkpt lat="47.26413" lon="-2.31576">
        <ele>8.3999996185303</ele>
        <time>2019-01-10T11:39:21.000Z</time>
      </trkpt>
      <trkpt lat="47.26413" lon="-2.31563">
        <ele>8.3999996185303</ele>
        <time>2019-01-10T11:39:24.000Z</time>
      </trkpt>
      <trkpt lat="47.26415" lon="-2.31554">
        <ele>8.3999996185303</ele>
        <time>2019-01-10T11:39:27.000Z</time>
      </trkpt>
      <trkpt lat="47.26417" lon="-2.31553">
        <ele>8.3999996185303</ele>
        <time>2019-01-10T11:39:28.000Z</time>
      </trkpt>
      <trkpt lat="47.26421" lon="-2.31555">
        <ele>8.3999996185303</ele>
        <time>2019-01-10T11:39:31.000Z</time>
      </trkpt>
      <trkpt lat="47.26421" lon="-2.31555">
        <ele>8.3999996185303</ele>
        <time>2019-01-10T11:39:32.000Z</time>
      </trkpt>
    </trkseg>
  </trk>
</gpx>